| time (UTC) | temp C | wind direction | speed KPH | gust KPH | rain 1hr cm | rain 24hr cm | rain mn cm | humidity % | barometer mb |
| 20260906233934 | 16 | 91 | 0.0 | 3.2 | 0.00 | 0.00 | 0.00 | 77 | 1017.0 |
| 20260906233928 | 16 | 109 | 0.0 | 3.2 | 0.00 | 0.00 | 0.00 | 77 | 1017.0 |
| 20260906233902 | 16 | 126 | 1.6 | 3.2 | 0.00 | 0.00 | 0.00 | 77 | 1017.0 |
| 20260906233846 | 16 | 137 | 1.6 | 3.2 | 0.00 | 0.00 | 0.00 | 77 | 1017.0 |
| 20260906233830 | 16 | 143 | 0.0 | 1.6 | 0.00 | 0.00 | 0.00 | 77 | 1017.0 |
| 20260906233806 | 16 | 118 | 0.0 | 1.6 | 0.00 | 0.00 | 0.00 | 77 | 1017.0 |
| 20260906233750 | 16 | 146 | 0.0 | 1.6 | 0.00 | 0.00 | 0.00 | 77 | 1017.0 |
| 20260906233734 | 16 | 133 | 1.6 | 1.6 | 0.00 | 0.00 | 0.00 | 77 | 1017.0 |
| 20260906233721 | 16 | 109 | 1.6 | 1.6 | 0.00 | 0.00 | 0.00 | 77 | 1017.0 |
| 20260906233703 | 16 | 118 | 1.6 | 3.2 | 0.00 | 0.00 | 0.00 | 77 | 1017.0 |
| 20260906233645 | 16 | 122 | 0.0 | 3.2 | 0.00 | 0.00 | 0.00 | 77 | 1017.0 |
| 20260906233630 | 16 | 142 | 0.0 | 3.2 | 0.00 | 0.00 | 0.00 | 77 | 1017.0 |
| 20260906233614 | 16 | 89 | 0.0 | 3.2 | 0.00 | 0.00 | 0.00 | 77 | 1017.0 |
| 20260906233606 | 16 | 131 | 1.6 | 3.2 | 0.00 | 0.00 | 0.00 | 77 | 1017.0 |
| 20260906233558 | 16 | 131 | 1.6 | 3.2 | 0.00 | 0.00 | 0.00 | 77 | 1017.0 |
| 20260906233541 | 16 | 105 | 1.6 | 3.2 | 0.00 | 0.00 | 0.00 | 77 | 1017.0 |
| 20260906233526 | 16 | 97 | 0.0 | 6.4 | 0.00 | 0.00 | 0.00 | 77 | 1017.0 |
| 20260906233512 | 16 | 110 | 1.6 | 6.4 | 0.00 | 0.00 | 0.00 | 77 | 1017.0 |
| 20260906233453 | 16 | 116 | 0.0 | 6.4 | 0.00 | 0.00 | 0.00 | 77 | 1017.0 |
| 20260906233439 | 16 | 109 | 1.6 | 6.4 | 0.00 | 0.00 | 0.00 | 77 | 1017.0 |
| 20260906233422 | 16 | 108 | 1.6 | 6.4 | 0.00 | 0.00 | 0.00 | 76 | 1017.0 |
| 20260906233407 | 16 | 175 | 4.8 | 6.4 | 0.00 | 0.00 | 0.00 | 76 | 1017.0 |
| 20260906233342 | 16 | 136 | 3.2 | 4.8 | 0.00 | 0.00 | 0.00 | 76 | 1017.0 |
| 20260906233326 | 16 | 135 | 3.2 | 4.8 | 0.00 | 0.00 | 0.00 | 77 | 1017.0 |
| 20260906233310 | 16 | 125 | 1.6 | 1.6 | 0.00 | 0.00 | 0.00 | 77 | 1017.0 |
| 20260906233305 | 16 | 116 | 0.0 | 3.2 | 0.00 | 0.00 | 0.00 | 77 | 1017.0 |
| 20260906233246 | 16 | 140 | 1.6 | 3.2 | 0.00 | 0.00 | 0.00 | 77 | 1017.0 |
| 20260906233223 | 16 | 141 | 1.6 | 3.2 | 0.00 | 0.00 | 0.00 | 77 | 1017.0 |
| 20260906233206 | 16 | 127 | 1.6 | 3.2 | 0.00 | 0.00 | 0.00 | 77 | 1017.0 |
| 20260906233151 | 16 | 130 | 1.6 | 3.2 | 0.00 | 0.00 | 0.00 | 77 | 1017.0 |
| 20260906233147 | 16 | 156 | 3.2 | 3.2 | 0.00 | 0.00 | 0.00 | 77 | 1017.0 |
| 20260906233119 | 16 | 150 | 1.6 | 3.2 | 0.00 | 0.00 | 0.00 | 77 | 1017.0 |
| 20260906233113 | 16 | 117 | 1.6 | 3.2 | 0.00 | 0.00 | 0.00 | 77 | 1017.0 |
| 20260906233057 | 16 | 177 | 1.6 | 3.2 | 0.00 | 0.00 | 0.00 | 77 | 1017.0 |
| 20260906233030 | 16 | 106 | 0.0 | 3.2 | 0.00 | 0.00 | 0.00 | 77 | 1017.0 |
| 20260906233022 | 16 | 108 | 1.6 | 3.2 | 0.00 | 0.00 | 0.00 | 77 | 1017.0 |
| 20260906233015 | 16 | 108 | 1.6 | 3.2 | 0.00 | 0.00 | 0.00 | 76 | 1017.0 |
| 20260906233007 | 16 | 141 | 1.6 | 3.2 | 0.00 | 0.00 | 0.00 | 76 | 1017.0 |
| 20260906232959 | 16 | 141 | 1.6 | 3.2 | 0.00 | 0.00 | 0.00 | 76 | 1017.0 |
| 20260906232953 | 16 | 144 | 1.6 | 3.2 | 0.00 | 0.00 | 0.00 | 76 | 1017.0 |
| 20260906232918 | 16 | 133 | 1.6 | 3.2 | 0.00 | 0.00 | 0.00 | 76 | 1017.0 |
| 20260906232913 | 16 | 109 | 0.0 | 1.6 | 0.00 | 0.00 | 0.00 | 76 | 1017.0 |
| 20260906232846 | 16 | 120 | 0.0 | 1.6 | 0.00 | 0.00 | 0.00 | 76 | 1017.0 |
| 20260906232839 | 16 | 120 | 0.0 | 1.6 | 0.00 | 0.00 | 0.00 | 76 | 1017.0 |
| 20260906232814 | 16 | 120 | 0.0 | 4.8 | 0.00 | 0.00 | 0.00 | 76 | 1017.0 |
| 20260906232801 | 16 | 137 | 1.6 | 4.8 | 0.00 | 0.00 | 0.00 | 76 | 1017.0 |
| 20260906232742 | 16 | 140 | 0.0 | 4.8 | 0.00 | 0.00 | 0.00 | 76 | 1017.0 |
| 20260906232727 | 16 | 145 | 1.6 | 9.7 | 0.00 | 0.00 | 0.00 | 76 | 1017.0 |
| 20260906232710 | 16 | 137 | 1.6 | 9.7 | 0.00 | 0.00 | 0.00 | 76 | 1017.0 |
| 20260906232702 | 16 | 103 | 3.2 | 9.7 | 0.00 | 0.00 | 0.00 | 76 | 1017.0 |
| 20260906232654 | 16 | 103 | 3.2 | 9.7 | 0.00 | 0.00 | 0.00 | 76 | 1017.0 |
| 20260906232639 | 16 | 113 | 1.6 | 9.7 | 0.00 | 0.00 | 0.00 | 76 | 1017.0 |
| 20260906232623 | 16 | 139 | 3.2 | 9.7 | 0.00 | 0.00 | 0.00 | 76 | 1017.0 |
| 20260906232614 | 16 | 138 | 4.8 | 9.7 | 0.00 | 0.00 | 0.00 | 76 | 1017.0 |
| 20260906232606 | 16 | 138 | 4.8 | 9.7 | 0.00 | 0.00 | 0.00 | 76 | 1018.0 |
| 20260906232601 | 16 | 145 | 3.2 | 4.8 | 0.00 | 0.00 | 0.00 | 76 | 1018.0 |
| 20260906232535 | 16 | 107 | 1.6 | 4.8 | 0.00 | 0.00 | 0.00 | 76 | 1018.0 |
| 20260906232525 | 16 | 164 | 3.2 | 4.8 | 0.00 | 0.00 | 0.00 | 76 | 1018.0 |
| 20260906232510 | 16 | 120 | 1.6 | 3.2 | 0.00 | 0.00 | 0.00 | 76 | 1018.0 |
| 20260906232502 | 16 | 120 | 1.6 | 3.2 | 0.00 | 0.00 | 0.00 | 76 | 1017.0 |
| 20260906232454 | 16 | 120 | 1.6 | 3.2 | 0.00 | 0.00 | 0.00 | 76 | 1017.0 |
| 20260906232441 | 16 | 155 | 0.0 | 3.2 | 0.00 | 0.00 | 0.00 | 76 | 1017.0 |
| 20260906232423 | 16 | 158 | 0.0 | 6.4 | 0.00 | 0.00 | 0.00 | 76 | 1017.0 |
| 20260906232415 | 16 | 173 | 1.6 | 6.4 | 0.00 | 0.00 | 0.00 | 76 | 1017.0 |
| 20260906232406 | 16 | 173 | 1.6 | 6.4 | 0.00 | 0.00 | 0.00 | 76 | 1018.0 |
| 20260906232401 | 16 | 121 | 0.0 | 6.4 | 0.00 | 0.00 | 0.00 | 76 | 1018.0 |
| 20260906232337 | 16 | 145 | 0.0 | 6.4 | 0.00 | 0.00 | 0.00 | 76 | 1018.0 |
| 20260906232318 | 16 | 128 | 1.6 | 6.4 | 0.00 | 0.00 | 0.00 | 76 | 1018.0 |
| 20260906232306 | 16 | 118 | 3.2 | 6.4 | 0.00 | 0.00 | 0.00 | 76 | 1017.0 |
| 20260906232246 | 16 | 115 | 3.2 | 6.4 | 0.00 | 0.00 | 0.00 | 76 | 1017.0 |
| 20260906232230 | 16 | 151 | 3.2 | 6.4 | 0.00 | 0.00 | 0.00 | 76 | 1017.0 |
| 20260906232215 | 16 | 126 | 3.2 | 6.4 | 0.00 | 0.00 | 0.00 | 76 | 1017.0 |
| 20260906232200 | 16 | 149 | 3.2 | 6.4 | 0.00 | 0.00 | 0.00 | 76 | 1017.0 |
| 20260906232145 | 16 | 113 | 4.8 | 6.4 | 0.00 | 0.00 | 0.00 | 76 | 1017.0 |
| 20260906232126 | 16 | 174 | 3.2 | 3.2 | 0.00 | 0.00 | 0.00 | 76 | 1017.0 |
| 20260906232114 | 16 | 161 | 3.2 | 3.2 | 0.00 | 0.00 | 0.00 | 76 | 1017.0 |
| 20260906232054 | 16 | 165 | 1.6 | 3.2 | 0.00 | 0.00 | 0.00 | 76 | 1017.0 |
| 20260906232038 | 16 | 138 | 0.0 | 3.2 | 0.00 | 0.00 | 0.00 | 76 | 1017.0 |
| 20260906232030 | 16 | 138 | 0.0 | 4.8 | 0.00 | 0.00 | 0.00 | 76 | 1017.0 |
| 20260906232015 | 16 | 100 | 0.0 | 4.8 | 0.00 | 0.00 | 0.00 | 76 | 1017.0 |
| 20260906232006 | 16 | 99 | 0.0 | 6.4 | 0.00 | 0.00 | 0.00 | 76 | 1017.0 |
| 20260906231958 | 16 | 99 | 0.0 | 6.4 | 0.00 | 0.00 | 0.00 | 76 | 1017.0 |
| 20260906231952 | 16 | 91 | 0.0 | 6.4 | 0.00 | 0.00 | 0.00 | 76 | 1017.0 |
| 20260906231926 | 16 | 91 | 1.6 | 6.4 | 0.00 | 0.00 | 0.00 | 76 | 1017.0 |
| 20260906231910 | 16 | 112 | 4.8 | 6.4 | 0.00 | 0.00 | 0.00 | 76 | 1017.0 |
| 20260906231855 | 16 | 145 | 3.2 | 6.4 | 0.00 | 0.00 | 0.00 | 76 | 1017.0 |
| 20260906231839 | 16 | 133 | 1.6 | 6.4 | 0.00 | 0.00 | 0.00 | 76 | 1017.0 |
| 20260906231822 | 16 | 134 | 3.2 | 6.4 | 0.00 | 0.00 | 0.00 | 76 | 1017.0 |
| 20260906231814 | 16 | 121 | 3.2 | 6.4 | 0.00 | 0.00 | 0.00 | 76 | 1017.0 |
| 20260906231806 | 16 | 121 | 3.2 | 6.4 | 0.00 | 0.00 | 0.00 | 76 | 1018.0 |
| 20260906231750 | 16 | 134 | 3.2 | 6.4 | 0.00 | 0.00 | 0.00 | 76 | 1018.0 |
| 20260906231744 | 16 | 169 | 3.2 | 6.4 | 0.00 | 0.00 | 0.00 | 76 | 1018.0 |
| 20260906231719 | 16 | 129 | 1.6 | 6.4 | 0.00 | 0.00 | 0.00 | 76 | 1018.0 |
| 20260906231710 | 16 | 122 | 3.2 | 6.4 | 0.00 | 0.00 | 0.00 | 76 | 1018.0 |
| 20260906231702 | 16 | 122 | 3.2 | 6.4 | 0.00 | 0.00 | 0.00 | 76 | 1017.0 |
| 20260906231646 | 16 | 151 | 3.2 | 6.4 | 0.00 | 0.00 | 0.00 | 76 | 1017.0 |
| 20260906231630 | 16 | 90 | 1.6 | 6.4 | 0.00 | 0.00 | 0.00 | 76 | 1017.0 |
| 20260906231606 | 16 | 137 | 1.6 | 6.4 | 0.00 | 0.00 | 0.00 | 76 | 1017.0 |
| 20260906231551 | 16 | 122 | 3.2 | 6.4 | 0.00 | 0.00 | 0.00 | 76 | 1017.0 |
| 20260906231534 | 16 | 141 | 3.2 | 6.4 | 0.00 | 0.00 | 0.00 | 76 | 1017.0 |
| 20260906231520 | 16 | 109 | 1.6 | 3.2 | 0.00 | 0.00 | 0.00 | 76 | 1017.0 |
| 20260906231502 | 16 | 78 | 0.0 | 3.2 | 0.00 | 0.00 | 0.00 | 76 | 1017.0 |
| 20260906231447 | 16 | 106 | 1.6 | 3.2 | 0.00 | 0.00 | 0.00 | 76 | 1017.0 |
| 20260906231438 | 16 | 85 | 1.6 | 3.2 | 0.00 | 0.00 | 0.00 | 76 | 1017.0 |
| 20260906231433 | 16 | 85 | 1.6 | 9.7 | 0.00 | 0.00 | 0.00 | 76 | 1017.0 |
| 20260906231414 | 16 | 157 | 0.0 | 9.7 | 0.00 | 0.00 | 0.00 | 76 | 1017.0 |
| 20260906231406 | 16 | 106 | 0.0 | 9.7 | 0.00 | 0.00 | 0.00 | 76 | 1017.0 |
| 20260906231359 | 16 | 106 | 0.0 | 9.7 | 0.00 | 0.00 | 0.00 | 76 | 1017.0 |
| 20260906231354 | 16 | 14 | 0.0 | 9.7 | 0.00 | 0.00 | 0.00 | 76 | 1017.0 |
| 20260906231327 | 16 | 131 | 1.6 | 9.7 | 0.00 | 0.00 | 0.00 | 76 | 1017.0 |
| 20260906231311 | 16 | 104 | 3.2 | 9.7 | 0.00 | 0.00 | 0.00 | 76 | 1017.0 |
| 20260906231302 | 16 | 136 | 4.8 | 9.7 | 0.00 | 0.00 | 0.00 | 76 | 1017.0 |
| 20260906231255 | 16 | 136 | 4.8 | 9.7 | 0.00 | 0.00 | 0.00 | 76 | 1017.0 |
| 20260906231239 | 16 | 141 | 4.8 | 6.4 | 0.00 | 0.00 | 0.00 | 76 | 1017.0 |
| 20260906231222 | 16 | 77 | 3.2 | 4.8 | 0.00 | 0.00 | 0.00 | 76 | 1017.0 |
| 20260906231217 | 16 | 174 | 1.6 | 3.2 | 0.00 | 0.00 | 0.00 | 76 | 1017.0 |
| 20260906231201 | 16 | 93 | 3.2 | 3.2 | 0.00 | 0.00 | 0.00 | 76 | 1018.0 |
| 20260906231127 | 16 | 154 | 1.6 | 4.8 | 0.00 | 0.00 | 0.00 | 76 | 1018.0 |
| 20260906231120 | 16 | 140 | 0.0 | 4.8 | 0.00 | 0.00 | 0.00 | 76 | 1018.0 |
| 20260906231103 | 16 | 114 | 1.6 | 4.8 | 0.00 | 0.00 | 0.00 | 76 | 1018.0 |
| 20260906231054 | 16 | 114 | 1.6 | 4.8 | 0.00 | 0.00 | 0.00 | 76 | 1018.0 |
| 20260906231049 | 16 | 153 | 3.2 | 4.8 | 0.00 | 0.00 | 0.00 | 76 | 1018.0 |
| 20260906231022 | 16 | 150 | 3.2 | 4.8 | 0.00 | 0.00 | 0.00 | 76 | 1018.0 |
| 20260906231019 | 16 | 156 | 4.8 | 4.8 | 0.00 | 0.00 | 0.00 | 76 | 1018.0 |
| 20260906230952 | 16 | 82 | 3.2 | 4.8 | 0.00 | 0.00 | 0.00 | 76 | 1017.0 |
| 20260906230942 | 16 | 111 | 1.6 | 4.8 | 0.00 | 0.00 | 0.00 | 76 | 1017.0 |
| 20260906230939 | 16 | 111 | 1.6 | 16.1 | 0.00 | 0.00 | 0.00 | 76 | 1017.0 |
| 20260906230910 | 16 | 109 | 4.8 | 16.1 | 0.00 | 0.00 | 0.00 | 76 | 1017.0 |
| 20260906230903 | 16 | 109 | 4.8 | 16.1 | 0.00 | 0.00 | 0.00 | 76 | 1018.0 |
| 20260906230847 | 16 | 75 | 3.2 | 16.1 | 0.00 | 0.00 | 0.00 | 76 | 1018.0 |
| 20260906230841 | 16 | 148 | 3.2 | 16.1 | 0.00 | 0.00 | 0.00 | 76 | 1018.0 |
| 20260906230814 | 16 | 128 | 8.0 | 16.1 | 0.00 | 0.00 | 0.00 | 76 | 1018.0 |
| 20260906230807 | 16 | 173 | 4.8 | 11.3 | 0.00 | 0.00 | 0.00 | 76 | 1018.0 |
| 20260906230759 | 16 | 173 | 4.8 | 11.3 | 0.00 | 0.00 | 0.00 | 76 | 1018.0 |
| 20260906230742 | 16 | 118 | 1.6 | 9.7 | 0.00 | 0.00 | 0.00 | 76 | 1018.0 |
| 20260906230718 | 16 | 98 | 3.2 | 9.7 | 0.00 | 0.00 | 0.00 | 76 | 1018.0 |
| 20260906230702 | 16 | 130 | 3.2 | 9.7 | 0.00 | 0.00 | 0.00 | 76 | 1018.0 |
| 20260906230654 | 16 | 122 | 6.4 | 9.7 | 0.00 | 0.00 | 0.00 | 76 | 1018.0 |
| 20260906230649 | 16 | 122 | 6.4 | 9.7 | 0.00 | 0.00 | 0.00 | 77 | 1018.0 |
| 20260906230630 | 16 | 142 | 3.2 | 6.4 | 0.00 | 0.00 | 0.00 | 77 | 1018.0 |
| 20260906230614 | 16 | 156 | 3.2 | 4.8 | 0.00 | 0.00 | 0.00 | 77 | 1018.0 |
| 20260906230600 | 16 | 130 | 4.8 | 4.8 | 0.00 | 0.00 | 0.00 | 77 | 1018.0 |
| 20260906230542 | 16 | 131 | 1.6 | 4.8 | 0.00 | 0.00 | 0.00 | 77 | 1018.0 |
| 20260906230537 | 16 | 102 | 3.2 | 6.4 | 0.00 | 0.00 | 0.00 | 77 | 1018.0 |
| 20260906230510 | 16 | 101 | 3.2 | 6.4 | 0.00 | 0.00 | 0.00 | 77 | 1018.0 |
| 20260906230503 | 16 | 150 | 0.0 | 12.9 | 0.00 | 0.00 | 0.00 | 77 | 1018.0 |
| 20260906230454 | 16 | 150 | 0.0 | 12.9 | 0.00 | 0.00 | 0.00 | 77 | 1018.0 |
| 20260906230446 | 16 | 115 | 0.0 | 12.9 | 0.00 | 0.00 | 0.00 | 77 | 1018.0 |
| 20260906230438 | 16 | 115 | 0.0 | 12.9 | 0.00 | 0.00 | 0.00 | 76 | 1018.0 |
| 20260906230422 | 16 | 115 | 0.0 | 12.9 | 0.00 | 0.00 | 0.00 | 76 | 1018.0 |
| 20260906230406 | 16 | 96 | 1.6 | 12.9 | 0.00 | 0.00 | 0.00 | 76 | 1018.0 |
| 20260906230402 | 16 | 133 | 3.2 | 12.9 | 0.00 | 0.00 | 0.00 | 76 | 1018.0 |
| 20260906230343 | 16 | 143 | 6.4 | 12.9 | 0.00 | 0.00 | 0.00 | 76 | 1018.0 |
| 20260906230334 | 16 | 143 | 6.4 | 12.9 | 0.00 | 0.00 | 0.00 | 77 | 1018.0 |
| 20260906230329 | 16 | 161 | 4.8 | 6.4 | 0.00 | 0.00 | 0.00 | 77 | 1018.0 |
| 20260906230302 | 16 | 145 | 3.2 | 4.8 | 0.00 | 0.00 | 0.00 | 77 | 1018.0 |
| 20260906230254 | 16 | 145 | 3.2 | 4.8 | 0.00 | 0.00 | 0.00 | 77 | 1018.0 |
| 20260906230239 | 16 | 65 | 3.2 | 4.8 | 0.00 | 0.00 | 0.00 | 77 | 1018.0 |
| 20260906230222 | 16 | 64 | 3.2 | 4.8 | 0.00 | 0.00 | 0.00 | 78 | 1018.0 |
| 20260906230215 | 16 | 100 | 3.2 | 4.8 | 0.00 | 0.00 | 0.00 | 78 | 1018.0 |
| 20260906230210 | 16 | 100 | 3.2 | 4.8 | 0.00 | 0.00 | 0.00 | 78 | 1017.0 |
| 20260906230151 | 16 | 138 | 4.8 | 4.8 | 0.00 | 0.00 | 0.00 | 78 | 1017.0 |
| 20260906230138 | 16 | 142 | 0.0 | 1.6 | 0.00 | 0.00 | 0.00 | 78 | 1017.0 |
| 20260906230118 | 16 | 124 | 0.0 | 0.0 | 0.00 | 0.00 | 0.00 | 78 | 1017.0 |
| 20260906230110 | 16 | 109 | 0.0 | 0.0 | 0.00 | 0.00 | 0.00 | 78 | 1017.0 |
| 20260906230051 | 16 | 82 | 0.0 | 0.0 | 0.00 | 0.00 | 0.00 | 78 | 1018.0 |
| 20260906230014 | 16 | 58 | 0.0 | 0.0 | 0.00 | 0.00 | 0.00 | 78 | 1018.0 |
| 20260906230010 | 16 | 72 | 0.0 | 1.6 | 0.00 | 0.00 | 0.00 | 78 | 1017.0 |
| 20260906225947 | 16 | 72 | 0.0 | 1.6 | 0.00 | 0.00 | 0.00 | 78 | 1017.0 |
| 20260906225921 | 16 | 76 | 0.0 | 3.2 | 0.00 | 0.00 | 0.00 | 78 | 1017.0 |
| 20260906225902 | 16 | 88 | 0.0 | 6.4 | 0.00 | 0.00 | 0.00 | 78 | 1017.0 |
| 20260906225854 | 16 | 88 | 0.0 | 6.4 | 0.00 | 0.00 | 0.00 | 78 | 1017.0 |
| 20260906225830 | 16 | 85 | 0.0 | 6.4 | 0.00 | 0.00 | 0.00 | 78 | 1017.0 |
| 20260906225814 | 16 | 108 | 1.6 | 6.4 | 0.00 | 0.00 | 0.00 | 78 | 1017.0 |
| 20260906225807 | 16 | 114 | 0.0 | 6.4 | 0.00 | 0.00 | 0.00 | 78 | 1018.0 |
| 20260906225758 | 16 | 114 | 0.0 | 6.4 | 0.00 | 0.00 | 0.00 | 78 | 1018.0 |
| 20260906225742 | 16 | 165 | 3.2 | 6.4 | 0.00 | 0.00 | 0.00 | 78 | 1018.0 |
| 20260906225736 | 16 | 120 | 3.2 | 9.7 | 0.00 | 0.00 | 0.00 | 78 | 1018.0 |
| 20260906225719 | 16 | 107 | 3.2 | 9.7 | 0.00 | 0.00 | 0.00 | 78 | 1018.0 |
| 20260906225713 | 16 | 107 | 3.2 | 9.7 | 0.00 | 0.00 | 0.00 | 77 | 1018.0 |
| 20260906225657 | 16 | 107 | 3.2 | 9.7 | 0.00 | 0.00 | 0.00 | 77 | 1018.0 |
| 20260906225638 | 16 | 82 | 4.8 | 9.7 | 0.00 | 0.00 | 0.00 | 77 | 1018.0 |
| 20260906225622 | 16 | 100 | 4.8 | 9.7 | 0.00 | 0.00 | 0.00 | 77 | 1018.0 |
| 20260906225614 | 16 | 163 | 4.8 | 9.7 | 0.00 | 0.00 | 0.00 | 77 | 1018.0 |
| 20260906225608 | 16 | 163 | 4.8 | 9.7 | 0.00 | 0.00 | 0.00 | 78 | 1018.0 |
| 20260906225550 | 16 | 82 | 4.8 | 6.4 | 0.00 | 0.00 | 0.00 | 78 | 1018.0 |
| 20260906225542 | 16 | 104 | 1.6 | 1.6 | 0.00 | 0.00 | 0.00 | 78 | 1018.0 |
| 20260906225534 | 16 | 104 | 1.6 | 4.8 | 0.00 | 0.00 | 0.00 | 78 | 1018.0 |
| 20260906225518 | 16 | 139 | 1.6 | 4.8 | 0.00 | 0.00 | 0.00 | 78 | 1018.0 |
| 20260906225503 | 16 | 138 | 1.6 | 4.8 | 0.00 | 0.00 | 0.00 | 78 | 1018.0 |
| 20260906225446 | 16 | 141 | 1.6 | 4.8 | 0.00 | 0.00 | 0.00 | 78 | 1018.0 |
| 20260906225430 | 16 | 134 | 1.6 | 4.8 | 0.00 | 0.00 | 0.00 | 78 | 1018.0 |
| 20260906225414 | 16 | 161 | 3.2 | 4.8 | 0.00 | 0.00 | 0.00 | 78 | 1018.0 |
| 20260906225406 | 16 | 161 | 3.2 | 12.9 | 0.00 | 0.00 | 0.00 | 78 | 1018.0 |
| 20260906225353 | 16 | 139 | 0.0 | 12.9 | 0.00 | 0.00 | 0.00 | 78 | 1018.0 |
| 20260906225336 | 16 | 117 | 0.0 | 12.9 | 0.00 | 0.00 | 0.00 | 78 | 1018.0 |
| 20260906225318 | 16 | 70 | 0.0 | 12.9 | 0.00 | 0.00 | 0.00 | 78 | 1018.0 |
| 20260906225310 | 16 | 119 | 3.2 | 12.9 | 0.00 | 0.00 | 0.00 | 78 | 1018.0 |
| 20260906225307 | 16 | 119 | 3.2 | 12.9 | 0.00 | 0.00 | 0.00 | 78 | 1017.0 |
| 20260906225246 | 16 | 144 | 3.2 | 12.9 | 0.00 | 0.00 | 0.00 | 79 | 1017.0 |
| 20260906225230 | 16 | 127 | 8.0 | 12.9 | 0.00 | 0.00 | 0.00 | 79 | 1017.0 |
| 20260906225214 | 16 | 100 | 3.2 | 6.4 | 0.00 | 0.00 | 0.00 | 79 | 1017.0 |
| 20260906225209 | 16 | 263 | 3.2 | 11.3 | 0.00 | 0.00 | 0.00 | 79 | 1018.0 |
| 20260906225153 | 16 | 107 | 4.8 | 11.3 | 0.00 | 0.00 | 0.00 | 79 | 1018.0 |
| 20260906225126 | 16 | 106 | 3.2 | 11.3 | 0.00 | 0.00 | 0.00 | 79 | 1018.0 |
| 20260906225110 | 16 | 145 | 3.2 | 11.3 | 0.00 | 0.00 | 0.00 | 79 | 1018.0 |
| 20260906225102 | 16 | 109 | 4.8 | 11.3 | 0.00 | 0.00 | 0.00 | 79 | 1018.0 |
| 20260906225055 | 16 | 109 | 4.8 | 11.3 | 0.00 | 0.00 | 0.00 | 79 | 1018.0 |
| 20260906225049 | 16 | 100 | 3.2 | 11.3 | 0.00 | 0.00 | 0.00 | 79 | 1018.0 |
| 20260906225032 | 16 | 122 | 4.8 | 11.3 | 0.00 | 0.00 | 0.00 | 79 | 1018.0 |
| 20260906225014 | 16 | 138 | 3.2 | 6.4 | 0.00 | 0.00 | 0.00 | 79 | 1018.0 |
| 20260906225006 | 16 | 138 | 3.2 | 6.4 | 0.00 | 0.00 | 0.00 | 79 | 1017.0 |
| 20260906225002 | 16 | 93 | 3.2 | 6.4 | 0.00 | 0.00 | 0.00 | 79 | 1017.0 |
| 20260906224942 | 16 | 93 | 3.2 | 6.4 | 0.00 | 0.00 | 0.00 | 80 | 1017.0 |
| 20260906224930 | 16 | 107 | 4.8 | 6.4 | 0.00 | 0.00 | 0.00 | 80 | 1017.0 |
| 20260906224903 | 16 | 104 | 4.8 | 6.4 | 0.00 | 0.00 | 0.00 | 80 | 1018.0 |
| 20260906224855 | 16 | 104 | 4.8 | 6.4 | 0.00 | 0.00 | 0.00 | 80 | 1018.0 |
| 20260906224842 | 16 | 127 | 1.6 | 3.2 | 0.00 | 0.00 | 0.00 | 80 | 1018.0 |
| 20260906224822 | 16 | 114 | 1.6 | 3.2 | 0.00 | 0.00 | 0.00 | 80 | 1018.0 |
| 20260906224814 | 16 | 86 | 1.6 | 3.2 | 0.00 | 0.00 | 0.00 | 80 | 1018.0 |
| 20260906224806 | 16 | 86 | 1.6 | 3.2 | 0.00 | 0.00 | 0.00 | 80 | 1017.0 |
| 20260906224804 | 16 | 123 | 1.6 | 3.2 | 0.00 | 0.00 | 0.00 | 80 | 1017.0 |
| 20260906224742 | 16 | 136 | 1.6 | 3.2 | 0.00 | 0.00 | 0.00 | 80 | 1017.0 |
| 20260906224734 | 16 | 136 | 1.6 | 6.4 | 0.00 | 0.00 | 0.00 | 81 | 1017.0 |
| 20260906224718 | 16 | 110 | 1.6 | 6.4 | 0.00 | 0.00 | 0.00 | 81 | 1017.0 |
| 20260906224702 | 16 | 56 | 1.6 | 6.4 | 0.00 | 0.00 | 0.00 | 81 | 1017.0 |
| 20260906224649 | 16 | 130 | 1.6 | 6.4 | 0.00 | 0.00 | 0.00 | 81 | 1017.0 |
| 20260906224635 | 16 | 79 | 3.2 | 6.4 | 0.00 | 0.00 | 0.00 | 81 | 1017.0 |
| 20260906224606 | 16 | 49 | 6.4 | 6.4 | 0.00 | 0.00 | 0.00 | 81 | 1017.0 |
| 20260906224558 | 16 | 49 | 6.4 | 6.4 | 0.00 | 0.00 | 0.00 | 81 | 1017.0 |
| 20260906224542 | 16 | 83 | 4.8 | 6.4 | 0.00 | 0.00 | 0.00 | 81 | 1017.0 |
| 20260906224534 | 16 | 102 | 6.4 | 6.4 | 0.00 | 0.00 | 0.00 | 81 | 1017.0 |
| 20260906224518 | 16 | 102 | 6.4 | 6.4 | 0.00 | 0.00 | 0.00 | 82 | 1017.0 |
| 20260906224510 | 16 | 89 | 0.0 | 6.4 | 0.00 | 0.00 | 0.00 | 82 | 1017.0 |
| 20260906224508 | 16 | 89 | 0.0 | 6.4 | 0.00 | 0.00 | 0.00 | 82 | 1018.0 |
| 20260906224446 | 16 | 70 | 0.0 | 6.4 | 0.00 | 0.00 | 0.00 | 82 | 1018.0 |
| 20260906224444 | 16 | 188 | 0.0 | 6.4 | 0.00 | 0.00 | 0.00 | 82 | 1018.0 |
| 20260906224414 | 16 | 129 | 3.2 | 6.4 | 0.00 | 0.00 | 0.00 | 82 | 1018.0 |
| 20260906224402 | 16 | 97 | 4.8 | 6.4 | 0.00 | 0.00 | 0.00 | 82 | 1018.0 |
| 20260906224353 | 16 | 95 | 3.2 | 4.8 | 0.00 | 0.00 | 0.00 | 82 | 1018.0 |
| 20260906224326 | 16 | 88 | 1.6 | 4.8 | 0.00 | 0.00 | 0.00 | 82 | 1018.0 |
| 20260906224310 | 16 | 95 | 1.6 | 4.8 | 0.00 | 0.00 | 0.00 | 82 | 1018.0 |
| 20260906224304 | 16 | 212 | 3.2 | 4.8 | 0.00 | 0.00 | 0.00 | 82 | 1017.0 |
| 20260906224240 | 16 | 211 | 0.0 | 4.8 | 0.00 | 0.00 | 0.00 | 82 | 1017.0 |
| 20260906224216 | 16 | 80 | 3.2 | 4.8 | 0.00 | 0.00 | 0.00 | 82 | 1017.0 |
| 20260906224153 | 16 | 92 | 3.2 | 4.8 | 0.00 | 0.00 | 0.00 | 82 | 1017.0 |
| 20260906224134 | 16 | 110 | 0.0 | 4.8 | 0.00 | 0.00 | 0.00 | 82 | 1017.0 |
| 20260906224121 | 16 | 110 | 1.6 | 4.8 | 0.00 | 0.00 | 0.00 | 82 | 1017.0 |
| 20260906224102 | 16 | 124 | 1.6 | 4.8 | 0.00 | 0.00 | 0.00 | 82 | 1017.0 |
| 20260906224054 | 16 | 124 | 1.6 | 4.8 | 0.00 | 0.00 | 0.00 | 82 | 1017.0 |
| 20260906224038 | 16 | 69 | 3.2 | 4.8 | 0.00 | 0.00 | 0.00 | 82 | 1017.0 |
| 20260906224022 | 16 | 78 | 4.8 | 4.8 | 0.00 | 0.00 | 0.00 | 82 | 1017.0 |
| 20260906224014 | 16 | 77 | 3.2 | 4.8 | 0.00 | 0.00 | 0.00 | 82 | 1017.0 |
| 20260906224006 | 16 | 77 | 3.2 | 4.8 | 0.00 | 0.00 | 0.00 | 83 | 1017.0 |
| 20260906223950 | 16 | 87 | 1.6 | 3.2 | 0.00 | 0.00 | 0.00 | 83 | 1017.0 |
| 20260906223945 | 16 | 134 | 0.0 | 3.2 | 0.00 | 0.00 | 0.00 | 83 | 1017.0 |
| 20260906223918 | 16 | 111 | 1.6 | 3.2 | 0.00 | 0.00 | 0.00 | 83 | 1017.0 |
| 20260906223910 | 16 | 78 | 1.6 | 3.2 | 0.00 | 0.00 | 0.00 | 83 | 1017.0 |
| 20260906223902 | 16 | 78 | 1.6 | 3.2 | 0.00 | 0.00 | 0.00 | 83 | 1018.0 |
| 20260906223846 | 16 | 73 | 1.6 | 3.2 | 0.00 | 0.00 | 0.00 | 83 | 1018.0 |
| 20260906223830 | 16 | 145 | 1.6 | 3.2 | 0.00 | 0.00 | 0.00 | 83 | 1018.0 |
| 20260906223814 | 16 | 104 | 1.6 | 3.2 | 0.00 | 0.00 | 0.00 | 83 | 1018.0 |
| 20260906223806 | 16 | 121 | 1.6 | 3.2 | 0.00 | 0.00 | 0.00 | 83 | 1018.0 |
| 20260906223800 | 16 | 121 | 1.6 | 3.2 | 0.00 | 0.00 | 0.00 | 82 | 1018.0 |
| 20260906223742 | 16 | 122 | 1.6 | 3.2 | 0.00 | 0.00 | 0.00 | 82 | 1018.0 |
| 20260906223713 | 16 | 110 | 0.0 | 4.8 | 0.00 | 0.00 | 0.00 | 82 | 1018.0 |
| 20260906223654 | 16 | 110 | 0.0 | 6.4 | 0.00 | 0.00 | 0.00 | 83 | 1018.0 |
| 20260906223638 | 16 | 110 | 1.6 | 6.4 | 0.00 | 0.00 | 0.00 | 83 | 1018.0 |
| 20260906223630 | 16 | 110 | 1.6 | 9.7 | 0.00 | 0.00 | 0.00 | 83 | 1018.0 |
| 20260906223614 | 16 | 77 | 1.6 | 9.7 | 0.00 | 0.00 | 0.00 | 83 | 1018.0 |
| 20260906223600 | 16 | 86 | 3.2 | 9.7 | 0.00 | 0.00 | 0.00 | 83 | 1018.0 |
| 20260906223510 | 16 | 96 | 6.4 | 9.7 | 0.00 | 0.00 | 0.00 | 83 | 1018.0 |
| 20260906223502 | 16 | 79 | 1.6 | 6.4 | 0.00 | 0.00 | 0.00 | 83 | 1018.0 |
| 20260906223454 | 16 | 79 | 1.6 | 6.4 | 0.00 | 0.00 | 0.00 | 83 | 1018.0 |
| 20260906223440 | 16 | 74 | 4.8 | 6.4 | 0.00 | 0.00 | 0.00 | 83 | 1018.0 |
| 20260906223422 | 16 | 104 | 6.4 | 6.4 | 0.00 | 0.00 | 0.00 | 83 | 1018.0 |
| 20260906223406 | 16 | 88 | 3.2 | 6.4 | 0.00 | 0.00 | 0.00 | 83 | 1018.0 |
| 20260906223350 | 16 | 114 | 3.2 | 6.4 | 0.00 | 0.00 | 0.00 | 83 | 1018.0 |
| 20260906223334 | 16 | 98 | 3.2 | 6.4 | 0.00 | 0.00 | 0.00 | 83 | 1018.0 |
| 20260906223328 | 16 | 61 | 3.2 | 6.4 | 0.00 | 0.00 | 0.00 | 83 | 1018.0 |
| 20260906223302 | 16 | 162 | 1.6 | 6.4 | 0.00 | 0.00 | 0.00 | 83 | 1018.0 |
| 20260906223209 | 16 | 91 | 3.2 | 6.4 | 0.00 | 0.00 | 0.00 | 83 | 1018.0 |
| 20260906223150 | 16 | 106 | 3.2 | 6.4 | 0.00 | 0.00 | 0.00 | 83 | 1018.0 |
| 20260906223144 | 16 | 75 | 3.2 | 4.8 | 0.00 | 0.00 | 0.00 | 83 | 1018.0 |
| 20260906223118 | 16 | 78 | 1.6 | 3.2 | 0.00 | 0.00 | 0.00 | 84 | 1018.0 |
| 20260906223110 | 16 | 91 | 1.6 | 3.2 | 0.00 | 0.00 | 0.00 | 84 | 1018.0 |
| 20260906223102 | 16 | 91 | 1.6 | 4.8 | 0.00 | 0.00 | 0.00 | 84 | 1018.0 |
| 20260906223046 | 16 | 90 | 3.2 | 4.8 | 0.00 | 0.00 | 0.00 | 84 | 1018.0 |
| 20260906223042 | 16 | 88 | 1.6 | 4.8 | 0.00 | 0.00 | 0.00 | 84 | 1018.0 |
| 20260906223014 | 16 | 61 | 0.0 | 4.8 | 0.00 | 0.00 | 0.00 | 84 | 1018.0 |
| 20260906223009 | 16 | 86 | 0.0 | 4.8 | 0.00 | 0.00 | 0.00 | 84 | 1018.0 |
| 20260906222942 | 16 | 87 | 1.6 | 4.8 | 0.00 | 0.00 | 0.00 | 84 | 1018.0 |
| 20260906222926 | 16 | 89 | 3.2 | 4.8 | 0.00 | 0.00 | 0.00 | 84 | 1018.0 |
| 20260906222910 | 16 | 104 | 3.2 | 4.8 | 0.00 | 0.00 | 0.00 | 84 | 1018.0 |
| 20260906222904 | 16 | 91 | 0.0 | 1.6 | 0.00 | 0.00 | 0.00 | 84 | 1018.0 |
| 20260906222854 | 16 | 91 | 0.0 | 1.6 | 0.00 | 0.00 | 0.00 | 84 | 1018.0 |
| 20260906222838 | 16 | 96 | 0.0 | 1.6 | 0.00 | 0.00 | 0.00 | 84 | 1018.0 |
| 20260906222822 | 16 | 83 | 0.0 | 1.6 | 0.00 | 0.00 | 0.00 | 84 | 1018.0 |
| 20260906222806 | 16 | 132 | 0.0 | 1.6 | 0.00 | 0.00 | 0.00 | 84 | 1018.0 |
| 20260906222742 | 16 | 132 | 0.0 | 1.6 | 0.00 | 0.00 | 0.00 | 84 | 1018.0 |
| 20260906222726 | 16 | 128 | 0.0 | 1.6 | 0.00 | 0.00 | 0.00 | 84 | 1018.0 |
| 20260906222720 | 16 | 139 | 0.0 | 1.6 | 0.00 | 0.00 | 0.00 | 84 | 1018.0 |
| 20260906222702 | 16 | 78 | 0.0 | 4.8 | 0.00 | 0.00 | 0.00 | 84 | 1018.0 |
| 20260906222654 | 16 | 78 | 0.0 | 4.8 | 0.00 | 0.00 | 0.00 | 84 | 1018.0 |
| 20260906222638 | 16 | 79 | 0.0 | 4.8 | 0.00 | 0.00 | 0.00 | 84 | 1018.0 |
| 20260906222626 | 16 | 79 | 0.0 | 4.8 | 0.00 | 0.00 | 0.00 | 84 | 1018.0 |
| 20260906222551 | 16 | 121 | 0.0 | 4.8 | 0.00 | 0.00 | 0.00 | 84 | 1018.0 |
| 20260906222518 | 16 | 132 | 3.2 | 4.8 | 0.00 | 0.00 | 0.00 | 84 | 1018.0 |
| 20260906222510 | 16 | 100 | 0.0 | 3.2 | 0.00 | 0.00 | 0.00 | 84 | 1018.0 |
| 20260906222502 | 16 | 100 | 0.0 | 4.8 | 0.00 | 0.00 | 0.00 | 84 | 1018.0 |
| 20260906222457 | 16 | 76 | 0.0 | 4.8 | 0.00 | 0.00 | 0.00 | 84 | 1018.0 |
| 20260906222440 | 16 | 94 | 1.6 | 4.8 | 0.00 | 0.00 | 0.00 | 84 | 1018.0 |
| 20260906222430 | 16 | 94 | 1.6 | 6.4 | 0.00 | 0.00 | 0.00 | 84 | 1018.0 |
| 20260906222414 | 16 | 142 | 3.2 | 6.4 | 0.00 | 0.00 | 0.00 | 84 | 1018.0 |
| 20260906222406 | 16 | 121 | 1.6 | 6.4 | 0.00 | 0.00 | 0.00 | 84 | 1018.0 |
| 20260906222400 | 16 | 121 | 1.6 | 6.4 | 0.00 | 0.00 | 0.00 | 84 | 1018.0 |
| 20260906222353 | 16 | 83 | 3.2 | 6.4 | 0.00 | 0.00 | 0.00 | 84 | 1018.0 |
| 20260906222320 | 16 | 85 | 3.2 | 9.7 | 0.00 | 0.00 | 0.00 | 84 | 1018.0 |
| 20260906222305 | 16 | 89 | 3.2 | 9.7 | 0.00 | 0.00 | 0.00 | 84 | 1018.0 |
| 20260906222246 | 16 | 76 | 4.8 | 9.7 | 0.00 | 0.00 | 0.00 | 84 | 1018.0 |
| 20260906222241 | 16 | 84 | 4.8 | 9.7 | 0.00 | 0.00 | 0.00 | 84 | 1018.0 |
| 20260906222218 | 16 | 95 | 4.8 | 9.7 | 0.00 | 0.00 | 0.00 | 84 | 1018.0 |
| 20260906222200 | 16 | 95 | 3.2 | 9.7 | 0.00 | 0.00 | 0.00 | 85 | 1018.0 |
| 20260906222150 | 16 | 123 | 6.4 | 9.7 | 0.00 | 0.00 | 0.00 | 85 | 1018.0 |
| 20260906222110 | 16 | 62 | 1.6 | 3.2 | 0.00 | 0.00 | 0.00 | 85 | 1018.0 |
| 20260906222102 | 16 | 164 | 1.6 | 3.2 | 0.00 | 0.00 | 0.00 | 85 | 1018.0 |
| 20260906222054 | 16 | 164 | 1.6 | 3.2 | 0.00 | 0.00 | 0.00 | 85 | 1018.0 |
| 20260906222039 | 16 | 57 | 1.6 | 3.2 | 0.00 | 0.00 | 0.00 | 85 | 1018.0 |
| 20260906222022 | 16 | 111 | 1.6 | 3.2 | 0.00 | 0.00 | 0.00 | 85 | 1018.0 |
| 20260906222006 | 16 | 53 | 1.6 | 3.2 | 0.00 | 0.00 | 0.00 | 85 | 1018.0 |
| 20260906221958 | 16 | 31 | 0.0 | 0.0 | 0.00 | 0.00 | 0.00 | 85 | 1018.0 |
| 20260906221949 | 15 | 31 | 0.0 | 0.0 | 0.00 | 0.00 | 0.00 | 85 | 1018.0 |
| 20260906221945 | 15 | 81 | 0.0 | 0.0 | 0.00 | 0.00 | 0.00 | 85 | 1018.0 |
| 20260906221918 | 15 | 103 | 0.0 | 0.0 | 0.00 | 0.00 | 0.00 | 85 | 1018.0 |
| 20260906221910 | 15 | 126 | 0.0 | 0.0 | 0.00 | 0.00 | 0.00 | 85 | 1018.0 |
| 20260906221902 | 15 | 126 | 0.0 | 1.6 | 0.00 | 0.00 | 0.00 | 85 | 1018.0 |
| 20260906221859 | 15 | 126 | 0.0 | 1.6 | 0.00 | 0.00 | 0.00 | 85 | 1018.0 |
| 20260906221806 | 15 | 65 | 0.0 | 4.8 | 0.00 | 0.00 | 0.00 | 85 | 1018.0 |
| 20260906221753 | 15 | 92 | 0.0 | 4.8 | 0.00 | 0.00 | 0.00 | 85 | 1018.0 |
| 20260906221734 | 15 | 65 | 0.0 | 4.8 | 0.00 | 0.00 | 0.00 | 85 | 1018.0 |
| 20260906221718 | 15 | 57 | 1.6 | 4.8 | 0.00 | 0.00 | 0.00 | 85 | 1018.0 |
| 20260906221702 | 15 | 85 | 3.2 | 4.8 | 0.00 | 0.00 | 0.00 | 85 | 1018.0 |
| 20260906221649 | 15 | 77 | 1.6 | 4.8 | 0.00 | 0.00 | 0.00 | 85 | 1018.0 |
| 20260906221630 | 15 | 74 | 0.0 | 4.8 | 0.00 | 0.00 | 0.00 | 85 | 1018.0 |
| 20260906221614 | 15 | 91 | 1.6 | 4.8 | 0.00 | 0.00 | 0.00 | 85 | 1018.0 |
| 20260906221608 | 15 | 116 | 3.2 | 4.8 | 0.00 | 0.00 | 0.00 | 85 | 1018.0 |
| 20260906221558 | 15 | 116 | 3.2 | 4.8 | 0.00 | 0.00 | 0.00 | 85 | 1018.0 |
| 20260906221542 | 15 | 113 | 1.6 | 3.2 | 0.00 | 0.00 | 0.00 | 85 | 1018.0 |
| 20260906221529 | 15 | 81 | 3.2 | 3.2 | 0.00 | 0.00 | 0.00 | 85 | 1018.0 |
| 20260906221510 | 15 | 103 | 3.2 | 3.2 | 0.00 | 0.00 | 0.00 | 85 | 1018.0 |
| 20260906221502 | 15 | 128 | 1.6 | 3.2 | 0.00 | 0.00 | 0.00 | 85 | 1018.0 |
| 20260906221454 | 15 | 128 | 1.6 | 3.2 | 0.00 | 0.00 | 0.00 | 85 | 1018.0 |
| 20260906221448 | 15 | 52 | 0.0 | 3.2 | 0.00 | 0.00 | 0.00 | 85 | 1018.0 |
| 20260906221430 | 15 | 52 | 0.0 | 6.4 | 0.00 | 0.00 | 0.00 | 85 | 1018.0 |
| 20260906221414 | 15 | 357 | 0.0 | 6.4 | 0.00 | 0.00 | 0.00 | 85 | 1018.0 |
| 20260906221406 | 15 | 41 | 1.6 | 6.4 | 0.00 | 0.00 | 0.00 | 85 | 1018.0 |
| 20260906221357 | 15 | 41 | 1.6 | 6.4 | 0.00 | 0.00 | 0.00 | 85 | 1018.0 |
| 20260906221342 | 15 | 154 | 1.6 | 6.4 | 0.00 | 0.00 | 0.00 | 85 | 1018.0 |
| 20260906221336 | 15 | 99 | 3.2 | 6.4 | 0.00 | 0.00 | 0.00 | 85 | 1018.0 |
| 20260906221310 | 15 | 54 | 3.2 | 6.4 | 0.00 | 0.00 | 0.00 | 86 | 1018.0 |
| 20260906221302 | 15 | 95 | 4.8 | 6.4 | 0.00 | 0.00 | 0.00 | 86 | 1018.0 |
| 20260906221253 | 15 | 95 | 4.8 | 6.4 | 0.00 | 0.00 | 0.00 | 86 | 1018.0 |
| 20260906221238 | 15 | 109 | 4.8 | 6.4 | 0.00 | 0.00 | 0.00 | 86 | 1018.0 |
| 20260906221222 | 15 | 100 | 3.2 | 4.8 | 0.00 | 0.00 | 0.00 | 86 | 1018.0 |
| 20260906221214 | 15 | 123 | 1.6 | 1.6 | 0.00 | 0.00 | 0.00 | 86 | 1018.0 |
| 20260906221206 | 15 | 123 | 1.6 | 3.2 | 0.00 | 0.00 | 0.00 | 86 | 1018.0 |
| 20260906221149 | 15 | 134 | 1.6 | 3.2 | 0.00 | 0.00 | 0.00 | 86 | 1018.0 |
| 20260906221144 | 15 | 114 | 0.0 | 3.2 | 0.00 | 0.00 | 0.00 | 86 | 1018.0 |
| 20260906221118 | 15 | 110 | 0.0 | 3.2 | 0.00 | 0.00 | 0.00 | 86 | 1018.0 |
| 20260906221112 | 15 | 114 | 0.0 | 3.2 | 0.00 | 0.00 | 0.00 | 86 | 1018.0 |
| 20260906221045 | 15 | 86 | 0.0 | 3.2 | 0.00 | 0.00 | 0.00 | 86 | 1018.0 |
| 20260906221040 | 15 | 93 | 1.6 | 3.2 | 0.00 | 0.00 | 0.00 | 86 | 1018.0 |
| 20260906221006 | 15 | 114 | 1.6 | 3.2 | 0.00 | 0.00 | 0.00 | 86 | 1018.0 |
| 20260906221000 | 15 | 68 | 0.0 | 3.2 | 0.00 | 0.00 | 0.00 | 86 | 1018.0 |
| 20260906220950 | 15 | 68 | 0.0 | 3.2 | 0.00 | 0.00 | 0.00 | 86 | 1018.0 |
| 20260906220944 | 15 | 177 | 1.6 | 3.2 | 0.00 | 0.00 | 0.00 | 86 | 1018.0 |
| 20260906220918 | 15 | 79 | 1.6 | 3.2 | 0.00 | 0.00 | 0.00 | 86 | 1018.0 |
| 20260906220902 | 15 | 197 | 1.6 | 3.2 | 0.00 | 0.00 | 0.00 | 86 | 1018.0 |
| 20260906220846 | 15 | 197 | 1.6 | 3.2 | 0.00 | 0.00 | 0.00 | 86 | 1018.0 |
| 20260906220841 | 15 | 106 | 0.0 | 3.2 | 0.00 | 0.00 | 0.00 | 86 | 1018.0 |
| 20260906220816 | 15 | 116 | 1.6 | 6.4 | 0.00 | 0.00 | 0.00 | 86 | 1018.0 |
| 20260906220805 | 15 | 144 | 1.6 | 6.4 | 0.00 | 0.00 | 0.00 | 87 | 1018.0 |
| 20260906220758 | 15 | 144 | 1.6 | 6.4 | 0.00 | 0.00 | 0.00 | 87 | 1018.0 |
| 20260906220736 | 15 | 146 | 3.2 | 6.4 | 0.00 | 0.00 | 0.00 | 87 | 1018.0 |
| 20260906220711 | 15 | 130 | 3.2 | 6.4 | 0.00 | 0.00 | 0.00 | 87 | 1018.0 |
| 20260906220702 | 15 | 101 | 4.8 | 6.4 | 0.00 | 0.00 | 0.00 | 87 | 1018.0 |
| 20260906220656 | 15 | 101 | 4.8 | 6.4 | 0.00 | 0.00 | 0.00 | 87 | 1018.0 |
| 20260906220638 | 15 | 85 | 3.2 | 4.8 | 0.00 | 0.00 | 0.00 | 87 | 1018.0 |
| 20260906220622 | 15 | 94 | 3.2 | 3.2 | 0.00 | 0.00 | 0.00 | 87 | 1018.0 |
| 20260906220616 | 15 | 108 | 1.6 | 1.6 | 0.00 | 0.00 | 0.00 | 87 | 1018.0 |
| 20260906220542 | 15 | 48 | 0.0 | 1.6 | 0.00 | 0.00 | 0.00 | 87 | 1018.0 |
| 20260906220526 | 15 | 55 | 0.0 | 3.2 | 0.00 | 0.00 | 0.00 | 87 | 1018.0 |
| 20260906220520 | 15 | 104 | 0.0 | 3.2 | 0.00 | 0.00 | 0.00 | 87 | 1018.0 |
| 20260906220502 | 15 | 85 | 0.0 | 4.8 | 0.00 | 0.00 | 0.00 | 87 | 1018.0 |
| 20260906220454 | 15 | 85 | 0.0 | 4.8 | 0.00 | 0.00 | 0.00 | 87 | 1018.0 |
| 20260906220437 | 15 | 43 | 0.0 | 4.8 | 0.00 | 0.00 | 0.00 | 87 | 1018.0 |
| 20260906220424 | 15 | 77 | 0.0 | 6.4 | 0.00 | 0.00 | 0.00 | 87 | 1018.0 |
| 20260906220405 | 15 | 106 | 1.6 | 6.4 | 0.00 | 0.00 | 0.00 | 87 | 1018.0 |
| 20260906220350 | 15 | 75 | 1.6 | 6.4 | 0.00 | 0.00 | 0.00 | 87 | 1018.0 |
| 20260906220334 | 15 | 108 | 3.2 | 6.4 | 0.00 | 0.00 | 0.00 | 87 | 1018.0 |
| 20260906220328 | 15 | 68 | 3.2 | 6.4 | 0.00 | 0.00 | 0.00 | 87 | 1018.0 |
| 20260906220301 | 15 | 53 | 6.4 | 6.4 | 0.00 | 0.00 | 0.00 | 87 | 1018.0 |
| 20260906220253 | 15 | 71 | 4.8 | 4.8 | 0.00 | 0.00 | 0.00 | 87 | 1018.0 |
| 20260906220214 | 15 | 90 | 1.6 | 4.8 | 0.00 | 0.00 | 0.00 | 88 | 1018.0 |
| 20260906220206 | 15 | 66 | 1.6 | 4.8 | 0.00 | 0.00 | 0.00 | 88 | 1018.0 |
| 20260906220157 | 15 | 66 | 1.6 | 4.8 | 0.00 | 0.00 | 0.00 | 88 | 1018.0 |
| 20260906220152 | 15 | 135 | 1.6 | 3.2 | 0.00 | 0.00 | 0.00 | 88 | 1018.0 |
| 20260906220118 | 15 | 85 | 0.0 | 1.6 | 0.00 | 0.00 | 0.00 | 88 | 1018.0 |
| 20260906220046 | 15 | 140 | 0.0 | 1.6 | 0.00 | 0.00 | 0.00 | 88 | 1018.0 |
| 20260906220038 | 15 | 140 | 0.0 | 1.6 | 0.00 | 0.00 | 0.00 | 88 | 1018.0 |
| 20260906220030 | 15 | 140 | 0.0 | 3.2 | 0.00 | 0.00 | 0.00 | 88 | 1018.0 |
| 20260906220014 | 15 | 140 | 1.6 | 3.2 | 0.00 | 0.00 | 0.00 | 88 | 1018.0 |
| 20260906220005 | 15 | 140 | 1.6 | 3.2 | 0.00 | 0.00 | 0.00 | 88 | 1018.0 |
| 20260906215958 | 15 | 140 | 1.6 | 3.2 | 0.00 | 0.00 | 0.00 | 88 | 1018.0 |
| 20260906215942 | 15 | 140 | 1.6 | 3.2 | 0.00 | 0.00 | 0.00 | 88 | 1018.0 |
| 20260906215926 | 15 | 128 | 1.6 | 3.2 | 0.00 | 0.00 | 0.00 | 88 | 1018.0 |
| 20260906215910 | 15 | 122 | 1.6 | 3.2 | 0.00 | 0.00 | 0.00 | 88 | 1018.0 |
| 20260906215904 | 15 | 103 | 1.6 | 1.6 | 0.00 | 0.00 | 0.00 | 88 | 1018.0 |
| 20260906215838 | 15 | 63 | 1.6 | 1.6 | 0.00 | 0.00 | 0.00 | 88 | 1018.0 |
| 20260906215822 | 15 | 74 | 0.0 | 3.2 | 0.00 | 0.00 | 0.00 | 88 | 1018.0 |
| 20260906215808 | 15 | 133 | 0.0 | 3.2 | 0.00 | 0.00 | 0.00 | 88 | 1018.0 |
| 20260906215750 | 15 | 99 | 0.0 | 3.2 | 0.00 | 0.00 | 0.00 | 88 | 1018.0 |
| 20260906215734 | 15 | 73 | 0.0 | 3.2 | 0.00 | 0.00 | 0.00 | 88 | 1018.0 |
| 20260906215718 | 15 | 110 | 0.0 | 3.2 | 0.00 | 0.00 | 0.00 | 88 | 1018.0 |
| 20260906215713 | 15 | 123 | 1.6 | 3.2 | 0.00 | 0.00 | 0.00 | 88 | 1018.0 |
| 20260906215654 | 15 | 123 | 1.6 | 3.2 | 0.00 | 0.00 | 0.00 | 88 | 1018.0 |
| 20260906215638 | 15 | 166 | 3.2 | 3.2 | 0.00 | 0.00 | 0.00 | 88 | 1018.0 |
| 20260906215632 | 15 | 140 | 3.2 | 3.2 | 0.00 | 0.00 | 0.00 | 88 | 1018.0 |
| 20260906215606 | 15 | 126 | 0.0 | 3.2 | 0.00 | 0.00 | 0.00 | 88 | 1018.0 |
| 20260906215550 | 15 | 115 | 3.2 | 3.2 | 0.00 | 0.00 | 0.00 | 88 | 1018.0 |
| 20260906215542 | 15 | 141 | 0.0 | 3.2 | 0.00 | 0.00 | 0.00 | 88 | 1018.0 |
| 20260906215534 | 15 | 141 | 0.0 | 4.8 | 0.00 | 0.00 | 0.00 | 88 | 1018.0 |
| 20260906215518 | 15 | 139 | 0.0 | 4.8 | 0.00 | 0.00 | 0.00 | 88 | 1018.0 |
| 20260906215509 | 15 | 149 | 1.6 | 4.8 | 0.00 | 0.00 | 0.00 | 88 | 1018.0 |
| 20260906215501 | 15 | 149 | 1.6 | 6.4 | 0.00 | 0.00 | 0.00 | 88 | 1018.0 |
| 20260906215456 | 15 | 150 | 0.0 | 6.4 | 0.00 | 0.00 | 0.00 | 88 | 1018.0 |
| 20260906215440 | 15 | 150 | 1.6 | 6.4 | 0.00 | 0.00 | 0.00 | 88 | 1018.0 |
| 20260906215414 | 15 | 128 | 1.6 | 6.4 | 0.00 | 0.00 | 0.00 | 88 | 1018.0 |
| 20260906215405 | 15 | 121 | 3.2 | 6.4 | 0.00 | 0.00 | 0.00 | 88 | 1018.0 |
| 20260906215358 | 15 | 121 | 3.2 | 6.4 | 0.00 | 0.00 | 0.00 | 88 | 1018.0 |
| 20260906215341 | 15 | 123 | 6.4 | 6.4 | 0.00 | 0.00 | 0.00 | 88 | 1018.0 |
| 20260906215336 | 15 | 122 | 3.2 | 4.8 | 0.00 | 0.00 | 0.00 | 88 | 1018.0 |
| 20260906215321 | 15 | 135 | 0.0 | 3.2 | 0.00 | 0.00 | 0.00 | 88 | 1018.0 |
| 20260906215306 | 15 | 135 | 1.6 | 4.8 | 0.00 | 0.00 | 0.00 | 88 | 1018.0 |
| 20260906215259 | 15 | 135 | 1.6 | 4.8 | 0.00 | 0.00 | 0.00 | 88 | 1018.0 |
| 20260906215232 | 15 | 110 | 1.6 | 4.8 | 0.00 | 0.00 | 0.00 | 88 | 1018.0 |
| 20260906215214 | 15 | 113 | 1.6 | 4.8 | 0.00 | 0.00 | 0.00 | 88 | 1018.0 |
| 20260906215206 | 15 | 114 | 1.6 | 4.8 | 0.00 | 0.00 | 0.00 | 88 | 1018.0 |
| 20260906215158 | 15 | 114 | 1.6 | 4.8 | 0.00 | 0.00 | 0.00 | 88 | 1018.0 |
| 20260906215141 | 15 | 85 | 3.2 | 4.8 | 0.00 | 0.00 | 0.00 | 88 | 1018.0 |
| 20260906215136 | 15 | 110 | 3.2 | 4.8 | 0.00 | 0.00 | 0.00 | 88 | 1018.0 |
| 20260906215110 | 15 | 155 | 4.8 | 4.8 | 0.00 | 0.00 | 0.00 | 88 | 1018.0 |
| 20260906215102 | 15 | 136 | 4.8 | 6.4 | 0.00 | 0.00 | 0.00 | 88 | 1018.0 |
| 20260906215054 | 15 | 136 | 4.8 | 6.4 | 0.00 | 0.00 | 0.00 | 88 | 1018.0 |
| 20260906215038 | 15 | 67 | 1.6 | 6.4 | 0.00 | 0.00 | 0.00 | 88 | 1018.0 |
| 20260906215022 | 15 | 104 | 3.2 | 6.4 | 0.00 | 0.00 | 0.00 | 88 | 1018.0 |
| 20260906215006 | 15 | 121 | 1.6 | 6.4 | 0.00 | 0.00 | 0.00 | 88 | 1018.0 |
| 20260906214949 | 15 | 123 | 3.2 | 6.4 | 0.00 | 0.00 | 0.00 | 88 | 1018.0 |
| 20260906214934 | 15 | 53 | 4.8 | 6.4 | 0.00 | 0.00 | 0.00 | 88 | 1018.0 |
| 20260906214928 | 15 | 108 | 4.8 | 4.8 | 0.00 | 0.00 | 0.00 | 88 | 1018.0 |
| 20260906214902 | 15 | 102 | 1.6 | 3.2 | 0.00 | 0.00 | 0.00 | 88 | 1018.0 |
| 20260906214846 | 15 | 59 | 1.6 | 3.2 | 0.00 | 0.00 | 0.00 | 88 | 1018.0 |
| 20260906214830 | 15 | 86 | 1.6 | 3.2 | 0.00 | 0.00 | 0.00 | 88 | 1018.0 |
| 20260906214806 | 15 | 94 | 0.0 | 3.2 | 0.00 | 0.00 | 0.00 | 88 | 1018.0 |
| 20260906214750 | 15 | 86 | 0.0 | 1.6 | 0.00 | 0.00 | 0.00 | 88 | 1018.0 |
| 20260906214734 | 15 | 50 | 0.0 | 1.6 | 0.00 | 0.00 | 0.00 | 88 | 1018.0 |
| 20260906214728 | 15 | 148 | 0.0 | 1.6 | 0.00 | 0.00 | 0.00 | 88 | 1018.0 |
| 20260906214712 | 15 | 91 | 1.6 | 1.6 | 0.00 | 0.00 | 0.00 | 88 | 1018.0 |
| 20260906214646 | 15 | 96 | 1.6 | 1.6 | 0.00 | 0.00 | 0.00 | 88 | 1018.0 |
| 20260906214629 | 15 | 78 | 1.6 | 1.6 | 0.00 | 0.00 | 0.00 | 88 | 1018.0 |
| 20260906214613 | 15 | 88 | 0.0 | 0.0 | 0.00 | 0.00 | 0.00 | 88 | 1018.0 |
| 20260906214600 | 15 | 81 | 0.0 | 1.6 | 0.00 | 0.00 | 0.00 | 88 | 1018.0 |
| 20260906214542 | 15 | 78 | 0.0 | 1.6 | 0.00 | 0.00 | 0.00 | 88 | 1018.0 |
| 20260906214536 | 15 | 101 | 0.0 | 1.6 | 0.00 | 0.00 | 0.00 | 88 | 1018.0 |
| 20260906214512 | 15 | 106 | 0.0 | 1.6 | 0.00 | 0.00 | 0.00 | 88 | 1018.0 |
| 20260906214453 | 15 | 85 | 0.0 | 3.2 | 0.00 | 0.00 | 0.00 | 88 | 1018.0 |
| 20260906214438 | 15 | 97 | 0.0 | 3.2 | 0.00 | 0.00 | 0.00 | 88 | 1018.0 |
| 20260906214421 | 15 | 115 | 1.6 | 3.2 | 0.00 | 0.00 | 0.00 | 88 | 1018.0 |
| 20260906214405 | 15 | 85 | 1.6 | 3.2 | 0.00 | 0.00 | 0.00 | 88 | 1018.0 |
| 20260906214352 | 15 | 106 | 1.6 | 3.2 | 0.00 | 0.00 | 0.00 | 88 | 1018.0 |
| 20260906214325 | 15 | 110 | 1.6 | 3.2 | 0.00 | 0.00 | 0.00 | 88 | 1018.0 |
| 20260906214309 | 15 | 100 | 1.6 | 3.2 | 0.00 | 0.00 | 0.00 | 88 | 1018.0 |
| 20260906214301 | 15 | 90 | 1.6 | 3.2 | 0.00 | 0.00 | 0.00 | 88 | 1018.0 |
| 20260906214254 | 15 | 90 | 1.6 | 3.2 | 0.00 | 0.00 | 0.00 | 88 | 1018.0 |
| 20260906214238 | 15 | 124 | 3.2 | 3.2 | 0.00 | 0.00 | 0.00 | 88 | 1018.0 |
| 20260906214224 | 15 | 69 | 3.2 | 3.2 | 0.00 | 0.00 | 0.00 | 88 | 1018.0 |
| 20260906214205 | 15 | 86 | 0.0 | 1.6 | 0.00 | 0.00 | 0.00 | 88 | 1018.0 |
| 20260906214149 | 15 | 51 | 0.0 | 0.0 | 0.00 | 0.00 | 0.00 | 88 | 1018.0 |
| 20260906214134 | 15 | 182 | 0.0 | 0.0 | 0.00 | 0.00 | 0.00 | 88 | 1018.0 |
| 20260906214117 | 15 | 119 | 0.0 | 0.0 | 0.00 | 0.00 | 0.00 | 88 | 1018.0 |
| 20260906214112 | 15 | 107 | 0.0 | 0.0 | 0.00 | 0.00 | 0.00 | 88 | 1018.0 |
| 20260906214045 | 15 | 120 | 0.0 | 0.0 | 0.00 | 0.00 | 0.00 | 88 | 1018.0 |
| 20260906214040 | 15 | 108 | 0.0 | 0.0 | 0.00 | 0.00 | 0.00 | 88 | 1018.0 |
| 20260906214014 | 15 | 94 | 0.0 | 0.0 | 0.00 | 0.00 | 0.00 | 88 | 1018.0 |
| 20260906214005 | 15 | 235 | 0.0 | 0.0 | 0.00 | 0.00 | 0.00 | 88 | 1018.0 |
| 20260906213957 | 15 | 235 | 0.0 | 0.0 | 0.00 | 0.00 | 0.00 | 88 | 1018.0 |
| 20260906213952 | 15 | 235 | 0.0 | 0.0 | 0.00 | 0.00 | 0.00 | 88 | 1018.0 |
| 20260906213926 | 15 | 235 | 0.0 | 1.6 | 0.00 | 0.00 | 0.00 | 88 | 1018.0 |
| 20260906213901 | 15 | 235 | 0.0 | 1.6 | 0.00 | 0.00 | 0.00 | 89 | 1018.0 |
| 20260906213845 | 15 | 235 | 0.0 | 1.6 | 0.00 | 0.00 | 0.00 | 89 | 1018.0 |
| 20260906213814 | 15 | 235 | 0.0 | 1.6 | 0.00 | 0.00 | 0.00 | 89 | 1018.0 |
| 20260906213806 | 15 | 235 | 0.0 | 1.6 | 0.00 | 0.00 | 0.00 | 89 | 1018.0 |
| 20260906213758 | 15 | 235 | 0.0 | 1.6 | 0.00 | 0.00 | 0.00 | 89 | 1018.0 |
| 20260906213741 | 15 | 238 | 0.0 | 1.6 | 0.00 | 0.00 | 0.00 | 89 | 1018.0 |
| 20260906213736 | 15 | 238 | 1.6 | 3.2 | 0.00 | 0.00 | 0.00 | 89 | 1018.0 |
| 20260906213721 | 15 | 169 | 1.6 | 3.2 | 0.00 | 0.00 | 0.00 | 89 | 1018.0 |
| 20260906213706 | 15 | 119 | 1.6 | 3.2 | 0.00 | 0.00 | 0.00 | 89 | 1018.0 |
| 20260906213637 | 15 | 97 | 0.0 | 3.2 | 0.00 | 0.00 | 0.00 | 89 | 1018.0 |
| 20260906213631 | 15 | 118 | 1.6 | 3.2 | 0.00 | 0.00 | 0.00 | 89 | 1018.0 |
| 20260906213605 | 15 | 120 | 1.6 | 3.2 | 0.00 | 0.00 | 0.00 | 89 | 1018.0 |
| 20260906213600 | 15 | 147 | 1.6 | 3.2 | 0.00 | 0.00 | 0.00 | 89 | 1018.0 |
| 20260906213533 | 15 | 91 | 0.0 | 1.6 | 0.00 | 0.00 | 0.00 | 89 | 1018.0 |
| 20260906213517 | 15 | 94 | 0.0 | 0.0 | 0.00 | 0.00 | 0.00 | 89 | 1018.0 |
| 20260906213510 | 15 | 89 | 0.0 | 0.0 | 0.00 | 0.00 | 0.00 | 89 | 1018.0 |
| 20260906213503 | 15 | 89 | 0.0 | 1.6 | 0.00 | 0.00 | 0.00 | 89 | 1018.0 |
| 20260906213438 | 15 | 90 | 0.0 | 1.6 | 0.00 | 0.00 | 0.00 | 89 | 1018.0 |
| 20260906213421 | 15 | 112 | 0.0 | 3.2 | 0.00 | 0.00 | 0.00 | 89 | 1018.0 |
| 20260906213406 | 15 | 79 | 0.0 | 3.2 | 0.00 | 0.00 | 0.00 | 89 | 1018.0 |
| 20260906213349 | 15 | 78 | 0.0 | 3.2 | 0.00 | 0.00 | 0.00 | 89 | 1018.0 |
| 20260906213344 | 15 | 81 | 0.0 | 3.2 | 0.00 | 0.00 | 0.00 | 89 | 1018.0 |
| 20260906213319 | 15 | 74 | 0.0 | 3.2 | 0.00 | 0.00 | 0.00 | 89 | 1018.0 |
| 20260906213302 | 15 | 116 | 0.0 | 3.2 | 0.00 | 0.00 | 0.00 | 89 | 1018.0 |
| 20260906213248 | 15 | 142 | 1.6 | 3.2 | 0.00 | 0.00 | 0.00 | 89 | 1018.0 |
| 20260906213230 | 15 | 140 | 1.6 | 3.2 | 0.00 | 0.00 | 0.00 | 89 | 1018.0 |
| 20260906213214 | 15 | 141 | 0.0 | 0.0 | 0.00 | 0.00 | 0.00 | 89 | 1018.0 |
| 20260906213205 | 15 | 75 | 0.0 | 1.6 | 0.00 | 0.00 | 0.00 | 89 | 1018.0 |
| 20260906213158 | 15 | 75 | 0.0 | 1.6 | 0.00 | 0.00 | 0.00 | 89 | 1018.0 |
| 20260906213141 | 14 | 147 | 0.0 | 1.6 | 0.00 | 0.00 | 0.00 | 89 | 1018.0 |
| 20260906213125 | 14 | 145 | 0.0 | 1.6 | 0.00 | 0.00 | 0.00 | 89 | 1018.0 |
| 20260906213110 | 14 | 116 | 0.0 | 1.6 | 0.00 | 0.00 | 0.00 | 89 | 1018.0 |
| 20260906213101 | 14 | 118 | 0.0 | 1.6 | 0.00 | 0.00 | 0.00 | 89 | 1018.0 |
| 20260906213039 | 14 | 161 | 0.0 | 1.6 | 0.00 | 0.00 | 0.00 | 89 | 1018.0 |
| 20260906213031 | 14 | 161 | 0.0 | 4.8 | 0.00 | 0.00 | 0.00 | 89 | 1018.0 |
| 20260906213015 | 14 | 104 | 1.6 | 4.8 | 0.00 | 0.00 | 0.00 | 89 | 1018.0 |
| 20260906213006 | 14 | 132 | 0.0 | 4.8 | 0.00 | 0.00 | 0.00 | 89 | 1018.0 |
| 20260906212959 | 14 | 132 | 0.0 | 4.8 | 0.00 | 0.00 | 0.00 | 89 | 1018.0 |
| 20260906212942 | 14 | 147 | 0.0 | 4.8 | 0.00 | 0.00 | 0.00 | 89 | 1018.0 |
| 20260906212937 | 14 | 182 | 1.6 | 4.8 | 0.00 | 0.00 | 0.00 | 89 | 1018.0 |
| 20260906212910 | 14 | 248 | 0.0 | 4.8 | 0.00 | 0.00 | 0.00 | 89 | 1018.0 |
| 20260906212902 | 14 | 256 | 3.2 | 4.8 | 0.00 | 0.00 | 0.00 | 89 | 1018.0 |
| 20260906212854 | 14 | 256 | 3.2 | 4.8 | 0.00 | 0.00 | 0.00 | 89 | 1018.0 |
| 20260906212841 | 14 | 215 | 1.6 | 4.8 | 0.00 | 0.00 | 0.00 | 89 | 1018.0 |
| 20260906212809 | 14 | 45 | 0.0 | 1.6 | 0.00 | 0.00 | 0.00 | 89 | 1018.0 |
| 20260906212750 | 14 | 45 | 0.0 | 1.6 | 0.00 | 0.00 | 0.00 | 89 | 1018.0 |
| 20260906212734 | 14 | 75 | 0.0 | 1.6 | 0.00 | 0.00 | 0.00 | 89 | 1018.0 |
| 20260906212719 | 14 | 44 | 0.0 | 1.6 | 0.00 | 0.00 | 0.00 | 89 | 1018.0 |
| 20260906212710 | 14 | 93 | 0.0 | 1.6 | 0.00 | 0.00 | 0.00 | 89 | 1018.0 |
| 20260906212702 | 14 | 93 | 0.0 | 4.8 | 0.00 | 0.00 | 0.00 | 89 | 1018.0 |
| 20260906212650 | 14 | 109 | 0.0 | 4.8 | 0.00 | 0.00 | 0.00 | 89 | 1018.0 |
| 20260906212630 | 14 | 122 | 1.6 | 4.8 | 0.00 | 0.00 | 0.00 | 89 | 1018.0 |
| 20260906212606 | 14 | 108 | 1.6 | 4.8 | 0.00 | 0.00 | 0.00 | 89 | 1018.0 |
| 20260906212550 | 14 | 103 | 0.0 | 4.8 | 0.00 | 0.00 | 0.00 | 89 | 1018.0 |
| 20260906212541 | 14 | 134 | 1.6 | 4.8 | 0.00 | 0.00 | 0.00 | 89 | 1018.0 |
| 20260906212528 | 14 | 126 | 3.2 | 4.8 | 0.00 | 0.00 | 0.00 | 89 | 1018.0 |
| 20260906212509 | 14 | 131 | 3.2 | 4.8 | 0.00 | 0.00 | 0.00 | 89 | 1018.0 |
| 20260906212446 | 14 | 120 | 1.6 | 4.8 | 0.00 | 0.00 | 0.00 | 89 | 1018.0 |
| 20260906212430 | 14 | 145 | 1.6 | 4.8 | 0.00 | 0.00 | 0.00 | 89 | 1018.0 |
| 20260906212416 | 14 | 148 | 3.2 | 4.8 | 0.00 | 0.00 | 0.00 | 89 | 1018.0 |
| 20260906212358 | 14 | 110 | 0.0 | 4.8 | 0.00 | 0.00 | 0.00 | 89 | 1018.0 |
| 20260906212346 | 14 | 111 | 0.0 | 4.8 | 0.00 | 0.00 | 0.00 | 89 | 1018.0 |
| 20260906212326 | 14 | 146 | 0.0 | 4.8 | 0.00 | 0.00 | 0.00 | 89 | 1018.0 |
| 20260906212320 | 14 | 87 | 1.6 | 4.8 | 0.00 | 0.00 | 0.00 | 89 | 1018.0 |
| 20260906212306 | 14 | 76 | 3.2 | 4.8 | 0.00 | 0.00 | 0.00 | 89 | 1018.0 |
| 20260906212251 | 14 | 194 | 1.6 | 3.2 | 0.00 | 0.00 | 0.00 | 89 | 1018.0 |
| 20260906212222 | 14 | 128 | 0.0 | 3.2 | 0.00 | 0.00 | 0.00 | 89 | 1018.0 |
| 20260906212206 | 14 | 158 | 0.0 | 3.2 | 0.00 | 0.00 | 0.00 | 89 | 1018.0 |
| 20260906212200 | 14 | 133 | 1.6 | 3.2 | 0.00 | 0.00 | 0.00 | 89 | 1018.0 |
| 20260906212143 | 14 | 133 | 1.6 | 3.2 | 0.00 | 0.00 | 0.00 | 89 | 1018.0 |
| 20260906212126 | 14 | 130 | 1.6 | 3.2 | 0.00 | 0.00 | 0.00 | 89 | 1018.0 |
| 20260906212110 | 14 | 116 | 0.0 | 0.0 | 0.00 | 0.00 | 0.00 | 89 | 1018.0 |
| 20260906212102 | 14 | 107 | 0.0 | 0.0 | 0.00 | 0.00 | 0.00 | 89 | 1018.0 |
| 20260906212057 | 14 | 107 | 0.0 | 0.0 | 0.00 | 0.00 | 0.00 | 89 | 1018.0 |
| 20260906212022 | 14 | 107 | 0.0 | 0.0 | 0.00 | 0.00 | 0.00 | 89 | 1018.0 |
| 20260906212006 | 14 | 107 | 0.0 | 0.0 | 0.00 | 0.00 | 0.00 | 89 | 1018.0 |
| 20260906211942 | 14 | 113 | 0.0 | 0.0 | 0.00 | 0.00 | 0.00 | 89 | 1018.0 |
| 20260906211920 | 14 | 113 | 0.0 | 3.2 | 0.00 | 0.00 | 0.00 | 89 | 1018.0 |
| 20260906211902 | 14 | 114 | 0.0 | 4.8 | 0.00 | 0.00 | 0.00 | 89 | 1018.0 |
| 20260906211846 | 14 | 120 | 0.0 | 4.8 | 0.00 | 0.00 | 0.00 | 89 | 1018.0 |
| 20260906211833 | 14 | 185 | 0.0 | 4.8 | 0.00 | 0.00 | 0.00 | 89 | 1018.0 |
| 20260906211814 | 14 | 140 | 0.0 | 4.8 | 0.00 | 0.00 | 0.00 | 89 | 1018.0 |
| 20260906211806 | 14 | 106 | 1.6 | 6.4 | 0.00 | 0.00 | 0.00 | 89 | 1018.0 |
| 20260906211758 | 14 | 106 | 1.6 | 6.4 | 0.00 | 0.00 | 0.00 | 89 | 1018.0 |
| 20260906211750 | 14 | 144 | 3.2 | 6.4 | 0.00 | 0.00 | 0.00 | 89 | 1018.0 |
| 20260906211726 | 14 | 166 | 3.2 | 6.4 | 0.00 | 0.00 | 0.00 | 89 | 1018.0 |
| 20260906211702 | 14 | 147 | 3.2 | 6.4 | 0.00 | 0.00 | 0.00 | 89 | 1018.0 |
| 20260906211632 | 14 | 141 | 4.8 | 6.4 | 0.00 | 0.00 | 0.00 | 89 | 1018.0 |
| 20260906211614 | 14 | 147 | 0.0 | 1.6 | 0.00 | 0.00 | 0.00 | 89 | 1018.0 |
| 20260906211607 | 14 | 200 | 0.0 | 1.6 | 0.00 | 0.00 | 0.00 | 89 | 1018.0 |
| 20260906211558 | 14 | 200 | 0.0 | 1.6 | 0.00 | 0.00 | 0.00 | 89 | 1018.0 |
| 20260906211542 | 14 | 123 | 0.0 | 1.6 | 0.00 | 0.00 | 0.00 | 89 | 1018.0 |
| 20260906211526 | 14 | 127 | 0.0 | 3.2 | 0.00 | 0.00 | 0.00 | 89 | 1018.0 |
| 20260906211518 | 14 | 177 | 1.6 | 3.2 | 0.00 | 0.00 | 0.00 | 89 | 1018.0 |
| 20260906211503 | 14 | 97 | 1.6 | 4.8 | 0.00 | 0.00 | 0.00 | 89 | 1018.0 |
| 20260906211438 | 14 | 97 | 1.6 | 4.8 | 0.00 | 0.00 | 0.00 | 89 | 1018.0 |
| 20260906211422 | 14 | 114 | 0.0 | 4.8 | 0.00 | 0.00 | 0.00 | 89 | 1018.0 |
| 20260906211334 | 14 | 102 | 3.2 | 4.8 | 0.00 | 0.00 | 0.00 | 89 | 1018.0 |
| 20260906211318 | 14 | 182 | 1.6 | 3.2 | 0.00 | 0.00 | 0.00 | 89 | 1018.0 |
| 20260906211302 | 14 | 156 | 0.0 | 0.0 | 0.00 | 0.00 | 0.00 | 89 | 1018.0 |
| 20260906211254 | 14 | 156 | 0.0 | 0.0 | 0.00 | 0.00 | 0.00 | 89 | 1018.0 |
| 20260906211246 | 14 | 98 | 0.0 | 0.0 | 0.00 | 0.00 | 0.00 | 89 | 1018.0 |
| 20260906211238 | 14 | 98 | 0.0 | 0.0 | 0.00 | 0.00 | 0.00 | 88 | 1018.0 |
| 20260906211222 | 14 | 132 | 0.0 | 1.6 | 0.00 | 0.00 | 0.00 | 88 | 1018.0 |
| 20260906211216 | 14 | 115 | 0.0 | 1.6 | 0.00 | 0.00 | 0.00 | 88 | 1018.0 |
| 20260906211150 | 14 | 70 | 0.0 | 1.6 | 0.00 | 0.00 | 0.00 | 88 | 1018.0 |
| 20260906211145 | 14 | 93 | 0.0 | 1.6 | 0.00 | 0.00 | 0.00 | 88 | 1018.0 |
| 20260906211118 | 14 | 94 | 0.0 | 1.6 | 0.00 | 0.00 | 0.00 | 88 | 1018.0 |
| 20260906211105 | 14 | 98 | 0.0 | 1.6 | 0.00 | 0.00 | 0.00 | 88 | 1018.0 |
| 20260906211047 | 14 | 112 | 0.0 | 1.6 | 0.00 | 0.00 | 0.00 | 88 | 1018.0 |
| 20260906211031 | 14 | 120 | 1.6 | 1.6 | 0.00 | 0.00 | 0.00 | 88 | 1018.0 |
| 20260906211019 | 14 | 139 | 0.0 | 1.6 | 0.00 | 0.00 | 0.00 | 88 | 1018.0 |
| 20260906210942 | 14 | 142 | 0.0 | 4.8 | 0.00 | 0.00 | 0.00 | 88 | 1018.0 |
| 20260906210931 | 14 | 80 | 0.0 | 4.8 | 0.00 | 0.00 | 0.00 | 88 | 1018.0 |
| 20260906210902 | 14 | 131 | 0.0 | 4.8 | 0.00 | 0.00 | 0.00 | 88 | 1018.0 |
| 20260906210854 | 14 | 131 | 0.0 | 4.8 | 0.00 | 0.00 | 0.00 | 88 | 1018.0 |
| 20260906210830 | 14 | 179 | 3.2 | 4.8 | 0.00 | 0.00 | 0.00 | 88 | 1018.0 |
| 20260906210814 | 14 | 142 | 1.6 | 3.2 | 0.00 | 0.00 | 0.00 | 88 | 1018.0 |
| 20260906210811 | 14 | 127 | 0.0 | 0.0 | 0.00 | 0.00 | 0.00 | 88 | 1018.0 |
| 20260906210742 | 14 | 127 | 0.0 | 0.0 | 0.00 | 0.00 | 0.00 | 88 | 1018.0 |
| 20260906210726 | 14 | 125 | 0.0 | 0.0 | 0.00 | 0.00 | 0.00 | 88 | 1018.0 |
| 20260906210710 | 14 | 140 | 0.0 | 0.0 | 0.00 | 0.00 | 0.00 | 88 | 1018.0 |
| 20260906210704 | 14 | 148 | 0.0 | 0.0 | 0.00 | 0.00 | 0.00 | 88 | 1018.0 |
| 20260906210639 | 14 | 151 | 0.0 | 0.0 | 0.00 | 0.00 | 0.00 | 88 | 1018.0 |
| 20260906210625 | 14 | 119 | 0.0 | 0.0 | 0.00 | 0.00 | 0.00 | 88 | 1018.0 |
| 20260906210606 | 14 | 140 | 0.0 | 0.0 | 0.00 | 0.00 | 0.00 | 88 | 1018.0 |
| 20260906210550 | 14 | 103 | 0.0 | 0.0 | 0.00 | 0.00 | 0.00 | 88 | 1018.0 |
| 20260906210536 | 14 | 118 | 0.0 | 0.0 | 0.00 | 0.00 | 0.00 | 88 | 1018.0 |
| 20260906210518 | 14 | 64 | 0.0 | 0.0 | 0.00 | 0.00 | 0.00 | 88 | 1018.0 |
| 20260906210502 | 14 | 22 | 0.0 | 0.0 | 0.00 | 0.00 | 0.00 | 88 | 1018.0 |
| 20260906210446 | 14 | 9 | 0.0 | 0.0 | 0.00 | 0.00 | 0.00 | 88 | 1018.0 |
| 20260906210441 | 14 | 313 | 0.0 | 0.0 | 0.00 | 0.00 | 0.00 | 88 | 1018.0 |
| 20260906210424 | 14 | 135 | 0.0 | 0.0 | 0.00 | 0.00 | 0.00 | 88 | 1018.0 |
| 20260906210406 | 14 | 135 | 0.0 | 1.6 | 0.00 | 0.00 | 0.00 | 88 | 1018.0 |
| 20260906210350 | 14 | 125 | 0.0 | 1.6 | 0.00 | 0.00 | 0.00 | 88 | 1018.0 |
| 20260906210337 | 14 | 104 | 0.0 | 1.6 | 0.00 | 0.00 | 0.00 | 88 | 1018.0 |
| 20260906210320 | 14 | 92 | 0.0 | 1.6 | 0.00 | 0.00 | 0.00 | 88 | 1018.0 |
| 20260906210302 | 14 | 144 | 0.0 | 3.2 | 0.00 | 0.00 | 0.00 | 87 | 1018.0 |
| 20260906210257 | 14 | 111 | 0.0 | 3.2 | 0.00 | 0.00 | 0.00 | 87 | 1018.0 |
| 20260906210230 | 14 | 105 | 0.0 | 3.2 | 0.00 | 0.00 | 0.00 | 87 | 1018.0 |
| 20260906210214 | 14 | 90 | 1.6 | 3.2 | 0.00 | 0.00 | 0.00 | 87 | 1018.0 |
| 20260906210206 | 14 | 130 | 1.6 | 3.2 | 0.00 | 0.00 | 0.00 | 87 | 1018.0 |
| 20260906210158 | 14 | 130 | 1.6 | 3.2 | 0.00 | 0.00 | 0.00 | 87 | 1018.0 |
| 20260906210142 | 14 | 106 | 3.2 | 3.2 | 0.00 | 0.00 | 0.00 | 87 | 1018.0 |
| 20260906210110 | 14 | 142 | 3.2 | 6.4 | 0.00 | 0.00 | 0.00 | 87 | 1018.0 |
| 20260906210054 | 14 | 162 | 1.6 | 6.4 | 0.00 | 0.00 | 0.00 | 87 | 1018.0 |
| 20260906210038 | 14 | 183 | 1.6 | 6.4 | 0.00 | 0.00 | 0.00 | 87 | 1018.0 |
| 20260906210022 | 14 | 100 | 1.6 | 6.4 | 0.00 | 0.00 | 0.00 | 87 | 1018.0 |
| 20260906210006 | 14 | 132 | 3.2 | 6.4 | 0.00 | 0.00 | 0.00 | 87 | 1018.0 |
| 20260906205958 | 14 | 153 | 3.2 | 6.4 | 0.00 | 0.00 | 0.00 | 87 | 1018.0 |
| 20260906205942 | 14 | 153 | 3.2 | 6.4 | 0.00 | 0.00 | 0.00 | 86 | 1018.0 |
| 20260906205926 | 14 | 122 | 1.6 | 4.8 | 0.00 | 0.00 | 0.00 | 86 | 1018.0 |
| 20260906205910 | 14 | 141 | 1.6 | 4.8 | 0.00 | 0.00 | 0.00 | 86 | 1018.0 |
| 20260906205902 | 14 | 181 | 1.6 | 4.8 | 0.00 | 0.00 | 0.00 | 86 | 1018.0 |
| 20260906205854 | 14 | 181 | 1.6 | 4.8 | 0.00 | 0.00 | 0.00 | 86 | 1018.0 |
| 20260906205848 | 14 | 84 | 3.2 | 4.8 | 0.00 | 0.00 | 0.00 | 86 | 1018.0 |
| 20260906205824 | 14 | 96 | 0.0 | 3.2 | 0.00 | 0.00 | 0.00 | 86 | 1018.0 |
| 20260906205807 | 14 | 78 | 1.6 | 3.2 | 0.00 | 0.00 | 0.00 | 86 | 1018.0 |
| 20260906205750 | 14 | 128 | 1.6 | 3.2 | 0.00 | 0.00 | 0.00 | 86 | 1018.0 |
| 20260906205742 | 15 | 146 | 1.6 | 3.2 | 0.00 | 0.00 | 0.00 | 86 | 1018.0 |
| 20260906205740 | 15 | 146 | 1.6 | 4.8 | 0.00 | 0.00 | 0.00 | 86 | 1018.0 |
| 20260906205703 | 15 | 143 | 3.2 | 4.8 | 0.00 | 0.00 | 0.00 | 86 | 1018.0 |
| 20260906205646 | 15 | 110 | 1.6 | 4.8 | 0.00 | 0.00 | 0.00 | 86 | 1018.0 |
| 20260906205640 | 15 | 132 | 1.6 | 4.8 | 0.00 | 0.00 | 0.00 | 86 | 1018.0 |
| 20260906205624 | 15 | 137 | 3.2 | 4.8 | 0.00 | 0.00 | 0.00 | 86 | 1018.0 |
| 20260906205606 | 15 | 144 | 3.2 | 11.3 | 0.00 | 0.00 | 0.00 | 86 | 1018.0 |
| 20260906205559 | 15 | 144 | 3.2 | 11.3 | 0.00 | 0.00 | 0.00 | 86 | 1018.0 |
| 20260906205542 | 15 | 190 | 3.2 | 11.3 | 0.00 | 0.00 | 0.00 | 86 | 1018.0 |
| 20260906205520 | 15 | 105 | 3.2 | 11.3 | 0.00 | 0.00 | 0.00 | 85 | 1018.0 |
| 20260906205502 | 15 | 128 | 3.2 | 11.3 | 0.00 | 0.00 | 0.00 | 85 | 1018.0 |
| 20260906205446 | 15 | 109 | 1.6 | 11.3 | 0.00 | 0.00 | 0.00 | 85 | 1018.0 |
| 20260906205440 | 15 | 137 | 3.2 | 11.3 | 0.00 | 0.00 | 0.00 | 85 | 1018.0 |
| 20260906205414 | 15 | 124 | 4.8 | 11.3 | 0.00 | 0.00 | 0.00 | 85 | 1018.0 |
| 20260906205406 | 15 | 161 | 4.8 | 6.4 | 0.00 | 0.00 | 0.00 | 85 | 1018.0 |
| 20260906205358 | 15 | 161 | 4.8 | 6.4 | 0.00 | 0.00 | 0.00 | 85 | 1018.0 |
| 20260906205342 | 15 | 118 | 3.2 | 4.8 | 0.00 | 0.00 | 0.00 | 85 | 1018.0 |
| 20260906205326 | 15 | 142 | 3.2 | 4.8 | 0.00 | 0.00 | 0.00 | 85 | 1018.0 |
| 20260906205310 | 15 | 196 | 3.2 | 4.8 | 0.00 | 0.00 | 0.00 | 85 | 1018.0 |
| 20260906205306 | 15 | 124 | 3.2 | 4.8 | 0.00 | 0.00 | 0.00 | 85 | 1018.0 |
| 20260906205254 | 15 | 124 | 3.2 | 4.8 | 0.00 | 0.00 | 0.00 | 85 | 1018.0 |
| 20260906205239 | 15 | 142 | 1.6 | 4.8 | 0.00 | 0.00 | 0.00 | 85 | 1018.0 |
| 20260906205230 | 15 | 144 | 1.6 | 9.7 | 0.00 | 0.00 | 0.00 | 85 | 1018.0 |
| 20260906205222 | 15 | 144 | 1.6 | 9.7 | 0.00 | 0.00 | 0.00 | 84 | 1018.0 |
| 20260906205206 | 15 | 136 | 3.2 | 9.7 | 0.00 | 0.00 | 0.00 | 84 | 1018.0 |
| 20260906205150 | 15 | 172 | 3.2 | 9.7 | 0.00 | 0.00 | 0.00 | 84 | 1018.0 |
| 20260906205134 | 15 | 116 | 3.2 | 9.7 | 0.00 | 0.00 | 0.00 | 84 | 1018.0 |
| 20260906205118 | 15 | 54 | 3.2 | 9.7 | 0.00 | 0.00 | 0.00 | 84 | 1018.0 |
| 20260906205112 | 15 | 154 | 6.4 | 9.7 | 0.00 | 0.00 | 0.00 | 84 | 1018.0 |
| 20260906205054 | 15 | 154 | 6.4 | 11.3 | 0.00 | 0.00 | 0.00 | 84 | 1018.0 |
| 20260906205022 | 15 | 121 | 1.6 | 11.3 | 0.00 | 0.00 | 0.00 | 84 | 1018.0 |
| 20260906205006 | 15 | 134 | 3.2 | 11.3 | 0.00 | 0.00 | 0.00 | 83 | 1018.0 |
| 20260906204950 | 15 | 96 | 3.2 | 11.3 | 0.00 | 0.00 | 0.00 | 83 | 1018.0 |
| 20260906204943 | 15 | 131 | 3.2 | 11.3 | 0.00 | 0.00 | 0.00 | 83 | 1018.0 |
| 20260906204934 | 15 | 131 | 3.2 | 12.9 | 0.00 | 0.00 | 0.00 | 83 | 1018.0 |
| 20260906204919 | 15 | 136 | 6.4 | 12.9 | 0.00 | 0.00 | 0.00 | 83 | 1018.0 |
| 20260906204902 | 15 | 129 | 8.0 | 12.9 | 0.00 | 0.00 | 0.00 | 83 | 1018.0 |
| 20260906204849 | 15 | 136 | 3.2 | 12.9 | 0.00 | 0.00 | 0.00 | 83 | 1018.0 |
| 20260906204830 | 15 | 80 | 3.2 | 12.9 | 0.00 | 0.00 | 0.00 | 83 | 1018.0 |
| 20260906204814 | 15 | 112 | 3.2 | 12.9 | 0.00 | 0.00 | 0.00 | 83 | 1018.0 |
| 20260906204806 | 15 | 92 | 6.4 | 12.9 | 0.00 | 0.00 | 0.00 | 83 | 1018.0 |
| 20260906204758 | 15 | 92 | 6.4 | 12.9 | 0.00 | 0.00 | 0.00 | 83 | 1018.0 |
| 20260906204742 | 15 | 106 | 6.4 | 6.4 | 0.00 | 0.00 | 0.00 | 83 | 1018.0 |
| 20260906204730 | 15 | 98 | 3.2 | 4.8 | 0.00 | 0.00 | 0.00 | 83 | 1018.0 |
| 20260906204710 | 15 | 93 | 3.2 | 4.8 | 0.00 | 0.00 | 0.00 | 83 | 1018.0 |
| 20260906204702 | 15 | 89 | 3.2 | 4.8 | 0.00 | 0.00 | 0.00 | 82 | 1018.0 |
| 20260906204656 | 15 | 89 | 3.2 | 4.8 | 0.00 | 0.00 | 0.00 | 82 | 1018.0 |
| 20260906204632 | 15 | 153 | 3.2 | 4.8 | 0.00 | 0.00 | 0.00 | 82 | 1018.0 |
| 20260906204614 | 15 | 103 | 1.6 | 4.8 | 0.00 | 0.00 | 0.00 | 82 | 1018.0 |
| 20260906204606 | 15 | 108 | 3.2 | 4.8 | 0.00 | 0.00 | 0.00 | 82 | 1018.0 |
| 20260906204558 | 15 | 108 | 3.2 | 4.8 | 0.00 | 0.00 | 0.00 | 82 | 1018.0 |
| 20260906204545 | 15 | 101 | 0.0 | 0.0 | 0.00 | 0.00 | 0.00 | 82 | 1018.0 |
| 20260906204526 | 15 | 94 | 0.0 | 0.0 | 0.00 | 0.00 | 0.00 | 82 | 1018.0 |
| 20260906204510 | 15 | 133 | 0.0 | 0.0 | 0.00 | 0.00 | 0.00 | 82 | 1018.0 |
| 20260906204502 | 15 | 78 | 0.0 | 1.6 | 0.00 | 0.00 | 0.00 | 82 | 1018.0 |
| 20260906204454 | 15 | 78 | 0.0 | 1.6 | 0.00 | 0.00 | 0.00 | 83 | 1018.0 |
| 20260906204442 | 15 | 137 | 0.0 | 1.6 | 0.00 | 0.00 | 0.00 | 83 | 1018.0 |
| 20260906204422 | 15 | 127 | 0.0 | 1.6 | 0.00 | 0.00 | 0.00 | 83 | 1018.0 |
| 20260906204416 | 15 | 218 | 0.0 | 1.6 | 0.00 | 0.00 | 0.00 | 83 | 1018.0 |
| 20260906204350 | 15 | 76 | 0.0 | 1.6 | 0.00 | 0.00 | 0.00 | 83 | 1018.0 |
| 20260906204344 | 15 | 123 | 0.0 | 1.6 | 0.00 | 0.00 | 0.00 | 83 | 1018.0 |
| 20260906204318 | 15 | 118 | 1.6 | 3.2 | 0.00 | 0.00 | 0.00 | 83 | 1018.0 |
| 20260906204310 | 15 | 208 | 0.0 | 3.2 | 0.00 | 0.00 | 0.00 | 83 | 1018.0 |
| 20260906204302 | 15 | 208 | 0.0 | 4.8 | 0.00 | 0.00 | 0.00 | 83 | 1018.0 |
| 20260906204247 | 15 | 79 | 0.0 | 4.8 | 0.00 | 0.00 | 0.00 | 83 | 1018.0 |
| 20260906204233 | 15 | 180 | 1.6 | 4.8 | 0.00 | 0.00 | 0.00 | 83 | 1018.0 |
| 20260906204208 | 15 | 143 | 1.6 | 4.8 | 0.00 | 0.00 | 0.00 | 83 | 1018.0 |
| 20260906204150 | 15 | 128 | 3.2 | 4.8 | 0.00 | 0.00 | 0.00 | 83 | 1018.0 |
| 20260906204134 | 15 | 160 | 1.6 | 4.8 | 0.00 | 0.00 | 0.00 | 83 | 1018.0 |
| 20260906204118 | 15 | 148 | 3.2 | 4.8 | 0.00 | 0.00 | 0.00 | 83 | 1018.0 |
| 20260906204110 | 15 | 167 | 0.0 | 1.6 | 0.00 | 0.00 | 0.00 | 83 | 1018.0 |
| 20260906204102 | 15 | 167 | 0.0 | 3.2 | 0.00 | 0.00 | 0.00 | 83 | 1018.0 |
| 20260906204046 | 15 | 141 | 0.0 | 3.2 | 0.00 | 0.00 | 0.00 | 83 | 1018.0 |
| 20260906204030 | 15 | 94 | 0.0 | 3.2 | 0.00 | 0.00 | 0.00 | 83 | 1018.0 |
| 20260906204014 | 15 | 94 | 0.0 | 3.2 | 0.00 | 0.00 | 0.00 | 83 | 1018.0 |
| 20260906204006 | 15 | 45 | 0.0 | 3.2 | 0.00 | 0.00 | 0.00 | 83 | 1018.0 |
| 20260906203958 | 15 | 45 | 0.0 | 3.2 | 0.00 | 0.00 | 0.00 | 83 | 1018.0 |
| 20260906203926 | 15 | 155 | 1.6 | 3.2 | 0.00 | 0.00 | 0.00 | 83 | 1018.0 |
| 20260906203910 | 15 | 124 | 0.0 | 1.6 | 0.00 | 0.00 | 0.00 | 83 | 1018.0 |
| 20260906203902 | 15 | 115 | 0.0 | 1.6 | 0.00 | 0.00 | 0.00 | 83 | 1018.0 |
| 20260906203854 | 15 | 115 | 0.0 | 1.6 | 0.00 | 0.00 | 0.00 | 83 | 1018.0 |
| 20260906203839 | 15 | 105 | 0.0 | 1.6 | 0.00 | 0.00 | 0.00 | 83 | 1018.0 |
| 20260906203822 | 15 | 68 | 0.0 | 1.6 | 0.00 | 0.00 | 0.00 | 83 | 1018.0 |
| 20260906203806 | 15 | 124 | 1.6 | 1.6 | 0.00 | 0.00 | 0.00 | 83 | 1018.0 |
| 20260906203800 | 15 | 115 | 1.6 | 1.6 | 0.00 | 0.00 | 0.00 | 83 | 1018.0 |
| 20260906203750 | 15 | 115 | 1.6 | 1.6 | 0.00 | 0.00 | 0.00 | 83 | 1018.0 |
| 20260906203736 | 15 | 125 | 0.0 | 1.6 | 0.00 | 0.00 | 0.00 | 83 | 1018.0 |
| 20260906203710 | 15 | 120 | 0.0 | 1.6 | 0.00 | 0.00 | 0.00 | 83 | 1018.0 |
| 20260906203702 | 15 | 97 | 0.0 | 3.2 | 0.00 | 0.00 | 0.00 | 83 | 1018.0 |
| 20260906203654 | 15 | 97 | 0.0 | 3.2 | 0.00 | 0.00 | 0.00 | 83 | 1018.0 |
| 20260906203640 | 15 | 112 | 0.0 | 3.2 | 0.00 | 0.00 | 0.00 | 83 | 1018.0 |
| 20260906203622 | 15 | 113 | 0.0 | 3.2 | 0.00 | 0.00 | 0.00 | 83 | 1018.0 |
| 20260906203606 | 15 | 103 | 0.0 | 3.2 | 0.00 | 0.00 | 0.00 | 83 | 1018.0 |
| 20260906203550 | 15 | 105 | 0.0 | 3.2 | 0.00 | 0.00 | 0.00 | 83 | 1018.0 |
| 20260906203538 | 15 | 116 | 1.6 | 3.2 | 0.00 | 0.00 | 0.00 | 83 | 1018.0 |
| 20260906203502 | 15 | 101 | 3.2 | 3.2 | 0.00 | 0.00 | 0.00 | 83 | 1018.0 |
| 20260906203456 | 15 | 91 | 1.6 | 1.6 | 0.00 | 0.00 | 0.00 | 83 | 1018.0 |
| 20260906203430 | 15 | 119 | 0.0 | 1.6 | 0.00 | 0.00 | 0.00 | 83 | 1018.0 |
| 20260906203416 | 15 | 81 | 0.0 | 0.0 | 0.00 | 0.00 | 0.00 | 83 | 1018.0 |
| 20260906203403 | 15 | 127 | 0.0 | 0.0 | 0.00 | 0.00 | 0.00 | 83 | 1018.0 |
| 20260906203328 | 15 | 128 | 0.0 | 0.0 | 0.00 | 0.00 | 0.00 | 83 | 1018.0 |
| 20260906203313 | 15 | 154 | 0.0 | 0.0 | 0.00 | 0.00 | 0.00 | 83 | 1018.0 |
| 20260906203246 | 15 | 112 | 0.0 | 0.0 | 0.00 | 0.00 | 0.00 | 83 | 1018.0 |
| 20260906203240 | 15 | 148 | 0.0 | 0.0 | 0.00 | 0.00 | 0.00 | 83 | 1018.0 |
| 20260906203213 | 15 | 162 | 0.0 | 0.0 | 0.00 | 0.00 | 0.00 | 83 | 1018.0 |
| 20260906203206 | 15 | 124 | 0.0 | 0.0 | 0.00 | 0.00 | 0.00 | 82 | 1018.0 |
| 20260906203158 | 15 | 124 | 0.0 | 0.0 | 0.00 | 0.00 | 0.00 | 82 | 1018.0 |
| 20260906203144 | 15 | 170 | 0.0 | 0.0 | 0.00 | 0.00 | 0.00 | 82 | 1018.0 |
| 20260906203126 | 15 | 77 | 0.0 | 1.6 | 0.00 | 0.00 | 0.00 | 82 | 1018.0 |
| 20260906203110 | 15 | 116 | 0.0 | 1.6 | 0.00 | 0.00 | 0.00 | 82 | 1018.0 |
| 20260906203102 | 15 | 113 | 0.0 | 4.8 | 0.00 | 0.00 | 0.00 | 82 | 1018.0 |
| 20260906203054 | 15 | 113 | 0.0 | 4.8 | 0.00 | 0.00 | 0.00 | 82 | 1018.0 |
| 20260906203051 | 15 | 124 | 0.0 | 4.8 | 0.00 | 0.00 | 0.00 | 82 | 1018.0 |
| 20260906203021 | 15 | 113 | 0.0 | 4.8 | 0.00 | 0.00 | 0.00 | 82 | 1018.0 |
| 20260906203005 | 15 | 152 | 1.6 | 4.8 | 0.00 | 0.00 | 0.00 | 82 | 1018.0 |
| 20260906202950 | 15 | 156 | 0.0 | 4.8 | 0.00 | 0.00 | 0.00 | 82 | 1018.0 |
| 20260906202934 | 15 | 85 | 3.2 | 4.8 | 0.00 | 0.00 | 0.00 | 82 | 1018.0 |
| 20260906202918 | 15 | 80 | 0.0 | 3.2 | 0.00 | 0.00 | 0.00 | 82 | 1018.0 |
| 20260906202902 | 15 | 103 | 1.6 | 3.2 | 0.00 | 0.00 | 0.00 | 82 | 1018.0 |
| 20260906202839 | 15 | 141 | 1.6 | 3.2 | 0.00 | 0.00 | 0.00 | 83 | 1018.0 |
| 20260906202822 | 15 | 138 | 3.2 | 3.2 | 0.00 | 0.00 | 0.00 | 83 | 1018.0 |
| 20260906202806 | 15 | 137 | 0.0 | 0.0 | 0.00 | 0.00 | 0.00 | 83 | 1018.0 |
| 20260906202753 | 15 | 122 | 0.0 | 0.0 | 0.00 | 0.00 | 0.00 | 83 | 1018.0 |
| 20260906202736 | 15 | 141 | 0.0 | 0.0 | 0.00 | 0.00 | 0.00 | 83 | 1018.0 |
| 20260906202702 | 15 | 134 | 0.0 | 0.0 | 0.00 | 0.00 | 0.00 | 83 | 1018.0 |
| 20260906202646 | 15 | 153 | 0.0 | 0.0 | 0.00 | 0.00 | 0.00 | 83 | 1018.0 |
| 20260906202630 | 15 | 136 | 0.0 | 0.0 | 0.00 | 0.00 | 0.00 | 83 | 1018.0 |
| 20260906202614 | 15 | 105 | 0.0 | 0.0 | 0.00 | 0.00 | 0.00 | 83 | 1018.0 |
| 20260906202606 | 15 | 147 | 0.0 | 0.0 | 0.00 | 0.00 | 0.00 | 83 | 1018.0 |
| 20260906202600 | 15 | 147 | 0.0 | 0.0 | 0.00 | 0.00 | 0.00 | 83 | 1018.0 |
| 20260906202542 | 15 | 131 | 0.0 | 0.0 | 0.00 | 0.00 | 0.00 | 83 | 1018.0 |
| 20260906202510 | 15 | 126 | 0.0 | 0.0 | 0.00 | 0.00 | 0.00 | 83 | 1018.0 |
| 20260906202504 | 15 | 152 | 0.0 | 0.0 | 0.00 | 0.00 | 0.00 | 83 | 1018.0 |
| 20260906202446 | 15 | 119 | 0.0 | 0.0 | 0.00 | 0.00 | 0.00 | 83 | 1018.0 |
| 20260906202440 | 15 | 119 | 0.0 | 0.0 | 0.00 | 0.00 | 0.00 | 82 | 1018.0 |
| 20260906202415 | 15 | 104 | 0.0 | 0.0 | 0.00 | 0.00 | 0.00 | 82 | 1018.0 |
| 20260906202406 | 15 | 135 | 0.0 | 0.0 | 0.00 | 0.00 | 0.00 | 82 | 1018.0 |
| 20260906202344 | 15 | 135 | 0.0 | 0.0 | 0.00 | 0.00 | 0.00 | 82 | 1018.0 |
| 20260906202326 | 15 | 135 | 0.0 | 1.6 | 0.00 | 0.00 | 0.00 | 82 | 1018.0 |
| 20260906202310 | 15 | 142 | 0.0 | 1.6 | 0.00 | 0.00 | 0.00 | 82 | 1018.0 |
| 20260906202306 | 15 | 142 | 0.0 | 3.2 | 0.00 | 0.00 | 0.00 | 82 | 1018.0 |
| 20260906202254 | 15 | 142 | 0.0 | 3.2 | 0.00 | 0.00 | 0.00 | 82 | 1018.0 |
| 20260906202238 | 15 | 78 | 0.0 | 3.2 | 0.00 | 0.00 | 0.00 | 82 | 1018.0 |
| 20260906202222 | 15 | 99 | 0.0 | 3.2 | 0.00 | 0.00 | 0.00 | 82 | 1018.0 |
| 20260906202206 | 15 | 90 | 0.0 | 3.2 | 0.00 | 0.00 | 0.00 | 82 | 1018.0 |
| 20260906202200 | 15 | 118 | 0.0 | 3.2 | 0.00 | 0.00 | 0.00 | 82 | 1018.0 |
| 20260906202134 | 15 | 32 | 1.6 | 3.2 | 0.00 | 0.00 | 0.00 | 82 | 1018.0 |
| 20260906202117 | 15 | 177 | 0.0 | 1.6 | 0.00 | 0.00 | 0.00 | 82 | 1018.0 |
| 20260906202101 | 15 | 198 | 0.0 | 1.6 | 0.00 | 0.00 | 0.00 | 82 | 1018.0 |
| 20260906202046 | 15 | 193 | 0.0 | 1.6 | 0.00 | 0.00 | 0.00 | 82 | 1018.0 |
| 20260906202029 | 15 | 197 | 0.0 | 1.6 | 0.00 | 0.00 | 0.00 | 82 | 1018.0 |
| 20260906202006 | 15 | 100 | 0.0 | 1.6 | 0.00 | 0.00 | 0.00 | 82 | 1018.0 |
| 20260906201950 | 15 | 92 | 1.6 | 1.6 | 0.00 | 0.00 | 0.00 | 82 | 1018.0 |
| 20260906201942 | 15 | 85 | 0.0 | 1.6 | 0.00 | 0.00 | 0.00 | 82 | 1018.0 |
| 20260906201934 | 15 | 85 | 0.0 | 3.2 | 0.00 | 0.00 | 0.00 | 82 | 1018.0 |
| 20260906201920 | 15 | 84 | 0.0 | 3.2 | 0.00 | 0.00 | 0.00 | 82 | 1018.0 |
| 20260906201902 | 15 | 78 | 0.0 | 3.2 | 0.00 | 0.00 | 0.00 | 82 | 1018.0 |
| 20260906201848 | 15 | 72 | 0.0 | 3.2 | 0.00 | 0.00 | 0.00 | 82 | 1018.0 |
| 20260906201830 | 15 | 72 | 0.0 | 3.2 | 0.00 | 0.00 | 0.00 | 82 | 1018.0 |
| 20260906201814 | 15 | 141 | 0.0 | 3.2 | 0.00 | 0.00 | 0.00 | 82 | 1018.0 |
| 20260906201805 | 15 | 125 | 3.2 | 3.2 | 0.00 | 0.00 | 0.00 | 82 | 1018.0 |
| 20260906201758 | 15 | 125 | 3.2 | 3.2 | 0.00 | 0.00 | 0.00 | 82 | 1018.0 |
| 20260906201752 | 15 | 93 | 1.6 | 1.6 | 0.00 | 0.00 | 0.00 | 82 | 1018.0 |
| 20260906201727 | 15 | 122 | 1.6 | 1.6 | 0.00 | 0.00 | 0.00 | 82 | 1018.0 |
| 20260906201710 | 15 | 95 | 1.6 | 1.6 | 0.00 | 0.00 | 0.00 | 82 | 1018.0 |
| 20260906201705 | 15 | 114 | 1.6 | 1.6 | 0.00 | 0.00 | 0.00 | 82 | 1018.0 |
| 20260906201638 | 15 | 103 | 1.6 | 1.6 | 0.00 | 0.00 | 0.00 | 82 | 1018.0 |
| 20260906201622 | 15 | 87 | 0.0 | 1.6 | 0.00 | 0.00 | 0.00 | 82 | 1018.0 |
| 20260906201616 | 15 | 49 | 0.0 | 1.6 | 0.00 | 0.00 | 0.00 | 82 | 1018.0 |
| 20260906201525 | 15 | 105 | 0.0 | 1.6 | 0.00 | 0.00 | 0.00 | 82 | 1018.0 |
| 20260906201516 | 15 | 104 | 1.6 | 1.6 | 0.00 | 0.00 | 0.00 | 82 | 1018.0 |
| 20260906201437 | 15 | 94 | 0.0 | 4.8 | 0.00 | 0.00 | 0.00 | 82 | 1018.0 |
| 20260906201421 | 15 | 94 | 0.0 | 6.4 | 0.00 | 0.00 | 0.00 | 82 | 1018.0 |
| 20260906201416 | 15 | 91 | 1.6 | 6.4 | 0.00 | 0.00 | 0.00 | 82 | 1018.0 |
| 20260906201350 | 15 | 148 | 1.6 | 6.4 | 0.00 | 0.00 | 0.00 | 82 | 1018.0 |
| 20260906201344 | 15 | 94 | 3.2 | 6.4 | 0.00 | 0.00 | 0.00 | 82 | 1018.0 |
| 20260906201317 | 15 | 150 | 3.2 | 6.4 | 0.00 | 0.00 | 0.00 | 82 | 1018.0 |
| 20260906201301 | 15 | 161 | 1.6 | 6.4 | 0.00 | 0.00 | 0.00 | 82 | 1018.0 |
| 20260906201247 | 15 | 145 | 4.8 | 6.4 | 0.00 | 0.00 | 0.00 | 82 | 1018.0 |
| 20260906201240 | 15 | 137 | 3.2 | 4.8 | 0.00 | 0.00 | 0.00 | 82 | 1018.0 |
| 20260906201213 | 15 | 147 | 3.2 | 4.8 | 0.00 | 0.00 | 0.00 | 82 | 1018.0 |
| 20260906201206 | 15 | 120 | 0.0 | 4.8 | 0.00 | 0.00 | 0.00 | 82 | 1018.0 |
| 20260906201157 | 15 | 120 | 0.0 | 4.8 | 0.00 | 0.00 | 0.00 | 82 | 1018.0 |
| 20260906201142 | 15 | 133 | 1.6 | 4.8 | 0.00 | 0.00 | 0.00 | 82 | 1018.0 |
| 20260906201128 | 15 | 81 | 3.2 | 4.8 | 0.00 | 0.00 | 0.00 | 82 | 1018.0 |
| 20260906201112 | 15 | 130 | 3.2 | 4.8 | 0.00 | 0.00 | 0.00 | 82 | 1018.0 |
| 20260906201053 | 15 | 137 | 3.2 | 4.8 | 0.00 | 0.00 | 0.00 | 82 | 1018.0 |
| 20260906201046 | 15 | 137 | 3.2 | 4.8 | 0.00 | 0.00 | 0.00 | 82 | 1018.0 |
| 20260906201030 | 15 | 178 | 1.6 | 4.8 | 0.00 | 0.00 | 0.00 | 82 | 1018.0 |
| 20260906201016 | 15 | 258 | 0.0 | 1.6 | 0.00 | 0.00 | 0.00 | 82 | 1018.0 |
| 20260906200958 | 15 | 171 | 1.6 | 1.6 | 0.00 | 0.00 | 0.00 | 82 | 1018.0 |
| 20260906200950 | 15 | 131 | 0.0 | 0.0 | 0.00 | 0.00 | 0.00 | 82 | 1018.0 |
| 20260906200941 | 15 | 131 | 0.0 | 0.0 | 0.00 | 0.00 | 0.00 | 81 | 1018.0 |
| 20260906200926 | 15 | 104 | 0.0 | 0.0 | 0.00 | 0.00 | 0.00 | 81 | 1018.0 |
| 20260906200909 | 15 | 92 | 0.0 | 0.0 | 0.00 | 0.00 | 0.00 | 81 | 1018.0 |
| 20260906200901 | 15 | 41 | 0.0 | 1.6 | 0.00 | 0.00 | 0.00 | 81 | 1018.0 |
| 20260906200854 | 15 | 41 | 0.0 | 1.6 | 0.00 | 0.00 | 0.00 | 81 | 1018.0 |
| 20260906200837 | 15 | 322 | 0.0 | 1.6 | 0.00 | 0.00 | 0.00 | 81 | 1018.0 |
| 20260906200821 | 15 | 322 | 0.0 | 1.6 | 0.00 | 0.00 | 0.00 | 81 | 1018.0 |
| 20260906200806 | 15 | 337 | 0.0 | 1.6 | 0.00 | 0.00 | 0.00 | 81 | 1018.0 |
| 20260906200751 | 15 | 337 | 0.0 | 1.6 | 0.00 | 0.00 | 0.00 | 81 | 1018.0 |
| 20260906200733 | 15 | 329 | 0.0 | 1.6 | 0.00 | 0.00 | 0.00 | 81 | 1018.0 |
| 20260906200717 | 15 | 258 | 0.0 | 1.6 | 0.00 | 0.00 | 0.00 | 81 | 1018.0 |
| 20260906200704 | 15 | 258 | 1.6 | 1.6 | 0.00 | 0.00 | 0.00 | 81 | 1018.0 |
| 20260906200637 | 15 | 175 | 0.0 | 1.6 | 0.00 | 0.00 | 0.00 | 81 | 1018.0 |
| 20260906200622 | 15 | 142 | 0.0 | 1.6 | 0.00 | 0.00 | 0.00 | 81 | 1018.0 |
| 20260906200615 | 15 | 156 | 0.0 | 1.6 | 0.00 | 0.00 | 0.00 | 81 | 1018.0 |
| 20260906200605 | 15 | 156 | 0.0 | 3.2 | 0.00 | 0.00 | 0.00 | 81 | 1018.0 |
| 20260906200549 | 15 | 141 | 0.0 | 3.2 | 0.00 | 0.00 | 0.00 | 81 | 1018.0 |
| 20260906200518 | 15 | 131 | 0.0 | 3.2 | 0.00 | 0.00 | 0.00 | 81 | 1018.0 |
| 20260906200512 | 15 | 131 | 0.0 | 3.2 | 0.00 | 0.00 | 0.00 | 81 | 1018.0 |
| 20260906200446 | 15 | 131 | 0.0 | 3.2 | 0.00 | 0.00 | 0.00 | 81 | 1018.0 |
| 20260906200440 | 15 | 135 | 0.0 | 3.2 | 0.00 | 0.00 | 0.00 | 81 | 1018.0 |
| 20260906200413 | 15 | 151 | 1.6 | 3.2 | 0.00 | 0.00 | 0.00 | 81 | 1018.0 |
| 20260906200407 | 15 | 240 | 1.6 | 3.2 | 0.00 | 0.00 | 0.00 | 81 | 1018.0 |
| 20260906200359 | 15 | 240 | 1.6 | 3.2 | 0.00 | 0.00 | 0.00 | 81 | 1018.0 |
| 20260906200344 | 15 | 145 | 0.0 | 3.2 | 0.00 | 0.00 | 0.00 | 81 | 1018.0 |
| 20260906200325 | 15 | 185 | 1.6 | 3.2 | 0.00 | 0.00 | 0.00 | 81 | 1018.0 |
| 20260906200310 | 15 | 91 | 1.6 | 3.2 | 0.00 | 0.00 | 0.00 | 81 | 1018.0 |
| 20260906200301 | 15 | 135 | 1.6 | 3.2 | 0.00 | 0.00 | 0.00 | 81 | 1018.0 |
| 20260906200253 | 15 | 135 | 1.6 | 3.2 | 0.00 | 0.00 | 0.00 | 81 | 1018.0 |
| 20260906200229 | 15 | 103 | 1.6 | 1.6 | 0.00 | 0.00 | 0.00 | 81 | 1018.0 |
| 20260906200216 | 15 | 139 | 0.0 | 1.6 | 0.00 | 0.00 | 0.00 | 81 | 1018.0 |
| 20260906200158 | 15 | 227 | 1.6 | 1.6 | 0.00 | 0.00 | 0.00 | 81 | 1018.0 |
| 20260906200142 | 15 | 189 | 0.0 | 1.6 | 0.00 | 0.00 | 0.00 | 81 | 1018.0 |
| 20260906200128 | 15 | 125 | 0.0 | 1.6 | 0.00 | 0.00 | 0.00 | 81 | 1018.0 |
| 20260906200112 | 15 | 221 | 0.0 | 1.6 | 0.00 | 0.00 | 0.00 | 81 | 1018.0 |
| 20260906200054 | 15 | 222 | 0.0 | 1.6 | 0.00 | 0.00 | 0.00 | 81 | 1018.0 |
| 20260906200038 | 15 | 221 | 0.0 | 1.6 | 0.00 | 0.00 | 0.00 | 81 | 1018.0 |
| 20260906200022 | 15 | 222 | 0.0 | 1.6 | 0.00 | 0.00 | 0.00 | 81 | 1018.0 |
| 20260906200006 | 15 | 223 | 0.0 | 1.6 | 0.00 | 0.00 | 0.00 | 81 | 1018.0 |
| 20260906195949 | 15 | 165 | 0.0 | 1.6 | 0.00 | 0.00 | 0.00 | 81 | 1018.0 |
| 20260906195943 | 15 | 151 | 0.0 | 1.6 | 0.00 | 0.00 | 0.00 | 81 | 1018.0 |
| 20260906195919 | 15 | 92 | 0.0 | 4.8 | 0.00 | 0.00 | 0.00 | 81 | 1018.0 |
| 20260906195902 | 15 | 100 | 0.0 | 4.8 | 0.00 | 0.00 | 0.00 | 81 | 1018.0 |
| 20260906195846 | 15 | 147 | 0.0 | 4.8 | 0.00 | 0.00 | 0.00 | 81 | 1018.0 |
| 20260906195830 | 15 | 127 | 0.0 | 4.8 | 0.00 | 0.00 | 0.00 | 81 | 1018.0 |
| 20260906195813 | 15 | 141 | 0.0 | 4.8 | 0.00 | 0.00 | 0.00 | 81 | 1018.0 |
| 20260906195805 | 15 | 126 | 3.2 | 4.8 | 0.00 | 0.00 | 0.00 | 81 | 1018.0 |
| 20260906195749 | 15 | 126 | 3.2 | 4.8 | 0.00 | 0.00 | 0.00 | 81 | 1018.0 |
| 20260906195733 | 15 | 141 | 3.2 | 4.8 | 0.00 | 0.00 | 0.00 | 81 | 1018.0 |
| 20260906195701 | 15 | 148 | 3.2 | 4.8 | 0.00 | 0.00 | 0.00 | 81 | 1018.0 |
| 20260906195645 | 15 | 126 | 1.6 | 4.8 | 0.00 | 0.00 | 0.00 | 81 | 1018.0 |
| 20260906195637 | 15 | 151 | 1.6 | 4.8 | 0.00 | 0.00 | 0.00 | 81 | 1018.0 |
| 20260906195629 | 15 | 151 | 1.6 | 6.4 | 0.00 | 0.00 | 0.00 | 81 | 1018.0 |
| 20260906195613 | 15 | 133 | 3.2 | 6.4 | 0.00 | 0.00 | 0.00 | 81 | 1018.0 |
| 20260906195606 | 15 | 102 | 3.2 | 9.7 | 0.00 | 0.00 | 0.00 | 81 | 1018.0 |
| 20260906195557 | 15 | 102 | 3.2 | 9.7 | 0.00 | 0.00 | 0.00 | 81 | 1018.0 |
| 20260906195545 | 15 | 155 | 3.2 | 9.7 | 0.00 | 0.00 | 0.00 | 80 | 1018.0 |
| 20260906195526 | 15 | 134 | 1.6 | 9.7 | 0.00 | 0.00 | 0.00 | 80 | 1018.0 |
| 20260906195520 | 15 | 157 | 4.8 | 9.7 | 0.00 | 0.00 | 0.00 | 80 | 1018.0 |
| 20260906195502 | 15 | 176 | 3.2 | 9.7 | 0.00 | 0.00 | 0.00 | 80 | 1019.0 |
| 20260906195457 | 15 | 176 | 3.2 | 9.7 | 0.00 | 0.00 | 0.00 | 80 | 1019.0 |
| 20260906195440 | 15 | 115 | 1.6 | 9.7 | 0.00 | 0.00 | 0.00 | 80 | 1019.0 |
| 20260906195422 | 15 | 150 | 6.4 | 9.7 | 0.00 | 0.00 | 0.00 | 80 | 1019.0 |
| 20260906195414 | 15 | 146 | 4.8 | 6.4 | 0.00 | 0.00 | 0.00 | 80 | 1019.0 |
| 20260906195406 | 15 | 146 | 4.8 | 6.4 | 0.00 | 0.00 | 0.00 | 80 | 1018.0 |
| 20260906195342 | 15 | 147 | 4.8 | 6.4 | 0.00 | 0.00 | 0.00 | 80 | 1018.0 |
| 20260906195337 | 15 | 139 | 4.8 | 6.4 | 0.00 | 0.00 | 0.00 | 80 | 1018.0 |
| 20260906195320 | 15 | 125 | 1.6 | 6.4 | 0.00 | 0.00 | 0.00 | 80 | 1018.0 |
| 20260906195306 | 15 | 119 | 3.2 | 6.4 | 0.00 | 0.00 | 0.00 | 80 | 1018.0 |
| 20260906195254 | 15 | 119 | 3.2 | 6.4 | 0.00 | 0.00 | 0.00 | 80 | 1018.0 |
| 20260906195238 | 15 | 92 | 0.0 | 6.4 | 0.00 | 0.00 | 0.00 | 80 | 1018.0 |
| 20260906195222 | 15 | 81 | 3.2 | 6.4 | 0.00 | 0.00 | 0.00 | 80 | 1018.0 |
| 20260906195206 | 15 | 130 | 4.8 | 6.4 | 0.00 | 0.00 | 0.00 | 80 | 1018.0 |
| 20260906195149 | 15 | 144 | 3.2 | 6.4 | 0.00 | 0.00 | 0.00 | 80 | 1018.0 |
| 20260906195134 | 15 | 110 | 3.2 | 6.4 | 0.00 | 0.00 | 0.00 | 80 | 1018.0 |
| 20260906195119 | 15 | 175 | 1.6 | 6.4 | 0.00 | 0.00 | 0.00 | 80 | 1018.0 |
| 20260906195107 | 15 | 149 | 3.2 | 6.4 | 0.00 | 0.00 | 0.00 | 80 | 1018.0 |
| 20260906195043 | 15 | 131 | 4.8 | 6.4 | 0.00 | 0.00 | 0.00 | 80 | 1018.0 |
| 20260906195014 | 15 | 98 | 4.8 | 4.8 | 0.00 | 0.00 | 0.00 | 80 | 1018.0 |
| 20260906195006 | 15 | 109 | 3.2 | 4.8 | 0.00 | 0.00 | 0.00 | 80 | 1018.0 |
| 20260906194958 | 15 | 109 | 3.2 | 4.8 | 0.00 | 0.00 | 0.00 | 80 | 1018.0 |
| 20260906194951 | 15 | 139 | 3.2 | 3.2 | 0.00 | 0.00 | 0.00 | 80 | 1018.0 |
| 20260906194911 | 15 | 154 | 0.0 | 1.6 | 0.00 | 0.00 | 0.00 | 80 | 1018.0 |
| 20260906194902 | 15 | 154 | 0.0 | 1.6 | 0.00 | 0.00 | 0.00 | 80 | 1019.0 |
| 20260906194846 | 15 | 183 | 0.0 | 1.6 | 0.00 | 0.00 | 0.00 | 80 | 1019.0 |
| 20260906194838 | 15 | 105 | 0.0 | 1.6 | 0.00 | 0.00 | 0.00 | 80 | 1019.0 |
| 20260906194830 | 15 | 105 | 0.0 | 3.2 | 0.00 | 0.00 | 0.00 | 80 | 1019.0 |
| 20260906194814 | 15 | 107 | 1.6 | 3.2 | 0.00 | 0.00 | 0.00 | 80 | 1019.0 |
| 20260906194806 | 15 | 105 | 1.6 | 3.2 | 0.00 | 0.00 | 0.00 | 80 | 1018.0 |
| 20260906194758 | 15 | 105 | 1.6 | 3.2 | 0.00 | 0.00 | 0.00 | 80 | 1018.0 |
| 20260906194744 | 15 | 121 | 0.0 | 3.2 | 0.00 | 0.00 | 0.00 | 80 | 1018.0 |
| 20260906194726 | 15 | 102 | 1.6 | 3.2 | 0.00 | 0.00 | 0.00 | 80 | 1018.0 |
| 20260906194710 | 15 | 122 | 1.6 | 3.2 | 0.00 | 0.00 | 0.00 | 80 | 1018.0 |
| 20260906194702 | 15 | 126 | 1.6 | 3.2 | 0.00 | 0.00 | 0.00 | 80 | 1018.0 |
| 20260906194637 | 15 | 138 | 1.6 | 3.2 | 0.00 | 0.00 | 0.00 | 80 | 1018.0 |
| 20260906194630 | 15 | 136 | 1.6 | 3.2 | 0.00 | 0.00 | 0.00 | 80 | 1018.0 |
| 20260906194550 | 15 | 138 | 1.6 | 3.2 | 0.00 | 0.00 | 0.00 | 80 | 1018.0 |
| 20260906194535 | 15 | 127 | 1.6 | 3.2 | 0.00 | 0.00 | 0.00 | 80 | 1018.0 |
| 20260906194519 | 15 | 138 | 1.6 | 3.2 | 0.00 | 0.00 | 0.00 | 80 | 1018.0 |
| 20260906194510 | 15 | 134 | 0.0 | 1.6 | 0.00 | 0.00 | 0.00 | 80 | 1018.0 |
| 20260906194508 | 15 | 134 | 0.0 | 3.2 | 0.00 | 0.00 | 0.00 | 80 | 1018.0 |
| 20260906194438 | 15 | 174 | 0.0 | 3.2 | 0.00 | 0.00 | 0.00 | 80 | 1018.0 |
| 20260906194430 | 15 | 138 | 0.0 | 3.2 | 0.00 | 0.00 | 0.00 | 80 | 1018.0 |
| 20260906194414 | 15 | 126 | 0.0 | 3.2 | 0.00 | 0.00 | 0.00 | 80 | 1018.0 |
| 20260906194406 | 15 | 126 | 0.0 | 6.4 | 0.00 | 0.00 | 0.00 | 80 | 1018.0 |
| 20260906194350 | 15 | 111 | 0.0 | 6.4 | 0.00 | 0.00 | 0.00 | 80 | 1018.0 |
| 20260906194334 | 15 | 103 | 1.6 | 6.4 | 0.00 | 0.00 | 0.00 | 80 | 1018.0 |
| 20260906194318 | 15 | 139 | 3.2 | 6.4 | 0.00 | 0.00 | 0.00 | 80 | 1018.0 |
| 20260906194302 | 15 | 114 | 1.6 | 6.4 | 0.00 | 0.00 | 0.00 | 80 | 1018.0 |
| 20260906194246 | 15 | 91 | 1.6 | 6.4 | 0.00 | 0.00 | 0.00 | 80 | 1018.0 |
| 20260906194230 | 15 | 132 | 4.8 | 6.4 | 0.00 | 0.00 | 0.00 | 80 | 1018.0 |
| 20260906194222 | 15 | 160 | 0.0 | 3.2 | 0.00 | 0.00 | 0.00 | 80 | 1018.0 |
| 20260906194206 | 15 | 109 | 0.0 | 3.2 | 0.00 | 0.00 | 0.00 | 80 | 1018.0 |
| 20260906194158 | 15 | 109 | 0.0 | 3.2 | 0.00 | 0.00 | 0.00 | 80 | 1018.0 |
| 20260906194152 | 15 | 87 | 0.0 | 3.2 | 0.00 | 0.00 | 0.00 | 80 | 1018.0 |
| 20260906194137 | 15 | 77 | 0.0 | 4.8 | 0.00 | 0.00 | 0.00 | 80 | 1018.0 |
| 20260906194115 | 15 | 40 | 0.0 | 4.8 | 0.00 | 0.00 | 0.00 | 80 | 1018.0 |
| 20260906194038 | 15 | 125 | 1.6 | 4.8 | 0.00 | 0.00 | 0.00 | 79 | 1018.0 |
| 20260906194017 | 15 | 143 | 1.6 | 4.8 | 0.00 | 0.00 | 0.00 | 79 | 1018.0 |
| 20260906193958 | 15 | 172 | 1.6 | 4.8 | 0.00 | 0.00 | 0.00 | 79 | 1019.0 |
| 20260906193942 | 15 | 111 | 3.2 | 4.8 | 0.00 | 0.00 | 0.00 | 79 | 1019.0 |
| 20260906193928 | 15 | 112 | 3.2 | 4.8 | 0.00 | 0.00 | 0.00 | 79 | 1019.0 |
| 20260906193902 | 15 | 143 | 1.6 | 4.8 | 0.00 | 0.00 | 0.00 | 79 | 1018.0 |
| 20260906193856 | 15 | 143 | 1.6 | 4.8 | 0.00 | 0.00 | 0.00 | 79 | 1018.0 |
| 20260906193838 | 15 | 125 | 0.0 | 4.8 | 0.00 | 0.00 | 0.00 | 79 | 1018.0 |
| 20260906193832 | 15 | 96 | 3.2 | 11.3 | 0.00 | 0.00 | 0.00 | 79 | 1018.0 |
| 20260906193814 | 15 | 143 | 3.2 | 11.3 | 0.00 | 0.00 | 0.00 | 79 | 1018.0 |
| 20260906193802 | 15 | 156 | 3.2 | 11.3 | 0.00 | 0.00 | 0.00 | 79 | 1019.0 |
| 20260906193734 | 15 | 104 | 1.6 | 11.3 | 0.00 | 0.00 | 0.00 | 79 | 1019.0 |
| 20260906193718 | 15 | 64 | 3.2 | 11.3 | 0.00 | 0.00 | 0.00 | 79 | 1019.0 |
| 20260906193710 | 15 | 128 | 1.6 | 11.3 | 0.00 | 0.00 | 0.00 | 79 | 1019.0 |
| 20260906193702 | 15 | 128 | 1.6 | 11.3 | 0.00 | 0.00 | 0.00 | 79 | 1018.0 |
| 20260906193647 | 15 | 164 | 8.0 | 11.3 | 0.00 | 0.00 | 0.00 | 79 | 1018.0 |
| 20260906193633 | 15 | 108 | 3.2 | 9.7 | 0.00 | 0.00 | 0.00 | 79 | 1018.0 |
| 20260906193620 | 15 | 131 | 6.4 | 9.7 | 0.00 | 0.00 | 0.00 | 79 | 1018.0 |
| 20260906193550 | 15 | 145 | 4.8 | 9.7 | 0.00 | 0.00 | 0.00 | 79 | 1019.0 |
| 20260906193534 | 15 | 112 | 1.6 | 9.7 | 0.00 | 0.00 | 0.00 | 79 | 1019.0 |
| 20260906193518 | 15 | 114 | 3.2 | 9.7 | 0.00 | 0.00 | 0.00 | 79 | 1019.0 |
| 20260906193502 | 15 | 145 | 3.2 | 9.7 | 0.00 | 0.00 | 0.00 | 79 | 1019.0 |
| 20260906193446 | 15 | 108 | 4.8 | 9.7 | 0.00 | 0.00 | 0.00 | 79 | 1019.0 |
| 20260906193438 | 15 | 133 | 3.2 | 4.8 | 0.00 | 0.00 | 0.00 | 79 | 1019.0 |
| 20260906193430 | 15 | 133 | 3.2 | 4.8 | 0.00 | 0.00 | 0.00 | 78 | 1019.0 |
| 20260906193414 | 15 | 146 | 3.2 | 4.8 | 0.00 | 0.00 | 0.00 | 78 | 1019.0 |
| 20260906193401 | 15 | 155 | 3.2 | 4.8 | 0.00 | 0.00 | 0.00 | 78 | 1018.0 |
| 20260906193342 | 15 | 94 | 4.8 | 4.8 | 0.00 | 0.00 | 0.00 | 78 | 1018.0 |
| 20260906193336 | 15 | 103 | 1.6 | 4.8 | 0.00 | 0.00 | 0.00 | 78 | 1018.0 |
| 20260906193310 | 15 | 222 | 4.8 | 4.8 | 0.00 | 0.00 | 0.00 | 78 | 1018.0 |
| 20260906193302 | 15 | 122 | 1.6 | 9.7 | 0.00 | 0.00 | 0.00 | 78 | 1019.0 |
| 20260906193254 | 15 | 122 | 1.6 | 9.7 | 0.00 | 0.00 | 0.00 | 78 | 1019.0 |
| 20260906193238 | 15 | 91 | 1.6 | 9.7 | 0.00 | 0.00 | 0.00 | 78 | 1019.0 |
| 20260906193232 | 15 | 120 | 3.2 | 11.3 | 0.00 | 0.00 | 0.00 | 78 | 1019.0 |
| 20260906193214 | 15 | 132 | 1.6 | 11.3 | 0.00 | 0.00 | 0.00 | 78 | 1019.0 |
| 20260906193208 | 15 | 132 | 1.6 | 17.7 | 0.00 | 0.00 | 0.00 | 78 | 1019.0 |
| 20260906193151 | 15 | 144 | 1.6 | 17.7 | 0.00 | 0.00 | 0.00 | 78 | 1019.0 |
| 20260906193129 | 15 | 108 | 1.6 | 17.7 | 0.00 | 0.00 | 0.00 | 78 | 1019.0 |
| 20260906193110 | 15 | 209 | 6.4 | 17.7 | 0.00 | 0.00 | 0.00 | 78 | 1019.0 |
| 20260906193102 | 15 | 148 | 6.4 | 17.7 | 0.00 | 0.00 | 0.00 | 78 | 1019.0 |
| 20260906193057 | 15 | 148 | 6.4 | 17.7 | 0.00 | 0.00 | 0.00 | 78 | 1019.0 |
| 20260906193041 | 15 | 149 | 8.0 | 17.7 | 0.00 | 0.00 | 0.00 | 78 | 1019.0 |
| 20260906193022 | 15 | 135 | 9.7 | 17.7 | 0.00 | 0.00 | 0.00 | 78 | 1019.0 |
| 20260906193014 | 15 | 140 | 1.6 | 6.4 | 0.00 | 0.00 | 0.00 | 79 | 1019.0 |
| 20260906193006 | 15 | 140 | 1.6 | 6.4 | 0.00 | 0.00 | 0.00 | 79 | 1018.0 |
| 20260906192953 | 15 | 175 | 3.2 | 6.4 | 0.00 | 0.00 | 0.00 | 79 | 1018.0 |
| 20260906192936 | 15 | 147 | 3.2 | 6.4 | 0.00 | 0.00 | 0.00 | 79 | 1018.0 |
| 20260906192921 | 15 | 142 | 4.8 | 6.4 | 0.00 | 0.00 | 0.00 | 79 | 1018.0 |
| 20260906192902 | 15 | 142 | 4.8 | 6.4 | 0.00 | 0.00 | 0.00 | 79 | 1019.0 |
| 20260906192846 | 15 | 144 | 4.8 | 6.4 | 0.00 | 0.00 | 0.00 | 79 | 1019.0 |
| 20260906192830 | 15 | 137 | 3.2 | 4.8 | 0.00 | 0.00 | 0.00 | 79 | 1019.0 |
| 20260906192816 | 15 | 241 | 1.6 | 4.8 | 0.00 | 0.00 | 0.00 | 79 | 1019.0 |
| 20260906192800 | 15 | 146 | 1.6 | 4.8 | 0.00 | 0.00 | 0.00 | 78 | 1019.0 |
| 20260906192742 | 15 | 181 | 1.6 | 4.8 | 0.00 | 0.00 | 0.00 | 78 | 1019.0 |
| 20260906192718 | 15 | 101 | 3.2 | 4.8 | 0.00 | 0.00 | 0.00 | 78 | 1019.0 |
| 20260906192710 | 15 | 55 | 1.6 | 4.8 | 0.00 | 0.00 | 0.00 | 78 | 1019.0 |
| 20260906192702 | 15 | 55 | 1.6 | 6.4 | 0.00 | 0.00 | 0.00 | 78 | 1019.0 |
| 20260906192657 | 15 | 93 | 1.6 | 6.4 | 0.00 | 0.00 | 0.00 | 78 | 1019.0 |
| 20260906192630 | 15 | 140 | 1.6 | 6.4 | 0.00 | 0.00 | 0.00 | 78 | 1019.0 |
| 20260906192614 | 15 | 140 | 1.6 | 6.4 | 0.00 | 0.00 | 0.00 | 78 | 1019.0 |
| 20260906192606 | 15 | 103 | 3.2 | 6.4 | 0.00 | 0.00 | 0.00 | 78 | 1018.0 |
| 20260906192558 | 15 | 103 | 3.2 | 6.4 | 0.00 | 0.00 | 0.00 | 78 | 1018.0 |
| 20260906192542 | 15 | 112 | 4.8 | 6.4 | 0.00 | 0.00 | 0.00 | 78 | 1018.0 |
| 20260906192526 | 15 | 62 | 6.4 | 6.4 | 0.00 | 0.00 | 0.00 | 78 | 1018.0 |
| 20260906192510 | 15 | 149 | 3.2 | 6.4 | 0.00 | 0.00 | 0.00 | 78 | 1018.0 |
| 20260906192503 | 15 | 106 | 3.2 | 6.4 | 0.00 | 0.00 | 0.00 | 78 | 1019.0 |
| 20260906192454 | 16 | 106 | 3.2 | 6.4 | 0.00 | 0.00 | 0.00 | 78 | 1019.0 |
| 20260906192443 | 16 | 139 | 3.2 | 6.4 | 0.00 | 0.00 | 0.00 | 78 | 1019.0 |
| 20260906192414 | 16 | 176 | 1.6 | 4.8 | 0.00 | 0.00 | 0.00 | 78 | 1019.0 |
| 20260906192406 | 16 | 176 | 1.6 | 6.4 | 0.00 | 0.00 | 0.00 | 78 | 1018.0 |
| 20260906192350 | 16 | 135 | 3.2 | 6.4 | 0.00 | 0.00 | 0.00 | 78 | 1018.0 |
| 20260906192334 | 16 | 107 | 0.0 | 6.4 | 0.00 | 0.00 | 0.00 | 78 | 1018.0 |
| 20260906192318 | 16 | 129 | 1.6 | 6.4 | 0.00 | 0.00 | 0.00 | 78 | 1018.0 |
| 20260906192312 | 16 | 103 | 1.6 | 6.4 | 0.00 | 0.00 | 0.00 | 78 | 1018.0 |
| 20260906192248 | 16 | 142 | 1.6 | 6.4 | 0.00 | 0.00 | 0.00 | 78 | 1018.0 |
| 20260906192222 | 16 | 131 | 4.8 | 6.4 | 0.00 | 0.00 | 0.00 | 78 | 1018.0 |
| 20260906192206 | 16 | 93 | 3.2 | 6.4 | 0.00 | 0.00 | 0.00 | 78 | 1018.0 |
| 20260906192150 | 16 | 86 | 0.0 | 6.4 | 0.00 | 0.00 | 0.00 | 78 | 1018.0 |
| 20260906192128 | 16 | 102 | 1.6 | 6.4 | 0.00 | 0.00 | 0.00 | 78 | 1018.0 |
| 20260906192104 | 16 | 107 | 3.2 | 6.4 | 0.00 | 0.00 | 0.00 | 78 | 1018.0 |
| 20260906192046 | 16 | 130 | 3.2 | 6.4 | 0.00 | 0.00 | 0.00 | 78 | 1018.0 |
| 20260906192038 | 16 | 162 | 3.2 | 4.8 | 0.00 | 0.00 | 0.00 | 78 | 1018.0 |
| 20260906192032 | 16 | 162 | 3.2 | 9.7 | 0.00 | 0.00 | 0.00 | 78 | 1018.0 |
| 20260906191942 | 16 | 34 | 3.2 | 9.7 | 0.00 | 0.00 | 0.00 | 78 | 1019.0 |
| 20260906191926 | 16 | 146 | 3.2 | 9.7 | 0.00 | 0.00 | 0.00 | 78 | 1019.0 |
| 20260906191910 | 16 | 61 | 6.4 | 9.7 | 0.00 | 0.00 | 0.00 | 78 | 1019.0 |
| 20260906191905 | 16 | 53 | 4.8 | 6.4 | 0.00 | 0.00 | 0.00 | 78 | 1018.0 |
| 20260906191849 | 16 | 68 | 1.6 | 4.8 | 0.00 | 0.00 | 0.00 | 78 | 1018.0 |
| 20260906191824 | 16 | 175 | 3.2 | 4.8 | 0.00 | 0.00 | 0.00 | 78 | 1018.0 |
| 20260906191810 | 16 | 136 | 4.8 | 4.8 | 0.00 | 0.00 | 0.00 | 78 | 1019.0 |
| 20260906191744 | 16 | 102 | 1.6 | 4.8 | 0.00 | 0.00 | 0.00 | 78 | 1019.0 |
| 20260906191726 | 16 | 135 | 1.6 | 4.8 | 0.00 | 0.00 | 0.00 | 78 | 1019.0 |
| 20260906191710 | 16 | 100 | 1.6 | 4.8 | 0.00 | 0.00 | 0.00 | 78 | 1019.0 |
| 20260906191702 | 16 | 170 | 3.2 | 4.8 | 0.00 | 0.00 | 0.00 | 78 | 1018.0 |
| 20260906191654 | 16 | 170 | 3.2 | 4.8 | 0.00 | 0.00 | 0.00 | 78 | 1018.0 |
| 20260906191640 | 16 | 134 | 1.6 | 4.8 | 0.00 | 0.00 | 0.00 | 78 | 1018.0 |
| 20260906191622 | 16 | 144 | 0.0 | 4.8 | 0.00 | 0.00 | 0.00 | 78 | 1018.0 |
| 20260906191614 | 16 | 122 | 1.6 | 4.8 | 0.00 | 0.00 | 0.00 | 78 | 1018.0 |
| 20260906191606 | 16 | 122 | 1.6 | 4.8 | 0.00 | 0.00 | 0.00 | 78 | 1019.0 |
| 20260906191550 | 16 | 138 | 3.2 | 4.8 | 0.00 | 0.00 | 0.00 | 78 | 1019.0 |
| 20260906191542 | 16 | 134 | 3.2 | 4.8 | 0.00 | 0.00 | 0.00 | 78 | 1019.0 |
| 20260906191534 | 16 | 134 | 3.2 | 6.4 | 0.00 | 0.00 | 0.00 | 78 | 1019.0 |
| 20260906191528 | 16 | 135 | 3.2 | 6.4 | 0.00 | 0.00 | 0.00 | 78 | 1019.0 |
| 20260906191510 | 16 | 132 | 3.2 | 6.4 | 0.00 | 0.00 | 0.00 | 78 | 1019.0 |
| 20260906191502 | 16 | 132 | 3.2 | 9.7 | 0.00 | 0.00 | 0.00 | 78 | 1019.0 |
| 20260906191459 | 16 | 124 | 3.2 | 9.7 | 0.00 | 0.00 | 0.00 | 78 | 1019.0 |
| 20260906191432 | 16 | 114 | 0.0 | 9.7 | 0.00 | 0.00 | 0.00 | 78 | 1019.0 |
| 20260906191415 | 15 | 281 | 1.6 | 9.7 | 0.00 | 0.00 | 0.00 | 78 | 1019.0 |
| 20260906191401 | 15 | 109 | 3.2 | 9.7 | 0.00 | 0.00 | 0.00 | 78 | 1019.0 |
| 20260906191334 | 15 | 186 | 4.8 | 9.7 | 0.00 | 0.00 | 0.00 | 78 | 1019.0 |
| 20260906191317 | 15 | 114 | 3.2 | 9.7 | 0.00 | 0.00 | 0.00 | 78 | 1019.0 |
| 20260906191301 | 15 | 156 | 4.8 | 6.4 | 0.00 | 0.00 | 0.00 | 78 | 1019.0 |
| 20260906191257 | 15 | 127 | 4.8 | 6.4 | 0.00 | 0.00 | 0.00 | 78 | 1019.0 |
| 20260906191229 | 15 | 174 | 3.2 | 3.2 | 0.00 | 0.00 | 0.00 | 78 | 1019.0 |
| 20260906191213 | 15 | 55 | 3.2 | 3.2 | 0.00 | 0.00 | 0.00 | 78 | 1019.0 |
| 20260906191201 | 15 | 114 | 1.6 | 6.4 | 0.00 | 0.00 | 0.00 | 78 | 1019.0 |
| 20260906191141 | 15 | 82 | 0.0 | 6.4 | 0.00 | 0.00 | 0.00 | 78 | 1019.0 |
| 20260906191135 | 15 | 155 | 0.0 | 6.4 | 0.00 | 0.00 | 0.00 | 78 | 1019.0 |
| 20260906191119 | 15 | 171 | 0.0 | 6.4 | 0.00 | 0.00 | 0.00 | 78 | 1019.0 |
| 20260906191101 | 15 | 136 | 3.2 | 6.4 | 0.00 | 0.00 | 0.00 | 78 | 1019.0 |
| 20260906191054 | 15 | 136 | 3.2 | 6.4 | 0.00 | 0.00 | 0.00 | 78 | 1019.0 |
| 20260906191048 | 15 | 232 | 3.2 | 6.4 | 0.00 | 0.00 | 0.00 | 78 | 1019.0 |
| 20260906191021 | 15 | 211 | 3.2 | 6.4 | 0.00 | 0.00 | 0.00 | 78 | 1019.0 |
| 20260906191016 | 15 | 146 | 3.2 | 6.4 | 0.00 | 0.00 | 0.00 | 78 | 1019.0 |
| 20260906190950 | 16 | 241 | 3.2 | 6.4 | 0.00 | 0.00 | 0.00 | 78 | 1018.0 |
| 20260906190925 | 16 | 158 | 3.2 | 6.4 | 0.00 | 0.00 | 0.00 | 78 | 1018.0 |
| 20260906190910 | 16 | 147 | 1.6 | 6.4 | 0.00 | 0.00 | 0.00 | 78 | 1018.0 |
| 20260906190901 | 16 | 172 | 3.2 | 11.3 | 0.00 | 0.00 | 0.00 | 78 | 1019.0 |
| 20260906190854 | 16 | 172 | 3.2 | 11.3 | 0.00 | 0.00 | 0.00 | 78 | 1019.0 |
| 20260906190837 | 16 | 149 | 4.8 | 11.3 | 0.00 | 0.00 | 0.00 | 78 | 1019.0 |
| 20260906190822 | 16 | 138 | 4.8 | 11.3 | 0.00 | 0.00 | 0.00 | 78 | 1019.0 |
| 20260906190814 | 16 | 258 | 4.8 | 11.3 | 0.00 | 0.00 | 0.00 | 78 | 1019.0 |
| 20260906190805 | 16 | 258 | 4.8 | 11.3 | 0.00 | 0.00 | 0.00 | 78 | 1018.0 |
| 20260906190749 | 16 | 142 | 3.2 | 11.3 | 0.00 | 0.00 | 0.00 | 78 | 1018.0 |
| 20260906190734 | 16 | 234 | 4.8 | 11.3 | 0.00 | 0.00 | 0.00 | 78 | 1018.0 |
| 20260906190717 | 16 | 140 | 4.8 | 9.7 | 0.00 | 0.00 | 0.00 | 78 | 1018.0 |
| 20260906190712 | 16 | 118 | 1.6 | 9.7 | 0.00 | 0.00 | 0.00 | 78 | 1018.0 |
| 20260906190645 | 16 | 127 | 3.2 | 9.7 | 0.00 | 0.00 | 0.00 | 78 | 1019.0 |
| 20260906190631 | 16 | 148 | 3.2 | 9.7 | 0.00 | 0.00 | 0.00 | 78 | 1019.0 |
| 20260906190613 | 16 | 102 | 6.4 | 9.7 | 0.00 | 0.00 | 0.00 | 78 | 1019.0 |
| 20260906190605 | 16 | 127 | 1.6 | 3.2 | 0.00 | 0.00 | 0.00 | 78 | 1019.0 |
| 20260906190541 | 16 | 127 | 1.6 | 3.2 | 0.00 | 0.00 | 0.00 | 78 | 1019.0 |
| 20260906190525 | 16 | 117 | 1.6 | 3.2 | 0.00 | 0.00 | 0.00 | 78 | 1019.0 |
| 20260906190510 | 16 | 147 | 1.6 | 3.2 | 0.00 | 0.00 | 0.00 | 78 | 1019.0 |
| 20260906190501 | 16 | 147 | 1.6 | 4.8 | 0.00 | 0.00 | 0.00 | 78 | 1019.0 |
| 20260906190445 | 16 | 142 | 1.6 | 4.8 | 0.00 | 0.00 | 0.00 | 78 | 1019.0 |
| 20260906190429 | 16 | 157 | 3.2 | 4.8 | 0.00 | 0.00 | 0.00 | 78 | 1019.0 |
| 20260906190413 | 16 | 133 | 1.6 | 4.8 | 0.00 | 0.00 | 0.00 | 78 | 1019.0 |
| 20260906190406 | 16 | 134 | 1.6 | 6.4 | 0.00 | 0.00 | 0.00 | 78 | 1019.0 |
| 20260906190357 | 16 | 134 | 1.6 | 6.4 | 0.00 | 0.00 | 0.00 | 78 | 1019.0 |
| 20260906190341 | 16 | 147 | 3.2 | 6.4 | 0.00 | 0.00 | 0.00 | 78 | 1019.0 |
| 20260906190337 | 16 | 123 | 3.2 | 6.4 | 0.00 | 0.00 | 0.00 | 78 | 1019.0 |
| 20260906190310 | 16 | 108 | 4.8 | 6.4 | 0.00 | 0.00 | 0.00 | 78 | 1019.0 |
| 20260906190302 | 16 | 130 | 3.2 | 6.4 | 0.00 | 0.00 | 0.00 | 78 | 1019.0 |
| 20260906190253 | 16 | 130 | 3.2 | 6.4 | 0.00 | 0.00 | 0.00 | 78 | 1019.0 |
| 20260906190237 | 16 | 127 | 4.8 | 6.4 | 0.00 | 0.00 | 0.00 | 78 | 1019.0 |
| 20260906190222 | 16 | 147 | 4.8 | 4.8 | 0.00 | 0.00 | 0.00 | 79 | 1019.0 |
| 20260906190214 | 16 | 92 | 3.2 | 3.2 | 0.00 | 0.00 | 0.00 | 79 | 1019.0 |
| 20260906190205 | 16 | 92 | 3.2 | 4.8 | 0.00 | 0.00 | 0.00 | 79 | 1018.0 |
| 20260906190151 | 16 | 146 | 0.0 | 4.8 | 0.00 | 0.00 | 0.00 | 79 | 1018.0 |
| 20260906190133 | 16 | 108 | 0.0 | 4.8 | 0.00 | 0.00 | 0.00 | 79 | 1018.0 |
| 20260906190128 | 15 | 97 | 0.0 | 4.8 | 0.00 | 0.00 | 0.00 | 79 | 1018.0 |
| 20260906190109 | 15 | 138 | 0.0 | 4.8 | 0.00 | 0.00 | 0.00 | 79 | 1018.0 |
| 20260906190039 | 15 | 254 | 3.2 | 4.8 | 0.00 | 0.00 | 0.00 | 79 | 1019.0 |
| 20260906190021 | 15 | 135 | 3.2 | 4.8 | 0.00 | 0.00 | 0.00 | 79 | 1019.0 |
| 20260906190005 | 15 | 102 | 1.6 | 3.2 | 0.00 | 0.00 | 0.00 | 79 | 1019.0 |
| 20260906185950 | 15 | 144 | 0.0 | 3.2 | 0.00 | 0.00 | 0.00 | 79 | 1019.0 |
| 20260906185933 | 15 | 106 | 1.6 | 3.2 | 0.00 | 0.00 | 0.00 | 79 | 1019.0 |
| 20260906185920 | 15 | 103 | 3.2 | 3.2 | 0.00 | 0.00 | 0.00 | 79 | 1019.0 |
| 20260906185902 | 15 | 242 | 3.2 | 3.2 | 0.00 | 0.00 | 0.00 | 79 | 1019.0 |
| 20260906185845 | 15 | 242 | 3.2 | 3.2 | 0.00 | 0.00 | 0.00 | 79 | 1019.0 |
| 20260906185837 | 15 | 115 | 1.6 | 3.2 | 0.00 | 0.00 | 0.00 | 79 | 1019.0 |
| 20260906185829 | 15 | 115 | 1.6 | 6.4 | 0.00 | 0.00 | 0.00 | 79 | 1019.0 |
| 20260906185826 | 15 | 147 | 1.6 | 6.4 | 0.00 | 0.00 | 0.00 | 79 | 1019.0 |
| 20260906185757 | 15 | 73 | 1.6 | 6.4 | 0.00 | 0.00 | 0.00 | 79 | 1018.0 |
| 20260906185749 | 15 | 155 | 0.0 | 6.4 | 0.00 | 0.00 | 0.00 | 79 | 1018.0 |
| 20260906185703 | 15 | 80 | 3.2 | 9.7 | 0.00 | 0.00 | 0.00 | 79 | 1019.0 |
| 20260906185654 | 15 | 80 | 3.2 | 9.7 | 0.00 | 0.00 | 0.00 | 79 | 1019.0 |
| 20260906185637 | 15 | 119 | 1.6 | 9.7 | 0.00 | 0.00 | 0.00 | 79 | 1019.0 |
| 20260906185624 | 15 | 98 | 1.6 | 9.7 | 0.00 | 0.00 | 0.00 | 79 | 1019.0 |
| 20260906185605 | 15 | 121 | 3.2 | 9.7 | 0.00 | 0.00 | 0.00 | 79 | 1019.0 |
| 20260906185541 | 15 | 124 | 3.2 | 6.4 | 0.00 | 0.00 | 0.00 | 79 | 1019.0 |
| 20260906185535 | 15 | 110 | 3.2 | 4.8 | 0.00 | 0.00 | 0.00 | 79 | 1019.0 |
| 20260906185509 | 15 | 99 | 4.8 | 4.8 | 0.00 | 0.00 | 0.00 | 79 | 1019.0 |
| 20260906185454 | 15 | 99 | 4.8 | 4.8 | 0.00 | 0.00 | 0.00 | 79 | 1019.0 |
| 20260906185449 | 15 | 82 | 0.0 | 4.8 | 0.00 | 0.00 | 0.00 | 79 | 1019.0 |
| 20260906185422 | 15 | 97 | 0.0 | 4.8 | 0.00 | 0.00 | 0.00 | 79 | 1019.0 |
| 20260906185414 | 15 | 151 | 1.6 | 4.8 | 0.00 | 0.00 | 0.00 | 79 | 1019.0 |
| 20260906185405 | 15 | 151 | 1.6 | 9.7 | 0.00 | 0.00 | 0.00 | 79 | 1019.0 |
| 20260906185350 | 15 | 46 | 1.6 | 9.7 | 0.00 | 0.00 | 0.00 | 79 | 1019.0 |
| 20260906185342 | 15 | 105 | 1.6 | 9.7 | 0.00 | 0.00 | 0.00 | 79 | 1019.0 |
| 20260906185336 | 15 | 105 | 1.6 | 12.9 | 0.00 | 0.00 | 0.00 | 79 | 1019.0 |
| 20260906185318 | 15 | 140 | 4.8 | 12.9 | 0.00 | 0.00 | 0.00 | 79 | 1019.0 |
| 20260906185309 | 15 | 142 | 3.2 | 12.9 | 0.00 | 0.00 | 0.00 | 79 | 1019.0 |
| 20260906185301 | 15 | 142 | 3.2 | 14.5 | 0.00 | 0.00 | 0.00 | 79 | 1019.0 |
| 20260906185247 | 15 | 135 | 4.8 | 14.5 | 0.00 | 0.00 | 0.00 | 78 | 1019.0 |
| 20260906185230 | 15 | 152 | 3.2 | 14.5 | 0.00 | 0.00 | 0.00 | 78 | 1019.0 |
| 20260906185226 | 15 | 154 | 4.8 | 14.5 | 0.00 | 0.00 | 0.00 | 78 | 1019.0 |
| 20260906185206 | 15 | 93 | 6.4 | 14.5 | 0.00 | 0.00 | 0.00 | 78 | 1019.0 |
| 20260906185151 | 15 | 93 | 6.4 | 14.5 | 0.00 | 0.00 | 0.00 | 78 | 1019.0 |
| 20260906185134 | 15 | 175 | 4.8 | 14.5 | 0.00 | 0.00 | 0.00 | 78 | 1019.0 |
| 20260906185118 | 15 | 113 | 1.6 | 9.7 | 0.00 | 0.00 | 0.00 | 78 | 1019.0 |
| 20260906185102 | 15 | 111 | 3.2 | 9.7 | 0.00 | 0.00 | 0.00 | 78 | 1019.0 |
| 20260906185054 | 15 | 93 | 4.8 | 9.7 | 0.00 | 0.00 | 0.00 | 78 | 1019.0 |
| 20260906185047 | 15 | 93 | 4.8 | 9.7 | 0.00 | 0.00 | 0.00 | 79 | 1019.0 |
| 20260906185031 | 15 | 100 | 8.0 | 9.7 | 0.00 | 0.00 | 0.00 | 79 | 1019.0 |
| 20260906185014 | 15 | 155 | 3.2 | 6.4 | 0.00 | 0.00 | 0.00 | 79 | 1019.0 |
| 20260906185007 | 15 | 136 | 0.0 | 6.4 | 0.00 | 0.00 | 0.00 | 79 | 1019.0 |
| 20260906184959 | 15 | 136 | 0.0 | 6.4 | 0.00 | 0.00 | 0.00 | 79 | 1019.0 |
| 20260906184950 | 15 | 124 | 1.6 | 6.4 | 0.00 | 0.00 | 0.00 | 79 | 1019.0 |
| 20260906184943 | 15 | 124 | 1.6 | 6.4 | 0.00 | 0.00 | 0.00 | 78 | 1019.0 |
| 20260906184926 | 15 | 144 | 3.2 | 6.4 | 0.00 | 0.00 | 0.00 | 78 | 1019.0 |
| 20260906184913 | 15 | 149 | 4.8 | 6.4 | 0.00 | 0.00 | 0.00 | 78 | 1019.0 |
| 20260906184854 | 15 | 114 | 3.2 | 6.4 | 0.00 | 0.00 | 0.00 | 78 | 1019.0 |
| 20260906184839 | 15 | 116 | 4.8 | 6.4 | 0.00 | 0.00 | 0.00 | 78 | 1019.0 |
| 20260906184822 | 15 | 164 | 3.2 | 6.4 | 0.00 | 0.00 | 0.00 | 78 | 1019.0 |
| 20260906184806 | 15 | 111 | 3.2 | 6.4 | 0.00 | 0.00 | 0.00 | 78 | 1019.0 |
| 20260906184750 | 15 | 105 | 1.6 | 6.4 | 0.00 | 0.00 | 0.00 | 78 | 1019.0 |
| 20260906184746 | 15 | 127 | 3.2 | 6.4 | 0.00 | 0.00 | 0.00 | 78 | 1019.0 |
| 20260906184730 | 15 | 127 | 3.2 | 9.7 | 0.00 | 0.00 | 0.00 | 78 | 1019.0 |
| 20260906184710 | 15 | 116 | 4.8 | 9.7 | 0.00 | 0.00 | 0.00 | 78 | 1019.0 |
| 20260906184707 | 15 | 75 | 3.2 | 9.7 | 0.00 | 0.00 | 0.00 | 78 | 1019.0 |
| 20260906184638 | 15 | 90 | 3.2 | 9.7 | 0.00 | 0.00 | 0.00 | 78 | 1019.0 |
| 20260906184624 | 15 | 99 | 3.2 | 9.7 | 0.00 | 0.00 | 0.00 | 78 | 1019.0 |
| 20260906184609 | 15 | 118 | 6.4 | 9.7 | 0.00 | 0.00 | 0.00 | 78 | 1019.0 |
| 20260906184550 | 15 | 125 | 6.4 | 9.7 | 0.00 | 0.00 | 0.00 | 78 | 1019.0 |
| 20260906184544 | 15 | 139 | 3.2 | 9.7 | 0.00 | 0.00 | 0.00 | 78 | 1019.0 |
| 20260906184518 | 15 | 129 | 4.8 | 9.7 | 0.00 | 0.00 | 0.00 | 78 | 1019.0 |
| 20260906184502 | 15 | 187 | 4.8 | 9.7 | 0.00 | 0.00 | 0.00 | 78 | 1019.0 |
| 20260906184457 | 15 | 157 | 6.4 | 9.7 | 0.00 | 0.00 | 0.00 | 78 | 1019.0 |
| 20260906184433 | 15 | 118 | 1.6 | 6.4 | 0.00 | 0.00 | 0.00 | 78 | 1019.0 |
| 20260906184414 | 15 | 156 | 3.2 | 6.4 | 0.00 | 0.00 | 0.00 | 79 | 1019.0 |
| 20260906184406 | 15 | 97 | 4.8 | 6.4 | 0.00 | 0.00 | 0.00 | 79 | 1019.0 |
| 20260906184359 | 15 | 97 | 4.8 | 6.4 | 0.00 | 0.00 | 0.00 | 79 | 1019.0 |
| 20260906184342 | 15 | 150 | 4.8 | 6.4 | 0.00 | 0.00 | 0.00 | 79 | 1019.0 |
| 20260906184330 | 15 | 149 | 3.2 | 9.7 | 0.00 | 0.00 | 0.00 | 79 | 1019.0 |
| 20260906184302 | 15 | 112 | 3.2 | 9.7 | 0.00 | 0.00 | 0.00 | 79 | 1019.0 |
| 20260906184246 | 15 | 150 | 3.2 | 9.7 | 0.00 | 0.00 | 0.00 | 79 | 1019.0 |
| 20260906184241 | 15 | 111 | 3.2 | 9.7 | 0.00 | 0.00 | 0.00 | 79 | 1019.0 |
| 20260906184214 | 15 | 157 | 3.2 | 9.7 | 0.00 | 0.00 | 0.00 | 79 | 1019.0 |
| 20260906184206 | 15 | 67 | 4.8 | 9.7 | 0.00 | 0.00 | 0.00 | 79 | 1019.0 |
| 20260906184159 | 15 | 67 | 4.8 | 9.7 | 0.00 | 0.00 | 0.00 | 79 | 1019.0 |
| 20260906184142 | 15 | 168 | 4.8 | 9.7 | 0.00 | 0.00 | 0.00 | 79 | 1019.0 |
| 20260906184138 | 15 | 103 | 6.4 | 9.7 | 0.00 | 0.00 | 0.00 | 79 | 1019.0 |
| 20260906184110 | 15 | 133 | 6.4 | 9.7 | 0.00 | 0.00 | 0.00 | 79 | 1019.0 |
| 20260906184102 | 15 | 83 | 4.8 | 6.4 | 0.00 | 0.00 | 0.00 | 79 | 1019.0 |
| 20260906184054 | 15 | 83 | 4.8 | 6.4 | 0.00 | 0.00 | 0.00 | 79 | 1019.0 |
| 20260906184038 | 15 | 260 | 3.2 | 4.8 | 0.00 | 0.00 | 0.00 | 79 | 1019.0 |
| 20260906184022 | 15 | 132 | 1.6 | 11.3 | 0.00 | 0.00 | 0.00 | 79 | 1019.0 |
| 20260906184006 | 15 | 143 | 0.0 | 11.3 | 0.00 | 0.00 | 0.00 | 79 | 1019.0 |
| 20260906184000 | 15 | 12 | 0.0 | 11.3 | 0.00 | 0.00 | 0.00 | 79 | 1019.0 |
| 20260906183934 | 15 | 53 | 3.2 | 11.3 | 0.00 | 0.00 | 0.00 | 79 | 1019.0 |
| 20260906183918 | 15 | 142 | 3.2 | 11.3 | 0.00 | 0.00 | 0.00 | 79 | 1019.0 |
| 20260906183910 | 15 | 101 | 6.4 | 11.3 | 0.00 | 0.00 | 0.00 | 79 | 1019.0 |
| 20260906183902 | 15 | 101 | 6.4 | 11.3 | 0.00 | 0.00 | 0.00 | 80 | 1019.0 |
| 20260906183838 | 15 | 172 | 6.4 | 9.7 | 0.00 | 0.00 | 0.00 | 80 | 1019.0 |
| 20260906183823 | 15 | 118 | 1.6 | 9.7 | 0.00 | 0.00 | 0.00 | 80 | 1019.0 |
| 20260906183806 | 15 | 117 | 0.0 | 9.7 | 0.00 | 0.00 | 0.00 | 80 | 1019.0 |
| 20260906183750 | 15 | 163 | 3.2 | 9.7 | 0.00 | 0.00 | 0.00 | 80 | 1019.0 |
| 20260906183734 | 15 | 115 | 6.4 | 9.7 | 0.00 | 0.00 | 0.00 | 80 | 1019.0 |
| 20260906183718 | 15 | 162 | 3.2 | 9.7 | 0.00 | 0.00 | 0.00 | 80 | 1019.0 |
| 20260906183702 | 15 | 109 | 6.4 | 9.7 | 0.00 | 0.00 | 0.00 | 80 | 1019.0 |
| 20260906183646 | 15 | 146 | 6.4 | 9.7 | 0.00 | 0.00 | 0.00 | 79 | 1019.0 |
| 20260906183638 | 15 | 98 | 1.6 | 4.8 | 0.00 | 0.00 | 0.00 | 79 | 1019.0 |
| 20260906183630 | 15 | 98 | 1.6 | 6.4 | 0.00 | 0.00 | 0.00 | 79 | 1019.0 |
| 20260906183617 | 15 | 153 | 4.8 | 6.4 | 0.00 | 0.00 | 0.00 | 79 | 1019.0 |
| 20260906183606 | 15 | 95 | 1.6 | 6.4 | 0.00 | 0.00 | 0.00 | 79 | 1019.0 |
| 20260906183558 | 15 | 95 | 1.6 | 6.4 | 0.00 | 0.00 | 0.00 | 79 | 1019.0 |
| 20260906183542 | 15 | 81 | 3.2 | 6.4 | 0.00 | 0.00 | 0.00 | 79 | 1019.0 |
| 20260906183526 | 15 | 168 | 1.6 | 6.4 | 0.00 | 0.00 | 0.00 | 79 | 1019.0 |
| 20260906183515 | 15 | 115 | 3.2 | 6.4 | 0.00 | 0.00 | 0.00 | 79 | 1019.0 |
| 20260906183438 | 15 | 167 | 4.8 | 6.4 | 0.00 | 0.00 | 0.00 | 79 | 1019.0 |
| 20260906183424 | 15 | 104 | 3.2 | 6.4 | 0.00 | 0.00 | 0.00 | 79 | 1019.0 |
| 20260906183407 | 15 | 163 | 4.8 | 6.4 | 0.00 | 0.00 | 0.00 | 79 | 1019.0 |
| 20260906183358 | 15 | 163 | 4.8 | 6.4 | 0.00 | 0.00 | 0.00 | 79 | 1019.0 |
| 20260906183342 | 15 | 104 | 3.2 | 6.4 | 0.00 | 0.00 | 0.00 | 79 | 1019.0 |
| 20260906183326 | 15 | 81 | 3.2 | 6.4 | 0.00 | 0.00 | 0.00 | 79 | 1019.0 |
| 20260906183310 | 15 | 166 | 3.2 | 6.4 | 0.00 | 0.00 | 0.00 | 79 | 1019.0 |
| 20260906183302 | 15 | 187 | 4.8 | 6.4 | 0.00 | 0.00 | 0.00 | 79 | 1019.0 |
| 20260906183254 | 15 | 187 | 4.8 | 6.4 | 0.00 | 0.00 | 0.00 | 79 | 1019.0 |
| 20260906183238 | 15 | 143 | 4.8 | 6.4 | 0.00 | 0.00 | 0.00 | 79 | 1019.0 |
| 20260906183222 | 15 | 169 | 3.2 | 4.8 | 0.00 | 0.00 | 0.00 | 79 | 1019.0 |
| 20260906183209 | 15 | 65 | 3.2 | 4.8 | 0.00 | 0.00 | 0.00 | 79 | 1019.0 |
| 20260906183150 | 15 | 116 | 3.2 | 4.8 | 0.00 | 0.00 | 0.00 | 79 | 1019.0 |
| 20260906183137 | 15 | 135 | 3.2 | 4.8 | 0.00 | 0.00 | 0.00 | 79 | 1019.0 |
| 20260906183119 | 15 | 77 | 0.0 | 4.8 | 0.00 | 0.00 | 0.00 | 79 | 1019.0 |
| 20260906183110 | 15 | 162 | 0.0 | 4.8 | 0.00 | 0.00 | 0.00 | 79 | 1019.0 |
| 20260906183102 | 15 | 162 | 0.0 | 6.4 | 0.00 | 0.00 | 0.00 | 79 | 1019.0 |
| 20260906183048 | 15 | 68 | 1.6 | 6.4 | 0.00 | 0.00 | 0.00 | 79 | 1019.0 |
| 20260906183030 | 15 | 64 | 1.6 | 6.4 | 0.00 | 0.00 | 0.00 | 79 | 1019.0 |
| 20260906183014 | 15 | 85 | 3.2 | 6.4 | 0.00 | 0.00 | 0.00 | 79 | 1019.0 |
| 20260906183006 | 15 | 117 | 3.2 | 6.4 | 0.00 | 0.00 | 0.00 | 79 | 1019.0 |
| 20260906182950 | 15 | 117 | 3.2 | 6.4 | 0.00 | 0.00 | 0.00 | 79 | 1019.0 |
| 20260906182935 | 15 | 101 | 3.2 | 6.4 | 0.00 | 0.00 | 0.00 | 79 | 1019.0 |
| 20260906182918 | 15 | 168 | 4.8 | 6.4 | 0.00 | 0.00 | 0.00 | 79 | 1019.0 |
| 20260906182902 | 15 | 118 | 4.8 | 6.4 | 0.00 | 0.00 | 0.00 | 79 | 1019.0 |
| 20260906182846 | 15 | 158 | 1.6 | 6.4 | 0.00 | 0.00 | 0.00 | 79 | 1019.0 |
| 20260906182830 | 15 | 116 | 4.8 | 6.4 | 0.00 | 0.00 | 0.00 | 79 | 1019.0 |
| 20260906182814 | 15 | 118 | 3.2 | 6.4 | 0.00 | 0.00 | 0.00 | 79 | 1019.0 |
| 20260906182806 | 15 | 99 | 1.6 | 6.4 | 0.00 | 0.00 | 0.00 | 79 | 1019.0 |
| 20260906182758 | 15 | 99 | 1.6 | 6.4 | 0.00 | 0.00 | 0.00 | 79 | 1019.0 |
| 20260906182742 | 15 | 137 | 4.8 | 6.4 | 0.00 | 0.00 | 0.00 | 79 | 1019.0 |
| 20260906182726 | 15 | 159 | 3.2 | 4.8 | 0.00 | 0.00 | 0.00 | 79 | 1019.0 |
| 20260906182723 | 15 | 102 | 1.6 | 4.8 | 0.00 | 0.00 | 0.00 | 79 | 1019.0 |
| 20260906182654 | 15 | 78 | 0.0 | 9.7 | 0.00 | 0.00 | 0.00 | 79 | 1019.0 |
| 20260906182639 | 15 | 146 | 1.6 | 9.7 | 0.00 | 0.00 | 0.00 | 79 | 1019.0 |
| 20260906182621 | 15 | 186 | 3.2 | 9.7 | 0.00 | 0.00 | 0.00 | 79 | 1019.0 |
| 20260906182609 | 15 | 130 | 3.2 | 9.7 | 0.00 | 0.00 | 0.00 | 80 | 1019.0 |
| 20260906182551 | 15 | 129 | 3.2 | 9.7 | 0.00 | 0.00 | 0.00 | 80 | 1019.0 |
| 20260906182542 | 15 | 135 | 4.8 | 9.7 | 0.00 | 0.00 | 0.00 | 80 | 1019.0 |
| 20260906182526 | 15 | 135 | 4.8 | 12.9 | 0.00 | 0.00 | 0.00 | 80 | 1019.0 |
| 20260906182510 | 15 | 117 | 4.8 | 12.9 | 0.00 | 0.00 | 0.00 | 80 | 1019.0 |
| 20260906182504 | 15 | 125 | 3.2 | 12.9 | 0.00 | 0.00 | 0.00 | 80 | 1019.0 |
| 20260906182438 | 15 | 223 | 4.8 | 12.9 | 0.00 | 0.00 | 0.00 | 80 | 1019.0 |
| 20260906182434 | 15 | 136 | 0.0 | 12.9 | 0.00 | 0.00 | 0.00 | 80 | 1019.0 |
| 20260906182414 | 15 | 97 | 8.0 | 12.9 | 0.00 | 0.00 | 0.00 | 80 | 1019.0 |
| 20260906182406 | 15 | 97 | 8.0 | 12.9 | 0.00 | 0.00 | 0.00 | 80 | 1019.0 |
| 20260906182350 | 15 | 97 | 8.0 | 12.9 | 0.00 | 0.00 | 0.00 | 80 | 1019.0 |
| 20260906182337 | 15 | 173 | 4.8 | 9.7 | 0.00 | 0.00 | 0.00 | 80 | 1019.0 |
| 20260906182318 | 15 | 141 | 1.6 | 6.4 | 0.00 | 0.00 | 0.00 | 80 | 1019.0 |
| 20260906182310 | 15 | 142 | 0.0 | 6.4 | 0.00 | 0.00 | 0.00 | 80 | 1019.0 |
| 20260906182306 | 15 | 142 | 0.0 | 6.4 | 0.00 | 0.00 | 0.00 | 79 | 1019.0 |
| 20260906182246 | 15 | 237 | 0.0 | 6.4 | 0.00 | 0.00 | 0.00 | 79 | 1019.0 |
| 20260906182230 | 15 | 102 | 0.0 | 6.4 | 0.00 | 0.00 | 0.00 | 79 | 1019.0 |
| 20260906182214 | 15 | 177 | 3.2 | 6.4 | 0.00 | 0.00 | 0.00 | 79 | 1019.0 |
| 20260906182210 | 15 | 145 | 1.6 | 9.7 | 0.00 | 0.00 | 0.00 | 79 | 1019.0 |
| 20260906182142 | 15 | 145 | 3.2 | 9.7 | 0.00 | 0.00 | 0.00 | 79 | 1019.0 |
| 20260906182126 | 15 | 179 | 0.0 | 9.7 | 0.00 | 0.00 | 0.00 | 79 | 1019.0 |
| 20260906182104 | 15 | 72 | 1.6 | 9.7 | 0.00 | 0.00 | 0.00 | 79 | 1019.0 |
| 20260906182048 | 15 | 111 | 1.6 | 9.7 | 0.00 | 0.00 | 0.00 | 79 | 1019.0 |
| 20260906182030 | 15 | 158 | 6.4 | 11.3 | 0.00 | 0.00 | 0.00 | 79 | 1019.0 |
| 20260906182014 | 15 | 126 | 3.2 | 11.3 | 0.00 | 0.00 | 0.00 | 79 | 1019.0 |
| 20260906182006 | 15 | 110 | 3.2 | 11.3 | 0.00 | 0.00 | 0.00 | 79 | 1019.0 |
| 20260906181958 | 15 | 110 | 3.2 | 11.3 | 0.00 | 0.00 | 0.00 | 79 | 1019.0 |
| 20260906181952 | 15 | 98 | 4.8 | 11.3 | 0.00 | 0.00 | 0.00 | 80 | 1019.0 |
| 20260906181927 | 15 | 132 | 6.4 | 11.3 | 0.00 | 0.00 | 0.00 | 80 | 1019.0 |
| 20260906181909 | 15 | 147 | 4.8 | 11.3 | 0.00 | 0.00 | 0.00 | 80 | 1019.0 |
| 20260906181902 | 15 | 141 | 6.4 | 11.3 | 0.00 | 0.00 | 0.00 | 80 | 1019.0 |
| 20260906181854 | 15 | 141 | 6.4 | 11.3 | 0.00 | 0.00 | 0.00 | 80 | 1019.0 |
| 20260906181840 | 15 | 160 | 3.2 | 4.8 | 0.00 | 0.00 | 0.00 | 79 | 1019.0 |
| 20260906181825 | 15 | 153 | 1.6 | 4.8 | 0.00 | 0.00 | 0.00 | 79 | 1019.0 |
| 20260906181806 | 15 | 142 | 0.0 | 4.8 | 0.00 | 0.00 | 0.00 | 79 | 1019.0 |
| 20260906181750 | 15 | 116 | 1.6 | 4.8 | 0.00 | 0.00 | 0.00 | 79 | 1019.0 |
| 20260906181733 | 15 | 133 | 3.2 | 4.8 | 0.00 | 0.00 | 0.00 | 79 | 1019.0 |
| 20260906181718 | 15 | 122 | 1.6 | 4.8 | 0.00 | 0.00 | 0.00 | 79 | 1019.0 |
| 20260906181704 | 15 | 45 | 0.0 | 4.8 | 0.00 | 0.00 | 0.00 | 79 | 1019.0 |
| 20260906181638 | 15 | 291 | 1.6 | 4.8 | 0.00 | 0.00 | 0.00 | 79 | 1019.0 |
| 20260906181622 | 15 | 111 | 3.2 | 6.4 | 0.00 | 0.00 | 0.00 | 79 | 1019.0 |
| 20260906181614 | 15 | 112 | 3.2 | 6.4 | 0.00 | 0.00 | 0.00 | 79 | 1019.0 |
| 20260906181607 | 15 | 112 | 3.2 | 9.7 | 0.00 | 0.00 | 0.00 | 79 | 1019.0 |
| 20260906181550 | 15 | 158 | 4.8 | 9.7 | 0.00 | 0.00 | 0.00 | 79 | 1019.0 |
| 20260906181544 | 15 | 57 | 1.6 | 9.7 | 0.00 | 0.00 | 0.00 | 79 | 1019.0 |
| 20260906181519 | 15 | 107 | 1.6 | 9.7 | 0.00 | 0.00 | 0.00 | 79 | 1019.0 |
| 20260906181504 | 15 | 135 | 3.2 | 9.7 | 0.00 | 0.00 | 0.00 | 79 | 1019.0 |
| 20260906181446 | 15 | 149 | 4.8 | 9.7 | 0.00 | 0.00 | 0.00 | 79 | 1019.0 |
| 20260906181440 | 15 | 137 | 3.2 | 9.7 | 0.00 | 0.00 | 0.00 | 79 | 1019.0 |
| 20260906181416 | 15 | 80 | 6.4 | 9.7 | 0.00 | 0.00 | 0.00 | 78 | 1019.0 |
| 20260906181358 | 15 | 85 | 4.8 | 9.7 | 0.00 | 0.00 | 0.00 | 78 | 1019.0 |
| 20260906181342 | 15 | 115 | 1.6 | 9.7 | 0.00 | 0.00 | 0.00 | 78 | 1019.0 |
| 20260906181333 | 15 | 146 | 3.2 | 9.7 | 0.00 | 0.00 | 0.00 | 78 | 1019.0 |
| 20260906181326 | 15 | 146 | 3.2 | 9.7 | 0.00 | 0.00 | 0.00 | 79 | 1019.0 |
| 20260906181310 | 15 | 120 | 4.8 | 9.7 | 0.00 | 0.00 | 0.00 | 79 | 1019.0 |
| 20260906181301 | 15 | 161 | 4.8 | 9.7 | 0.00 | 0.00 | 0.00 | 79 | 1019.0 |
| 20260906181254 | 15 | 161 | 4.8 | 9.7 | 0.00 | 0.00 | 0.00 | 79 | 1019.0 |
| 20260906181238 | 15 | 145 | 3.2 | 9.7 | 0.00 | 0.00 | 0.00 | 79 | 1019.0 |
| 20260906181229 | 15 | 63 | 6.4 | 9.7 | 0.00 | 0.00 | 0.00 | 79 | 1019.0 |
| 20260906181213 | 15 | 63 | 6.4 | 9.7 | 0.00 | 0.00 | 0.00 | 78 | 1019.0 |
| 20260906181200 | 15 | 96 | 4.8 | 9.7 | 0.00 | 0.00 | 0.00 | 78 | 1019.0 |
| 20260906181142 | 15 | 157 | 3.2 | 9.7 | 0.00 | 0.00 | 0.00 | 78 | 1019.0 |
| 20260906181136 | 15 | 160 | 1.6 | 9.7 | 0.00 | 0.00 | 0.00 | 78 | 1019.0 |
| 20260906181109 | 15 | 271 | 3.2 | 9.7 | 0.00 | 0.00 | 0.00 | 78 | 1019.0 |
| 20260906181104 | 15 | 155 | 4.8 | 14.5 | 0.00 | 0.00 | 0.00 | 78 | 1019.0 |
| 20260906181040 | 15 | 148 | 8.0 | 14.5 | 0.00 | 0.00 | 0.00 | 78 | 1019.0 |
| 20260906181024 | 15 | 120 | 4.8 | 14.5 | 0.00 | 0.00 | 0.00 | 78 | 1019.0 |
| 20260906181005 | 15 | 223 | 4.8 | 14.5 | 0.00 | 0.00 | 0.00 | 78 | 1019.0 |
| 20260906180949 | 15 | 156 | 3.2 | 14.5 | 0.00 | 0.00 | 0.00 | 78 | 1019.0 |
| 20260906180934 | 15 | 141 | 1.6 | 14.5 | 0.00 | 0.00 | 0.00 | 78 | 1019.0 |
| 20260906180917 | 15 | 111 | 8.0 | 14.5 | 0.00 | 0.00 | 0.00 | 78 | 1019.0 |
| 20260906180912 | 15 | 132 | 6.4 | 11.3 | 0.00 | 0.00 | 0.00 | 78 | 1019.0 |
| 20260906180845 | 15 | 146 | 4.8 | 9.7 | 0.00 | 0.00 | 0.00 | 78 | 1019.0 |
| 20260906180829 | 15 | 83 | 1.6 | 6.4 | 0.00 | 0.00 | 0.00 | 78 | 1019.0 |
| 20260906180806 | 15 | 84 | 4.8 | 6.4 | 0.00 | 0.00 | 0.00 | 78 | 1019.0 |
| 20260906180749 | 15 | 84 | 4.8 | 6.4 | 0.00 | 0.00 | 0.00 | 78 | 1019.0 |
| 20260906180739 | 15 | 174 | 3.2 | 6.4 | 0.00 | 0.00 | 0.00 | 78 | 1019.0 |
| 20260906180712 | 15 | 144 | 1.6 | 6.4 | 0.00 | 0.00 | 0.00 | 78 | 1019.0 |
| 20260906180645 | 15 | 167 | 3.2 | 6.4 | 0.00 | 0.00 | 0.00 | 78 | 1019.0 |
| 20260906180637 | 15 | 105 | 6.4 | 6.4 | 0.00 | 0.00 | 0.00 | 78 | 1019.0 |
| 20260906180630 | 15 | 105 | 6.4 | 9.7 | 0.00 | 0.00 | 0.00 | 78 | 1019.0 |
| 20260906180614 | 15 | 151 | 4.8 | 9.7 | 0.00 | 0.00 | 0.00 | 78 | 1019.0 |
| 20260906180605 | 15 | 140 | 1.6 | 9.7 | 0.00 | 0.00 | 0.00 | 78 | 1019.0 |
| 20260906180558 | 15 | 140 | 1.6 | 9.7 | 0.00 | 0.00 | 0.00 | 78 | 1019.0 |
| 20260906180552 | 15 | 161 | 3.2 | 9.7 | 0.00 | 0.00 | 0.00 | 78 | 1019.0 |
| 20260906180537 | 15 | 144 | 3.2 | 9.7 | 0.00 | 0.00 | 0.00 | 78 | 1019.0 |
| 20260906180509 | 15 | 99 | 6.4 | 9.7 | 0.00 | 0.00 | 0.00 | 78 | 1019.0 |
| 20260906180501 | 15 | 132 | 3.2 | 9.7 | 0.00 | 0.00 | 0.00 | 78 | 1019.0 |
| 20260906180453 | 15 | 132 | 3.2 | 9.7 | 0.00 | 0.00 | 0.00 | 78 | 1019.0 |
| 20260906180440 | 15 | 127 | 6.4 | 9.7 | 0.00 | 0.00 | 0.00 | 78 | 1019.0 |
| 20260906180422 | 15 | 94 | 3.2 | 6.4 | 0.00 | 0.00 | 0.00 | 78 | 1019.0 |
| 20260906180416 | 15 | 155 | 1.6 | 6.4 | 0.00 | 0.00 | 0.00 | 78 | 1019.0 |
| 20260906180349 | 15 | 137 | 1.6 | 6.4 | 0.00 | 0.00 | 0.00 | 78 | 1019.0 |
| 20260906180326 | 15 | 110 | 3.2 | 6.4 | 0.00 | 0.00 | 0.00 | 78 | 1019.0 |
| 20260906180309 | 15 | 181 | 4.8 | 6.4 | 0.00 | 0.00 | 0.00 | 78 | 1019.0 |
| 20260906180302 | 15 | 169 | 3.2 | 6.4 | 0.00 | 0.00 | 0.00 | 78 | 1019.0 |
| 20260906180254 | 15 | 169 | 3.2 | 6.4 | 0.00 | 0.00 | 0.00 | 78 | 1019.0 |
| 20260906180237 | 15 | 91 | 1.6 | 6.4 | 0.00 | 0.00 | 0.00 | 78 | 1019.0 |
| 20260906180221 | 15 | 178 | 3.2 | 6.4 | 0.00 | 0.00 | 0.00 | 78 | 1019.0 |
| 20260906180205 | 15 | 160 | 3.2 | 6.4 | 0.00 | 0.00 | 0.00 | 78 | 1019.0 |
| 20260906180203 | 15 | 165 | 1.6 | 6.4 | 0.00 | 0.00 | 0.00 | 78 | 1019.0 |
| 20260906180133 | 15 | 67 | 3.2 | 6.4 | 0.00 | 0.00 | 0.00 | 77 | 1019.0 |
| 20260906180117 | 15 | 173 | 3.2 | 4.8 | 0.00 | 0.00 | 0.00 | 77 | 1019.0 |
| 20260906180046 | 15 | 108 | 1.6 | 4.8 | 0.00 | 0.00 | 0.00 | 77 | 1019.0 |
| 20260906180030 | 15 | 97 | 3.2 | 4.8 | 0.00 | 0.00 | 0.00 | 77 | 1019.0 |
| 20260906180014 | 15 | 138 | 3.2 | 4.8 | 0.00 | 0.00 | 0.00 | 77 | 1019.0 |
| 20260906180006 | 15 | 105 | 1.6 | 6.4 | 0.00 | 0.00 | 0.00 | 77 | 1019.0 |
| 20260906175957 | 15 | 105 | 1.6 | 6.4 | 0.00 | 0.00 | 0.00 | 77 | 1019.0 |
| 20260906175941 | 15 | 93 | 1.6 | 6.4 | 0.00 | 0.00 | 0.00 | 77 | 1019.0 |
| 20260906175925 | 15 | 138 | 3.2 | 6.4 | 0.00 | 0.00 | 0.00 | 77 | 1019.0 |
| 20260906175902 | 15 | 87 | 3.2 | 6.4 | 0.00 | 0.00 | 0.00 | 77 | 1019.0 |
| 20260906175848 | 15 | 144 | 3.2 | 6.4 | 0.00 | 0.00 | 0.00 | 77 | 1019.0 |
| 20260906175830 | 15 | 144 | 6.4 | 6.4 | 0.00 | 0.00 | 0.00 | 78 | 1019.0 |
| 20260906175814 | 15 | 95 | 4.8 | 4.8 | 0.00 | 0.00 | 0.00 | 78 | 1019.0 |
| 20260906175805 | 15 | 191 | 4.8 | 4.8 | 0.00 | 0.00 | 0.00 | 78 | 1019.0 |
| 20260906175758 | 15 | 191 | 4.8 | 4.8 | 0.00 | 0.00 | 0.00 | 78 | 1019.0 |
| 20260906175733 | 15 | 116 | 1.6 | 3.2 | 0.00 | 0.00 | 0.00 | 78 | 1019.0 |
| 20260906175730 | 15 | 116 | 1.6 | 3.2 | 0.00 | 0.00 | 0.00 | 77 | 1019.0 |
| 20260906175701 | 15 | 95 | 3.2 | 4.8 | 0.00 | 0.00 | 0.00 | 77 | 1019.0 |
| 20260906175654 | 15 | 95 | 3.2 | 4.8 | 0.00 | 0.00 | 0.00 | 77 | 1019.0 |
| 20260906175648 | 15 | 95 | 3.2 | 4.8 | 0.00 | 0.00 | 0.00 | 77 | 1019.0 |
| 20260906175608 | 15 | 141 | 1.6 | 4.8 | 0.00 | 0.00 | 0.00 | 77 | 1019.0 |
| 20260906175551 | 15 | 169 | 1.6 | 4.8 | 0.00 | 0.00 | 0.00 | 77 | 1019.0 |
| 20260906175544 | 15 | 113 | 3.2 | 4.8 | 0.00 | 0.00 | 0.00 | 77 | 1019.0 |
| 20260906175517 | 15 | 127 | 3.2 | 4.8 | 0.00 | 0.00 | 0.00 | 77 | 1019.0 |
| 20260906175504 | 15 | 141 | 1.6 | 4.8 | 0.00 | 0.00 | 0.00 | 77 | 1019.0 |
| 20260906175440 | 15 | 133 | 3.2 | 4.8 | 0.00 | 0.00 | 0.00 | 77 | 1019.0 |
| 20260906175421 | 15 | 136 | 3.2 | 4.8 | 0.00 | 0.00 | 0.00 | 77 | 1019.0 |
| 20260906175408 | 15 | 198 | 1.6 | 4.8 | 0.00 | 0.00 | 0.00 | 77 | 1019.0 |
| 20260906175352 | 15 | 127 | 1.6 | 4.8 | 0.00 | 0.00 | 0.00 | 77 | 1019.0 |
| 20260906175333 | 15 | 92 | 1.6 | 4.8 | 0.00 | 0.00 | 0.00 | 77 | 1019.0 |
| 20260906175317 | 15 | 152 | 3.2 | 4.8 | 0.00 | 0.00 | 0.00 | 77 | 1019.0 |
| 20260906175306 | 15 | 96 | 3.2 | 4.8 | 0.00 | 0.00 | 0.00 | 77 | 1019.0 |
| 20260906175245 | 15 | 97 | 3.2 | 4.8 | 0.00 | 0.00 | 0.00 | 77 | 1019.0 |
| 20260906175242 | 15 | 82 | 3.2 | 4.8 | 0.00 | 0.00 | 0.00 | 77 | 1019.0 |
| 20260906175213 | 15 | 132 | 3.2 | 6.4 | 0.00 | 0.00 | 0.00 | 77 | 1019.0 |
| 20260906175210 | 16 | 94 | 3.2 | 11.3 | 0.00 | 0.00 | 0.00 | 76 | 1019.0 |
| 20260906175143 | 16 | 121 | 1.6 | 11.3 | 0.00 | 0.00 | 0.00 | 76 | 1019.0 |
| 20260906175109 | 16 | 136 | 3.2 | 11.3 | 0.00 | 0.00 | 0.00 | 76 | 1019.0 |
| 20260906175101 | 16 | 128 | 6.4 | 11.3 | 0.00 | 0.00 | 0.00 | 77 | 1019.0 |
| 20260906175053 | 16 | 128 | 6.4 | 11.3 | 0.00 | 0.00 | 0.00 | 77 | 1019.0 |
| 20260906175038 | 16 | 139 | 8.0 | 11.3 | 0.00 | 0.00 | 0.00 | 77 | 1019.0 |
| 20260906175013 | 16 | 165 | 6.4 | 9.7 | 0.00 | 0.00 | 0.00 | 77 | 1019.0 |
| 20260906175005 | 16 | 111 | 3.2 | 12.9 | 0.00 | 0.00 | 0.00 | 77 | 1019.0 |
| 20260906174958 | 16 | 111 | 3.2 | 12.9 | 0.00 | 0.00 | 0.00 | 77 | 1019.0 |
| 20260906174942 | 16 | 79 | 4.8 | 12.9 | 0.00 | 0.00 | 0.00 | 77 | 1019.0 |
| 20260906174925 | 16 | 183 | 4.8 | 12.9 | 0.00 | 0.00 | 0.00 | 77 | 1019.0 |
| 20260906174910 | 16 | 117 | 6.4 | 12.9 | 0.00 | 0.00 | 0.00 | 77 | 1019.0 |
| 20260906174901 | 16 | 103 | 4.8 | 12.9 | 0.00 | 0.00 | 0.00 | 77 | 1019.0 |
| 20260906174855 | 16 | 103 | 4.8 | 12.9 | 0.00 | 0.00 | 0.00 | 76 | 1019.0 |
| 20260906174837 | 16 | 126 | 4.8 | 12.9 | 0.00 | 0.00 | 0.00 | 76 | 1019.0 |
| 20260906174821 | 16 | 49 | 9.7 | 12.9 | 0.00 | 0.00 | 0.00 | 76 | 1019.0 |
| 20260906174806 | 16 | 87 | 1.6 | 12.9 | 0.00 | 0.00 | 0.00 | 76 | 1019.0 |
| 20260906174802 | 16 | 162 | 3.2 | 12.9 | 0.00 | 0.00 | 0.00 | 76 | 1019.0 |
| 20260906174734 | 16 | 103 | 1.6 | 12.9 | 0.00 | 0.00 | 0.00 | 76 | 1019.0 |
| 20260906174718 | 16 | 125 | 3.2 | 12.9 | 0.00 | 0.00 | 0.00 | 76 | 1019.0 |
| 20260906174701 | 16 | 108 | 3.2 | 12.9 | 0.00 | 0.00 | 0.00 | 76 | 1019.0 |
| 20260906174658 | 16 | 163 | 6.4 | 12.9 | 0.00 | 0.00 | 0.00 | 76 | 1019.0 |
| 20260906174631 | 16 | 132 | 8.0 | 9.7 | 0.00 | 0.00 | 0.00 | 76 | 1019.0 |
| 20260906174614 | 16 | 135 | 4.8 | 6.4 | 0.00 | 0.00 | 0.00 | 76 | 1019.0 |
| 20260906174605 | 16 | 120 | 4.8 | 6.4 | 0.00 | 0.00 | 0.00 | 76 | 1019.0 |
| 20260906174549 | 16 | 120 | 4.8 | 6.4 | 0.00 | 0.00 | 0.00 | 76 | 1019.0 |
| 20260906174533 | 16 | 131 | 3.2 | 6.4 | 0.00 | 0.00 | 0.00 | 76 | 1019.0 |
| 20260906174504 | 16 | 105 | 4.8 | 6.4 | 0.00 | 0.00 | 0.00 | 76 | 1019.0 |
| 20260906174445 | 16 | 131 | 3.2 | 4.8 | 0.00 | 0.00 | 0.00 | 76 | 1019.0 |
| 20260906174438 | 16 | 113 | 1.6 | 4.8 | 0.00 | 0.00 | 0.00 | 76 | 1019.0 |
| 20260906174429 | 16 | 113 | 1.6 | 9.7 | 0.00 | 0.00 | 0.00 | 76 | 1019.0 |
| 20260906174413 | 16 | 131 | 1.6 | 9.7 | 0.00 | 0.00 | 0.00 | 76 | 1019.0 |
| 20260906174405 | 16 | 139 | 1.6 | 9.7 | 0.00 | 0.00 | 0.00 | 76 | 1019.0 |
| 20260906174357 | 16 | 139 | 1.6 | 9.7 | 0.00 | 0.00 | 0.00 | 76 | 1019.0 |
| 20260906174341 | 16 | 95 | 3.2 | 9.7 | 0.00 | 0.00 | 0.00 | 76 | 1019.0 |
| 20260906174325 | 16 | 128 | 3.2 | 9.7 | 0.00 | 0.00 | 0.00 | 76 | 1019.0 |
| 20260906174311 | 16 | 133 | 6.4 | 9.7 | 0.00 | 0.00 | 0.00 | 76 | 1019.0 |
| 20260906174301 | 16 | 92 | 3.2 | 6.4 | 0.00 | 0.00 | 0.00 | 76 | 1019.0 |
| 20260906174240 | 16 | 92 | 3.2 | 6.4 | 0.00 | 0.00 | 0.00 | 76 | 1019.0 |
| 20260906174221 | 16 | 107 | 3.2 | 4.8 | 0.00 | 0.00 | 0.00 | 76 | 1019.0 |
| 20260906174213 | 16 | 115 | 1.6 | 3.2 | 0.00 | 0.00 | 0.00 | 76 | 1019.0 |
| 20260906174206 | 16 | 115 | 1.6 | 4.8 | 0.00 | 0.00 | 0.00 | 76 | 1019.0 |
| 20260906174151 | 16 | 107 | 0.0 | 4.8 | 0.00 | 0.00 | 0.00 | 76 | 1019.0 |
| 20260906174126 | 16 | 136 | 0.0 | 4.8 | 0.00 | 0.00 | 0.00 | 76 | 1019.0 |
| 20260906174119 | 16 | 136 | 1.6 | 4.8 | 0.00 | 0.00 | 0.00 | 76 | 1019.0 |
| 20260906174102 | 16 | 96 | 1.6 | 4.8 | 0.00 | 0.00 | 0.00 | 76 | 1019.0 |
| 20260906174053 | 16 | 96 | 1.6 | 4.8 | 0.00 | 0.00 | 0.00 | 76 | 1019.0 |
| 20260906174037 | 16 | 145 | 3.2 | 4.8 | 0.00 | 0.00 | 0.00 | 76 | 1019.0 |
| 20260906174029 | 16 | 154 | 3.2 | 4.8 | 0.00 | 0.00 | 0.00 | 76 | 1019.0 |
| 20260906174022 | 16 | 154 | 3.2 | 4.8 | 0.00 | 0.00 | 0.00 | 75 | 1019.0 |
| 20260906174006 | 16 | 117 | 0.0 | 3.2 | 0.00 | 0.00 | 0.00 | 75 | 1019.0 |
| 20260906173949 | 16 | 117 | 1.6 | 3.2 | 0.00 | 0.00 | 0.00 | 75 | 1019.0 |
| 20260906173933 | 16 | 119 | 3.2 | 3.2 | 0.00 | 0.00 | 0.00 | 75 | 1019.0 |
| 20260906173925 | 16 | 187 | 1.6 | 3.2 | 0.00 | 0.00 | 0.00 | 75 | 1019.0 |
| 20260906173917 | 16 | 187 | 1.6 | 3.2 | 0.00 | 0.00 | 0.00 | 76 | 1019.0 |
| 20260906173915 | 16 | 124 | 0.0 | 3.2 | 0.00 | 0.00 | 0.00 | 76 | 1019.0 |
| 20260906173847 | 16 | 118 | 0.0 | 6.4 | 0.00 | 0.00 | 0.00 | 76 | 1019.0 |
| 20260906173831 | 16 | 119 | 0.0 | 6.4 | 0.00 | 0.00 | 0.00 | 76 | 1019.0 |
| 20260906173813 | 16 | 153 | 1.6 | 6.4 | 0.00 | 0.00 | 0.00 | 76 | 1019.0 |
| 20260906173808 | 16 | 157 | 3.2 | 6.4 | 0.00 | 0.00 | 0.00 | 76 | 1019.0 |
| 20260906173744 | 16 | 111 | 3.2 | 6.4 | 0.00 | 0.00 | 0.00 | 76 | 1019.0 |
| 20260906173726 | 16 | 127 | 0.0 | 1.6 | 0.00 | 0.00 | 0.00 | 76 | 1019.0 |
| 20260906173701 | 16 | 143 | 0.0 | 1.6 | 0.00 | 0.00 | 0.00 | 76 | 1019.0 |
| 20260906173645 | 16 | 143 | 0.0 | 1.6 | 0.00 | 0.00 | 0.00 | 76 | 1019.0 |
| 20260906173629 | 16 | 146 | 1.6 | 1.6 | 0.00 | 0.00 | 0.00 | 76 | 1019.0 |
| 20260906173613 | 16 | 128 | 0.0 | 1.6 | 0.00 | 0.00 | 0.00 | 76 | 1019.0 |
| 20260906173605 | 16 | 170 | 1.6 | 1.6 | 0.00 | 0.00 | 0.00 | 76 | 1019.0 |
| 20260906173557 | 16 | 170 | 1.6 | 1.6 | 0.00 | 0.00 | 0.00 | 76 | 1019.0 |
| 20260906173554 | 16 | 130 | 0.0 | 1.6 | 0.00 | 0.00 | 0.00 | 76 | 1019.0 |
| 20260906173525 | 16 | 130 | 0.0 | 3.2 | 0.00 | 0.00 | 0.00 | 76 | 1019.0 |
| 20260906173509 | 16 | 130 | 0.0 | 3.2 | 0.00 | 0.00 | 0.00 | 76 | 1019.0 |
| 20260906173501 | 16 | 130 | 0.0 | 3.2 | 0.00 | 0.00 | 0.00 | 76 | 1019.0 |
| 20260906173453 | 16 | 130 | 0.0 | 3.2 | 0.00 | 0.00 | 0.00 | 76 | 1019.0 |
| 20260906173437 | 16 | 130 | 0.0 | 3.2 | 0.00 | 0.00 | 0.00 | 76 | 1019.0 |
| 20260906173421 | 16 | 130 | 1.6 | 3.2 | 0.00 | 0.00 | 0.00 | 76 | 1019.0 |
| 20260906173413 | 16 | 130 | 1.6 | 3.2 | 0.00 | 0.00 | 0.00 | 76 | 1019.0 |
| 20260906173405 | 16 | 130 | 1.6 | 4.8 | 0.00 | 0.00 | 0.00 | 76 | 1019.0 |
| 20260906173350 | 16 | 130 | 1.6 | 4.8 | 0.00 | 0.00 | 0.00 | 76 | 1019.0 |
| 20260906173333 | 16 | 133 | 0.0 | 4.8 | 0.00 | 0.00 | 0.00 | 76 | 1019.0 |
| 20260906173320 | 16 | 165 | 1.6 | 4.8 | 0.00 | 0.00 | 0.00 | 76 | 1019.0 |
| 20260906173301 | 16 | 173 | 1.6 | 11.3 | 0.00 | 0.00 | 0.00 | 76 | 1019.0 |
| 20260906173237 | 16 | 145 | 0.0 | 11.3 | 0.00 | 0.00 | 0.00 | 76 | 1019.0 |
| 20260906173223 | 16 | 135 | 3.2 | 11.3 | 0.00 | 0.00 | 0.00 | 76 | 1019.0 |
| 20260906173205 | 16 | 205 | 1.6 | 11.3 | 0.00 | 0.00 | 0.00 | 76 | 1019.0 |
| 20260906173157 | 16 | 144 | 1.6 | 11.3 | 0.00 | 0.00 | 0.00 | 76 | 1019.0 |
| 20260906173150 | 16 | 144 | 1.6 | 11.3 | 0.00 | 0.00 | 0.00 | 75 | 1019.0 |
| 20260906173133 | 16 | 177 | 8.0 | 11.3 | 0.00 | 0.00 | 0.00 | 75 | 1019.0 |
| 20260906173120 | 16 | 209 | 4.8 | 6.4 | 0.00 | 0.00 | 0.00 | 75 | 1019.0 |
| 20260906173101 | 16 | 106 | 1.6 | 9.7 | 0.00 | 0.00 | 0.00 | 75 | 1019.0 |
| 20260906173053 | 16 | 173 | 1.6 | 9.7 | 0.00 | 0.00 | 0.00 | 75 | 1019.0 |
| 20260906173045 | 16 | 173 | 1.6 | 9.7 | 0.00 | 0.00 | 0.00 | 76 | 1019.0 |
| 20260906173041 | 16 | 209 | 0.0 | 9.7 | 0.00 | 0.00 | 0.00 | 76 | 1019.0 |
| 20260906173014 | 16 | 107 | 1.6 | 9.7 | 0.00 | 0.00 | 0.00 | 76 | 1019.0 |
| 20260906173005 | 16 | 200 | 3.2 | 9.7 | 0.00 | 0.00 | 0.00 | 76 | 1019.0 |
| 20260906172957 | 16 | 200 | 3.2 | 9.7 | 0.00 | 0.00 | 0.00 | 76 | 1019.0 |
| 20260906172944 | 16 | 236 | 4.8 | 9.7 | 0.00 | 0.00 | 0.00 | 76 | 1019.0 |
| 20260906172927 | 16 | 165 | 3.2 | 9.7 | 0.00 | 0.00 | 0.00 | 76 | 1019.0 |
| 20260906172909 | 16 | 178 | 3.2 | 6.4 | 0.00 | 0.00 | 0.00 | 76 | 1019.0 |
| 20260906172901 | 16 | 246 | 4.8 | 4.8 | 0.00 | 0.00 | 0.00 | 76 | 1019.0 |
| 20260906172853 | 16 | 246 | 4.8 | 4.8 | 0.00 | 0.00 | 0.00 | 76 | 1019.0 |
| 20260906172845 | 16 | 214 | 1.6 | 3.2 | 0.00 | 0.00 | 0.00 | 76 | 1019.0 |
| 20260906172821 | 16 | 151 | 0.0 | 3.2 | 0.00 | 0.00 | 0.00 | 76 | 1019.0 |
| 20260906172806 | 16 | 218 | 1.6 | 4.8 | 0.00 | 0.00 | 0.00 | 76 | 1019.0 |
| 20260906172800 | 16 | 218 | 1.6 | 4.8 | 0.00 | 0.00 | 0.00 | 76 | 1019.0 |
| 20260906172735 | 16 | 153 | 0.0 | 4.8 | 0.00 | 0.00 | 0.00 | 76 | 1019.0 |
| 20260906172713 | 16 | 98 | 1.6 | 4.8 | 0.00 | 0.00 | 0.00 | 76 | 1019.0 |
| 20260906172655 | 16 | 121 | 1.6 | 4.8 | 0.00 | 0.00 | 0.00 | 76 | 1019.0 |
| 20260906172637 | 16 | 126 | 1.6 | 4.8 | 0.00 | 0.00 | 0.00 | 76 | 1019.0 |
| 20260906172622 | 16 | 122 | 3.2 | 4.8 | 0.00 | 0.00 | 0.00 | 76 | 1019.0 |
| 20260906172618 | 16 | 147 | 3.2 | 3.2 | 0.00 | 0.00 | 0.00 | 76 | 1019.0 |
| 20260906172550 | 16 | 211 | 1.6 | 3.2 | 0.00 | 0.00 | 0.00 | 76 | 1019.0 |
| 20260906172534 | 16 | 189 | 1.6 | 3.2 | 0.00 | 0.00 | 0.00 | 76 | 1019.0 |
| 20260906172518 | 16 | 198 | 3.2 | 3.2 | 0.00 | 0.00 | 0.00 | 76 | 1019.0 |
| 20260906172502 | 16 | 141 | 1.6 | 3.2 | 0.00 | 0.00 | 0.00 | 76 | 1019.0 |
| 20260906172445 | 16 | 102 | 1.6 | 3.2 | 0.00 | 0.00 | 0.00 | 76 | 1019.0 |
| 20260906172429 | 16 | 99 | 0.0 | 3.2 | 0.00 | 0.00 | 0.00 | 76 | 1019.0 |
| 20260906172416 | 16 | 127 | 0.0 | 3.2 | 0.00 | 0.00 | 0.00 | 76 | 1019.0 |
| 20260906172351 | 16 | 131 | 0.0 | 3.2 | 0.00 | 0.00 | 0.00 | 76 | 1019.0 |
| 20260906172334 | 16 | 142 | 1.6 | 3.2 | 0.00 | 0.00 | 0.00 | 76 | 1019.0 |
| 20260906172319 | 16 | 159 | 1.6 | 3.2 | 0.00 | 0.00 | 0.00 | 76 | 1019.0 |
| 20260906172310 | 16 | 147 | 0.0 | 3.2 | 0.00 | 0.00 | 0.00 | 76 | 1019.0 |
| 20260906172306 | 16 | 147 | 0.0 | 9.7 | 0.00 | 0.00 | 0.00 | 76 | 1019.0 |
| 20260906172246 | 16 | 158 | 1.6 | 9.7 | 0.00 | 0.00 | 0.00 | 76 | 1019.0 |
| 20260906172230 | 16 | 124 | 3.2 | 9.7 | 0.00 | 0.00 | 0.00 | 76 | 1019.0 |
| 20260906172222 | 16 | 135 | 3.2 | 9.7 | 0.00 | 0.00 | 0.00 | 76 | 1019.0 |
| 20260906172206 | 16 | 194 | 3.2 | 9.7 | 0.00 | 0.00 | 0.00 | 77 | 1019.0 |
| 20260906172158 | 16 | 194 | 3.2 | 9.7 | 0.00 | 0.00 | 0.00 | 77 | 1019.0 |
| 20260906172142 | 16 | 178 | 4.8 | 9.7 | 0.00 | 0.00 | 0.00 | 77 | 1019.0 |
| 20260906172130 | 16 | 186 | 3.2 | 6.4 | 0.00 | 0.00 | 0.00 | 77 | 1019.0 |
| 20260906172112 | 16 | 116 | 3.2 | 4.8 | 0.00 | 0.00 | 0.00 | 76 | 1019.0 |
| 20260906172102 | 16 | 157 | 3.2 | 4.8 | 0.00 | 0.00 | 0.00 | 76 | 1019.0 |
| 20260906172054 | 16 | 157 | 3.2 | 4.8 | 0.00 | 0.00 | 0.00 | 76 | 1019.0 |
| 20260906172043 | 16 | 209 | 1.6 | 3.2 | 0.00 | 0.00 | 0.00 | 76 | 1019.0 |
| 20260906172014 | 16 | 119 | 0.0 | 3.2 | 0.00 | 0.00 | 0.00 | 76 | 1019.0 |
| 20260906171950 | 16 | 91 | 0.0 | 3.2 | 0.00 | 0.00 | 0.00 | 76 | 1019.0 |
| 20260906171942 | 16 | 290 | 0.0 | 3.2 | 0.00 | 0.00 | 0.00 | 76 | 1019.0 |
| 20260906171926 | 16 | 290 | 0.0 | 4.8 | 0.00 | 0.00 | 0.00 | 76 | 1019.0 |
| 20260906171913 | 16 | 55 | 1.6 | 4.8 | 0.00 | 0.00 | 0.00 | 76 | 1019.0 |
| 20260906171854 | 16 | 133 | 1.6 | 6.4 | 0.00 | 0.00 | 0.00 | 75 | 1019.0 |
| 20260906171838 | 16 | 224 | 3.2 | 6.4 | 0.00 | 0.00 | 0.00 | 75 | 1019.0 |
| 20260906171823 | 16 | 356 | 0.0 | 6.4 | 0.00 | 0.00 | 0.00 | 75 | 1019.0 |
| 20260906171750 | 16 | 106 | 4.8 | 6.4 | 0.00 | 0.00 | 0.00 | 75 | 1019.0 |
| 20260906171742 | 16 | 159 | 3.2 | 6.4 | 0.00 | 0.00 | 0.00 | 75 | 1019.0 |
| 20260906171734 | 16 | 159 | 3.2 | 9.7 | 0.00 | 0.00 | 0.00 | 75 | 1019.0 |
| 20260906171718 | 16 | 134 | 3.2 | 9.7 | 0.00 | 0.00 | 0.00 | 75 | 1019.0 |
| 20260906171713 | 16 | 88 | 3.2 | 9.7 | 0.00 | 0.00 | 0.00 | 75 | 1019.0 |
| 20260906171647 | 16 | 139 | 3.2 | 9.7 | 0.00 | 0.00 | 0.00 | 76 | 1019.0 |
| 20260906171630 | 16 | 192 | 4.8 | 9.7 | 0.00 | 0.00 | 0.00 | 76 | 1019.0 |
| 20260906171624 | 16 | 139 | 4.8 | 9.7 | 0.00 | 0.00 | 0.00 | 76 | 1019.0 |
| 20260906171606 | 16 | 134 | 3.2 | 6.4 | 0.00 | 0.00 | 0.00 | 76 | 1019.0 |
| 20260906171558 | 16 | 134 | 3.2 | 6.4 | 0.00 | 0.00 | 0.00 | 76 | 1019.0 |
| 20260906171553 | 16 | 108 | 0.0 | 3.2 | 0.00 | 0.00 | 0.00 | 75 | 1019.0 |
| 20260906171527 | 16 | 118 | 0.0 | 6.4 | 0.00 | 0.00 | 0.00 | 75 | 1019.0 |
| 20260906171523 | 16 | 161 | 1.6 | 6.4 | 0.00 | 0.00 | 0.00 | 75 | 1019.0 |
| 20260906171454 | 16 | 139 | 1.6 | 6.4 | 0.00 | 0.00 | 0.00 | 75 | 1019.0 |
| 20260906171448 | 17 | 139 | 1.6 | 6.4 | 0.00 | 0.00 | 0.00 | 75 | 1019.0 |
| 20260906171430 | 17 | 168 | 1.6 | 6.4 | 0.00 | 0.00 | 0.00 | 75 | 1019.0 |
| 20260906171401 | 17 | 207 | 3.2 | 6.4 | 0.00 | 0.00 | 0.00 | 75 | 1019.0 |
| 20260906171342 | 17 | 156 | 3.2 | 6.4 | 0.00 | 0.00 | 0.00 | 75 | 1019.0 |
| 20260906171326 | 17 | 164 | 4.8 | 6.4 | 0.00 | 0.00 | 0.00 | 75 | 1019.0 |
| 20260906171322 | 17 | 163 | 4.8 | 6.4 | 0.00 | 0.00 | 0.00 | 75 | 1019.0 |
| 20260906171308 | 17 | 108 | 4.8 | 6.4 | 0.00 | 0.00 | 0.00 | 75 | 1019.0 |
| 20260906171239 | 17 | 116 | 3.2 | 6.4 | 0.00 | 0.00 | 0.00 | 75 | 1019.0 |
| 20260906171232 | 17 | 128 | 3.2 | 6.4 | 0.00 | 0.00 | 0.00 | 75 | 1019.0 |
| 20260906171216 | 17 | 137 | 3.2 | 4.8 | 0.00 | 0.00 | 0.00 | 75 | 1019.0 |
| 20260906171150 | 17 | 199 | 1.6 | 6.4 | 0.00 | 0.00 | 0.00 | 75 | 1019.0 |
| 20260906171142 | 17 | 102 | 0.0 | 6.4 | 0.00 | 0.00 | 0.00 | 75 | 1019.0 |
| 20260906171133 | 17 | 102 | 0.0 | 6.4 | 0.00 | 0.00 | 0.00 | 74 | 1019.0 |
| 20260906171117 | 17 | 107 | 0.0 | 6.4 | 0.00 | 0.00 | 0.00 | 74 | 1019.0 |
| 20260906171102 | 17 | 107 | 3.2 | 6.4 | 0.00 | 0.00 | 0.00 | 74 | 1019.0 |
| 20260906171042 | 17 | 131 | 6.4 | 6.4 | 0.00 | 0.00 | 0.00 | 74 | 1019.0 |
| 20260906171006 | 17 | 123 | 3.2 | 9.7 | 0.00 | 0.00 | 0.00 | 74 | 1019.0 |
| 20260906170950 | 17 | 182 | 3.2 | 9.7 | 0.00 | 0.00 | 0.00 | 74 | 1019.0 |
| 20260906170934 | 17 | 166 | 3.2 | 9.7 | 0.00 | 0.00 | 0.00 | 74 | 1019.0 |
| 20260906170922 | 17 | 218 | 3.2 | 9.7 | 0.00 | 0.00 | 0.00 | 75 | 1019.0 |
| 20260906170901 | 17 | 190 | 6.4 | 9.7 | 0.00 | 0.00 | 0.00 | 75 | 1019.0 |
| 20260906170848 | 17 | 211 | 3.2 | 6.4 | 0.00 | 0.00 | 0.00 | 75 | 1019.0 |
| 20260906170830 | 17 | 134 | 6.4 | 6.4 | 0.00 | 0.00 | 0.00 | 75 | 1019.0 |
| 20260906170824 | 17 | 175 | 3.2 | 4.8 | 0.00 | 0.00 | 0.00 | 78 | 1019.0 |
| 20260906170800 | 17 | 141 | 4.8 | 4.8 | 0.00 | 0.00 | 0.00 | 78 | 1019.0 |
| 20260906170741 | 17 | 155 | 4.8 | 4.8 | 0.00 | 0.00 | 0.00 | 78 | 1019.0 |
| 20260906170728 | 17 | 132 | 3.2 | 4.8 | 0.00 | 0.00 | 0.00 | 78 | 1019.0 |
| 20260906170710 | 17 | 145 | 0.0 | 3.2 | 0.00 | 0.00 | 0.00 | 78 | 1019.0 |
| 20260906170701 | 17 | 180 | 0.0 | 1.6 | 0.00 | 0.00 | 0.00 | 78 | 1019.0 |
| 20260906170653 | 17 | 180 | 0.0 | 1.6 | 0.00 | 0.00 | 0.00 | 78 | 1019.0 |
| 20260906170650 | 17 | 234 | 0.0 | 1.6 | 0.00 | 0.00 | 0.00 | 78 | 1019.0 |
| 20260906170622 | 17 | 116 | 1.6 | 3.2 | 0.00 | 0.00 | 0.00 | 78 | 1019.0 |
| 20260906170614 | 16 | 116 | 1.6 | 3.2 | 0.00 | 0.00 | 0.00 | 78 | 1019.0 |
| 20260906170605 | 16 | 139 | 1.6 | 9.7 | 0.00 | 0.00 | 0.00 | 78 | 1019.0 |
| 20260906170557 | 16 | 139 | 1.6 | 9.7 | 0.00 | 0.00 | 0.00 | 78 | 1019.0 |
| 20260906170552 | 16 | 98 | 1.6 | 9.7 | 0.00 | 0.00 | 0.00 | 78 | 1019.0 |
| 20260906170518 | 16 | 151 | 1.6 | 9.7 | 0.00 | 0.00 | 0.00 | 78 | 1019.0 |
| 20260906170509 | 16 | 151 | 1.6 | 9.7 | 0.00 | 0.00 | 0.00 | 77 | 1019.0 |
| 20260906170502 | 16 | 143 | 1.6 | 9.7 | 0.00 | 0.00 | 0.00 | 77 | 1019.0 |
| 20260906170453 | 16 | 143 | 1.6 | 9.7 | 0.00 | 0.00 | 0.00 | 77 | 1019.0 |
| 20260906170440 | 16 | 149 | 3.2 | 9.7 | 0.00 | 0.00 | 0.00 | 77 | 1019.0 |
| 20260906170421 | 16 | 158 | 6.4 | 9.7 | 0.00 | 0.00 | 0.00 | 77 | 1019.0 |
| 20260906170414 | 16 | 215 | 4.8 | 9.7 | 0.00 | 0.00 | 0.00 | 77 | 1019.0 |
| 20260906170408 | 16 | 215 | 4.8 | 9.7 | 0.00 | 0.00 | 0.00 | 78 | 1019.0 |
| 20260906170349 | 16 | 170 | 4.8 | 6.4 | 0.00 | 0.00 | 0.00 | 78 | 1019.0 |
| 20260906170335 | 16 | 238 | 4.8 | 4.8 | 0.00 | 0.00 | 0.00 | 78 | 1019.0 |
| 20260906170317 | 16 | 189 | 3.2 | 4.8 | 0.00 | 0.00 | 0.00 | 78 | 1019.0 |
| 20260906170310 | 16 | 173 | 1.6 | 3.2 | 0.00 | 0.00 | 0.00 | 78 | 1019.0 |
| 20260906170301 | 16 | 173 | 1.6 | 6.4 | 0.00 | 0.00 | 0.00 | 79 | 1019.0 |
| 20260906170245 | 16 | 138 | 1.6 | 6.4 | 0.00 | 0.00 | 0.00 | 79 | 1019.0 |
| 20260906170234 | 16 | 210 | 1.6 | 6.4 | 0.00 | 0.00 | 0.00 | 79 | 1019.0 |
| 20260906170206 | 16 | 139 | 1.6 | 6.4 | 0.00 | 0.00 | 0.00 | 79 | 1019.0 |
| 20260906170152 | 16 | 139 | 1.6 | 6.4 | 0.00 | 0.00 | 0.00 | 79 | 1019.0 |
| 20260906170137 | 16 | 223 | 6.4 | 6.4 | 0.00 | 0.00 | 0.00 | 79 | 1019.0 |
| 20260906170120 | 16 | 193 | 1.6 | 4.8 | 0.00 | 0.00 | 0.00 | 79 | 1019.0 |
| 20260906170045 | 16 | 173 | 3.2 | 4.8 | 0.00 | 0.00 | 0.00 | 79 | 1019.0 |
| 20260906170030 | 16 | 124 | 3.2 | 4.8 | 0.00 | 0.00 | 0.00 | 79 | 1019.0 |
| 20260906170013 | 16 | 115 | 3.2 | 4.8 | 0.00 | 0.00 | 0.00 | 79 | 1019.0 |
| 20260906170005 | 16 | 153 | 1.6 | 4.8 | 0.00 | 0.00 | 0.00 | 79 | 1019.0 |
| 20260906165958 | 16 | 153 | 1.6 | 4.8 | 0.00 | 0.00 | 0.00 | 79 | 1019.0 |
| 20260906165941 | 16 | 194 | 4.8 | 4.8 | 0.00 | 0.00 | 0.00 | 79 | 1019.0 |
| 20260906165928 | 16 | 120 | 1.6 | 4.8 | 0.00 | 0.00 | 0.00 | 79 | 1019.0 |
| 20260906165915 | 16 | 136 | 1.6 | 4.8 | 0.00 | 0.00 | 0.00 | 79 | 1019.0 |
| 20260906165848 | 16 | 146 | 0.0 | 4.8 | 0.00 | 0.00 | 0.00 | 79 | 1019.0 |
| 20260906165821 | 16 | 61 | 3.2 | 4.8 | 0.00 | 0.00 | 0.00 | 79 | 1019.0 |
| 20260906165813 | 16 | 95 | 3.2 | 3.2 | 0.00 | 0.00 | 0.00 | 79 | 1019.0 |
| 20260906165805 | 16 | 95 | 3.2 | 4.8 | 0.00 | 0.00 | 0.00 | 79 | 1019.0 |
| 20260906165802 | 16 | 149 | 3.2 | 4.8 | 0.00 | 0.00 | 0.00 | 79 | 1019.0 |
| 20260906165725 | 16 | 130 | 1.6 | 4.8 | 0.00 | 0.00 | 0.00 | 80 | 1019.0 |
| 20260906165711 | 16 | 121 | 0.0 | 4.8 | 0.00 | 0.00 | 0.00 | 80 | 1019.0 |
| 20260906165653 | 16 | 170 | 0.0 | 4.8 | 0.00 | 0.00 | 0.00 | 80 | 1019.0 |
| 20260906165637 | 16 | 78 | 3.2 | 4.8 | 0.00 | 0.00 | 0.00 | 80 | 1019.0 |
| 20260906165621 | 16 | 75 | 3.2 | 4.8 | 0.00 | 0.00 | 0.00 | 80 | 1019.0 |
| 20260906165610 | 16 | 136 | 3.2 | 4.8 | 0.00 | 0.00 | 0.00 | 80 | 1019.0 |
| 20260906165550 | 16 | 151 | 0.0 | 4.8 | 0.00 | 0.00 | 0.00 | 80 | 1019.0 |
| 20260906165542 | 16 | 155 | 3.2 | 4.8 | 0.00 | 0.00 | 0.00 | 80 | 1019.0 |
| 20260906165533 | 16 | 155 | 3.2 | 4.8 | 0.00 | 0.00 | 0.00 | 81 | 1019.0 |
| 20260906165519 | 16 | 174 | 3.2 | 4.8 | 0.00 | 0.00 | 0.00 | 81 | 1019.0 |
| 20260906165501 | 16 | 272 | 0.0 | 0.0 | 0.00 | 0.00 | 0.00 | 81 | 1019.0 |
| 20260906165445 | 16 | 272 | 0.0 | 0.0 | 0.00 | 0.00 | 0.00 | 81 | 1019.0 |
| 20260906165429 | 16 | 272 | 0.0 | 0.0 | 0.00 | 0.00 | 0.00 | 81 | 1019.0 |
| 20260906165424 | 16 | 272 | 0.0 | 0.0 | 0.00 | 0.00 | 0.00 | 81 | 1019.0 |
| 20260906165405 | 16 | 272 | 0.0 | 0.0 | 0.00 | 0.00 | 0.00 | 81 | 1019.0 |
| 20260906165357 | 16 | 272 | 0.0 | 0.0 | 0.00 | 0.00 | 0.00 | 81 | 1019.0 |
| 20260906165346 | 16 | 272 | 0.0 | 0.0 | 0.00 | 0.00 | 0.00 | 81 | 1019.0 |
| 20260906165325 | 15 | 272 | 0.0 | 1.6 | 0.00 | 0.00 | 0.00 | 81 | 1019.0 |
| 20260906165301 | 15 | 272 | 0.0 | 1.6 | 0.00 | 0.00 | 0.00 | 81 | 1019.0 |
| 20260906165245 | 15 | 272 | 0.0 | 1.6 | 0.00 | 0.00 | 0.00 | 81 | 1019.0 |
| 20260906165238 | 15 | 272 | 0.0 | 1.6 | 0.00 | 0.00 | 0.00 | 81 | 1019.0 |
| 20260906165232 | 15 | 272 | 0.0 | 4.8 | 0.00 | 0.00 | 0.00 | 81 | 1019.0 |
| 20260906165214 | 15 | 272 | 0.0 | 4.8 | 0.00 | 0.00 | 0.00 | 80 | 1019.0 |
| 20260906165208 | 15 | 272 | 0.0 | 4.8 | 0.00 | 0.00 | 0.00 | 80 | 1019.0 |
| 20260906165141 | 15 | 272 | 0.0 | 4.8 | 0.00 | 0.00 | 0.00 | 80 | 1019.0 |
| 20260906165125 | 15 | 273 | 0.0 | 4.8 | 0.00 | 0.00 | 0.00 | 80 | 1019.0 |
| 20260906165110 | 15 | 273 | 1.6 | 4.8 | 0.00 | 0.00 | 0.00 | 82 | 1019.0 |
| 20260906165104 | 15 | 150 | 3.2 | 4.8 | 0.00 | 0.00 | 0.00 | 82 | 1019.0 |
| 20260906165037 | 15 | 139 | 1.6 | 3.2 | 0.00 | 0.00 | 0.00 | 82 | 1019.0 |
| 20260906165021 | 15 | 89 | 1.6 | 3.2 | 0.00 | 0.00 | 0.00 | 82 | 1019.0 |
| 20260906165005 | 15 | 103 | 1.6 | 3.2 | 0.00 | 0.00 | 0.00 | 82 | 1019.0 |
| 20260906164950 | 15 | 103 | 1.6 | 3.2 | 0.00 | 0.00 | 0.00 | 82 | 1019.0 |
| 20260906164941 | 15 | 104 | 1.6 | 1.6 | 0.00 | 0.00 | 0.00 | 82 | 1019.0 |
| 20260906164933 | 15 | 104 | 1.6 | 3.2 | 0.00 | 0.00 | 0.00 | 82 | 1019.0 |
| 20260906164918 | 15 | 135 | 0.0 | 3.2 | 0.00 | 0.00 | 0.00 | 82 | 1019.0 |
| 20260906164912 | 15 | 148 | 1.6 | 3.2 | 0.00 | 0.00 | 0.00 | 82 | 1019.0 |
| 20260906164837 | 15 | 147 | 0.0 | 3.2 | 0.00 | 0.00 | 0.00 | 82 | 1019.0 |
| 20260906164833 | 15 | 140 | 1.6 | 3.2 | 0.00 | 0.00 | 0.00 | 82 | 1019.0 |
| 20260906164805 | 15 | 121 | 0.0 | 3.2 | 0.00 | 0.00 | 0.00 | 82 | 1019.0 |
| 20260906164749 | 15 | 258 | 1.6 | 3.2 | 0.00 | 0.00 | 0.00 | 82 | 1019.0 |
| 20260906164736 | 15 | 250 | 1.6 | 1.6 | 0.00 | 0.00 | 0.00 | 82 | 1019.0 |
| 20260906164701 | 15 | 157 | 0.0 | 0.0 | 0.00 | 0.00 | 0.00 | 82 | 1019.0 |
| 20260906164645 | 15 | 141 | 0.0 | 0.0 | 0.00 | 0.00 | 0.00 | 82 | 1019.0 |
| 20260906164629 | 15 | 141 | 0.0 | 0.0 | 0.00 | 0.00 | 0.00 | 82 | 1019.0 |
| 20260906164613 | 15 | 141 | 0.0 | 0.0 | 0.00 | 0.00 | 0.00 | 82 | 1019.0 |
| 20260906164605 | 15 | 148 | 0.0 | 0.0 | 0.00 | 0.00 | 0.00 | 82 | 1019.0 |
| 20260906164557 | 15 | 148 | 0.0 | 0.0 | 0.00 | 0.00 | 0.00 | 82 | 1019.0 |
| 20260906164544 | 15 | 148 | 0.0 | 0.0 | 0.00 | 0.00 | 0.00 | 82 | 1019.0 |
| 20260906164512 | 15 | 148 | 0.0 | 0.0 | 0.00 | 0.00 | 0.00 | 82 | 1019.0 |
| 20260906164456 | 15 | 148 | 0.0 | 0.0 | 0.00 | 0.00 | 0.00 | 81 | 1019.0 |
| 20260906164405 | 15 | 148 | 0.0 | 0.0 | 0.00 | 0.00 | 0.00 | 81 | 1019.0 |
| 20260906164357 | 15 | 148 | 0.0 | 0.0 | 0.00 | 0.00 | 0.00 | 81 | 1019.0 |
| 20260906164325 | 15 | 148 | 0.0 | 0.0 | 0.00 | 0.00 | 0.00 | 82 | 1019.0 |
| 20260906164310 | 15 | 148 | 0.0 | 0.0 | 0.00 | 0.00 | 0.00 | 82 | 1019.0 |
| 20260906164301 | 15 | 148 | 0.0 | 0.0 | 0.00 | 0.00 | 0.00 | 82 | 1019.0 |
| 20260906164253 | 15 | 148 | 0.0 | 0.0 | 0.00 | 0.00 | 0.00 | 82 | 1019.0 |
| 20260906164238 | 15 | 148 | 0.0 | 0.0 | 0.00 | 0.00 | 0.00 | 82 | 1019.0 |
| 20260906164224 | 15 | 148 | 0.0 | 0.0 | 0.00 | 0.00 | 0.00 | 82 | 1019.0 |
| 20260906164205 | 15 | 152 | 0.0 | 0.0 | 0.00 | 0.00 | 0.00 | 82 | 1019.0 |
| 20260906164149 | 15 | 152 | 0.0 | 0.0 | 0.00 | 0.00 | 0.00 | 82 | 1019.0 |
| 20260906164133 | 15 | 152 | 0.0 | 0.0 | 0.00 | 0.00 | 0.00 | 81 | 1019.0 |
| 20260906164118 | 15 | 152 | 0.0 | 0.0 | 0.00 | 0.00 | 0.00 | 81 | 1019.0 |
| 20260906164104 | 15 | 152 | 0.0 | 0.0 | 0.00 | 0.00 | 0.00 | 81 | 1019.0 |
| 20260906164047 | 15 | 152 | 0.0 | 0.0 | 0.00 | 0.00 | 0.00 | 81 | 1019.0 |
| 20260906164029 | 15 | 160 | 0.0 | 0.0 | 0.00 | 0.00 | 0.00 | 83 | 1019.0 |
| 20260906164014 | 15 | 205 | 0.0 | 0.0 | 0.00 | 0.00 | 0.00 | 83 | 1019.0 |
| 20260906164005 | 15 | 210 | 0.0 | 0.0 | 0.00 | 0.00 | 0.00 | 83 | 1019.0 |
| 20260906163949 | 15 | 210 | 0.0 | 0.0 | 0.00 | 0.00 | 0.00 | 83 | 1019.0 |
| 20260906163933 | 15 | 210 | 0.0 | 0.0 | 0.00 | 0.00 | 0.00 | 83 | 1019.0 |
| 20260906163930 | 15 | 207 | 0.0 | 0.0 | 0.00 | 0.00 | 0.00 | 83 | 1019.0 |
| 20260906163901 | 15 | 207 | 0.0 | 1.6 | 0.00 | 0.00 | 0.00 | 83 | 1019.0 |
| 20260906163845 | 15 | 189 | 0.0 | 1.6 | 0.00 | 0.00 | 0.00 | 83 | 1019.0 |
| 20260906163823 | 15 | 158 | 0.0 | 1.6 | 0.00 | 0.00 | 0.00 | 83 | 1019.0 |
| 20260906163806 | 15 | 190 | 0.0 | 4.8 | 0.00 | 0.00 | 0.00 | 83 | 1019.0 |
| 20260906163757 | 15 | 190 | 0.0 | 4.8 | 0.00 | 0.00 | 0.00 | 83 | 1019.0 |
| 20260906163741 | 15 | 244 | 0.0 | 4.8 | 0.00 | 0.00 | 0.00 | 83 | 1019.0 |
| 20260906163725 | 15 | 245 | 1.6 | 4.8 | 0.00 | 0.00 | 0.00 | 83 | 1019.0 |
| 20260906163709 | 15 | 197 | 0.0 | 4.8 | 0.00 | 0.00 | 0.00 | 83 | 1019.0 |
| 20260906163703 | 15 | 118 | 0.0 | 4.8 | 0.00 | 0.00 | 0.00 | 83 | 1019.0 |
| 20260906163653 | 15 | 118 | 0.0 | 4.8 | 0.00 | 0.00 | 0.00 | 83 | 1019.0 |
| 20260906163637 | 15 | 118 | 1.6 | 4.8 | 0.00 | 0.00 | 0.00 | 83 | 1019.0 |
| 20260906163629 | 15 | 172 | 3.2 | 3.2 | 0.00 | 0.00 | 0.00 | 83 | 1019.0 |
| 20260906163621 | 15 | 172 | 3.2 | 3.2 | 0.00 | 0.00 | 0.00 | 82 | 1019.0 |
| 20260906163605 | 15 | 239 | 1.6 | 3.2 | 0.00 | 0.00 | 0.00 | 82 | 1019.0 |
| 20260906163549 | 15 | 161 | 0.0 | 3.2 | 0.00 | 0.00 | 0.00 | 82 | 1019.0 |
| 20260906163525 | 15 | 146 | 0.0 | 3.2 | 0.00 | 0.00 | 0.00 | 82 | 1019.0 |
| 20260906163509 | 15 | 154 | 0.0 | 3.2 | 0.00 | 0.00 | 0.00 | 83 | 1019.0 |
| 20260906163505 | 15 | 139 | 0.0 | 3.2 | 0.00 | 0.00 | 0.00 | 83 | 1019.0 |
| 20260906163437 | 15 | 168 | 0.0 | 3.2 | 0.00 | 0.00 | 0.00 | 83 | 1019.0 |
| 20260906163423 | 15 | 169 | 1.6 | 4.8 | 0.00 | 0.00 | 0.00 | 83 | 1019.0 |
| 20260906163405 | 15 | 168 | 1.6 | 4.8 | 0.00 | 0.00 | 0.00 | 83 | 1019.0 |
| 20260906163349 | 15 | 134 | 0.0 | 4.8 | 0.00 | 0.00 | 0.00 | 83 | 1019.0 |
| 20260906163334 | 15 | 175 | 0.0 | 4.8 | 0.00 | 0.00 | 0.00 | 83 | 1019.0 |
| 20260906163317 | 15 | 175 | 1.6 | 4.8 | 0.00 | 0.00 | 0.00 | 83 | 1019.0 |
| 20260906163313 | 15 | 148 | 3.2 | 4.8 | 0.00 | 0.00 | 0.00 | 84 | 1019.0 |
| 20260906163248 | 15 | 223 | 3.2 | 4.8 | 0.00 | 0.00 | 0.00 | 84 | 1019.0 |
| 20260906163229 | 15 | 194 | 0.0 | 3.2 | 0.00 | 0.00 | 0.00 | 84 | 1019.0 |
| 20260906163213 | 15 | 195 | 3.2 | 3.2 | 0.00 | 0.00 | 0.00 | 84 | 1019.0 |
| 20260906163208 | 15 | 217 | 1.6 | 3.2 | 0.00 | 0.00 | 0.00 | 84 | 1019.0 |
| 20260906163141 | 15 | 234 | 0.0 | 3.2 | 0.00 | 0.00 | 0.00 | 84 | 1019.0 |
| 20260906163125 | 15 | 114 | 0.0 | 3.2 | 0.00 | 0.00 | 0.00 | 84 | 1019.0 |
| 20260906163109 | 15 | 164 | 0.0 | 3.2 | 0.00 | 0.00 | 0.00 | 84 | 1019.0 |
| 20260906163101 | 15 | 164 | 0.0 | 3.2 | 0.00 | 0.00 | 0.00 | 83 | 1019.0 |
| 20260906163046 | 15 | 205 | 3.2 | 3.2 | 0.00 | 0.00 | 0.00 | 83 | 1019.0 |
| 20260906163040 | 15 | 203 | 1.6 | 3.2 | 0.00 | 0.00 | 0.00 | 83 | 1019.0 |
| 20260906163018 | 15 | 152 | 1.6 | 1.6 | 0.00 | 0.00 | 0.00 | 83 | 1019.0 |
| 20260906162941 | 15 | 180 | 0.0 | 1.6 | 0.00 | 0.00 | 0.00 | 83 | 1019.0 |
| 20260906162927 | 15 | 180 | 0.0 | 3.2 | 0.00 | 0.00 | 0.00 | 83 | 1019.0 |
| 20260906162909 | 15 | 180 | 0.0 | 3.2 | 0.00 | 0.00 | 0.00 | 83 | 1019.0 |
| 20260906162903 | 15 | 69 | 0.0 | 3.2 | 0.00 | 0.00 | 0.00 | 83 | 1019.0 |
| 20260906162838 | 15 | 69 | 0.0 | 3.2 | 0.00 | 0.00 | 0.00 | 83 | 1019.0 |
| 20260906162825 | 15 | 69 | 0.0 | 3.2 | 0.00 | 0.00 | 0.00 | 83 | 1019.0 |
| 20260906162749 | 15 | 71 | 1.6 | 3.2 | 0.00 | 0.00 | 0.00 | 83 | 1019.0 |
| 20260906162735 | 15 | 90 | 1.6 | 3.2 | 0.00 | 0.00 | 0.00 | 83 | 1019.0 |
| 20260906162728 | 15 | 90 | 1.6 | 1.6 | 0.00 | 0.00 | 0.00 | 83 | 1019.0 |
| 20260906162701 | 15 | 92 | 1.6 | 1.6 | 0.00 | 0.00 | 0.00 | 83 | 1019.0 |
| 20260906162653 | 15 | 92 | 1.6 | 1.6 | 0.00 | 0.00 | 0.00 | 83 | 1019.0 |
| 20260906162645 | 15 | 92 | 1.6 | 1.6 | 0.00 | 0.00 | 0.00 | 84 | 1019.0 |
| 20260906162623 | 15 | 92 | 0.0 | 1.6 | 0.00 | 0.00 | 0.00 | 84 | 1019.0 |
| 20260906162605 | 15 | 128 | 0.0 | 3.2 | 0.00 | 0.00 | 0.00 | 84 | 1019.0 |
| 20260906162554 | 15 | 128 | 0.0 | 3.2 | 0.00 | 0.00 | 0.00 | 84 | 1019.0 |
| 20260906162517 | 15 | 128 | 0.0 | 3.2 | 0.00 | 0.00 | 0.00 | 84 | 1019.0 |
| 20260906162502 | 15 | 128 | 0.0 | 3.2 | 0.00 | 0.00 | 0.00 | 84 | 1019.0 |
| 20260906162445 | 15 | 128 | 1.6 | 3.2 | 0.00 | 0.00 | 0.00 | 84 | 1019.0 |
| 20260906162439 | 14 | 130 | 1.6 | 3.2 | 0.00 | 0.00 | 0.00 | 84 | 1019.0 |
| 20260906162413 | 14 | 131 | 3.2 | 3.2 | 0.00 | 0.00 | 0.00 | 84 | 1019.0 |
| 20260906162405 | 14 | 139 | 1.6 | 3.2 | 0.00 | 0.00 | 0.00 | 84 | 1019.0 |
| 20260906162345 | 14 | 165 | 0.0 | 3.2 | 0.00 | 0.00 | 0.00 | 84 | 1019.0 |
| 20260906162328 | 14 | 200 | 0.0 | 3.2 | 0.00 | 0.00 | 0.00 | 83 | 1019.0 |
| 20260906162305 | 14 | 126 | 1.6 | 3.2 | 0.00 | 0.00 | 0.00 | 83 | 1019.0 |
| 20260906162253 | 14 | 126 | 1.6 | 3.2 | 0.00 | 0.00 | 0.00 | 83 | 1019.0 |
| 20260906162237 | 14 | 141 | 0.0 | 3.2 | 0.00 | 0.00 | 0.00 | 83 | 1019.0 |
| 20260906162221 | 14 | 134 | 1.6 | 6.4 | 0.00 | 0.00 | 0.00 | 83 | 1019.0 |
| 20260906162206 | 14 | 144 | 1.6 | 6.4 | 0.00 | 0.00 | 0.00 | 83 | 1019.0 |
| 20260906162158 | 14 | 144 | 1.6 | 6.4 | 0.00 | 0.00 | 0.00 | 83 | 1019.0 |
| 20260906162142 | 14 | 139 | 1.6 | 6.4 | 0.00 | 0.00 | 0.00 | 83 | 1019.0 |
| 20260906162126 | 14 | 157 | 1.6 | 6.4 | 0.00 | 0.00 | 0.00 | 83 | 1019.0 |
| 20260906162114 | 14 | 140 | 1.6 | 6.4 | 0.00 | 0.00 | 0.00 | 83 | 1019.0 |
| 20260906162054 | 14 | 141 | 3.2 | 6.4 | 0.00 | 0.00 | 0.00 | 83 | 1019.0 |
| 20260906162038 | 14 | 128 | 1.6 | 4.8 | 0.00 | 0.00 | 0.00 | 83 | 1019.0 |
| 20260906162032 | 14 | 135 | 3.2 | 4.8 | 0.00 | 0.00 | 0.00 | 83 | 1019.0 |
| 20260906162017 | 15 | 172 | 4.8 | 4.8 | 0.00 | 0.00 | 0.00 | 84 | 1019.0 |
| 20260906161950 | 15 | 117 | 3.2 | 4.8 | 0.00 | 0.00 | 0.00 | 84 | 1019.0 |
| 20260906161934 | 15 | 130 | 3.2 | 4.8 | 0.00 | 0.00 | 0.00 | 84 | 1019.0 |
| 20260906161918 | 15 | 138 | 1.6 | 3.2 | 0.00 | 0.00 | 0.00 | 84 | 1019.0 |
| 20260906161902 | 15 | 141 | 1.6 | 3.2 | 0.00 | 0.00 | 0.00 | 84 | 1019.0 |
| 20260906161847 | 15 | 132 | 3.2 | 3.2 | 0.00 | 0.00 | 0.00 | 84 | 1019.0 |
| 20260906161830 | 15 | 116 | 1.6 | 3.2 | 0.00 | 0.00 | 0.00 | 84 | 1019.0 |
| 20260906161822 | 15 | 133 | 0.0 | 3.2 | 0.00 | 0.00 | 0.00 | 84 | 1019.0 |
| 20260906161814 | 14 | 133 | 0.0 | 3.2 | 0.00 | 0.00 | 0.00 | 84 | 1019.0 |
| 20260906161807 | 14 | 162 | 0.0 | 3.2 | 0.00 | 0.00 | 0.00 | 84 | 1019.0 |
| 20260906161750 | 14 | 162 | 0.0 | 3.2 | 0.00 | 0.00 | 0.00 | 84 | 1019.0 |
| 20260906161734 | 14 | 163 | 0.0 | 3.2 | 0.00 | 0.00 | 0.00 | 84 | 1019.0 |
| 20260906161718 | 14 | 57 | 1.6 | 3.2 | 0.00 | 0.00 | 0.00 | 84 | 1019.0 |
| 20260906161713 | 15 | 148 | 0.0 | 3.2 | 0.00 | 0.00 | 0.00 | 84 | 1019.0 |
| 20260906161646 | 15 | 150 | 0.0 | 4.8 | 0.00 | 0.00 | 0.00 | 84 | 1019.0 |
| 20260906161638 | 15 | 169 | 1.6 | 4.8 | 0.00 | 0.00 | 0.00 | 84 | 1019.0 |
| 20260906161630 | 15 | 169 | 1.6 | 9.7 | 0.00 | 0.00 | 0.00 | 84 | 1019.0 |
| 20260906161618 | 15 | 218 | 1.6 | 9.7 | 0.00 | 0.00 | 0.00 | 84 | 1019.0 |
| 20260906161544 | 14 | 234 | 3.2 | 9.7 | 0.00 | 0.00 | 0.00 | 84 | 1019.0 |
| 20260906161528 | 14 | 202 | 3.2 | 9.7 | 0.00 | 0.00 | 0.00 | 84 | 1019.0 |
| 20260906161520 | 14 | 225 | 4.8 | 9.7 | 0.00 | 0.00 | 0.00 | 84 | 1019.0 |
| 20260906161502 | 14 | 204 | 6.4 | 9.7 | 0.00 | 0.00 | 0.00 | 84 | 1019.0 |
| 20260906161455 | 14 | 204 | 6.4 | 9.7 | 0.00 | 0.00 | 0.00 | 84 | 1019.0 |
| 20260906161450 | 14 | 239 | 6.4 | 9.7 | 0.00 | 0.00 | 0.00 | 84 | 1019.0 |
| 20260906161422 | 14 | 207 | 3.2 | 9.7 | 0.00 | 0.00 | 0.00 | 84 | 1019.0 |
| 20260906161417 | 14 | 209 | 0.0 | 9.7 | 0.00 | 0.00 | 0.00 | 84 | 1019.0 |
| 20260906161352 | 14 | 195 | 0.0 | 9.7 | 0.00 | 0.00 | 0.00 | 84 | 1019.0 |
| 20260906161326 | 14 | 153 | 3.2 | 9.7 | 0.00 | 0.00 | 0.00 | 84 | 1019.0 |
| 20260906161310 | 14 | 137 | 1.6 | 9.7 | 0.00 | 0.00 | 0.00 | 84 | 1019.0 |
| 20260906161301 | 14 | 206 | 4.8 | 9.7 | 0.00 | 0.00 | 0.00 | 84 | 1019.0 |
| 20260906161253 | 14 | 206 | 4.8 | 9.7 | 0.00 | 0.00 | 0.00 | 85 | 1019.0 |
| 20260906161238 | 14 | 210 | 3.2 | 6.4 | 0.00 | 0.00 | 0.00 | 85 | 1019.0 |
| 20260906161222 | 14 | 145 | 3.2 | 4.8 | 0.00 | 0.00 | 0.00 | 85 | 1019.0 |
| 20260906161206 | 14 | 138 | 3.2 | 4.8 | 0.00 | 0.00 | 0.00 | 85 | 1019.0 |
| 20260906161149 | 14 | 129 | 1.6 | 4.8 | 0.00 | 0.00 | 0.00 | 85 | 1019.0 |
| 20260906161134 | 14 | 129 | 3.2 | 4.8 | 0.00 | 0.00 | 0.00 | 85 | 1019.0 |
| 20260906161128 | 14 | 143 | 3.2 | 4.8 | 0.00 | 0.00 | 0.00 | 85 | 1019.0 |
| 20260906161104 | 14 | 169 | 0.0 | 4.8 | 0.00 | 0.00 | 0.00 | 85 | 1019.0 |
| 20260906161048 | 14 | 182 | 0.0 | 4.8 | 0.00 | 0.00 | 0.00 | 85 | 1019.0 |
| 20260906161029 | 14 | 203 | 1.6 | 4.8 | 0.00 | 0.00 | 0.00 | 85 | 1019.0 |
| 20260906161017 | 14 | 194 | 3.2 | 4.8 | 0.00 | 0.00 | 0.00 | 85 | 1019.0 |
| 20260906160957 | 14 | 205 | 1.6 | 4.8 | 0.00 | 0.00 | 0.00 | 85 | 1020.0 |
| 20260906160941 | 14 | 193 | 0.0 | 4.8 | 0.00 | 0.00 | 0.00 | 85 | 1020.0 |
| 20260906160926 | 14 | 195 | 0.0 | 4.8 | 0.00 | 0.00 | 0.00 | 85 | 1020.0 |
| 20260906160910 | 14 | 121 | 1.6 | 4.8 | 0.00 | 0.00 | 0.00 | 85 | 1020.0 |
| 20260906160901 | 14 | 121 | 1.6 | 4.8 | 0.00 | 0.00 | 0.00 | 85 | 1019.0 |
| 20260906160851 | 14 | 215 | 1.6 | 4.8 | 0.00 | 0.00 | 0.00 | 85 | 1019.0 |
| 20260906160813 | 14 | 187 | 1.6 | 4.8 | 0.00 | 0.00 | 0.00 | 85 | 1019.0 |
| 20260906160805 | 14 | 147 | 1.6 | 4.8 | 0.00 | 0.00 | 0.00 | 85 | 1020.0 |
| 20260906160757 | 14 | 147 | 1.6 | 4.8 | 0.00 | 0.00 | 0.00 | 85 | 1020.0 |
| 20260906160751 | 14 | 141 | 1.6 | 4.8 | 0.00 | 0.00 | 0.00 | 85 | 1020.0 |
| 20260906160728 | 14 | 129 | 0.0 | 4.8 | 0.00 | 0.00 | 0.00 | 87 | 1020.0 |
| 20260906160709 | 14 | 202 | 3.2 | 4.8 | 0.00 | 0.00 | 0.00 | 87 | 1020.0 |
| 20260906160702 | 14 | 136 | 3.2 | 4.8 | 0.00 | 0.00 | 0.00 | 87 | 1019.0 |
| 20260906160653 | 14 | 136 | 3.2 | 4.8 | 0.00 | 0.00 | 0.00 | 87 | 1019.0 |
| 20260906160637 | 14 | 136 | 0.0 | 3.2 | 0.00 | 0.00 | 0.00 | 87 | 1019.0 |
| 20260906160621 | 14 | 58 | 0.0 | 4.8 | 0.00 | 0.00 | 0.00 | 86 | 1019.0 |
| 20260906160616 | 14 | 58 | 1.6 | 4.8 | 0.00 | 0.00 | 0.00 | 86 | 1019.0 |
| 20260906160600 | 14 | 182 | 0.0 | 4.8 | 0.00 | 0.00 | 0.00 | 86 | 1019.0 |
| 20260906160533 | 14 | 162 | 1.6 | 4.8 | 0.00 | 0.00 | 0.00 | 86 | 1019.0 |
| 20260906160530 | 14 | 211 | 1.6 | 4.8 | 0.00 | 0.00 | 0.00 | 86 | 1019.0 |
| 20260906160501 | 14 | 233 | 3.2 | 4.8 | 0.00 | 0.00 | 0.00 | 86 | 1019.0 |
| 20260906160438 | 14 | 225 | 3.2 | 4.8 | 0.00 | 0.00 | 0.00 | 86 | 1019.0 |
| 20260906160424 | 14 | 202 | 4.8 | 4.8 | 0.00 | 0.00 | 0.00 | 86 | 1019.0 |
| 20260906160406 | 14 | 230 | 1.6 | 4.8 | 0.00 | 0.00 | 0.00 | 86 | 1019.0 |
| 20260906160349 | 14 | 213 | 1.6 | 4.8 | 0.00 | 0.00 | 0.00 | 86 | 1019.0 |
| 20260906160341 | 14 | 135 | 1.6 | 4.8 | 0.00 | 0.00 | 0.00 | 86 | 1019.0 |
| 20260906160334 | 14 | 135 | 1.6 | 11.3 | 0.00 | 0.00 | 0.00 | 86 | 1019.0 |
| 20260906160317 | 14 | 110 | 1.6 | 11.3 | 0.00 | 0.00 | 0.00 | 86 | 1019.0 |
| 20260906160301 | 14 | 161 | 3.2 | 11.3 | 0.00 | 0.00 | 0.00 | 86 | 1019.0 |
| 20260906160246 | 14 | 150 | 4.8 | 11.3 | 0.00 | 0.00 | 0.00 | 86 | 1019.0 |
| 20260906160232 | 14 | 83 | 1.6 | 11.3 | 0.00 | 0.00 | 0.00 | 86 | 1019.0 |
| 20260906160213 | 13 | 208 | 1.6 | 11.3 | 0.00 | 0.00 | 0.00 | 86 | 1019.0 |
| 20260906160205 | 13 | 206 | 6.4 | 11.3 | 0.00 | 0.00 | 0.00 | 86 | 1019.0 |
| 20260906160158 | 13 | 206 | 6.4 | 11.3 | 0.00 | 0.00 | 0.00 | 86 | 1019.0 |
| 20260906160141 | 13 | 224 | 3.2 | 6.4 | 0.00 | 0.00 | 0.00 | 86 | 1019.0 |
| 20260906160128 | 13 | 154 | 0.0 | 3.2 | 0.00 | 0.00 | 0.00 | 86 | 1019.0 |
| 20260906160109 | 13 | 157 | 1.6 | 3.2 | 0.00 | 0.00 | 0.00 | 86 | 1019.0 |
| 20260906160104 | 13 | 155 | 3.2 | 3.2 | 0.00 | 0.00 | 0.00 | 86 | 1019.0 |
| 20260906160037 | 13 | 139 | 3.2 | 3.2 | 0.00 | 0.00 | 0.00 | 86 | 1019.0 |
| 20260906160014 | 13 | 132 | 3.2 | 3.2 | 0.00 | 0.00 | 0.00 | 86 | 1019.0 |
| 20260906160006 | 13 | 167 | 3.2 | 3.2 | 0.00 | 0.00 | 0.00 | 86 | 1019.0 |
| 20260906155957 | 13 | 167 | 3.2 | 3.2 | 0.00 | 0.00 | 0.00 | 86 | 1019.0 |
| 20260906155941 | 13 | 140 | 0.0 | 3.2 | 0.00 | 0.00 | 0.00 | 86 | 1019.0 |
| 20260906155925 | 13 | 141 | 0.0 | 3.2 | 0.00 | 0.00 | 0.00 | 86 | 1019.0 |
| 20260906155910 | 13 | 141 | 3.2 | 3.2 | 0.00 | 0.00 | 0.00 | 86 | 1019.0 |
| 20260906155901 | 13 | 131 | 1.6 | 3.2 | 0.00 | 0.00 | 0.00 | 86 | 1019.0 |
| 20260906155853 | 13 | 131 | 1.6 | 3.2 | 0.00 | 0.00 | 0.00 | 86 | 1019.0 |
| 20260906155840 | 13 | 153 | 0.0 | 0.0 | 0.00 | 0.00 | 0.00 | 86 | 1019.0 |
| 20260906155821 | 13 | 218 | 0.0 | 1.6 | 0.00 | 0.00 | 0.00 | 86 | 1019.0 |
| 20260906155805 | 13 | 218 | 0.0 | 1.6 | 0.00 | 0.00 | 0.00 | 86 | 1019.0 |
| 20260906155749 | 13 | 218 | 0.0 | 1.6 | 0.00 | 0.00 | 0.00 | 86 | 1019.0 |
| 20260906155741 | 13 | 172 | 0.0 | 1.6 | 0.00 | 0.00 | 0.00 | 86 | 1019.0 |
| 20260906155733 | 13 | 172 | 0.0 | 3.2 | 0.00 | 0.00 | 0.00 | 86 | 1019.0 |
| 20260906155717 | 13 | 172 | 0.0 | 3.2 | 0.00 | 0.00 | 0.00 | 86 | 1019.0 |
| 20260906155709 | 13 | 172 | 0.0 | 3.2 | 0.00 | 0.00 | 0.00 | 86 | 1019.0 |
| 20260906155702 | 13 | 172 | 0.0 | 4.8 | 0.00 | 0.00 | 0.00 | 86 | 1019.0 |
| 20260906155645 | 13 | 172 | 0.0 | 4.8 | 0.00 | 0.00 | 0.00 | 86 | 1019.0 |
| 20260906155629 | 13 | 172 | 1.6 | 4.8 | 0.00 | 0.00 | 0.00 | 86 | 1019.0 |
| 20260906155613 | 13 | 172 | 1.6 | 4.8 | 0.00 | 0.00 | 0.00 | 86 | 1019.0 |
| 20260906155608 | 13 | 215 | 1.6 | 4.8 | 0.00 | 0.00 | 0.00 | 86 | 1019.0 |
| 20260906155533 | 13 | 229 | 3.2 | 4.8 | 0.00 | 0.00 | 0.00 | 85 | 1019.0 |
| 20260906155528 | 13 | 211 | 1.6 | 3.2 | 0.00 | 0.00 | 0.00 | 85 | 1019.0 |
| 20260906155509 | 13 | 147 | 3.2 | 3.2 | 0.00 | 0.00 | 0.00 | 85 | 1019.0 |
| 20260906155502 | 13 | 147 | 3.2 | 6.4 | 0.00 | 0.00 | 0.00 | 85 | 1019.0 |
| 20260906155454 | 13 | 139 | 3.2 | 6.4 | 0.00 | 0.00 | 0.00 | 85 | 1019.0 |
| 20260906155448 | 13 | 139 | 3.2 | 6.4 | 0.00 | 0.00 | 0.00 | 86 | 1019.0 |
| 20260906155432 | 13 | 143 | 1.6 | 6.4 | 0.00 | 0.00 | 0.00 | 86 | 1019.0 |
| 20260906155413 | 13 | 143 | 3.2 | 6.4 | 0.00 | 0.00 | 0.00 | 86 | 1019.0 |
| 20260906155405 | 13 | 149 | 1.6 | 6.4 | 0.00 | 0.00 | 0.00 | 86 | 1019.0 |
| 20260906155357 | 13 | 149 | 1.6 | 6.4 | 0.00 | 0.00 | 0.00 | 86 | 1019.0 |
| 20260906155341 | 13 | 192 | 1.6 | 6.4 | 0.00 | 0.00 | 0.00 | 86 | 1019.0 |
| 20260906155326 | 13 | 216 | 3.2 | 6.4 | 0.00 | 0.00 | 0.00 | 86 | 1019.0 |
| 20260906155312 | 13 | 216 | 4.8 | 4.8 | 0.00 | 0.00 | 0.00 | 86 | 1019.0 |
| 20260906155254 | 13 | 226 | 3.2 | 4.8 | 0.00 | 0.00 | 0.00 | 86 | 1019.0 |
| 20260906155238 | 13 | 178 | 3.2 | 3.2 | 0.00 | 0.00 | 0.00 | 86 | 1019.0 |
| 20260906155221 | 13 | 202 | 0.0 | 3.2 | 0.00 | 0.00 | 0.00 | 86 | 1019.0 |
| 20260906155213 | 13 | 141 | 0.0 | 3.2 | 0.00 | 0.00 | 0.00 | 86 | 1019.0 |
| 20260906155205 | 13 | 141 | 0.0 | 4.8 | 0.00 | 0.00 | 0.00 | 86 | 1019.0 |
| 20260906155150 | 13 | 163 | 1.6 | 4.8 | 0.00 | 0.00 | 0.00 | 86 | 1019.0 |
| 20260906155135 | 13 | 168 | 1.6 | 4.8 | 0.00 | 0.00 | 0.00 | 86 | 1019.0 |
| 20260906155109 | 13 | 153 | 0.0 | 4.8 | 0.00 | 0.00 | 0.00 | 86 | 1019.0 |
| 20260906155101 | 13 | 138 | 1.6 | 4.8 | 0.00 | 0.00 | 0.00 | 86 | 1019.0 |
| 20260906155053 | 13 | 138 | 1.6 | 4.8 | 0.00 | 0.00 | 0.00 | 86 | 1019.0 |
| 20260906155038 | 13 | 136 | 1.6 | 4.8 | 0.00 | 0.00 | 0.00 | 86 | 1019.0 |
| 20260906155021 | 13 | 143 | 3.2 | 4.8 | 0.00 | 0.00 | 0.00 | 87 | 1019.0 |
| 20260906155005 | 13 | 142 | 3.2 | 4.8 | 0.00 | 0.00 | 0.00 | 87 | 1019.0 |
| 20260906154949 | 13 | 93 | 1.6 | 4.8 | 0.00 | 0.00 | 0.00 | 87 | 1019.0 |
| 20260906154944 | 13 | 96 | 1.6 | 4.8 | 0.00 | 0.00 | 0.00 | 87 | 1019.0 |
| 20260906154928 | 13 | 106 | 0.0 | 4.8 | 0.00 | 0.00 | 0.00 | 87 | 1019.0 |
| 20260906154901 | 13 | 94 | 1.6 | 4.8 | 0.00 | 0.00 | 0.00 | 87 | 1019.0 |
| 20260906154845 | 13 | 132 | 1.6 | 4.8 | 0.00 | 0.00 | 0.00 | 87 | 1019.0 |
| 20260906154829 | 13 | 92 | 1.6 | 4.8 | 0.00 | 0.00 | 0.00 | 87 | 1019.0 |
| 20260906154816 | 13 | 199 | 3.2 | 3.2 | 0.00 | 0.00 | 0.00 | 87 | 1019.0 |
| 20260906154757 | 13 | 144 | 0.0 | 1.6 | 0.00 | 0.00 | 0.00 | 87 | 1019.0 |
| 20260906154741 | 13 | 161 | 0.0 | 1.6 | 0.00 | 0.00 | 0.00 | 87 | 1019.0 |
| 20260906154727 | 13 | 166 | 1.6 | 3.2 | 0.00 | 0.00 | 0.00 | 87 | 1019.0 |
| 20260906154701 | 13 | 191 | 1.6 | 3.2 | 0.00 | 0.00 | 0.00 | 87 | 1019.0 |
| 20260906154645 | 13 | 191 | 1.6 | 3.2 | 0.00 | 0.00 | 0.00 | 87 | 1019.0 |
| 20260906154630 | 13 | 168 | 0.0 | 3.2 | 0.00 | 0.00 | 0.00 | 87 | 1019.0 |
| 20260906154613 | 13 | 117 | 1.6 | 3.2 | 0.00 | 0.00 | 0.00 | 87 | 1019.0 |
| 20260906154605 | 13 | 141 | 1.6 | 3.2 | 0.00 | 0.00 | 0.00 | 87 | 1019.0 |
| 20260906154600 | 13 | 141 | 1.6 | 3.2 | 0.00 | 0.00 | 0.00 | 87 | 1019.0 |
| 20260906154543 | 13 | 136 | 1.6 | 3.2 | 0.00 | 0.00 | 0.00 | 87 | 1019.0 |
| 20260906154525 | 13 | 125 | 3.2 | 3.2 | 0.00 | 0.00 | 0.00 | 87 | 1019.0 |
| 20260906154513 | 13 | 132 | 1.6 | 3.2 | 0.00 | 0.00 | 0.00 | 87 | 1019.0 |
| 20260906154453 | 13 | 115 | 1.6 | 3.2 | 0.00 | 0.00 | 0.00 | 87 | 1019.0 |
| 20260906154448 | 13 | 126 | 1.6 | 3.2 | 0.00 | 0.00 | 0.00 | 87 | 1019.0 |
| 20260906154432 | 13 | 155 | 3.2 | 3.2 | 0.00 | 0.00 | 0.00 | 87 | 1019.0 |
| 20260906154413 | 13 | 130 | 3.2 | 3.2 | 0.00 | 0.00 | 0.00 | 87 | 1019.0 |
| 20260906154405 | 13 | 130 | 3.2 | 4.8 | 0.00 | 0.00 | 0.00 | 87 | 1019.0 |
| 20260906154349 | 13 | 115 | 1.6 | 4.8 | 0.00 | 0.00 | 0.00 | 87 | 1019.0 |
| 20260906154333 | 13 | 120 | 1.6 | 4.8 | 0.00 | 0.00 | 0.00 | 87 | 1019.0 |
| 20260906154328 | 13 | 116 | 0.0 | 4.8 | 0.00 | 0.00 | 0.00 | 87 | 1019.0 |
| 20260906154309 | 13 | 286 | 1.6 | 4.8 | 0.00 | 0.00 | 0.00 | 87 | 1019.0 |
| 20260906154301 | 14 | 286 | 1.6 | 4.8 | 0.00 | 0.00 | 0.00 | 87 | 1019.0 |
| 20260906154237 | 14 | 157 | 3.2 | 4.8 | 0.00 | 0.00 | 0.00 | 87 | 1019.0 |
| 20260906154221 | 14 | 142 | 0.0 | 3.2 | 0.00 | 0.00 | 0.00 | 87 | 1019.0 |
| 20260906154214 | 14 | 169 | 1.6 | 3.2 | 0.00 | 0.00 | 0.00 | 87 | 1019.0 |
| 20260906154205 | 14 | 169 | 1.6 | 4.8 | 0.00 | 0.00 | 0.00 | 87 | 1019.0 |
| 20260906154159 | 14 | 119 | 0.0 | 4.8 | 0.00 | 0.00 | 0.00 | 87 | 1019.0 |
| 20260906154133 | 14 | 119 | 0.0 | 4.8 | 0.00 | 0.00 | 0.00 | 87 | 1019.0 |
| 20260906154118 | 14 | 119 | 1.6 | 4.8 | 0.00 | 0.00 | 0.00 | 87 | 1019.0 |
| 20260906154101 | 14 | 119 | 1.6 | 4.8 | 0.00 | 0.00 | 0.00 | 87 | 1019.0 |
| 20260906154045 | 14 | 135 | 1.6 | 4.8 | 0.00 | 0.00 | 0.00 | 87 | 1019.0 |
| 20260906154032 | 14 | 135 | 3.2 | 4.8 | 0.00 | 0.00 | 0.00 | 87 | 1019.0 |
| 20260906154021 | 14 | 136 | 3.2 | 4.8 | 0.00 | 0.00 | 0.00 | 87 | 1019.0 |
| 20260906153943 | 14 | 139 | 3.2 | 3.2 | 0.00 | 0.00 | 0.00 | 88 | 1019.0 |
| 20260906153925 | 14 | 169 | 1.6 | 1.6 | 0.00 | 0.00 | 0.00 | 88 | 1019.0 |
| 20260906153912 | 14 | 173 | 0.0 | 1.6 | 0.00 | 0.00 | 0.00 | 88 | 1019.0 |
| 20260906153856 | 14 | 173 | 0.0 | 1.6 | 0.00 | 0.00 | 0.00 | 88 | 1019.0 |
| 20260906153838 | 14 | 173 | 1.6 | 1.6 | 0.00 | 0.00 | 0.00 | 88 | 1019.0 |
| 20260906153821 | 14 | 178 | 1.6 | 1.6 | 0.00 | 0.00 | 0.00 | 88 | 1019.0 |
| 20260906153813 | 14 | 161 | 1.6 | 1.6 | 0.00 | 0.00 | 0.00 | 88 | 1019.0 |
| 20260906153805 | 14 | 161 | 1.6 | 3.2 | 0.00 | 0.00 | 0.00 | 88 | 1019.0 |
| 20260906153759 | 14 | 161 | 1.6 | 3.2 | 0.00 | 0.00 | 0.00 | 88 | 1019.0 |
| 20260906153741 | 14 | 163 | 1.6 | 3.2 | 0.00 | 0.00 | 0.00 | 88 | 1019.0 |
| 20260906153709 | 14 | 184 | 0.0 | 3.2 | 0.00 | 0.00 | 0.00 | 88 | 1019.0 |
| 20260906153702 | 14 | 146 | 0.0 | 4.8 | 0.00 | 0.00 | 0.00 | 88 | 1019.0 |
| 20260906153653 | 14 | 146 | 0.0 | 4.8 | 0.00 | 0.00 | 0.00 | 88 | 1019.0 |
| 20260906153645 | 14 | 169 | 1.6 | 4.8 | 0.00 | 0.00 | 0.00 | 88 | 1019.0 |
| 20260906153637 | 13 | 169 | 1.6 | 4.8 | 0.00 | 0.00 | 0.00 | 89 | 1019.0 |
| 20260906153621 | 13 | 161 | 1.6 | 4.8 | 0.00 | 0.00 | 0.00 | 89 | 1019.0 |
| 20260906153613 | 13 | 159 | 1.6 | 4.8 | 0.00 | 0.00 | 0.00 | 89 | 1019.0 |
| 20260906153605 | 13 | 159 | 1.6 | 4.8 | 0.00 | 0.00 | 0.00 | 89 | 1020.0 |
| 20260906153550 | 13 | 233 | 1.6 | 4.8 | 0.00 | 0.00 | 0.00 | 89 | 1020.0 |
| 20260906153533 | 13 | 215 | 3.2 | 4.8 | 0.00 | 0.00 | 0.00 | 89 | 1020.0 |
| 20260906153517 | 13 | 230 | 3.2 | 4.8 | 0.00 | 0.00 | 0.00 | 89 | 1020.0 |
| 20260906153509 | 13 | 186 | 3.2 | 4.8 | 0.00 | 0.00 | 0.00 | 89 | 1020.0 |
| 20260906153501 | 13 | 186 | 3.2 | 4.8 | 0.00 | 0.00 | 0.00 | 89 | 1019.0 |
| 20260906153445 | 13 | 174 | 3.2 | 4.8 | 0.00 | 0.00 | 0.00 | 89 | 1019.0 |
| 20260906153431 | 13 | 207 | 3.2 | 3.2 | 0.00 | 0.00 | 0.00 | 89 | 1019.0 |
| 20260906153413 | 13 | 211 | 1.6 | 3.2 | 0.00 | 0.00 | 0.00 | 89 | 1019.0 |
| 20260906153408 | 13 | 158 | 0.0 | 4.8 | 0.00 | 0.00 | 0.00 | 89 | 1019.0 |
| 20260906153333 | 13 | 158 | 1.6 | 4.8 | 0.00 | 0.00 | 0.00 | 89 | 1019.0 |
| 20260906153319 | 13 | 158 | 1.6 | 4.8 | 0.00 | 0.00 | 0.00 | 89 | 1019.0 |
| 20260906153301 | 13 | 184 | 1.6 | 4.8 | 0.00 | 0.00 | 0.00 | 89 | 1019.0 |
| 20260906153245 | 13 | 184 | 3.2 | 4.8 | 0.00 | 0.00 | 0.00 | 89 | 1019.0 |
| 20260906153229 | 13 | 225 | 3.2 | 4.8 | 0.00 | 0.00 | 0.00 | 89 | 1019.0 |
| 20260906153213 | 13 | 210 | 4.8 | 4.8 | 0.00 | 0.00 | 0.00 | 89 | 1019.0 |
| 20260906153205 | 13 | 208 | 0.0 | 1.6 | 0.00 | 0.00 | 0.00 | 89 | 1019.0 |
| 20260906153157 | 13 | 208 | 0.0 | 1.6 | 0.00 | 0.00 | 0.00 | 89 | 1019.0 |
| 20260906153142 | 13 | 182 | 0.0 | 0.0 | 0.00 | 0.00 | 0.00 | 89 | 1019.0 |
| 20260906153125 | 13 | 181 | 0.0 | 0.0 | 0.00 | 0.00 | 0.00 | 89 | 1019.0 |
| 20260906153109 | 13 | 180 | 0.0 | 0.0 | 0.00 | 0.00 | 0.00 | 89 | 1019.0 |
| 20260906153103 | 13 | 125 | 0.0 | 0.0 | 0.00 | 0.00 | 0.00 | 89 | 1020.0 |
| 20260906153037 | 13 | 124 | 0.0 | 0.0 | 0.00 | 0.00 | 0.00 | 89 | 1020.0 |
| 20260906153021 | 13 | 124 | 0.0 | 0.0 | 0.00 | 0.00 | 0.00 | 89 | 1020.0 |
| 20260906153006 | 13 | 124 | 0.0 | 0.0 | 0.00 | 0.00 | 0.00 | 88 | 1019.0 |
| 20260906152959 | 13 | 124 | 0.0 | 0.0 | 0.00 | 0.00 | 0.00 | 88 | 1019.0 |
| 20260906152941 | 13 | 124 | 0.0 | 0.0 | 0.00 | 0.00 | 0.00 | 88 | 1019.0 |
| 20260906152910 | 13 | 124 | 0.0 | 0.0 | 0.00 | 0.00 | 0.00 | 88 | 1019.0 |
| 20260906152902 | 13 | 124 | 0.0 | 0.0 | 0.00 | 0.00 | 0.00 | 88 | 1019.0 |
| 20260906152854 | 13 | 124 | 0.0 | 0.0 | 0.00 | 0.00 | 0.00 | 88 | 1019.0 |
| 20260906152841 | 13 | 124 | 0.0 | 0.0 | 0.00 | 0.00 | 0.00 | 88 | 1019.0 |
| 20260906152822 | 13 | 126 | 0.0 | 0.0 | 0.00 | 0.00 | 0.00 | 88 | 1019.0 |
| 20260906152814 | 13 | 146 | 0.0 | 0.0 | 0.00 | 0.00 | 0.00 | 88 | 1019.0 |
| 20260906152808 | 13 | 146 | 0.0 | 0.0 | 0.00 | 0.00 | 0.00 | 88 | 1020.0 |
| 20260906152749 | 13 | 161 | 0.0 | 0.0 | 0.00 | 0.00 | 0.00 | 88 | 1020.0 |
| 20260906152741 | 13 | 125 | 0.0 | 0.0 | 0.00 | 0.00 | 0.00 | 88 | 1020.0 |
| 20260906152734 | 13 | 125 | 0.0 | 4.8 | 0.00 | 0.00 | 0.00 | 88 | 1020.0 |
| 20260906152720 | 13 | 125 | 0.0 | 4.8 | 0.00 | 0.00 | 0.00 | 88 | 1020.0 |
| 20260906152712 | 13 | 125 | 0.0 | 4.8 | 0.00 | 0.00 | 0.00 | 88 | 1020.0 |
| 20260906152646 | 13 | 125 | 0.0 | 4.8 | 0.00 | 0.00 | 0.00 | 88 | 1019.0 |
| 20260906152630 | 13 | 125 | 0.0 | 4.8 | 0.00 | 0.00 | 0.00 | 88 | 1019.0 |
| 20260906152614 | 13 | 125 | 1.6 | 4.8 | 0.00 | 0.00 | 0.00 | 88 | 1019.0 |
| 20260906152606 | 13 | 125 | 3.2 | 4.8 | 0.00 | 0.00 | 0.00 | 88 | 1020.0 |
| 20260906152558 | 13 | 125 | 3.2 | 4.8 | 0.00 | 0.00 | 0.00 | 88 | 1020.0 |
| 20260906152542 | 13 | 133 | 3.2 | 3.2 | 0.00 | 0.00 | 0.00 | 88 | 1020.0 |
| 20260906152526 | 13 | 145 | 3.2 | 3.2 | 0.00 | 0.00 | 0.00 | 88 | 1020.0 |
| 20260906152510 | 13 | 127 | 0.0 | 1.6 | 0.00 | 0.00 | 0.00 | 88 | 1020.0 |
| 20260906152505 | 13 | 137 | 0.0 | 0.0 | 0.00 | 0.00 | 0.00 | 88 | 1020.0 |
| 20260906152446 | 13 | 137 | 0.0 | 0.0 | 0.00 | 0.00 | 0.00 | 88 | 1020.0 |
| 20260906152438 | 13 | 138 | 0.0 | 0.0 | 0.00 | 0.00 | 0.00 | 88 | 1020.0 |
| 20260906152430 | 13 | 138 | 0.0 | 3.2 | 0.00 | 0.00 | 0.00 | 88 | 1020.0 |
| 20260906152414 | 13 | 139 | 0.0 | 3.2 | 0.00 | 0.00 | 0.00 | 88 | 1020.0 |
| 20260906152406 | 13 | 134 | 0.0 | 4.8 | 0.00 | 0.00 | 0.00 | 88 | 1020.0 |
| 20260906152358 | 13 | 134 | 0.0 | 4.8 | 0.00 | 0.00 | 0.00 | 88 | 1020.0 |
| 20260906152344 | 13 | 136 | 0.0 | 4.8 | 0.00 | 0.00 | 0.00 | 88 | 1020.0 |
| 20260906152318 | 13 | 141 | 0.0 | 4.8 | 0.00 | 0.00 | 0.00 | 88 | 1020.0 |
| 20260906152302 | 13 | 137 | 1.6 | 4.8 | 0.00 | 0.00 | 0.00 | 88 | 1020.0 |
| 20260906152254 | 13 | 137 | 1.6 | 4.8 | 0.00 | 0.00 | 0.00 | 88 | 1020.0 |
| 20260906152238 | 13 | 138 | 3.2 | 4.8 | 0.00 | 0.00 | 0.00 | 88 | 1020.0 |
| 20260906152222 | 13 | 127 | 3.2 | 4.8 | 0.00 | 0.00 | 0.00 | 88 | 1020.0 |
| 20260906152213 | 13 | 128 | 3.2 | 4.8 | 0.00 | 0.00 | 0.00 | 88 | 1020.0 |
| 20260906152150 | 13 | 130 | 3.2 | 4.8 | 0.00 | 0.00 | 0.00 | 88 | 1020.0 |
| 20260906152134 | 13 | 138 | 1.6 | 3.2 | 0.00 | 0.00 | 0.00 | 88 | 1020.0 |
| 20260906152118 | 13 | 136 | 0.0 | 0.0 | 0.00 | 0.00 | 0.00 | 88 | 1020.0 |
| 20260906152110 | 13 | 136 | 0.0 | 0.0 | 0.00 | 0.00 | 0.00 | 88 | 1020.0 |
| 20260906152102 | 13 | 136 | 0.0 | 1.6 | 0.00 | 0.00 | 0.00 | 88 | 1020.0 |
| 20260906152040 | 13 | 136 | 0.0 | 1.6 | 0.00 | 0.00 | 0.00 | 88 | 1020.0 |
| 20260906152025 | 13 | 189 | 0.0 | 3.2 | 0.00 | 0.00 | 0.00 | 88 | 1020.0 |
| 20260906152006 | 13 | 180 | 0.0 | 3.2 | 0.00 | 0.00 | 0.00 | 88 | 1020.0 |
| 20260906151952 | 13 | 202 | 0.0 | 3.2 | 0.00 | 0.00 | 0.00 | 88 | 1020.0 |
| 20260906151934 | 13 | 202 | 1.6 | 4.8 | 0.00 | 0.00 | 0.00 | 88 | 1020.0 |
| 20260906151929 | 13 | 181 | 0.0 | 4.8 | 0.00 | 0.00 | 0.00 | 88 | 1020.0 |
| 20260906151910 | 13 | 155 | 1.6 | 4.8 | 0.00 | 0.00 | 0.00 | 88 | 1020.0 |
| 20260906151902 | 13 | 155 | 1.6 | 6.4 | 0.00 | 0.00 | 0.00 | 88 | 1020.0 |
| 20260906151846 | 13 | 130 | 1.6 | 6.4 | 0.00 | 0.00 | 0.00 | 88 | 1020.0 |
| 20260906151830 | 13 | 131 | 1.6 | 6.4 | 0.00 | 0.00 | 0.00 | 88 | 1020.0 |
| 20260906151814 | 13 | 119 | 1.6 | 6.4 | 0.00 | 0.00 | 0.00 | 88 | 1020.0 |
| 20260906151806 | 13 | 157 | 3.2 | 6.4 | 0.00 | 0.00 | 0.00 | 88 | 1020.0 |
| 20260906151759 | 13 | 157 | 3.2 | 6.4 | 0.00 | 0.00 | 0.00 | 88 | 1020.0 |
| 20260906151742 | 13 | 73 | 4.8 | 6.4 | 0.00 | 0.00 | 0.00 | 88 | 1020.0 |
| 20260906151726 | 13 | 133 | 3.2 | 4.8 | 0.00 | 0.00 | 0.00 | 88 | 1020.0 |
| 20260906151723 | 13 | 220 | 3.2 | 4.8 | 0.00 | 0.00 | 0.00 | 88 | 1020.0 |
| 20260906151654 | 13 | 149 | 3.2 | 4.8 | 0.00 | 0.00 | 0.00 | 88 | 1019.0 |
| 20260906151650 | 13 | 147 | 3.2 | 4.8 | 0.00 | 0.00 | 0.00 | 88 | 1019.0 |
| 20260906151622 | 13 | 130 | 0.0 | 4.8 | 0.00 | 0.00 | 0.00 | 88 | 1019.0 |
| 20260906151616 | 13 | 130 | 0.0 | 4.8 | 0.00 | 0.00 | 0.00 | 88 | 1019.0 |
| 20260906151558 | 13 | 130 | 0.0 | 4.8 | 0.00 | 0.00 | 0.00 | 88 | 1020.0 |
| 20260906151542 | 13 | 176 | 3.2 | 4.8 | 0.00 | 0.00 | 0.00 | 88 | 1020.0 |
| 20260906151536 | 13 | 139 | 3.2 | 4.8 | 0.00 | 0.00 | 0.00 | 88 | 1020.0 |
| 20260906151512 | 13 | 168 | 1.6 | 4.8 | 0.00 | 0.00 | 0.00 | 88 | 1020.0 |
| 20260906151454 | 13 | 245 | 0.0 | 4.8 | 0.00 | 0.00 | 0.00 | 88 | 1020.0 |
| 20260906151438 | 13 | 222 | 3.2 | 4.8 | 0.00 | 0.00 | 0.00 | 88 | 1020.0 |
| 20260906151427 | 13 | 131 | 1.6 | 3.2 | 0.00 | 0.00 | 0.00 | 88 | 1020.0 |
| 20260906151400 | 13 | 130 | 0.0 | 3.2 | 0.00 | 0.00 | 0.00 | 88 | 1020.0 |
| 20260906151334 | 13 | 134 | 0.0 | 3.2 | 0.00 | 0.00 | 0.00 | 88 | 1020.0 |
| 20260906151317 | 13 | 134 | 0.0 | 3.2 | 0.00 | 0.00 | 0.00 | 88 | 1020.0 |
| 20260906151309 | 13 | 134 | 1.6 | 3.2 | 0.00 | 0.00 | 0.00 | 89 | 1020.0 |
| 20260906151301 | 13 | 134 | 1.6 | 4.8 | 0.00 | 0.00 | 0.00 | 89 | 1020.0 |
| 20260906151245 | 13 | 179 | 1.6 | 4.8 | 0.00 | 0.00 | 0.00 | 89 | 1020.0 |
| 20260906151232 | 13 | 187 | 1.6 | 4.8 | 0.00 | 0.00 | 0.00 | 89 | 1020.0 |
| 20260906151213 | 13 | 148 | 1.6 | 4.8 | 0.00 | 0.00 | 0.00 | 89 | 1020.0 |
| 20260906151205 | 13 | 155 | 3.2 | 4.8 | 0.00 | 0.00 | 0.00 | 89 | 1020.0 |
| 20260906151157 | 13 | 155 | 3.2 | 4.8 | 0.00 | 0.00 | 0.00 | 89 | 1020.0 |
| 20260906151134 | 13 | 153 | 3.2 | 4.8 | 0.00 | 0.00 | 0.00 | 89 | 1020.0 |
| 20260906151117 | 13 | 156 | 3.2 | 4.8 | 0.00 | 0.00 | 0.00 | 89 | 1020.0 |
| 20260906151101 | 13 | 118 | 3.2 | 4.8 | 0.00 | 0.00 | 0.00 | 89 | 1020.0 |
| 20260906151045 | 13 | 131 | 3.2 | 3.2 | 0.00 | 0.00 | 0.00 | 89 | 1020.0 |
| 20260906151037 | 13 | 165 | 1.6 | 3.2 | 0.00 | 0.00 | 0.00 | 89 | 1020.0 |
| 20260906151030 | 13 | 165 | 1.6 | 4.8 | 0.00 | 0.00 | 0.00 | 89 | 1020.0 |
| 20260906151024 | 13 | 148 | 1.6 | 4.8 | 0.00 | 0.00 | 0.00 | 89 | 1020.0 |
| 20260906151005 | 13 | 138 | 1.6 | 9.7 | 0.00 | 0.00 | 0.00 | 89 | 1020.0 |
| 20260906150957 | 13 | 138 | 1.6 | 9.7 | 0.00 | 0.00 | 0.00 | 89 | 1020.0 |
| 20260906150941 | 13 | 139 | 1.6 | 9.7 | 0.00 | 0.00 | 0.00 | 89 | 1020.0 |
| 20260906150926 | 13 | 152 | 0.0 | 9.7 | 0.00 | 0.00 | 0.00 | 89 | 1020.0 |
| 20260906150909 | 13 | 153 | 1.6 | 9.7 | 0.00 | 0.00 | 0.00 | 89 | 1020.0 |
| 20260906150903 | 13 | 225 | 3.2 | 9.7 | 0.00 | 0.00 | 0.00 | 89 | 1020.0 |
| 20260906150837 | 13 | 195 | 4.8 | 9.7 | 0.00 | 0.00 | 0.00 | 90 | 1020.0 |
| 20260906150823 | 13 | 198 | 3.2 | 4.8 | 0.00 | 0.00 | 0.00 | 90 | 1020.0 |
| 20260906150806 | 13 | 228 | 1.6 | 4.8 | 0.00 | 0.00 | 0.00 | 90 | 1020.0 |
| 20260906150749 | 13 | 142 | 3.2 | 4.8 | 0.00 | 0.00 | 0.00 | 90 | 1020.0 |
| 20260906150733 | 13 | 212 | 3.2 | 4.8 | 0.00 | 0.00 | 0.00 | 90 | 1020.0 |
| 20260906150722 | 13 | 191 | 0.0 | 1.6 | 0.00 | 0.00 | 0.00 | 90 | 1020.0 |
| 20260906150653 | 13 | 270 | 0.0 | 0.0 | 0.00 | 0.00 | 0.00 | 90 | 1020.0 |
| 20260906150648 | 13 | 249 | 0.0 | 0.0 | 0.00 | 0.00 | 0.00 | 90 | 1020.0 |
| 20260906150621 | 13 | 176 | 0.0 | 0.0 | 0.00 | 0.00 | 0.00 | 90 | 1020.0 |
| 20260906150605 | 13 | 129 | 0.0 | 0.0 | 0.00 | 0.00 | 0.00 | 90 | 1020.0 |
| 20260906150549 | 13 | 139 | 0.0 | 0.0 | 0.00 | 0.00 | 0.00 | 90 | 1020.0 |
| 20260906150533 | 13 | 265 | 0.0 | 0.0 | 0.00 | 0.00 | 0.00 | 91 | 1020.0 |
| 20260906150517 | 13 | 246 | 0.0 | 0.0 | 0.00 | 0.00 | 0.00 | 91 | 1020.0 |
| 20260906150501 | 13 | 139 | 0.0 | 0.0 | 0.00 | 0.00 | 0.00 | 91 | 1020.0 |
| 20260906150456 | 13 | 132 | 0.0 | 0.0 | 0.00 | 0.00 | 0.00 | 91 | 1020.0 |
| 20260906150429 | 13 | 132 | 0.0 | 0.0 | 0.00 | 0.00 | 0.00 | 91 | 1020.0 |
| 20260906150427 | 13 | 132 | 0.0 | 0.0 | 0.00 | 0.00 | 0.00 | 91 | 1020.0 |
| 20260906150405 | 13 | 131 | 0.0 | 0.0 | 0.00 | 0.00 | 0.00 | 91 | 1020.0 |
| 20260906150357 | 13 | 131 | 0.0 | 0.0 | 0.00 | 0.00 | 0.00 | 91 | 1020.0 |
| 20260906150341 | 13 | 131 | 0.0 | 0.0 | 0.00 | 0.00 | 0.00 | 91 | 1020.0 |
| 20260906150325 | 13 | 131 | 0.0 | 0.0 | 0.00 | 0.00 | 0.00 | 91 | 1020.0 |
| 20260906150309 | 13 | 141 | 0.0 | 0.0 | 0.00 | 0.00 | 0.00 | 91 | 1020.0 |
| 20260906150301 | 13 | 144 | 0.0 | 0.0 | 0.00 | 0.00 | 0.00 | 91 | 1020.0 |
| 20260906150245 | 13 | 144 | 0.0 | 0.0 | 0.00 | 0.00 | 0.00 | 91 | 1020.0 |
| 20260906150241 | 13 | 145 | 0.0 | 0.0 | 0.00 | 0.00 | 0.00 | 91 | 1020.0 |
| 20260906150213 | 13 | 136 | 0.0 | 0.0 | 0.00 | 0.00 | 0.00 | 91 | 1020.0 |
| 20260906150205 | 13 | 132 | 0.0 | 0.0 | 0.00 | 0.00 | 0.00 | 91 | 1020.0 |
| 20260906150157 | 13 | 132 | 0.0 | 0.0 | 0.00 | 0.00 | 0.00 | 91 | 1020.0 |
| 20260906150141 | 13 | 121 | 0.0 | 0.0 | 0.00 | 0.00 | 0.00 | 91 | 1020.0 |
| 20260906150128 | 13 | 147 | 0.0 | 0.0 | 0.00 | 0.00 | 0.00 | 91 | 1020.0 |
| 20260906150110 | 13 | 158 | 0.0 | 0.0 | 0.00 | 0.00 | 0.00 | 91 | 1020.0 |
| 20260906150101 | 13 | 142 | 0.0 | 0.0 | 0.00 | 0.00 | 0.00 | 91 | 1020.0 |
| 20260906150054 | 13 | 142 | 0.0 | 0.0 | 0.00 | 0.00 | 0.00 | 91 | 1020.0 |
| 20260906150045 | 13 | 140 | 0.0 | 0.0 | 0.00 | 0.00 | 0.00 | 91 | 1020.0 |
| 20260906150021 | 13 | 107 | 0.0 | 0.0 | 0.00 | 0.00 | 0.00 | 91 | 1020.0 |
| 20260906150006 | 13 | 107 | 0.0 | 0.0 | 0.00 | 0.00 | 0.00 | 91 | 1020.0 |
| 20260906145959 | 13 | 107 | 0.0 | 0.0 | 0.00 | 0.00 | 0.00 | 91 | 1020.0 |
| 20260906145941 | 13 | 141 | 0.0 | 0.0 | 0.00 | 0.00 | 0.00 | 91 | 1020.0 |
| 20260906145933 | 13 | 141 | 0.0 | 3.2 | 0.00 | 0.00 | 0.00 | 91 | 1020.0 |
| 20260906145920 | 13 | 162 | 0.0 | 3.2 | 0.00 | 0.00 | 0.00 | 91 | 1020.0 |
| 20260906145901 | 13 | 140 | 0.0 | 3.2 | 0.00 | 0.00 | 0.00 | 91 | 1020.0 |
| 20260906145845 | 13 | 139 | 0.0 | 3.2 | 0.00 | 0.00 | 0.00 | 91 | 1020.0 |
| 20260906145822 | 13 | 140 | 0.0 | 3.2 | 0.00 | 0.00 | 0.00 | 91 | 1020.0 |
| 20260906145805 | 13 | 140 | 1.6 | 3.2 | 0.00 | 0.00 | 0.00 | 92 | 1020.0 |
| 20260906145752 | 13 | 145 | 1.6 | 3.2 | 0.00 | 0.00 | 0.00 | 92 | 1020.0 |
| 20260906145735 | 13 | 126 | 0.0 | 1.6 | 0.00 | 0.00 | 0.00 | 92 | 1020.0 |
| 20260906145717 | 13 | 129 | 0.0 | 0.0 | 0.00 | 0.00 | 0.00 | 92 | 1020.0 |
| 20260906145701 | 13 | 118 | 0.0 | 0.0 | 0.00 | 0.00 | 0.00 | 92 | 1020.0 |
| 20260906145645 | 13 | 141 | 0.0 | 0.0 | 0.00 | 0.00 | 0.00 | 92 | 1020.0 |
| 20260906145639 | 13 | 117 | 0.0 | 0.0 | 0.00 | 0.00 | 0.00 | 92 | 1020.0 |
| 20260906145613 | 13 | 239 | 0.0 | 0.0 | 0.00 | 0.00 | 0.00 | 92 | 1020.0 |
| 20260906145605 | 12 | 128 | 0.0 | 0.0 | 0.00 | 0.00 | 0.00 | 92 | 1020.0 |
| 20260906145541 | 12 | 128 | 0.0 | 0.0 | 0.00 | 0.00 | 0.00 | 92 | 1020.0 |
| 20260906145536 | 12 | 115 | 0.0 | 0.0 | 0.00 | 0.00 | 0.00 | 92 | 1020.0 |
| 20260906145519 | 12 | 134 | 0.0 | 0.0 | 0.00 | 0.00 | 0.00 | 92 | 1020.0 |
| 20260906145501 | 12 | 132 | 0.0 | 0.0 | 0.00 | 0.00 | 0.00 | 91 | 1020.0 |
| 20260906145453 | 12 | 132 | 0.0 | 0.0 | 0.00 | 0.00 | 0.00 | 91 | 1020.0 |
| 20260906145437 | 12 | 131 | 0.0 | 0.0 | 0.00 | 0.00 | 0.00 | 91 | 1020.0 |
| 20260906145421 | 12 | 132 | 0.0 | 1.6 | 0.00 | 0.00 | 0.00 | 91 | 1020.0 |
| 20260906145408 | 12 | 132 | 0.0 | 1.6 | 0.00 | 0.00 | 0.00 | 91 | 1020.0 |
| 20260906145349 | 12 | 132 | 0.0 | 1.6 | 0.00 | 0.00 | 0.00 | 91 | 1020.0 |
| 20260906145325 | 12 | 132 | 0.0 | 1.6 | 0.00 | 0.00 | 0.00 | 91 | 1020.0 |
| 20260906145310 | 12 | 133 | 0.0 | 1.6 | 0.00 | 0.00 | 0.00 | 91 | 1020.0 |
| 20260906145301 | 12 | 85 | 1.6 | 1.6 | 0.00 | 0.00 | 0.00 | 91 | 1020.0 |
| 20260906145253 | 12 | 85 | 1.6 | 1.6 | 0.00 | 0.00 | 0.00 | 91 | 1020.0 |
| 20260906145245 | 12 | 85 | 0.0 | 1.6 | 0.00 | 0.00 | 0.00 | 91 | 1020.0 |
| 20260906145232 | 12 | 126 | 0.0 | 1.6 | 0.00 | 0.00 | 0.00 | 91 | 1020.0 |
| 20260906145206 | 12 | 126 | 0.0 | 1.6 | 0.00 | 0.00 | 0.00 | 91 | 1020.0 |
| 20260906145158 | 12 | 130 | 0.0 | 1.6 | 0.00 | 0.00 | 0.00 | 91 | 1020.0 |
| 20260906145150 | 12 | 130 | 0.0 | 1.6 | 0.00 | 0.00 | 0.00 | 92 | 1020.0 |
| 20260906145145 | 12 | 132 | 0.0 | 1.6 | 0.00 | 0.00 | 0.00 | 92 | 1020.0 |
| 20260906145128 | 12 | 133 | 0.0 | 1.6 | 0.00 | 0.00 | 0.00 | 92 | 1020.0 |
| 20260906145112 | 12 | 136 | 0.0 | 1.6 | 0.00 | 0.00 | 0.00 | 92 | 1020.0 |
| 20260906145056 | 12 | 141 | 0.0 | 3.2 | 0.00 | 0.00 | 0.00 | 92 | 1020.0 |
| 20260906145038 | 12 | 151 | 0.0 | 3.2 | 0.00 | 0.00 | 0.00 | 92 | 1020.0 |
| 20260906145030 | 12 | 151 | 0.0 | 4.8 | 0.00 | 0.00 | 0.00 | 92 | 1020.0 |
| 20260906145024 | 12 | 143 | 1.6 | 4.8 | 0.00 | 0.00 | 0.00 | 92 | 1020.0 |
| 20260906145002 | 12 | 112 | 1.6 | 4.8 | 0.00 | 0.00 | 0.00 | 92 | 1020.0 |
| 20260906144918 | 12 | 119 | 3.2 | 4.8 | 0.00 | 0.00 | 0.00 | 92 | 1020.0 |
| 20260906144913 | 12 | 129 | 1.6 | 4.8 | 0.00 | 0.00 | 0.00 | 92 | 1020.0 |
| 20260906144846 | 12 | 140 | 4.8 | 4.8 | 0.00 | 0.00 | 0.00 | 92 | 1020.0 |
| 20260906144837 | 12 | 124 | 1.6 | 1.6 | 0.00 | 0.00 | 0.00 | 92 | 1020.0 |
| 20260906144814 | 12 | 131 | 0.0 | 1.6 | 0.00 | 0.00 | 0.00 | 92 | 1020.0 |
| 20260906144806 | 12 | 134 | 0.0 | 1.6 | 0.00 | 0.00 | 0.00 | 92 | 1020.0 |
| 20260906144759 | 12 | 134 | 0.0 | 1.6 | 0.00 | 0.00 | 0.00 | 92 | 1020.0 |
| 20260906144742 | 12 | 131 | 0.0 | 1.6 | 0.00 | 0.00 | 0.00 | 92 | 1020.0 |
| 20260906144726 | 12 | 137 | 0.0 | 1.6 | 0.00 | 0.00 | 0.00 | 92 | 1020.0 |
| 20260906144710 | 12 | 138 | 0.0 | 1.6 | 0.00 | 0.00 | 0.00 | 92 | 1020.0 |
| 20260906144702 | 12 | 150 | 1.6 | 3.2 | 0.00 | 0.00 | 0.00 | 92 | 1020.0 |
| 20260906144654 | 12 | 150 | 1.6 | 3.2 | 0.00 | 0.00 | 0.00 | 92 | 1020.0 |
| 20260906144638 | 12 | 105 | 0.0 | 3.2 | 0.00 | 0.00 | 0.00 | 92 | 1020.0 |
| 20260906144635 | 12 | 106 | 0.0 | 3.2 | 0.00 | 0.00 | 0.00 | 92 | 1020.0 |
| 20260906144606 | 12 | 106 | 0.0 | 3.2 | 0.00 | 0.00 | 0.00 | 92 | 1020.0 |
| 20260906144550 | 12 | 106 | 1.6 | 3.2 | 0.00 | 0.00 | 0.00 | 92 | 1020.0 |
| 20260906144534 | 12 | 116 | 1.6 | 3.2 | 0.00 | 0.00 | 0.00 | 92 | 1020.0 |
| 20260906144510 | 12 | 138 | 1.6 | 3.2 | 0.00 | 0.00 | 0.00 | 92 | 1020.0 |
| 20260906144502 | 12 | 142 | 3.2 | 3.2 | 0.00 | 0.00 | 0.00 | 92 | 1020.0 |
| 20260906144454 | 12 | 142 | 3.2 | 3.2 | 0.00 | 0.00 | 0.00 | 92 | 1020.0 |
| 20260906144438 | 12 | 131 | 1.6 | 3.2 | 0.00 | 0.00 | 0.00 | 92 | 1020.0 |
| 20260906144433 | 12 | 171 | 1.6 | 3.2 | 0.00 | 0.00 | 0.00 | 92 | 1020.0 |
| 20260906144417 | 12 | 291 | 1.6 | 3.2 | 0.00 | 0.00 | 0.00 | 92 | 1020.0 |
| 20260906144350 | 12 | 184 | 1.6 | 3.2 | 0.00 | 0.00 | 0.00 | 92 | 1020.0 |
| 20260906144334 | 12 | 105 | 1.6 | 3.2 | 0.00 | 0.00 | 0.00 | 92 | 1020.0 |
| 20260906144326 | 12 | 179 | 1.6 | 1.6 | 0.00 | 0.00 | 0.00 | 92 | 1020.0 |
| 20260906144302 | 12 | 121 | 0.0 | 1.6 | 0.00 | 0.00 | 0.00 | 92 | 1020.0 |
| 20260906144246 | 12 | 110 | 0.0 | 1.6 | 0.00 | 0.00 | 0.00 | 92 | 1020.0 |
| 20260906144231 | 12 | 110 | 0.0 | 1.6 | 0.00 | 0.00 | 0.00 | 92 | 1020.0 |
| 20260906144214 | 12 | 127 | 0.0 | 1.6 | 0.00 | 0.00 | 0.00 | 92 | 1020.0 |
| 20260906144202 | 12 | 127 | 1.6 | 1.6 | 0.00 | 0.00 | 0.00 | 92 | 1020.0 |
| 20260906144126 | 12 | 125 | 1.6 | 1.6 | 0.00 | 0.00 | 0.00 | 92 | 1020.0 |
| 20260906144110 | 12 | 117 | 0.0 | 0.0 | 0.00 | 0.00 | 0.00 | 92 | 1020.0 |
| 20260906144102 | 12 | 117 | 0.0 | 0.0 | 0.00 | 0.00 | 0.00 | 92 | 1020.0 |
| 20260906144046 | 12 | 117 | 0.0 | 0.0 | 0.00 | 0.00 | 0.00 | 92 | 1020.0 |
| 20260906144040 | 12 | 117 | 0.0 | 0.0 | 0.00 | 0.00 | 0.00 | 92 | 1020.0 |
| 20260906144018 | 12 | 117 | 0.0 | 0.0 | 0.00 | 0.00 | 0.00 | 92 | 1020.0 |
| 20260906143958 | 12 | 117 | 0.0 | 1.6 | 0.00 | 0.00 | 0.00 | 92 | 1020.0 |
| 20260906143942 | 12 | 117 | 0.0 | 1.6 | 0.00 | 0.00 | 0.00 | 92 | 1020.0 |
| 20260906143926 | 12 | 117 | 0.0 | 3.2 | 0.00 | 0.00 | 0.00 | 92 | 1020.0 |
| 20260906143910 | 12 | 117 | 0.0 | 3.2 | 0.00 | 0.00 | 0.00 | 92 | 1020.0 |
| 20260906143902 | 12 | 117 | 0.0 | 3.2 | 0.00 | 0.00 | 0.00 | 92 | 1020.0 |
| 20260906143857 | 12 | 117 | 0.0 | 3.2 | 0.00 | 0.00 | 0.00 | 92 | 1020.0 |
| 20260906143838 | 12 | 117 | 0.0 | 3.2 | 0.00 | 0.00 | 0.00 | 92 | 1020.0 |
| 20260906143822 | 12 | 117 | 1.6 | 3.2 | 0.00 | 0.00 | 0.00 | 92 | 1020.0 |
| 20260906143806 | 12 | 117 | 1.6 | 3.2 | 0.00 | 0.00 | 0.00 | 92 | 1020.0 |
| 20260906143750 | 12 | 117 | 1.6 | 3.2 | 0.00 | 0.00 | 0.00 | 92 | 1020.0 |
| 20260906143734 | 12 | 219 | 0.0 | 0.0 | 0.00 | 0.00 | 0.00 | 92 | 1020.0 |
| 20260906143730 | 12 | 219 | 0.0 | 0.0 | 0.00 | 0.00 | 0.00 | 92 | 1020.0 |
| 20260906143702 | 12 | 219 | 0.0 | 0.0 | 0.00 | 0.00 | 0.00 | 92 | 1020.0 |
| 20260906143659 | 12 | 219 | 0.0 | 0.0 | 0.00 | 0.00 | 0.00 | 92 | 1020.0 |
| 20260906143630 | 12 | 219 | 0.0 | 1.6 | 0.00 | 0.00 | 0.00 | 92 | 1020.0 |
| 20260906143619 | 12 | 219 | 0.0 | 1.6 | 0.00 | 0.00 | 0.00 | 92 | 1020.0 |
| 20260906143550 | 12 | 133 | 0.0 | 1.6 | 0.00 | 0.00 | 0.00 | 92 | 1020.0 |
| 20260906143534 | 12 | 133 | 0.0 | 1.6 | 0.00 | 0.00 | 0.00 | 92 | 1020.0 |
| 20260906143519 | 12 | 153 | 0.0 | 1.6 | 0.00 | 0.00 | 0.00 | 92 | 1020.0 |
| 20260906143503 | 12 | 157 | 0.0 | 1.6 | 0.00 | 0.00 | 0.00 | 92 | 1020.0 |
| 20260906143446 | 12 | 156 | 1.6 | 1.6 | 0.00 | 0.00 | 0.00 | 92 | 1020.0 |
| 20260906143430 | 12 | 139 | 1.6 | 1.6 | 0.00 | 0.00 | 0.00 | 92 | 1020.0 |
| 20260906143414 | 12 | 139 | 0.0 | 1.6 | 0.00 | 0.00 | 0.00 | 92 | 1020.0 |
| 20260906143405 | 12 | 140 | 0.0 | 1.6 | 0.00 | 0.00 | 0.00 | 92 | 1020.0 |
| 20260906143310 | 12 | 140 | 0.0 | 1.6 | 0.00 | 0.00 | 0.00 | 92 | 1020.0 |
| 20260906143302 | 12 | 140 | 0.0 | 1.6 | 0.00 | 0.00 | 0.00 | 92 | 1020.0 |
| 20260906143254 | 12 | 140 | 0.0 | 1.6 | 0.00 | 0.00 | 0.00 | 92 | 1020.0 |
| 20260906143241 | 12 | 140 | 0.0 | 1.6 | 0.00 | 0.00 | 0.00 | 92 | 1020.0 |
| 20260906143222 | 12 | 152 | 0.0 | 1.6 | 0.00 | 0.00 | 0.00 | 92 | 1020.0 |
| 20260906143206 | 12 | 200 | 0.0 | 1.6 | 0.00 | 0.00 | 0.00 | 92 | 1020.0 |
| 20260906143158 | 12 | 200 | 0.0 | 1.6 | 0.00 | 0.00 | 0.00 | 92 | 1020.0 |
| 20260906143142 | 12 | 186 | 0.0 | 1.6 | 0.00 | 0.00 | 0.00 | 92 | 1020.0 |
| 20260906143126 | 12 | 139 | 0.0 | 1.6 | 0.00 | 0.00 | 0.00 | 92 | 1020.0 |
| 20260906143102 | 12 | 139 | 0.0 | 1.6 | 0.00 | 0.00 | 0.00 | 92 | 1020.0 |
| 20260906143057 | 12 | 139 | 0.0 | 1.6 | 0.00 | 0.00 | 0.00 | 92 | 1020.0 |
| 20260906143040 | 12 | 139 | 0.0 | 1.6 | 0.00 | 0.00 | 0.00 | 92 | 1020.0 |
| 20260906143022 | 12 | 148 | 0.0 | 1.6 | 0.00 | 0.00 | 0.00 | 92 | 1020.0 |
| 20260906143011 | 12 | 177 | 1.6 | 1.6 | 0.00 | 0.00 | 0.00 | 92 | 1020.0 |
| 20260906142933 | 12 | 146 | 0.0 | 0.0 | 0.00 | 0.00 | 0.00 | 92 | 1020.0 |
| 20260906142923 | 12 | 140 | 0.0 | 0.0 | 0.00 | 0.00 | 0.00 | 92 | 1020.0 |
| 20260906142846 | 12 | 148 | 0.0 | 0.0 | 0.00 | 0.00 | 0.00 | 92 | 1020.0 |
| 20260906142829 | 12 | 148 | 0.0 | 0.0 | 0.00 | 0.00 | 0.00 | 92 | 1020.0 |
| 20260906142824 | 12 | 149 | 0.0 | 0.0 | 0.00 | 0.00 | 0.00 | 92 | 1020.0 |
| 20260906142806 | 12 | 149 | 0.0 | 1.6 | 0.00 | 0.00 | 0.00 | 92 | 1020.0 |
| 20260906142758 | 12 | 149 | 0.0 | 1.6 | 0.00 | 0.00 | 0.00 | 92 | 1020.0 |
| 20260906142736 | 12 | 150 | 0.0 | 1.6 | 0.00 | 0.00 | 0.00 | 92 | 1020.0 |
| 20260906142720 | 12 | 152 | 0.0 | 1.6 | 0.00 | 0.00 | 0.00 | 92 | 1020.0 |
| 20260906142702 | 12 | 144 | 0.0 | 1.6 | 0.00 | 0.00 | 0.00 | 92 | 1020.0 |
| 20260906142649 | 12 | 158 | 0.0 | 1.6 | 0.00 | 0.00 | 0.00 | 92 | 1020.0 |
| 20260906142630 | 12 | 162 | 0.0 | 4.8 | 0.00 | 0.00 | 0.00 | 92 | 1020.0 |
| 20260906142616 | 12 | 132 | 0.0 | 4.8 | 0.00 | 0.00 | 0.00 | 92 | 1020.0 |
| 20260906142600 | 12 | 156 | 1.6 | 4.8 | 0.00 | 0.00 | 0.00 | 92 | 1020.0 |
| 20260906142553 | 12 | 131 | 1.6 | 4.8 | 0.00 | 0.00 | 0.00 | 92 | 1020.0 |
| 20260906142528 | 12 | 137 | 1.6 | 4.8 | 0.00 | 0.00 | 0.00 | 92 | 1020.0 |
| 20260906142516 | 12 | 151 | 3.2 | 4.8 | 0.00 | 0.00 | 0.00 | 93 | 1020.0 |
| 20260906142438 | 12 | 142 | 1.6 | 4.8 | 0.00 | 0.00 | 0.00 | 93 | 1020.0 |
| 20260906142422 | 12 | 185 | 1.6 | 4.8 | 0.00 | 0.00 | 0.00 | 93 | 1020.0 |
| 20260906142406 | 12 | 169 | 3.2 | 4.8 | 0.00 | 0.00 | 0.00 | 93 | 1020.0 |
| 20260906142350 | 12 | 150 | 3.2 | 3.2 | 0.00 | 0.00 | 0.00 | 93 | 1020.0 |
| 20260906142342 | 12 | 150 | 1.6 | 3.2 | 0.00 | 0.00 | 0.00 | 93 | 1020.0 |
| 20260906142334 | 12 | 150 | 1.6 | 4.8 | 0.00 | 0.00 | 0.00 | 93 | 1020.0 |
| 20260906142309 | 12 | 139 | 1.6 | 4.8 | 0.00 | 0.00 | 0.00 | 93 | 1020.0 |
| 20260906142302 | 12 | 197 | 1.6 | 4.8 | 0.00 | 0.00 | 0.00 | 93 | 1020.0 |
| 20260906142254 | 12 | 197 | 1.6 | 4.8 | 0.00 | 0.00 | 0.00 | 93 | 1020.0 |
| 20260906142242 | 12 | 141 | 1.6 | 4.8 | 0.00 | 0.00 | 0.00 | 93 | 1020.0 |
| 20260906142221 | 12 | 163 | 1.6 | 4.8 | 0.00 | 0.00 | 0.00 | 93 | 1020.0 |
| 20260906142208 | 12 | 123 | 1.6 | 4.8 | 0.00 | 0.00 | 0.00 | 93 | 1020.0 |
| 20260906142152 | 12 | 148 | 1.6 | 4.8 | 0.00 | 0.00 | 0.00 | 93 | 1020.0 |
| 20260906142133 | 12 | 149 | 4.8 | 4.8 | 0.00 | 0.00 | 0.00 | 93 | 1020.0 |
| 20260906142118 | 12 | 147 | 1.6 | 4.8 | 0.00 | 0.00 | 0.00 | 93 | 1020.0 |
| 20260906142104 | 12 | 137 | 1.6 | 4.8 | 0.00 | 0.00 | 0.00 | 93 | 1020.0 |
| 20260906142046 | 12 | 133 | 3.2 | 4.8 | 0.00 | 0.00 | 0.00 | 93 | 1020.0 |
| 20260906142029 | 12 | 135 | 3.2 | 3.2 | 0.00 | 0.00 | 0.00 | 93 | 1020.0 |
| 20260906142013 | 12 | 133 | 1.6 | 3.2 | 0.00 | 0.00 | 0.00 | 93 | 1020.0 |
| 20260906142006 | 12 | 91 | 1.6 | 3.2 | 0.00 | 0.00 | 0.00 | 93 | 1020.0 |
| 20260906141958 | 12 | 91 | 1.6 | 3.2 | 0.00 | 0.00 | 0.00 | 93 | 1020.0 |
| 20260906141944 | 12 | 78 | 1.6 | 3.2 | 0.00 | 0.00 | 0.00 | 93 | 1020.0 |
| 20260906141902 | 12 | 125 | 1.6 | 3.2 | 0.00 | 0.00 | 0.00 | 93 | 1020.0 |
| 20260906141846 | 12 | 125 | 1.6 | 3.2 | 0.00 | 0.00 | 0.00 | 93 | 1020.0 |
| 20260906141840 | 12 | 137 | 0.0 | 0.0 | 0.00 | 0.00 | 0.00 | 93 | 1020.0 |
| 20260906141814 | 12 | 144 | 0.0 | 0.0 | 0.00 | 0.00 | 0.00 | 93 | 1020.0 |
| 20260906141806 | 12 | 140 | 0.0 | 0.0 | 0.00 | 0.00 | 0.00 | 93 | 1020.0 |
| 20260906141758 | 12 | 140 | 0.0 | 0.0 | 0.00 | 0.00 | 0.00 | 93 | 1020.0 |
| 20260906141742 | 12 | 123 | 0.0 | 0.0 | 0.00 | 0.00 | 0.00 | 93 | 1020.0 |
| 20260906141725 | 12 | 123 | 0.0 | 3.2 | 0.00 | 0.00 | 0.00 | 93 | 1020.0 |
| 20260906141710 | 12 | 117 | 0.0 | 3.2 | 0.00 | 0.00 | 0.00 | 93 | 1020.0 |
| 20260906141702 | 12 | 116 | 0.0 | 3.2 | 0.00 | 0.00 | 0.00 | 93 | 1020.0 |
| 20260906141637 | 12 | 116 | 0.0 | 3.2 | 0.00 | 0.00 | 0.00 | 93 | 1020.0 |
| 20260906141622 | 12 | 130 | 0.0 | 3.2 | 0.00 | 0.00 | 0.00 | 93 | 1020.0 |
| 20260906141606 | 12 | 131 | 0.0 | 3.2 | 0.00 | 0.00 | 0.00 | 93 | 1020.0 |
| 20260906141552 | 12 | 131 | 1.6 | 3.2 | 0.00 | 0.00 | 0.00 | 93 | 1020.0 |
| 20260906141534 | 12 | 137 | 1.6 | 4.8 | 0.00 | 0.00 | 0.00 | 93 | 1020.0 |
| 20260906141503 | 12 | 128 | 0.0 | 4.8 | 0.00 | 0.00 | 0.00 | 93 | 1020.0 |
| 20260906141446 | 12 | 128 | 0.0 | 4.8 | 0.00 | 0.00 | 0.00 | 93 | 1020.0 |
| 20260906141432 | 12 | 128 | 0.0 | 4.8 | 0.00 | 0.00 | 0.00 | 93 | 1020.0 |
| 20260906141420 | 12 | 128 | 3.2 | 4.8 | 0.00 | 0.00 | 0.00 | 93 | 1020.0 |
| 20260906141349 | 12 | 149 | 3.2 | 4.8 | 0.00 | 0.00 | 0.00 | 93 | 1020.0 |
| 20260906141336 | 12 | 150 | 3.2 | 4.8 | 0.00 | 0.00 | 0.00 | 93 | 1020.0 |
| 20260906141320 | 12 | 104 | 1.6 | 3.2 | 0.00 | 0.00 | 0.00 | 93 | 1020.0 |
| 20260906141246 | 12 | 110 | 0.0 | 1.6 | 0.00 | 0.00 | 0.00 | 93 | 1020.0 |
| 20260906141229 | 12 | 110 | 1.6 | 1.6 | 0.00 | 0.00 | 0.00 | 93 | 1020.0 |
| 20260906141215 | 12 | 101 | 0.0 | 1.6 | 0.00 | 0.00 | 0.00 | 93 | 1020.0 |
| 20260906141143 | 12 | 102 | 1.6 | 3.2 | 0.00 | 0.00 | 0.00 | 93 | 1020.0 |
| 20260906141126 | 12 | 126 | 1.6 | 3.2 | 0.00 | 0.00 | 0.00 | 93 | 1020.0 |
| 20260906141120 | 12 | 130 | 0.0 | 3.2 | 0.00 | 0.00 | 0.00 | 94 | 1020.0 |
| 20260906141058 | 12 | 130 | 1.6 | 3.2 | 0.00 | 0.00 | 0.00 | 94 | 1020.0 |
| 20260906141031 | 12 | 129 | 3.2 | 3.2 | 0.00 | 0.00 | 0.00 | 94 | 1020.0 |
| 20260906141002 | 12 | 124 | 0.0 | 3.2 | 0.00 | 0.00 | 0.00 | 94 | 1020.0 |
| 20260906140909 | 12 | 153 | 0.0 | 1.6 | 0.00 | 0.00 | 0.00 | 94 | 1020.0 |
| 20260906140901 | 12 | 151 | 1.6 | 1.6 | 0.00 | 0.00 | 0.00 | 94 | 1020.0 |
| 20260906140822 | 12 | 123 | 0.0 | 0.0 | 0.00 | 0.00 | 0.00 | 94 | 1020.0 |
| 20260906140809 | 12 | 123 | 0.0 | 0.0 | 0.00 | 0.00 | 0.00 | 94 | 1020.0 |
| 20260906140742 | 12 | 123 | 0.0 | 0.0 | 0.00 | 0.00 | 0.00 | 94 | 1020.0 |
| 20260906140718 | 12 | 123 | 0.0 | 1.6 | 0.00 | 0.00 | 0.00 | 94 | 1020.0 |
| 20260906140710 | 12 | 123 | 0.0 | 1.6 | 0.00 | 0.00 | 0.00 | 94 | 1020.0 |
| 20260906140702 | 12 | 123 | 0.0 | 3.2 | 0.00 | 0.00 | 0.00 | 94 | 1020.0 |
| 20260906140646 | 12 | 123 | 0.0 | 3.2 | 0.00 | 0.00 | 0.00 | 94 | 1020.0 |
| 20260906140635 | 12 | 123 | 0.0 | 3.2 | 0.00 | 0.00 | 0.00 | 94 | 1020.0 |
| 20260906140606 | 12 | 124 | 1.6 | 3.2 | 0.00 | 0.00 | 0.00 | 94 | 1020.0 |
| 20260906140558 | 12 | 124 | 1.6 | 3.2 | 0.00 | 0.00 | 0.00 | 94 | 1020.0 |
| 20260906140534 | 12 | 147 | 1.6 | 3.2 | 0.00 | 0.00 | 0.00 | 94 | 1020.0 |
| 20260906140518 | 12 | 147 | 0.0 | 0.0 | 0.00 | 0.00 | 0.00 | 94 | 1020.0 |
| 20260906140502 | 12 | 148 | 0.0 | 0.0 | 0.00 | 0.00 | 0.00 | 94 | 1020.0 |
| 20260906140449 | 12 | 147 | 0.0 | 0.0 | 0.00 | 0.00 | 0.00 | 94 | 1020.0 |
| 20260906140430 | 12 | 140 | 0.0 | 0.0 | 0.00 | 0.00 | 0.00 | 94 | 1020.0 |
| 20260906140414 | 12 | 125 | 0.0 | 0.0 | 0.00 | 0.00 | 0.00 | 94 | 1020.0 |
| 20260906140406 | 12 | 126 | 0.0 | 0.0 | 0.00 | 0.00 | 0.00 | 94 | 1020.0 |
| 20260906140359 | 12 | 126 | 0.0 | 0.0 | 0.00 | 0.00 | 0.00 | 94 | 1020.0 |
| 20260906140334 | 12 | 126 | 0.0 | 0.0 | 0.00 | 0.00 | 0.00 | 94 | 1020.0 |
| 20260906140310 | 12 | 144 | 0.0 | 0.0 | 0.00 | 0.00 | 0.00 | 94 | 1020.0 |
| 20260906140302 | 12 | 141 | 0.0 | 0.0 | 0.00 | 0.00 | 0.00 | 94 | 1020.0 |
| 20260906140254 | 12 | 141 | 0.0 | 0.0 | 0.00 | 0.00 | 0.00 | 94 | 1020.0 |
| 20260906140238 | 12 | 132 | 0.0 | 0.0 | 0.00 | 0.00 | 0.00 | 94 | 1020.0 |
| 20260906140222 | 12 | 134 | 0.0 | 0.0 | 0.00 | 0.00 | 0.00 | 94 | 1020.0 |
| 20260906140206 | 12 | 141 | 0.0 | 0.0 | 0.00 | 0.00 | 0.00 | 94 | 1020.0 |
| 20260906140200 | 12 | 140 | 0.0 | 0.0 | 0.00 | 0.00 | 0.00 | 94 | 1020.0 |
| 20260906140110 | 12 | 140 | 0.0 | 0.0 | 0.00 | 0.00 | 0.00 | 94 | 1020.0 |
| 20260906140041 | 12 | 140 | 0.0 | 0.0 | 0.00 | 0.00 | 0.00 | 94 | 1020.0 |
| 20260906140005 | 12 | 115 | 0.0 | 0.0 | 0.00 | 0.00 | 0.00 | 94 | 1020.0 |
| 20260906135950 | 12 | 115 | 0.0 | 0.0 | 0.00 | 0.00 | 0.00 | 94 | 1020.0 |
| 20260906135935 | 12 | 128 | 0.0 | 0.0 | 0.00 | 0.00 | 0.00 | 94 | 1020.0 |
| 20260906135918 | 12 | 131 | 0.0 | 0.0 | 0.00 | 0.00 | 0.00 | 94 | 1020.0 |
| 20260906135912 | 12 | 137 | 0.0 | 0.0 | 0.00 | 0.00 | 0.00 | 94 | 1020.0 |
| 20260906135841 | 12 | 127 | 0.0 | 0.0 | 0.00 | 0.00 | 0.00 | 94 | 1020.0 |
| 20260906135816 | 12 | 140 | 0.0 | 0.0 | 0.00 | 0.00 | 0.00 | 94 | 1020.0 |
| 20260906135741 | 12 | 140 | 0.0 | 0.0 | 0.00 | 0.00 | 0.00 | 94 | 1020.0 |
| 20260906135726 | 12 | 140 | 0.0 | 1.6 | 0.00 | 0.00 | 0.00 | 94 | 1020.0 |
| 20260906135711 | 12 | 140 | 0.0 | 1.6 | 0.00 | 0.00 | 0.00 | 94 | 1020.0 |
| 20260906135702 | 12 | 141 | 0.0 | 1.6 | 0.00 | 0.00 | 0.00 | 94 | 1020.0 |
| 20260906135656 | 12 | 141 | 0.0 | 1.6 | 0.00 | 0.00 | 0.00 | 94 | 1020.0 |
| 20260906135638 | 12 | 133 | 0.0 | 1.6 | 0.00 | 0.00 | 0.00 | 94 | 1020.0 |
| 20260906135635 | 12 | 133 | 0.0 | 3.2 | 0.00 | 0.00 | 0.00 | 94 | 1020.0 |
| 20260906135606 | 12 | 133 | 1.6 | 3.2 | 0.00 | 0.00 | 0.00 | 94 | 1020.0 |
| 20260906135558 | 12 | 133 | 1.6 | 3.2 | 0.00 | 0.00 | 0.00 | 94 | 1020.0 |
| 20260906135542 | 12 | 148 | 0.0 | 3.2 | 0.00 | 0.00 | 0.00 | 94 | 1020.0 |
| 20260906135527 | 12 | 148 | 0.0 | 3.2 | 0.00 | 0.00 | 0.00 | 94 | 1020.0 |
| 20260906135510 | 12 | 159 | 1.6 | 3.2 | 0.00 | 0.00 | 0.00 | 94 | 1020.0 |
| 20260906135502 | 12 | 81 | 3.2 | 3.2 | 0.00 | 0.00 | 0.00 | 94 | 1020.0 |
| 20260906135454 | 12 | 81 | 3.2 | 3.2 | 0.00 | 0.00 | 0.00 | 94 | 1020.0 |
| 20260906135440 | 12 | 67 | 3.2 | 3.2 | 0.00 | 0.00 | 0.00 | 94 | 1020.0 |
| 20260906135422 | 12 | 113 | 0.0 | 1.6 | 0.00 | 0.00 | 0.00 | 94 | 1020.0 |
| 20260906135408 | 12 | 130 | 0.0 | 0.0 | 0.00 | 0.00 | 0.00 | 94 | 1020.0 |
| 20260906135352 | 12 | 116 | 0.0 | 0.0 | 0.00 | 0.00 | 0.00 | 94 | 1020.0 |
| 20260906135337 | 12 | 118 | 0.0 | 0.0 | 0.00 | 0.00 | 0.00 | 94 | 1020.0 |
| 20260906135319 | 12 | 118 | 0.0 | 0.0 | 0.00 | 0.00 | 0.00 | 94 | 1020.0 |
| 20260906135306 | 12 | 112 | 0.0 | 0.0 | 0.00 | 0.00 | 0.00 | 94 | 1020.0 |
| 20260906135246 | 12 | 107 | 0.0 | 0.0 | 0.00 | 0.00 | 0.00 | 94 | 1020.0 |
| 20260906135225 | 12 | 119 | 0.0 | 0.0 | 0.00 | 0.00 | 0.00 | 94 | 1020.0 |
| 20260906135205 | 12 | 118 | 0.0 | 0.0 | 0.00 | 0.00 | 0.00 | 94 | 1020.0 |
| 20260906135153 | 12 | 113 | 0.0 | 0.0 | 0.00 | 0.00 | 0.00 | 94 | 1020.0 |
| 20260906135134 | 12 | 126 | 0.0 | 0.0 | 0.00 | 0.00 | 0.00 | 94 | 1020.0 |
| 20260906135102 | 12 | 101 | 0.0 | 0.0 | 0.00 | 0.00 | 0.00 | 94 | 1020.0 |
| 20260906135046 | 12 | 216 | 0.0 | 0.0 | 0.00 | 0.00 | 0.00 | 94 | 1020.0 |
| 20260906135040 | 12 | 145 | 0.0 | 0.0 | 0.00 | 0.00 | 0.00 | 94 | 1020.0 |
| 20260906135014 | 12 | 110 | 0.0 | 0.0 | 0.00 | 0.00 | 0.00 | 94 | 1020.0 |
| 20260906135012 | 12 | 137 | 0.0 | 0.0 | 0.00 | 0.00 | 0.00 | 94 | 1020.0 |
| 20260906134942 | 12 | 87 | 0.0 | 0.0 | 0.00 | 0.00 | 0.00 | 94 | 1020.0 |
| 20260906134926 | 12 | 171 | 0.0 | 0.0 | 0.00 | 0.00 | 0.00 | 94 | 1020.0 |
| 20260906134917 | 12 | 172 | 0.0 | 0.0 | 0.00 | 0.00 | 0.00 | 94 | 1020.0 |
| 20260906134837 | 12 | 66 | 0.0 | 0.0 | 0.00 | 0.00 | 0.00 | 94 | 1020.0 |
| 20260906134821 | 12 | 66 | 0.0 | 0.0 | 0.00 | 0.00 | 0.00 | 94 | 1020.0 |
| 20260906134805 | 12 | 114 | 0.0 | 0.0 | 0.00 | 0.00 | 0.00 | 94 | 1020.0 |
| 20260906134759 | 12 | 114 | 0.0 | 0.0 | 0.00 | 0.00 | 0.00 | 94 | 1020.0 |
| 20260906134726 | 12 | 183 | 0.0 | 0.0 | 0.00 | 0.00 | 0.00 | 94 | 1020.0 |
| 20260906134711 | 12 | 118 | 0.0 | 0.0 | 0.00 | 0.00 | 0.00 | 94 | 1020.0 |
| 20260906134701 | 12 | 120 | 0.0 | 0.0 | 0.00 | 0.00 | 0.00 | 94 | 1020.0 |
| 20260906134638 | 12 | 120 | 0.0 | 0.0 | 0.00 | 0.00 | 0.00 | 94 | 1020.0 |
| 20260906134622 | 12 | 122 | 0.0 | 0.0 | 0.00 | 0.00 | 0.00 | 94 | 1020.0 |
| 20260906134616 | 12 | 92 | 0.0 | 0.0 | 0.00 | 0.00 | 0.00 | 94 | 1020.0 |
| 20260906134550 | 12 | 92 | 0.0 | 0.0 | 0.00 | 0.00 | 0.00 | 94 | 1020.0 |
| 20260906134518 | 12 | 109 | 0.0 | 0.0 | 0.00 | 0.00 | 0.00 | 94 | 1020.0 |
| 20260906134513 | 12 | 109 | 0.0 | 0.0 | 0.00 | 0.00 | 0.00 | 94 | 1020.0 |
| 20260906134446 | 12 | 110 | 0.0 | 0.0 | 0.00 | 0.00 | 0.00 | 94 | 1020.0 |
| 20260906134430 | 12 | 101 | 0.0 | 0.0 | 0.00 | 0.00 | 0.00 | 94 | 1020.0 |
| 20260906134406 | 12 | 102 | 0.0 | 0.0 | 0.00 | 0.00 | 0.00 | 94 | 1020.0 |
| 20260906134333 | 12 | 102 | 0.0 | 0.0 | 0.00 | 0.00 | 0.00 | 94 | 1020.0 |
| 20260906134318 | 12 | 120 | 0.0 | 0.0 | 0.00 | 0.00 | 0.00 | 94 | 1020.0 |
| 20260906134302 | 12 | 112 | 0.0 | 0.0 | 0.00 | 0.00 | 0.00 | 94 | 1020.0 |
| 20260906134246 | 12 | 112 | 0.0 | 0.0 | 0.00 | 0.00 | 0.00 | 94 | 1020.0 |
| 20260906134230 | 12 | 121 | 0.0 | 0.0 | 0.00 | 0.00 | 0.00 | 94 | 1020.0 |
| 20260906134213 | 12 | 121 | 0.0 | 0.0 | 0.00 | 0.00 | 0.00 | 94 | 1020.0 |
| 20260906134206 | 12 | 120 | 0.0 | 0.0 | 0.00 | 0.00 | 0.00 | 94 | 1020.0 |
| 20260906134104 | 12 | 120 | 0.0 | 0.0 | 0.00 | 0.00 | 0.00 | 94 | 1020.0 |
| 20260906134005 | 12 | 119 | 0.0 | 0.0 | 0.00 | 0.00 | 0.00 | 94 | 1020.0 |
| 20260906133910 | 12 | 120 | 0.0 | 0.0 | 0.00 | 0.00 | 0.00 | 94 | 1020.0 |
| 20260906133901 | 12 | 127 | 0.0 | 0.0 | 0.00 | 0.00 | 0.00 | 94 | 1020.0 |
| 20260906133857 | 12 | 127 | 0.0 | 0.0 | 0.00 | 0.00 | 0.00 | 94 | 1020.0 |
| 20260906133838 | 12 | 124 | 0.0 | 0.0 | 0.00 | 0.00 | 0.00 | 94 | 1020.0 |
| 20260906133826 | 12 | 122 | 0.0 | 0.0 | 0.00 | 0.00 | 0.00 | 94 | 1020.0 |
| 20260906133750 | 12 | 118 | 0.0 | 0.0 | 0.00 | 0.00 | 0.00 | 94 | 1020.0 |
| 20260906133734 | 12 | 121 | 0.0 | 0.0 | 0.00 | 0.00 | 0.00 | 94 | 1020.0 |
| 20260906133704 | 12 | 111 | 0.0 | 0.0 | 0.00 | 0.00 | 0.00 | 94 | 1020.0 |
| 20260906133646 | 12 | 111 | 0.0 | 0.0 | 0.00 | 0.00 | 0.00 | 94 | 1020.0 |
| 20260906133605 | 12 | 114 | 0.0 | 0.0 | 0.00 | 0.00 | 0.00 | 94 | 1020.0 |
| 20260906133557 | 12 | 114 | 0.0 | 0.0 | 0.00 | 0.00 | 0.00 | 94 | 1020.0 |
| 20260906133548 | 12 | 116 | 0.0 | 0.0 | 0.00 | 0.00 | 0.00 | 94 | 1020.0 |
| 20260906133526 | 12 | 137 | 0.0 | 0.0 | 0.00 | 0.00 | 0.00 | 94 | 1020.0 |
| 20260906133510 | 12 | 128 | 0.0 | 0.0 | 0.00 | 0.00 | 0.00 | 94 | 1020.0 |
| 20260906133502 | 12 | 115 | 0.0 | 0.0 | 0.00 | 0.00 | 0.00 | 94 | 1020.0 |
| 20260906133445 | 12 | 115 | 0.0 | 0.0 | 0.00 | 0.00 | 0.00 | 94 | 1020.0 |
| 20260906133430 | 12 | 120 | 0.0 | 0.0 | 0.00 | 0.00 | 0.00 | 94 | 1020.0 |
| 20260906133414 | 12 | 117 | 0.0 | 0.0 | 0.00 | 0.00 | 0.00 | 94 | 1020.0 |
| 20260906133406 | 12 | 106 | 0.0 | 0.0 | 0.00 | 0.00 | 0.00 | 94 | 1020.0 |
| 20260906133357 | 12 | 106 | 0.0 | 0.0 | 0.00 | 0.00 | 0.00 | 94 | 1020.0 |
| 20260906133342 | 12 | 106 | 0.0 | 0.0 | 0.00 | 0.00 | 0.00 | 94 | 1020.0 |
| 20260906133326 | 12 | 109 | 0.0 | 0.0 | 0.00 | 0.00 | 0.00 | 94 | 1020.0 |
| 20260906133320 | 12 | 110 | 0.0 | 0.0 | 0.00 | 0.00 | 0.00 | 94 | 1020.0 |
| 20260906133304 | 12 | 118 | 0.0 | 0.0 | 0.00 | 0.00 | 0.00 | 94 | 1020.0 |
| 20260906133238 | 12 | 112 | 0.0 | 0.0 | 0.00 | 0.00 | 0.00 | 94 | 1020.0 |
| 20260906133222 | 12 | 111 | 0.0 | 0.0 | 0.00 | 0.00 | 0.00 | 94 | 1020.0 |
| 20260906133206 | 12 | 111 | 0.0 | 0.0 | 0.00 | 0.00 | 0.00 | 94 | 1020.0 |
| 20260906133133 | 12 | 111 | 0.0 | 0.0 | 0.00 | 0.00 | 0.00 | 94 | 1020.0 |
| 20260906133101 | 12 | 111 | 0.0 | 0.0 | 0.00 | 0.00 | 0.00 | 94 | 1020.0 |
| 20260906133056 | 12 | 111 | 0.0 | 0.0 | 0.00 | 0.00 | 0.00 | 94 | 1020.0 |
| 20260906133024 | 12 | 111 | 0.0 | 0.0 | 0.00 | 0.00 | 0.00 | 94 | 1020.0 |
| 20260906133010 | 12 | 126 | 0.0 | 0.0 | 0.00 | 0.00 | 0.00 | 94 | 1020.0 |
| 20260906132941 | 12 | 126 | 0.0 | 0.0 | 0.00 | 0.00 | 0.00 | 94 | 1020.0 |
| 20260906132902 | 12 | 126 | 0.0 | 0.0 | 0.00 | 0.00 | 0.00 | 94 | 1020.0 |
| 20260906132859 | 12 | 128 | 0.0 | 0.0 | 0.00 | 0.00 | 0.00 | 94 | 1020.0 |
| 20260906132830 | 12 | 131 | 0.0 | 0.0 | 0.00 | 0.00 | 0.00 | 94 | 1020.0 |
| 20260906132827 | 12 | 87 | 0.0 | 0.0 | 0.00 | 0.00 | 0.00 | 94 | 1020.0 |
| 20260906132758 | 12 | 80 | 0.0 | 0.0 | 0.00 | 0.00 | 0.00 | 94 | 1020.0 |
| 20260906132726 | 12 | 81 | 0.0 | 0.0 | 0.00 | 0.00 | 0.00 | 94 | 1020.0 |
| 20260906132710 | 12 | 80 | 0.0 | 0.0 | 0.00 | 0.00 | 0.00 | 94 | 1020.0 |
| 20260906132702 | 12 | 80 | 0.0 | 0.0 | 0.00 | 0.00 | 0.00 | 94 | 1020.0 |
| 20260906132606 | 12 | 80 | 0.0 | 0.0 | 0.00 | 0.00 | 0.00 | 94 | 1020.0 |
| 20260906132544 | 12 | 80 | 0.0 | 0.0 | 0.00 | 0.00 | 0.00 | 94 | 1020.0 |
| 20260906132502 | 12 | 80 | 0.0 | 0.0 | 0.00 | 0.00 | 0.00 | 94 | 1020.0 |
| 20260906132401 | 12 | 80 | 0.0 | 0.0 | 0.00 | 0.00 | 0.00 | 94 | 1020.0 |
| 20260906132306 | 12 | 80 | 0.0 | 0.0 | 0.00 | 0.00 | 0.00 | 94 | 1020.0 |
| 20260906132206 | 12 | 81 | 0.0 | 0.0 | 0.00 | 0.00 | 0.00 | 94 | 1020.0 |
| 20260906132104 | 12 | 81 | 0.0 | 0.0 | 0.00 | 0.00 | 0.00 | 94 | 1020.0 |
| 20260906132048 | 12 | 81 | 0.0 | 0.0 | 0.00 | 0.00 | 0.00 | 94 | 1020.0 |
| 20260906132008 | 12 | 81 | 0.0 | 0.0 | 0.00 | 0.00 | 0.00 | 94 | 1020.0 |
| 20260906131952 | 12 | 54 | 0.0 | 0.0 | 0.00 | 0.00 | 0.00 | 94 | 1020.0 |
| 20260906131928 | 12 | 78 | 0.0 | 0.0 | 0.00 | 0.00 | 0.00 | 94 | 1020.0 |
| 20260906131910 | 12 | 59 | 0.0 | 0.0 | 0.00 | 0.00 | 0.00 | 94 | 1020.0 |
| 20260906131901 | 12 | 91 | 0.0 | 0.0 | 0.00 | 0.00 | 0.00 | 94 | 1020.0 |
| 20260906131853 | 12 | 91 | 0.0 | 0.0 | 0.00 | 0.00 | 0.00 | 94 | 1020.0 |
| 20260906131837 | 12 | 82 | 0.0 | 0.0 | 0.00 | 0.00 | 0.00 | 94 | 1020.0 |
| 20260906131829 | 12 | 110 | 0.0 | 0.0 | 0.00 | 0.00 | 0.00 | 94 | 1020.0 |
| 20260906131749 | 12 | 126 | 0.0 | 0.0 | 0.00 | 0.00 | 0.00 | 94 | 1020.0 |
| 20260906131722 | 12 | 149 | 0.0 | 0.0 | 0.00 | 0.00 | 0.00 | 94 | 1020.0 |
| 20260906131640 | 12 | 105 | 0.0 | 0.0 | 0.00 | 0.00 | 0.00 | 94 | 1020.0 |
| 20260906131622 | 12 | 108 | 0.0 | 0.0 | 0.00 | 0.00 | 0.00 | 94 | 1020.0 |
| 20260906131606 | 12 | 102 | 0.0 | 0.0 | 0.00 | 0.00 | 0.00 | 94 | 1020.0 |
| 20260906131600 | 12 | 96 | 0.0 | 0.0 | 0.00 | 0.00 | 0.00 | 94 | 1020.0 |
| 20260906131535 | 12 | 100 | 0.0 | 0.0 | 0.00 | 0.00 | 0.00 | 94 | 1020.0 |
| 20260906131501 | 12 | 101 | 0.0 | 0.0 | 0.00 | 0.00 | 0.00 | 94 | 1020.0 |
| 20260906131400 | 12 | 101 | 0.0 | 0.0 | 0.00 | 0.00 | 0.00 | 94 | 1020.0 |
| 20260906131342 | 12 | 101 | 0.0 | 0.0 | 0.00 | 0.00 | 0.00 | 94 | 1020.0 |
| 20260906131301 | 12 | 101 | 0.0 | 0.0 | 0.00 | 0.00 | 0.00 | 94 | 1020.0 |
| 20260906131216 | 12 | 101 | 0.0 | 0.0 | 0.00 | 0.00 | 0.00 | 94 | 1020.0 |
| 20260906131125 | 12 | 101 | 0.0 | 0.0 | 0.00 | 0.00 | 0.00 | 94 | 1020.0 |
| 20260906131113 | 12 | 99 | 0.0 | 0.0 | 0.00 | 0.00 | 0.00 | 94 | 1020.0 |
| 20260906131054 | 12 | 154 | 0.0 | 0.0 | 0.00 | 0.00 | 0.00 | 94 | 1020.0 |
| 20260906131040 | 12 | 113 | 0.0 | 0.0 | 0.00 | 0.00 | 0.00 | 94 | 1020.0 |
| 20260906131005 | 12 | 110 | 0.0 | 0.0 | 0.00 | 0.00 | 0.00 | 94 | 1020.0 |
| 20260906130922 | 12 | 110 | 0.0 | 0.0 | 0.00 | 0.00 | 0.00 | 94 | 1020.0 |
| 20260906130901 | 12 | 136 | 0.0 | 0.0 | 0.00 | 0.00 | 0.00 | 94 | 1020.0 |
| 20260906130858 | 12 | 136 | 0.0 | 0.0 | 0.00 | 0.00 | 0.00 | 94 | 1020.0 |
| 20260906130825 | 12 | 127 | 0.0 | 0.0 | 0.00 | 0.00 | 0.00 | 94 | 1020.0 |
| 20260906130808 | 12 | 133 | 0.0 | 0.0 | 0.00 | 0.00 | 0.00 | 94 | 1020.0 |
| 20260906130751 | 12 | 120 | 0.0 | 0.0 | 0.00 | 0.00 | 0.00 | 94 | 1020.0 |
| 20260906130702 | 12 | 109 | 0.0 | 0.0 | 0.00 | 0.00 | 0.00 | 94 | 1020.0 |
| 20260906130634 | 12 | 111 | 0.0 | 0.0 | 0.00 | 0.00 | 0.00 | 94 | 1020.0 |
| 20260906130606 | 12 | 106 | 0.0 | 0.0 | 0.00 | 0.00 | 0.00 | 94 | 1020.0 |
| 20260906130542 | 12 | 106 | 0.0 | 0.0 | 0.00 | 0.00 | 0.00 | 94 | 1020.0 |
| 20260906130526 | 12 | 112 | 0.0 | 0.0 | 0.00 | 0.00 | 0.00 | 94 | 1020.0 |
| 20260906130502 | 12 | 117 | 0.0 | 0.0 | 0.00 | 0.00 | 0.00 | 94 | 1020.0 |
| 20260906130437 | 12 | 117 | 0.0 | 0.0 | 0.00 | 0.00 | 0.00 | 94 | 1020.0 |
| 20260906130421 | 12 | 105 | 0.0 | 0.0 | 0.00 | 0.00 | 0.00 | 94 | 1020.0 |
| 20260906130414 | 12 | 96 | 0.0 | 0.0 | 0.00 | 0.00 | 0.00 | 94 | 1020.0 |
| 20260906130409 | 12 | 96 | 0.0 | 1.6 | 0.00 | 0.00 | 0.00 | 94 | 1020.0 |
| 20260906130341 | 12 | 101 | 0.0 | 1.6 | 0.00 | 0.00 | 0.00 | 94 | 1020.0 |
| 20260906130325 | 12 | 141 | 0.0 | 1.6 | 0.00 | 0.00 | 0.00 | 94 | 1020.0 |
| 20260906130309 | 12 | 138 | 0.0 | 1.6 | 0.00 | 0.00 | 0.00 | 94 | 1020.0 |
| 20260906130304 | 12 | 108 | 0.0 | 1.6 | 0.00 | 0.00 | 0.00 | 94 | 1020.0 |
| 20260906130239 | 12 | 128 | 0.0 | 1.6 | 0.00 | 0.00 | 0.00 | 94 | 1020.0 |
| 20260906130221 | 12 | 80 | 0.0 | 3.2 | 0.00 | 0.00 | 0.00 | 94 | 1020.0 |
| 20260906130208 | 12 | 160 | 0.0 | 3.2 | 0.00 | 0.00 | 0.00 | 94 | 1020.0 |
| 20260906130149 | 12 | 112 | 0.0 | 3.2 | 0.00 | 0.00 | 0.00 | 94 | 1020.0 |
| 20260906130133 | 12 | 131 | 0.0 | 3.2 | 0.00 | 0.00 | 0.00 | 94 | 1020.0 |
| 20260906130117 | 12 | 79 | 0.0 | 3.2 | 0.00 | 0.00 | 0.00 | 94 | 1020.0 |
| 20260906130046 | 12 | 139 | 1.6 | 3.2 | 0.00 | 0.00 | 0.00 | 94 | 1020.0 |
| 20260906130029 | 12 | 144 | 1.6 | 1.6 | 0.00 | 0.00 | 0.00 | 94 | 1020.0 |
| 20260906130014 | 12 | 96 | 1.6 | 1.6 | 0.00 | 0.00 | 0.00 | 94 | 1020.0 |
| 20260906130006 | 12 | 186 | 0.0 | 1.6 | 0.00 | 0.00 | 0.00 | 94 | 1020.0 |
| 20260906125958 | 12 | 186 | 0.0 | 1.6 | 0.00 | 0.00 | 0.00 | 94 | 1020.0 |
| 20260906125934 | 12 | 114 | 0.0 | 0.0 | 0.00 | 0.00 | 0.00 | 94 | 1020.0 |
| 20260906125917 | 12 | 135 | 0.0 | 0.0 | 0.00 | 0.00 | 0.00 | 94 | 1020.0 |
| 20260906125914 | 12 | 125 | 0.0 | 0.0 | 0.00 | 0.00 | 0.00 | 94 | 1020.0 |
| 20260906125846 | 12 | 84 | 0.0 | 0.0 | 0.00 | 0.00 | 0.00 | 94 | 1020.0 |
| 20260906125805 | 12 | 94 | 0.0 | 0.0 | 0.00 | 0.00 | 0.00 | 94 | 1020.0 |
| 20260906125757 | 12 | 94 | 0.0 | 0.0 | 0.00 | 0.00 | 0.00 | 94 | 1020.0 |
| 20260906125741 | 12 | 131 | 0.0 | 0.0 | 0.00 | 0.00 | 0.00 | 94 | 1020.0 |
| 20260906125726 | 12 | 120 | 0.0 | 0.0 | 0.00 | 0.00 | 0.00 | 94 | 1020.0 |
| 20260906125720 | 12 | 123 | 0.0 | 0.0 | 0.00 | 0.00 | 0.00 | 94 | 1020.0 |
| 20260906125701 | 12 | 136 | 0.0 | 0.0 | 0.00 | 0.00 | 0.00 | 94 | 1020.0 |
| 20260906125653 | 12 | 136 | 0.0 | 0.0 | 0.00 | 0.00 | 0.00 | 94 | 1020.0 |
| 20260906125637 | 12 | 132 | 0.0 | 0.0 | 0.00 | 0.00 | 0.00 | 94 | 1020.0 |
| 20260906125607 | 12 | 81 | 0.0 | 0.0 | 0.00 | 0.00 | 0.00 | 94 | 1020.0 |
| 20260906125550 | 12 | 81 | 0.0 | 0.0 | 0.00 | 0.00 | 0.00 | 94 | 1020.0 |
| 20260906125509 | 12 | 103 | 0.0 | 0.0 | 0.00 | 0.00 | 0.00 | 94 | 1020.0 |
| 20260906125502 | 12 | 115 | 0.0 | 0.0 | 0.00 | 0.00 | 0.00 | 94 | 1020.0 |
| 20260906125437 | 12 | 115 | 0.0 | 0.0 | 0.00 | 0.00 | 0.00 | 94 | 1020.0 |
| 20260906125422 | 12 | 132 | 0.0 | 0.0 | 0.00 | 0.00 | 0.00 | 94 | 1020.0 |
| 20260906125416 | 12 | 147 | 0.0 | 0.0 | 0.00 | 0.00 | 0.00 | 94 | 1020.0 |
| 20260906125328 | 12 | 65 | 0.0 | 0.0 | 0.00 | 0.00 | 0.00 | 94 | 1020.0 |
| 20260906125301 | 12 | 64 | 0.0 | 0.0 | 0.00 | 0.00 | 0.00 | 94 | 1020.0 |
| 20260906125246 | 12 | 64 | 0.0 | 0.0 | 0.00 | 0.00 | 0.00 | 94 | 1020.0 |
| 20260906125231 | 12 | 64 | 0.0 | 0.0 | 0.00 | 0.00 | 0.00 | 94 | 1020.0 |
| 20260906125201 | 12 | 112 | 0.0 | 0.0 | 0.00 | 0.00 | 0.00 | 94 | 1020.0 |
| 20260906125141 | 12 | 118 | 0.0 | 0.0 | 0.00 | 0.00 | 0.00 | 94 | 1020.0 |
| 20260906125125 | 12 | 120 | 0.0 | 0.0 | 0.00 | 0.00 | 0.00 | 94 | 1020.0 |
| 20260906125110 | 12 | 78 | 0.0 | 0.0 | 0.00 | 0.00 | 0.00 | 94 | 1020.0 |
| 20260906125101 | 12 | 106 | 0.0 | 0.0 | 0.00 | 0.00 | 0.00 | 94 | 1020.0 |
| 20260906125045 | 12 | 106 | 0.0 | 0.0 | 0.00 | 0.00 | 0.00 | 94 | 1020.0 |
| 20260906125029 | 12 | 142 | 0.0 | 0.0 | 0.00 | 0.00 | 0.00 | 94 | 1020.0 |
| 20260906125013 | 12 | 154 | 0.0 | 0.0 | 0.00 | 0.00 | 0.00 | 94 | 1020.0 |
| 20260906125005 | 12 | 142 | 0.0 | 0.0 | 0.00 | 0.00 | 0.00 | 94 | 1021.0 |
| 20260906124957 | 12 | 142 | 0.0 | 0.0 | 0.00 | 0.00 | 0.00 | 94 | 1021.0 |
| 20260906124941 | 12 | 120 | 0.0 | 0.0 | 0.00 | 0.00 | 0.00 | 94 | 1021.0 |
| 20260906124909 | 12 | 83 | 0.0 | 0.0 | 0.00 | 0.00 | 0.00 | 94 | 1021.0 |
| 20260906124902 | 12 | 83 | 0.0 | 0.0 | 0.00 | 0.00 | 0.00 | 94 | 1020.0 |
| 20260906124837 | 12 | 83 | 0.0 | 0.0 | 0.00 | 0.00 | 0.00 | 94 | 1020.0 |
| 20260906124824 | 12 | 120 | 0.0 | 0.0 | 0.00 | 0.00 | 0.00 | 94 | 1020.0 |
| 20260906124806 | 12 | 135 | 0.0 | 0.0 | 0.00 | 0.00 | 0.00 | 94 | 1020.0 |
| 20260906124750 | 12 | 149 | 0.0 | 0.0 | 0.00 | 0.00 | 0.00 | 94 | 1020.0 |
| 20260906124741 | 12 | 145 | 0.0 | 0.0 | 0.00 | 0.00 | 0.00 | 94 | 1020.0 |
| 20260906124733 | 12 | 145 | 0.0 | 1.6 | 0.00 | 0.00 | 0.00 | 94 | 1020.0 |
| 20260906124720 | 12 | 88 | 0.0 | 1.6 | 0.00 | 0.00 | 0.00 | 94 | 1020.0 |
| 20260906124701 | 12 | 90 | 0.0 | 1.6 | 0.00 | 0.00 | 0.00 | 94 | 1020.0 |
| 20260906124646 | 12 | 120 | 0.0 | 1.6 | 0.00 | 0.00 | 0.00 | 94 | 1020.0 |
| 20260906124621 | 12 | 137 | 0.0 | 1.6 | 0.00 | 0.00 | 0.00 | 94 | 1020.0 |
| 20260906124616 | 12 | 137 | 1.6 | 1.6 | 0.00 | 0.00 | 0.00 | 94 | 1020.0 |
| 20260906124551 | 12 | 145 | 0.0 | 1.6 | 0.00 | 0.00 | 0.00 | 94 | 1020.0 |
| 20260906124541 | 12 | 151 | 0.0 | 1.6 | 0.00 | 0.00 | 0.00 | 94 | 1020.0 |
| 20260906124533 | 12 | 151 | 0.0 | 3.2 | 0.00 | 0.00 | 0.00 | 94 | 1020.0 |
| 20260906124517 | 12 | 147 | 1.6 | 3.2 | 0.00 | 0.00 | 0.00 | 94 | 1020.0 |
| 20260906124501 | 12 | 145 | 0.0 | 3.2 | 0.00 | 0.00 | 0.00 | 94 | 1020.0 |
| 20260906124445 | 12 | 104 | 0.0 | 3.2 | 0.00 | 0.00 | 0.00 | 94 | 1020.0 |
| 20260906124430 | 12 | 107 | 0.0 | 3.2 | 0.00 | 0.00 | 0.00 | 94 | 1020.0 |
| 20260906124413 | 12 | 106 | 0.0 | 3.2 | 0.00 | 0.00 | 0.00 | 94 | 1020.0 |
| 20260906124405 | 12 | 105 | 1.6 | 3.2 | 0.00 | 0.00 | 0.00 | 94 | 1020.0 |
| 20260906124357 | 12 | 105 | 1.6 | 3.2 | 0.00 | 0.00 | 0.00 | 94 | 1020.0 |
| 20260906124352 | 12 | 129 | 0.0 | 1.6 | 0.00 | 0.00 | 0.00 | 94 | 1020.0 |
| 20260906124335 | 12 | 115 | 0.0 | 1.6 | 0.00 | 0.00 | 0.00 | 94 | 1020.0 |
| 20260906124309 | 12 | 120 | 0.0 | 1.6 | 0.00 | 0.00 | 0.00 | 94 | 1020.0 |
| 20260906124304 | 12 | 120 | 0.0 | 3.2 | 0.00 | 0.00 | 0.00 | 94 | 1020.0 |
| 20260906124238 | 12 | 125 | 0.0 | 3.2 | 0.00 | 0.00 | 0.00 | 94 | 1020.0 |
| 20260906124221 | 12 | 120 | 0.0 | 3.2 | 0.00 | 0.00 | 0.00 | 94 | 1020.0 |
| 20260906124205 | 12 | 134 | 0.0 | 3.2 | 0.00 | 0.00 | 0.00 | 94 | 1020.0 |
| 20260906124200 | 12 | 134 | 0.0 | 3.2 | 0.00 | 0.00 | 0.00 | 94 | 1020.0 |
| 20260906124142 | 12 | 133 | 0.0 | 3.2 | 0.00 | 0.00 | 0.00 | 94 | 1020.0 |
| 20260906124125 | 12 | 136 | 1.6 | 3.2 | 0.00 | 0.00 | 0.00 | 94 | 1020.0 |
| 20260906124109 | 12 | 131 | 1.6 | 3.2 | 0.00 | 0.00 | 0.00 | 94 | 1020.0 |
| 20260906124101 | 12 | 107 | 0.0 | 3.2 | 0.00 | 0.00 | 0.00 | 94 | 1020.0 |
| 20260906124056 | 12 | 107 | 0.0 | 3.2 | 0.00 | 0.00 | 0.00 | 94 | 1020.0 |
| 20260906124037 | 12 | 159 | 0.0 | 3.2 | 0.00 | 0.00 | 0.00 | 94 | 1020.0 |
| 20260906124022 | 12 | 127 | 1.6 | 3.2 | 0.00 | 0.00 | 0.00 | 94 | 1020.0 |
| 20260906124015 | 12 | 134 | 1.6 | 3.2 | 0.00 | 0.00 | 0.00 | 94 | 1020.0 |
| 20260906123949 | 12 | 134 | 0.0 | 1.6 | 0.00 | 0.00 | 0.00 | 94 | 1020.0 |
| 20260906123933 | 12 | 140 | 0.0 | 0.0 | 0.00 | 0.00 | 0.00 | 94 | 1020.0 |
| 20260906123919 | 12 | 202 | 0.0 | 0.0 | 0.00 | 0.00 | 0.00 | 94 | 1020.0 |
| 20260906123901 | 12 | 128 | 0.0 | 0.0 | 0.00 | 0.00 | 0.00 | 94 | 1020.0 |
| 20260906123830 | 12 | 118 | 0.0 | 0.0 | 0.00 | 0.00 | 0.00 | 94 | 1020.0 |
| 20260906123814 | 12 | 134 | 0.0 | 0.0 | 0.00 | 0.00 | 0.00 | 94 | 1020.0 |
| 20260906123805 | 12 | 105 | 0.0 | 0.0 | 0.00 | 0.00 | 0.00 | 94 | 1020.0 |
| 20260906123757 | 12 | 105 | 0.0 | 0.0 | 0.00 | 0.00 | 0.00 | 94 | 1020.0 |
| 20260906123733 | 12 | 133 | 0.0 | 0.0 | 0.00 | 0.00 | 0.00 | 94 | 1020.0 |
| 20260906123720 | 12 | 105 | 0.0 | 0.0 | 0.00 | 0.00 | 0.00 | 94 | 1020.0 |
| 20260906123701 | 12 | 122 | 0.0 | 0.0 | 0.00 | 0.00 | 0.00 | 94 | 1020.0 |
| 20260906123647 | 12 | 119 | 0.0 | 0.0 | 0.00 | 0.00 | 0.00 | 94 | 1020.0 |
| 20260906123629 | 12 | 139 | 0.0 | 0.0 | 0.00 | 0.00 | 0.00 | 94 | 1020.0 |
| 20260906123618 | 12 | 135 | 0.0 | 0.0 | 0.00 | 0.00 | 0.00 | 94 | 1020.0 |
| 20260906123541 | 12 | 192 | 0.0 | 0.0 | 0.00 | 0.00 | 0.00 | 94 | 1020.0 |
| 20260906123528 | 12 | 127 | 0.0 | 0.0 | 0.00 | 0.00 | 0.00 | 94 | 1020.0 |
| 20260906123501 | 12 | 125 | 0.0 | 0.0 | 0.00 | 0.00 | 0.00 | 94 | 1020.0 |
| 20260906123453 | 12 | 125 | 0.0 | 0.0 | 0.00 | 0.00 | 0.00 | 94 | 1020.0 |
| 20260906123405 | 12 | 124 | 0.0 | 0.0 | 0.00 | 0.00 | 0.00 | 94 | 1020.0 |
| 20260906123349 | 12 | 124 | 0.0 | 0.0 | 0.00 | 0.00 | 0.00 | 94 | 1020.0 |
| 20260906123333 | 12 | 128 | 0.0 | 0.0 | 0.00 | 0.00 | 0.00 | 94 | 1020.0 |
| 20260906123301 | 12 | 131 | 0.0 | 0.0 | 0.00 | 0.00 | 0.00 | 94 | 1020.0 |
| 20260906123253 | 12 | 131 | 0.0 | 0.0 | 0.00 | 0.00 | 0.00 | 94 | 1020.0 |
| 20260906123238 | 12 | 133 | 0.0 | 0.0 | 0.00 | 0.00 | 0.00 | 94 | 1020.0 |
| 20260906123221 | 12 | 122 | 0.0 | 0.0 | 0.00 | 0.00 | 0.00 | 94 | 1020.0 |
| 20260906123206 | 12 | 125 | 0.0 | 0.0 | 0.00 | 0.00 | 0.00 | 94 | 1020.0 |
| 20260906123149 | 12 | 125 | 0.0 | 0.0 | 0.00 | 0.00 | 0.00 | 94 | 1020.0 |
| 20260906123133 | 12 | 91 | 0.0 | 0.0 | 0.00 | 0.00 | 0.00 | 94 | 1020.0 |
| 20260906123120 | 12 | 112 | 0.0 | 0.0 | 0.00 | 0.00 | 0.00 | 94 | 1020.0 |
| 20260906123101 | 12 | 133 | 0.0 | 0.0 | 0.00 | 0.00 | 0.00 | 94 | 1020.0 |
| 20260906123046 | 12 | 137 | 0.0 | 0.0 | 0.00 | 0.00 | 0.00 | 94 | 1020.0 |
| 20260906123029 | 12 | 149 | 0.0 | 0.0 | 0.00 | 0.00 | 0.00 | 94 | 1020.0 |
| 20260906123014 | 12 | 145 | 0.0 | 0.0 | 0.00 | 0.00 | 0.00 | 94 | 1020.0 |
| 20260906123007 | 12 | 98 | 0.0 | 0.0 | 0.00 | 0.00 | 0.00 | 94 | 1020.0 |
| 20260906122901 | 12 | 96 | 0.0 | 0.0 | 0.00 | 0.00 | 0.00 | 94 | 1020.0 |
| 20260906122816 | 12 | 96 | 0.0 | 0.0 | 0.00 | 0.00 | 0.00 | 94 | 1020.0 |
| 20260906122733 | 12 | 96 | 0.0 | 0.0 | 0.00 | 0.00 | 0.00 | 94 | 1020.0 |
| 20260906122703 | 12 | 96 | 0.0 | 0.0 | 0.00 | 0.00 | 0.00 | 94 | 1020.0 |
| 20260906122650 | 12 | 96 | 0.0 | 0.0 | 0.00 | 0.00 | 0.00 | 94 | 1020.0 |
| 20260906122621 | 12 | 89 | 0.0 | 0.0 | 0.00 | 0.00 | 0.00 | 94 | 1020.0 |
| 20260906122605 | 12 | 87 | 0.0 | 0.0 | 0.00 | 0.00 | 0.00 | 94 | 1020.0 |
| 20260906122549 | 12 | 104 | 0.0 | 0.0 | 0.00 | 0.00 | 0.00 | 94 | 1020.0 |
| 20260906122533 | 12 | 119 | 0.0 | 0.0 | 0.00 | 0.00 | 0.00 | 94 | 1020.0 |
| 20260906122517 | 12 | 125 | 0.0 | 0.0 | 0.00 | 0.00 | 0.00 | 94 | 1020.0 |
| 20260906122501 | 12 | 110 | 0.0 | 0.0 | 0.00 | 0.00 | 0.00 | 94 | 1020.0 |
| 20260906122445 | 12 | 110 | 0.0 | 0.0 | 0.00 | 0.00 | 0.00 | 94 | 1020.0 |
| 20260906122407 | 12 | 118 | 0.0 | 0.0 | 0.00 | 0.00 | 0.00 | 94 | 1020.0 |
| 20260906122350 | 12 | 99 | 0.0 | 0.0 | 0.00 | 0.00 | 0.00 | 94 | 1020.0 |
| 20260906122333 | 12 | 116 | 0.0 | 0.0 | 0.00 | 0.00 | 0.00 | 94 | 1020.0 |
| 20260906122317 | 12 | 114 | 0.0 | 0.0 | 0.00 | 0.00 | 0.00 | 94 | 1020.0 |
| 20260906122306 | 12 | 76 | 0.0 | 0.0 | 0.00 | 0.00 | 0.00 | 94 | 1020.0 |
| 20260906122215 | 12 | 75 | 0.0 | 0.0 | 0.00 | 0.00 | 0.00 | 94 | 1020.0 |
| 20260906122157 | 12 | 75 | 0.0 | 0.0 | 0.00 | 0.00 | 0.00 | 94 | 1020.0 |
| 20260906122152 | 12 | 74 | 0.0 | 0.0 | 0.00 | 0.00 | 0.00 | 94 | 1020.0 |
| 20260906122125 | 12 | 78 | 0.0 | 0.0 | 0.00 | 0.00 | 0.00 | 94 | 1020.0 |
| 20260906122109 | 12 | 97 | 0.0 | 0.0 | 0.00 | 0.00 | 0.00 | 94 | 1020.0 |
| 20260906122106 | 12 | 101 | 0.0 | 0.0 | 0.00 | 0.00 | 0.00 | 94 | 1020.0 |
| 20260906122037 | 12 | 122 | 0.0 | 0.0 | 0.00 | 0.00 | 0.00 | 94 | 1020.0 |
| 20260906122029 | 12 | 113 | 0.0 | 0.0 | 0.00 | 0.00 | 0.00 | 94 | 1020.0 |
| 20260906122021 | 11 | 113 | 0.0 | 0.0 | 0.00 | 0.00 | 0.00 | 94 | 1020.0 |
| 20260906122003 | 11 | 90 | 0.0 | 0.0 | 0.00 | 0.00 | 0.00 | 94 | 1020.0 |
| 20260906121925 | 11 | 117 | 0.0 | 0.0 | 0.00 | 0.00 | 0.00 | 94 | 1020.0 |
| 20260906121919 | 12 | 136 | 0.0 | 0.0 | 0.00 | 0.00 | 0.00 | 94 | 1020.0 |
| 20260906121901 | 12 | 152 | 0.0 | 0.0 | 0.00 | 0.00 | 0.00 | 94 | 1020.0 |
| 20260906121856 | 12 | 152 | 0.0 | 0.0 | 0.00 | 0.00 | 0.00 | 94 | 1020.0 |
| 20260906121838 | 12 | 138 | 0.0 | 0.0 | 0.00 | 0.00 | 0.00 | 94 | 1020.0 |
| 20260906121821 | 12 | 154 | 0.0 | 0.0 | 0.00 | 0.00 | 0.00 | 94 | 1020.0 |
| 20260906121805 | 11 | 144 | 0.0 | 0.0 | 0.00 | 0.00 | 0.00 | 94 | 1020.0 |
| 20260906121752 | 11 | 132 | 0.0 | 0.0 | 0.00 | 0.00 | 0.00 | 94 | 1020.0 |
| 20260906121737 | 11 | 137 | 0.0 | 0.0 | 0.00 | 0.00 | 0.00 | 94 | 1020.0 |
| 20260906121703 | 12 | 138 | 0.0 | 0.0 | 0.00 | 0.00 | 0.00 | 94 | 1020.0 |
| 20260906121645 | 12 | 131 | 0.0 | 0.0 | 0.00 | 0.00 | 0.00 | 94 | 1020.0 |
| 20260906121629 | 12 | 105 | 0.0 | 0.0 | 0.00 | 0.00 | 0.00 | 94 | 1020.0 |
| 20260906121613 | 12 | 65 | 0.0 | 0.0 | 0.00 | 0.00 | 0.00 | 94 | 1020.0 |
| 20260906121605 | 11 | 81 | 0.0 | 0.0 | 0.00 | 0.00 | 0.00 | 94 | 1020.0 |
| 20260906121557 | 11 | 81 | 0.0 | 0.0 | 0.00 | 0.00 | 0.00 | 94 | 1020.0 |
| 20260906121538 | 11 | 124 | 0.0 | 0.0 | 0.00 | 0.00 | 0.00 | 94 | 1020.0 |
| 20260906121517 | 11 | 136 | 0.0 | 0.0 | 0.00 | 0.00 | 0.00 | 94 | 1020.0 |
| 20260906121509 | 11 | 135 | 0.0 | 0.0 | 0.00 | 0.00 | 0.00 | 94 | 1020.0 |
| 20260906121503 | 12 | 135 | 0.0 | 0.0 | 0.00 | 0.00 | 0.00 | 94 | 1020.0 |
| 20260906121445 | 12 | 135 | 0.0 | 0.0 | 0.00 | 0.00 | 0.00 | 94 | 1020.0 |
| 20260906121405 | 12 | 138 | 0.0 | 0.0 | 0.00 | 0.00 | 0.00 | 94 | 1020.0 |
| 20260906121309 | 11 | 138 | 0.0 | 0.0 | 0.00 | 0.00 | 0.00 | 94 | 1020.0 |
| 20260906121301 | 11 | 137 | 0.0 | 0.0 | 0.00 | 0.00 | 0.00 | 94 | 1020.0 |
| 20260906121253 | 12 | 137 | 0.0 | 0.0 | 0.00 | 0.00 | 0.00 | 94 | 1020.0 |
| 20260906121248 | 12 | 132 | 0.0 | 0.0 | 0.00 | 0.00 | 0.00 | 94 | 1020.0 |
| 20260906121223 | 12 | 125 | 0.0 | 0.0 | 0.00 | 0.00 | 0.00 | 94 | 1020.0 |
| 20260906121205 | 12 | 136 | 0.0 | 0.0 | 0.00 | 0.00 | 0.00 | 94 | 1020.0 |
| 20260906121157 | 12 | 148 | 0.0 | 0.0 | 0.00 | 0.00 | 0.00 | 94 | 1020.0 |
| 20260906121149 | 11 | 148 | 0.0 | 0.0 | 0.00 | 0.00 | 0.00 | 94 | 1020.0 |
| 20260906121110 | 11 | 148 | 0.0 | 0.0 | 0.00 | 0.00 | 0.00 | 94 | 1020.0 |
| 20260906121102 | 11 | 150 | 0.0 | 0.0 | 0.00 | 0.00 | 0.00 | 94 | 1020.0 |
| 20260906121053 | 11 | 150 | 0.0 | 0.0 | 0.00 | 0.00 | 0.00 | 94 | 1020.0 |
| 20260906121030 | 11 | 151 | 0.0 | 0.0 | 0.00 | 0.00 | 0.00 | 94 | 1020.0 |
| 20260906121020 | 11 | 150 | 0.0 | 0.0 | 0.00 | 0.00 | 0.00 | 94 | 1020.0 |
| 20260906120934 | 11 | 161 | 0.0 | 0.0 | 0.00 | 0.00 | 0.00 | 94 | 1020.0 |
| 20260906120901 | 11 | 147 | 0.0 | 0.0 | 0.00 | 0.00 | 0.00 | 94 | 1020.0 |
| 20260906120857 | 11 | 147 | 0.0 | 0.0 | 0.00 | 0.00 | 0.00 | 94 | 1020.0 |
| 20260906120814 | 11 | 166 | 0.0 | 0.0 | 0.00 | 0.00 | 0.00 | 94 | 1020.0 |
| 20260906120800 | 11 | 188 | 0.0 | 0.0 | 0.00 | 0.00 | 0.00 | 94 | 1020.0 |
| 20260906120741 | 11 | 182 | 0.0 | 0.0 | 0.00 | 0.00 | 0.00 | 94 | 1020.0 |
| 20260906120725 | 11 | 149 | 0.0 | 0.0 | 0.00 | 0.00 | 0.00 | 94 | 1020.0 |
| 20260906120712 | 11 | 148 | 0.0 | 0.0 | 0.00 | 0.00 | 0.00 | 94 | 1020.0 |
| 20260906120702 | 11 | 147 | 0.0 | 0.0 | 0.00 | 0.00 | 0.00 | 94 | 1020.0 |
| 20260906120645 | 11 | 147 | 0.0 | 0.0 | 0.00 | 0.00 | 0.00 | 94 | 1020.0 |
| 20260906120629 | 11 | 139 | 0.0 | 0.0 | 0.00 | 0.00 | 0.00 | 94 | 1020.0 |
| 20260906120613 | 11 | 186 | 0.0 | 0.0 | 0.00 | 0.00 | 0.00 | 94 | 1020.0 |
| 20260906120606 | 11 | 197 | 0.0 | 0.0 | 0.00 | 0.00 | 0.00 | 94 | 1020.0 |
| 20260906120557 | 11 | 197 | 0.0 | 0.0 | 0.00 | 0.00 | 0.00 | 94 | 1020.0 |
| 20260906120541 | 11 | 158 | 0.0 | 0.0 | 0.00 | 0.00 | 0.00 | 94 | 1020.0 |
| 20260906120525 | 11 | 143 | 0.0 | 0.0 | 0.00 | 0.00 | 0.00 | 94 | 1020.0 |
| 20260906120502 | 11 | 133 | 0.0 | 0.0 | 0.00 | 0.00 | 0.00 | 94 | 1020.0 |
| 20260906120440 | 11 | 133 | 0.0 | 0.0 | 0.00 | 0.00 | 0.00 | 94 | 1020.0 |
| 20260906120405 | 12 | 133 | 0.0 | 0.0 | 0.00 | 0.00 | 0.00 | 94 | 1020.0 |
| 20260906120336 | 12 | 133 | 0.0 | 0.0 | 0.00 | 0.00 | 0.00 | 94 | 1020.0 |
| 20260906120317 | 11 | 133 | 0.0 | 0.0 | 0.00 | 0.00 | 0.00 | 94 | 1020.0 |
| 20260906120305 | 11 | 130 | 0.0 | 0.0 | 0.00 | 0.00 | 0.00 | 94 | 1020.0 |
| 20260906120206 | 11 | 129 | 0.0 | 0.0 | 0.00 | 0.00 | 0.00 | 94 | 1020.0 |
| 20260906120152 | 11 | 129 | 0.0 | 0.0 | 0.00 | 0.00 | 0.00 | 94 | 1020.0 |
| 20260906120138 | 11 | 117 | 0.0 | 0.0 | 0.00 | 0.00 | 0.00 | 94 | 1020.0 |
| 20260906120000 | 11 | 115 | 0.0 | 0.0 | 0.00 | 0.00 | 0.00 | 94 | 1020.0 |
| 20260906115941 | 11 | 115 | 0.0 | 0.0 | 0.00 | 0.00 | 0.00 | 94 | 1020.0 |
| 20260906115925 | 11 | 118 | 0.0 | 0.0 | 0.00 | 0.00 | 0.00 | 94 | 1020.0 |
| 20260906115901 | 11 | 124 | 0.0 | 0.0 | 0.00 | 0.00 | 0.00 | 94 | 1020.0 |
| 20260906115806 | 11 | 124 | 0.0 | 0.0 | 0.00 | 0.00 | 0.00 | 94 | 1020.0 |
| 20260906115738 | 11 | 124 | 0.0 | 0.0 | 0.00 | 0.00 | 0.00 | 94 | 1020.0 |
| 20260906115709 | 11 | 108 | 0.0 | 0.0 | 0.00 | 0.00 | 0.00 | 94 | 1020.0 |
| 20260906115703 | 11 | 98 | 0.0 | 0.0 | 0.00 | 0.00 | 0.00 | 94 | 1020.0 |
| 20260906115648 | 11 | 98 | 0.0 | 0.0 | 0.00 | 0.00 | 0.00 | 94 | 1020.0 |
| 20260906115621 | 11 | 97 | 0.0 | 0.0 | 0.00 | 0.00 | 0.00 | 94 | 1020.0 |
| 20260906115605 | 11 | 129 | 0.0 | 0.0 | 0.00 | 0.00 | 0.00 | 94 | 1020.0 |
| 20260906115553 | 11 | 129 | 0.0 | 0.0 | 0.00 | 0.00 | 0.00 | 94 | 1020.0 |
| 20260906115501 | 11 | 125 | 0.0 | 0.0 | 0.00 | 0.00 | 0.00 | 94 | 1020.0 |
| 20260906115405 | 11 | 125 | 0.0 | 0.0 | 0.00 | 0.00 | 0.00 | 94 | 1020.0 |
| 20260906115341 | 11 | 125 | 0.0 | 0.0 | 0.00 | 0.00 | 0.00 | 94 | 1020.0 |
| 20260906115301 | 11 | 125 | 0.0 | 0.0 | 0.00 | 0.00 | 0.00 | 94 | 1020.0 |
| 20260906115237 | 11 | 125 | 0.0 | 0.0 | 0.00 | 0.00 | 0.00 | 94 | 1020.0 |
| 20260906115205 | 11 | 125 | 0.0 | 1.6 | 0.00 | 0.00 | 0.00 | 94 | 1020.0 |
| 20260906115103 | 11 | 125 | 0.0 | 1.6 | 0.00 | 0.00 | 0.00 | 94 | 1020.0 |
| 20260906115048 | 11 | 129 | 0.0 | 1.6 | 0.00 | 0.00 | 0.00 | 94 | 1020.0 |
| 20260906115021 | 11 | 124 | 0.0 | 0.0 | 0.00 | 0.00 | 0.00 | 94 | 1020.0 |
| 20260906115016 | 11 | 125 | 0.0 | 0.0 | 0.00 | 0.00 | 0.00 | 94 | 1020.0 |
| 20260906114909 | 11 | 124 | 0.0 | 0.0 | 0.00 | 0.00 | 0.00 | 94 | 1020.0 |
| 20260906114901 | 11 | 124 | 0.0 | 4.8 | 0.00 | 0.00 | 0.00 | 94 | 1020.0 |
| 20260906114853 | 11 | 124 | 0.0 | 4.8 | 0.00 | 0.00 | 0.00 | 94 | 1020.0 |
| 20260906114837 | 11 | 120 | 0.0 | 4.8 | 0.00 | 0.00 | 0.00 | 94 | 1020.0 |
| 20260906114805 | 11 | 124 | 0.0 | 4.8 | 0.00 | 0.00 | 0.00 | 94 | 1020.0 |
| 20260906114749 | 11 | 164 | 0.0 | 4.8 | 0.00 | 0.00 | 0.00 | 94 | 1020.0 |
| 20260906114733 | 11 | 170 | 0.0 | 4.8 | 0.00 | 0.00 | 0.00 | 94 | 1020.0 |
| 20260906114717 | 11 | 174 | 3.2 | 4.8 | 0.00 | 0.00 | 0.00 | 94 | 1020.0 |
| 20260906114702 | 11 | 129 | 1.6 | 3.2 | 0.00 | 0.00 | 0.00 | 94 | 1020.0 |
| 20260906114645 | 11 | 47 | 1.6 | 3.2 | 0.00 | 0.00 | 0.00 | 94 | 1020.0 |
| 20260906114640 | 11 | 74 | 0.0 | 1.6 | 0.00 | 0.00 | 0.00 | 94 | 1020.0 |
| 20260906114613 | 11 | 73 | 0.0 | 1.6 | 0.00 | 0.00 | 0.00 | 94 | 1020.0 |
| 20260906114605 | 11 | 130 | 0.0 | 1.6 | 0.00 | 0.00 | 0.00 | 94 | 1020.0 |
| 20260906114557 | 11 | 130 | 0.0 | 1.6 | 0.00 | 0.00 | 0.00 | 94 | 1020.0 |
| 20260906114551 | 11 | 135 | 0.0 | 1.6 | 0.00 | 0.00 | 0.00 | 94 | 1020.0 |
| 20260906114525 | 11 | 113 | 0.0 | 0.0 | 0.00 | 0.00 | 0.00 | 94 | 1020.0 |
| 20260906114503 | 11 | 112 | 0.0 | 0.0 | 0.00 | 0.00 | 0.00 | 94 | 1020.0 |
| 20260906114437 | 11 | 112 | 0.0 | 0.0 | 0.00 | 0.00 | 0.00 | 94 | 1020.0 |
| 20260906114431 | 11 | 112 | 0.0 | 3.2 | 0.00 | 0.00 | 0.00 | 94 | 1020.0 |
| 20260906114417 | 11 | 117 | 0.0 | 3.2 | 0.00 | 0.00 | 0.00 | 94 | 1020.0 |
| 20260906114343 | 11 | 127 | 0.0 | 3.2 | 0.00 | 0.00 | 0.00 | 94 | 1020.0 |
| 20260906114309 | 11 | 129 | 0.0 | 3.2 | 0.00 | 0.00 | 0.00 | 94 | 1020.0 |
| 20260906114301 | 11 | 133 | 1.6 | 3.2 | 0.00 | 0.00 | 0.00 | 94 | 1020.0 |
| 20260906114253 | 11 | 133 | 1.6 | 3.2 | 0.00 | 0.00 | 0.00 | 94 | 1020.0 |
| 20260906114247 | 11 | 134 | 0.0 | 3.2 | 0.00 | 0.00 | 0.00 | 94 | 1020.0 |
| 20260906114221 | 11 | 88 | 0.0 | 1.6 | 0.00 | 0.00 | 0.00 | 94 | 1020.0 |
| 20260906114215 | 11 | 96 | 1.6 | 1.6 | 0.00 | 0.00 | 0.00 | 94 | 1020.0 |
| 20260906114149 | 11 | 96 | 1.6 | 1.6 | 0.00 | 0.00 | 0.00 | 94 | 1020.0 |
| 20260906114134 | 11 | 80 | 1.6 | 1.6 | 0.00 | 0.00 | 0.00 | 94 | 1020.0 |
| 20260906114118 | 11 | 84 | 0.0 | 0.0 | 0.00 | 0.00 | 0.00 | 94 | 1020.0 |
| 20260906114101 | 11 | 105 | 0.0 | 0.0 | 0.00 | 0.00 | 0.00 | 94 | 1020.0 |
| 20260906114037 | 11 | 125 | 0.0 | 0.0 | 0.00 | 0.00 | 0.00 | 94 | 1020.0 |
| 20260906114010 | 11 | 125 | 0.0 | 1.6 | 0.00 | 0.00 | 0.00 | 94 | 1020.0 |
| 20260906113917 | 11 | 125 | 0.0 | 1.6 | 0.00 | 0.00 | 0.00 | 94 | 1020.0 |
| 20260906113901 | 11 | 124 | 0.0 | 1.6 | 0.00 | 0.00 | 0.00 | 94 | 1020.0 |
| 20260906113845 | 11 | 151 | 1.6 | 1.6 | 0.00 | 0.00 | 0.00 | 94 | 1020.0 |
| 20260906113829 | 11 | 207 | 0.0 | 0.0 | 0.00 | 0.00 | 0.00 | 94 | 1020.0 |
| 20260906113813 | 11 | 116 | 0.0 | 0.0 | 0.00 | 0.00 | 0.00 | 94 | 1020.0 |
| 20260906113805 | 11 | 107 | 0.0 | 1.6 | 0.00 | 0.00 | 0.00 | 94 | 1020.0 |
| 20260906113725 | 11 | 107 | 0.0 | 1.6 | 0.00 | 0.00 | 0.00 | 94 | 1020.0 |
| 20260906113709 | 11 | 113 | 0.0 | 1.6 | 0.00 | 0.00 | 0.00 | 94 | 1020.0 |
| 20260906113701 | 11 | 125 | 0.0 | 1.6 | 0.00 | 0.00 | 0.00 | 94 | 1020.0 |
| 20260906113653 | 11 | 125 | 0.0 | 1.6 | 0.00 | 0.00 | 0.00 | 94 | 1020.0 |
| 20260906113638 | 11 | 127 | 0.0 | 1.6 | 0.00 | 0.00 | 0.00 | 94 | 1020.0 |
| 20260906113621 | 11 | 122 | 1.6 | 1.6 | 0.00 | 0.00 | 0.00 | 94 | 1020.0 |
| 20260906113615 | 11 | 82 | 1.6 | 1.6 | 0.00 | 0.00 | 0.00 | 94 | 1020.0 |
| 20260906113557 | 11 | 82 | 1.6 | 1.6 | 0.00 | 0.00 | 0.00 | 94 | 1020.0 |
| 20260906113542 | 11 | 107 | 0.0 | 0.0 | 0.00 | 0.00 | 0.00 | 94 | 1020.0 |
| 20260906113525 | 11 | 151 | 0.0 | 0.0 | 0.00 | 0.00 | 0.00 | 94 | 1020.0 |
| 20260906113519 | 11 | 152 | 0.0 | 0.0 | 0.00 | 0.00 | 0.00 | 94 | 1020.0 |
| 20260906113502 | 11 | 124 | 0.0 | 0.0 | 0.00 | 0.00 | 0.00 | 94 | 1020.0 |
| 20260906113453 | 11 | 124 | 0.0 | 0.0 | 0.00 | 0.00 | 0.00 | 94 | 1020.0 |
| 20260906113405 | 11 | 93 | 0.0 | 0.0 | 0.00 | 0.00 | 0.00 | 94 | 1020.0 |
| 20260906113402 | 11 | 72 | 0.0 | 0.0 | 0.00 | 0.00 | 0.00 | 94 | 1020.0 |
| 20260906113334 | 11 | 77 | 0.0 | 0.0 | 0.00 | 0.00 | 0.00 | 94 | 1020.0 |
| 20260906113309 | 11 | 43 | 0.0 | 0.0 | 0.00 | 0.00 | 0.00 | 94 | 1020.0 |
| 20260906113301 | 11 | 43 | 0.0 | 1.6 | 0.00 | 0.00 | 0.00 | 94 | 1020.0 |
| 20260906113255 | 11 | 44 | 0.0 | 1.6 | 0.00 | 0.00 | 0.00 | 94 | 1020.0 |
| 20260906113230 | 11 | 89 | 0.0 | 1.6 | 0.00 | 0.00 | 0.00 | 94 | 1020.0 |
| 20260906113216 | 11 | 88 | 0.0 | 1.6 | 0.00 | 0.00 | 0.00 | 94 | 1020.0 |
| 20260906113157 | 11 | 92 | 0.0 | 3.2 | 0.00 | 0.00 | 0.00 | 94 | 1020.0 |
| 20260906113136 | 11 | 101 | 0.0 | 3.2 | 0.00 | 0.00 | 0.00 | 94 | 1020.0 |
| 20260906113119 | 11 | 103 | 0.0 | 3.2 | 0.00 | 0.00 | 0.00 | 94 | 1020.0 |
| 20260906113101 | 11 | 64 | 0.0 | 3.2 | 0.00 | 0.00 | 0.00 | 94 | 1020.0 |
| 20260906113045 | 11 | 61 | 1.6 | 3.2 | 0.00 | 0.00 | 0.00 | 94 | 1020.0 |
| 20260906113029 | 11 | 88 | 1.6 | 3.2 | 0.00 | 0.00 | 0.00 | 94 | 1020.0 |
| 20260906113013 | 11 | 97 | 1.6 | 3.2 | 0.00 | 0.00 | 0.00 | 94 | 1020.0 |
| 20260906113005 | 11 | 82 | 3.2 | 3.2 | 0.00 | 0.00 | 0.00 | 94 | 1020.0 |
| 20260906112951 | 11 | 82 | 3.2 | 3.2 | 0.00 | 0.00 | 0.00 | 94 | 1020.0 |
| 20260906112928 | 11 | 109 | 0.0 | 0.0 | 0.00 | 0.00 | 0.00 | 94 | 1020.0 |
| 20260906112909 | 11 | 126 | 0.0 | 0.0 | 0.00 | 0.00 | 0.00 | 94 | 1020.0 |
| 20260906112901 | 11 | 123 | 0.0 | 0.0 | 0.00 | 0.00 | 0.00 | 94 | 1020.0 |
| 20260906112821 | 11 | 123 | 0.0 | 0.0 | 0.00 | 0.00 | 0.00 | 94 | 1020.0 |
| 20260906112805 | 11 | 127 | 0.0 | 0.0 | 0.00 | 0.00 | 0.00 | 94 | 1020.0 |
| 20260906112701 | 11 | 128 | 0.0 | 0.0 | 0.00 | 0.00 | 0.00 | 94 | 1020.0 |
| 20260906112606 | 11 | 128 | 0.0 | 0.0 | 0.00 | 0.00 | 0.00 | 94 | 1020.0 |
| 20260906112551 | 11 | 126 | 0.0 | 0.0 | 0.00 | 0.00 | 0.00 | 94 | 1020.0 |
| 20260906112533 | 11 | 234 | 0.0 | 0.0 | 0.00 | 0.00 | 0.00 | 94 | 1020.0 |
| 20260906112527 | 11 | 136 | 0.0 | 0.0 | 0.00 | 0.00 | 0.00 | 94 | 1020.0 |
| 20260906112503 | 11 | 128 | 0.0 | 0.0 | 0.00 | 0.00 | 0.00 | 94 | 1020.0 |
| 20260906112446 | 11 | 102 | 0.0 | 0.0 | 0.00 | 0.00 | 0.00 | 94 | 1020.0 |
| 20260906112434 | 11 | 66 | 0.0 | 0.0 | 0.00 | 0.00 | 0.00 | 94 | 1020.0 |
| 20260906112405 | 11 | 138 | 0.0 | 0.0 | 0.00 | 0.00 | 0.00 | 94 | 1020.0 |
| 20260906112322 | 11 | 138 | 0.0 | 0.0 | 0.00 | 0.00 | 0.00 | 94 | 1020.0 |
| 20260906112245 | 11 | 139 | 0.0 | 0.0 | 0.00 | 0.00 | 0.00 | 94 | 1020.0 |
| 20260906112229 | 11 | 136 | 0.0 | 0.0 | 0.00 | 0.00 | 0.00 | 94 | 1020.0 |
| 20260906112206 | 11 | 131 | 0.0 | 0.0 | 0.00 | 0.00 | 0.00 | 94 | 1020.0 |
| 20260906112122 | 11 | 131 | 0.0 | 0.0 | 0.00 | 0.00 | 0.00 | 94 | 1020.0 |
| 20260906112055 | 11 | 131 | 0.0 | 0.0 | 0.00 | 0.00 | 0.00 | 94 | 1020.0 |
| 20260906112039 | 11 | 163 | 0.0 | 0.0 | 0.00 | 0.00 | 0.00 | 94 | 1020.0 |
| 20260906112021 | 11 | 168 | 0.0 | 0.0 | 0.00 | 0.00 | 0.00 | 94 | 1020.0 |
| 20260906112005 | 11 | 129 | 0.0 | 0.0 | 0.00 | 0.00 | 0.00 | 94 | 1020.0 |
| 20260906111949 | 11 | 134 | 0.0 | 0.0 | 0.00 | 0.00 | 0.00 | 94 | 1020.0 |
| 20260906111944 | 11 | 110 | 0.0 | 0.0 | 0.00 | 0.00 | 0.00 | 94 | 1020.0 |
| 20260906111927 | 11 | 98 | 0.0 | 0.0 | 0.00 | 0.00 | 0.00 | 94 | 1020.0 |
| 20260906111901 | 11 | 91 | 0.0 | 0.0 | 0.00 | 0.00 | 0.00 | 94 | 1020.0 |
| 20260906111855 | 11 | 76 | 0.0 | 0.0 | 0.00 | 0.00 | 0.00 | 94 | 1020.0 |
| 20260906111821 | 11 | 68 | 0.0 | 0.0 | 0.00 | 0.00 | 0.00 | 94 | 1020.0 |
| 20260906111805 | 11 | 67 | 0.0 | 0.0 | 0.00 | 0.00 | 0.00 | 94 | 1020.0 |
| 20260906111749 | 11 | 79 | 0.0 | 0.0 | 0.00 | 0.00 | 0.00 | 94 | 1020.0 |
| 20260906111733 | 11 | 105 | 0.0 | 0.0 | 0.00 | 0.00 | 0.00 | 94 | 1020.0 |
| 20260906111705 | 11 | 120 | 0.0 | 0.0 | 0.00 | 0.00 | 0.00 | 94 | 1020.0 |
| 20260906111605 | 11 | 120 | 0.0 | 0.0 | 0.00 | 0.00 | 0.00 | 94 | 1020.0 |
| 20260906111557 | 11 | 120 | 0.0 | 0.0 | 0.00 | 0.00 | 0.00 | 94 | 1020.0 |
| 20260906111525 | 11 | 121 | 0.0 | 0.0 | 0.00 | 0.00 | 0.00 | 94 | 1020.0 |
| 20260906111522 | 11 | 120 | 0.0 | 0.0 | 0.00 | 0.00 | 0.00 | 94 | 1020.0 |
| 20260906111453 | 11 | 130 | 0.0 | 0.0 | 0.00 | 0.00 | 0.00 | 94 | 1020.0 |
| 20260906111421 | 11 | 152 | 0.0 | 0.0 | 0.00 | 0.00 | 0.00 | 94 | 1020.0 |
| 20260906111405 | 11 | 154 | 0.0 | 0.0 | 0.00 | 0.00 | 0.00 | 94 | 1020.0 |
| 20260906111356 | 11 | 154 | 0.0 | 0.0 | 0.00 | 0.00 | 0.00 | 94 | 1020.0 |
| 20260906111325 | 11 | 174 | 0.0 | 0.0 | 0.00 | 0.00 | 0.00 | 94 | 1020.0 |
| 20260906111320 | 11 | 89 | 0.0 | 0.0 | 0.00 | 0.00 | 0.00 | 94 | 1020.0 |
| 20260906111301 | 11 | 84 | 0.0 | 0.0 | 0.00 | 0.00 | 0.00 | 94 | 1020.0 |
| 20260906111205 | 11 | 84 | 0.0 | 0.0 | 0.00 | 0.00 | 0.00 | 94 | 1020.0 |
| 20260906111150 | 11 | 101 | 0.0 | 0.0 | 0.00 | 0.00 | 0.00 | 94 | 1020.0 |
| 20260906111133 | 11 | 114 | 0.0 | 0.0 | 0.00 | 0.00 | 0.00 | 94 | 1020.0 |
| 20260906111101 | 11 | 126 | 0.0 | 0.0 | 0.00 | 0.00 | 0.00 | 94 | 1020.0 |
| 20260906111013 | 11 | 126 | 0.0 | 0.0 | 0.00 | 0.00 | 0.00 | 94 | 1020.0 |
| 20260906111005 | 11 | 159 | 0.0 | 0.0 | 0.00 | 0.00 | 0.00 | 94 | 1020.0 |
| 20260906110933 | 11 | 159 | 0.0 | 0.0 | 0.00 | 0.00 | 0.00 | 94 | 1020.0 |
| 20260906110930 | 11 | 113 | 0.0 | 0.0 | 0.00 | 0.00 | 0.00 | 94 | 1020.0 |
| 20260906110901 | 11 | 74 | 0.0 | 0.0 | 0.00 | 0.00 | 0.00 | 94 | 1021.0 |
| 20260906110845 | 11 | 79 | 0.0 | 0.0 | 0.00 | 0.00 | 0.00 | 94 | 1021.0 |
| 20260906110831 | 11 | 132 | 0.0 | 0.0 | 0.00 | 0.00 | 0.00 | 94 | 1021.0 |
| 20260906110814 | 11 | 107 | 0.0 | 0.0 | 0.00 | 0.00 | 0.00 | 94 | 1021.0 |
| 20260906110805 | 11 | 110 | 0.0 | 0.0 | 0.00 | 0.00 | 0.00 | 94 | 1020.0 |
| 20260906110758 | 11 | 110 | 0.0 | 0.0 | 0.00 | 0.00 | 0.00 | 94 | 1020.0 |
| 20260906110741 | 11 | 130 | 0.0 | 0.0 | 0.00 | 0.00 | 0.00 | 94 | 1020.0 |
| 20260906110709 | 11 | 133 | 0.0 | 0.0 | 0.00 | 0.00 | 0.00 | 94 | 1020.0 |
| 20260906110701 | 11 | 133 | 0.0 | 0.0 | 0.00 | 0.00 | 0.00 | 94 | 1021.0 |
| 20260906110654 | 11 | 133 | 0.0 | 0.0 | 0.00 | 0.00 | 0.00 | 94 | 1021.0 |
| 20260906110637 | 11 | 118 | 0.0 | 0.0 | 0.00 | 0.00 | 0.00 | 94 | 1021.0 |
| 20260906110621 | 11 | 111 | 0.0 | 0.0 | 0.00 | 0.00 | 0.00 | 94 | 1021.0 |
| 20260906110613 | 11 | 108 | 0.0 | 0.0 | 0.00 | 0.00 | 0.00 | 94 | 1021.0 |
| 20260906110607 | 11 | 108 | 0.0 | 0.0 | 0.00 | 0.00 | 0.00 | 94 | 1020.0 |
| 20260906110600 | 11 | 107 | 0.0 | 0.0 | 0.00 | 0.00 | 0.00 | 94 | 1020.0 |
| 20260906110544 | 11 | 114 | 0.0 | 0.0 | 0.00 | 0.00 | 0.00 | 94 | 1020.0 |
| 20260906110502 | 11 | 145 | 0.0 | 0.0 | 0.00 | 0.00 | 0.00 | 94 | 1020.0 |
| 20260906110453 | 11 | 145 | 0.0 | 0.0 | 0.00 | 0.00 | 0.00 | 94 | 1020.0 |
| 20260906110405 | 11 | 156 | 0.0 | 0.0 | 0.00 | 0.00 | 0.00 | 94 | 1020.0 |
| 20260906110333 | 11 | 156 | 0.0 | 0.0 | 0.00 | 0.00 | 0.00 | 94 | 1020.0 |
| 20260906110317 | 11 | 130 | 0.0 | 0.0 | 0.00 | 0.00 | 0.00 | 94 | 1020.0 |
| 20260906110304 | 11 | 128 | 0.0 | 0.0 | 0.00 | 0.00 | 0.00 | 94 | 1020.0 |
| 20260906110245 | 11 | 120 | 0.0 | 0.0 | 0.00 | 0.00 | 0.00 | 94 | 1020.0 |
| 20260906110229 | 11 | 150 | 0.0 | 0.0 | 0.00 | 0.00 | 0.00 | 94 | 1020.0 |
| 20260906110213 | 11 | 160 | 0.0 | 0.0 | 0.00 | 0.00 | 0.00 | 94 | 1020.0 |
| 20260906110205 | 11 | 179 | 0.0 | 0.0 | 0.00 | 0.00 | 0.00 | 94 | 1020.0 |
| 20260906110157 | 11 | 179 | 0.0 | 0.0 | 0.00 | 0.00 | 0.00 | 94 | 1020.0 |
| 20260906110111 | 11 | 136 | 0.0 | 0.0 | 0.00 | 0.00 | 0.00 | 94 | 1020.0 |
| 20260906110045 | 11 | 136 | 0.0 | 0.0 | 0.00 | 0.00 | 0.00 | 94 | 1020.0 |
| 20260906110014 | 11 | 136 | 0.0 | 0.0 | 0.00 | 0.00 | 0.00 | 94 | 1020.0 |
| 20260906110005 | 11 | 139 | 0.0 | 0.0 | 0.00 | 0.00 | 0.00 | 94 | 1020.0 |
| 20260906105957 | 11 | 139 | 0.0 | 0.0 | 0.00 | 0.00 | 0.00 | 94 | 1020.0 |
| 20260906105901 | 11 | 141 | 0.0 | 0.0 | 0.00 | 0.00 | 0.00 | 94 | 1020.0 |
| 20260906105856 | 11 | 141 | 0.0 | 0.0 | 0.00 | 0.00 | 0.00 | 94 | 1020.0 |
| 20260906105840 | 11 | 137 | 0.0 | 0.0 | 0.00 | 0.00 | 0.00 | 94 | 1020.0 |
| 20260906105805 | 11 | 125 | 0.0 | 0.0 | 0.00 | 0.00 | 0.00 | 94 | 1020.0 |
| 20260906105749 | 11 | 101 | 0.0 | 0.0 | 0.00 | 0.00 | 0.00 | 94 | 1020.0 |
| 20260906105746 | 11 | 96 | 0.0 | 0.0 | 0.00 | 0.00 | 0.00 | 94 | 1020.0 |
| 20260906105712 | 11 | 117 | 0.0 | 1.6 | 0.00 | 0.00 | 0.00 | 94 | 1020.0 |
| 20260906105645 | 11 | 158 | 0.0 | 1.6 | 0.00 | 0.00 | 0.00 | 94 | 1021.0 |
| 20260906105638 | 11 | 123 | 0.0 | 1.6 | 0.00 | 0.00 | 0.00 | 94 | 1021.0 |
| 20260906105605 | 11 | 123 | 0.0 | 3.2 | 0.00 | 0.00 | 0.00 | 94 | 1021.0 |
| 20260906105550 | 11 | 123 | 1.6 | 3.2 | 0.00 | 0.00 | 0.00 | 94 | 1021.0 |
| 20260906105533 | 11 | 161 | 1.6 | 3.2 | 0.00 | 0.00 | 0.00 | 94 | 1021.0 |
| 20260906105527 | 11 | 137 | 1.6 | 3.2 | 0.00 | 0.00 | 0.00 | 94 | 1021.0 |
| 20260906105504 | 11 | 124 | 3.2 | 3.2 | 0.00 | 0.00 | 0.00 | 94 | 1021.0 |
| 20260906105445 | 11 | 73 | 0.0 | 1.6 | 0.00 | 0.00 | 0.00 | 94 | 1021.0 |
| 20260906105439 | 11 | 45 | 0.0 | 1.6 | 0.00 | 0.00 | 0.00 | 94 | 1021.0 |
| 20260906105424 | 11 | 147 | 0.0 | 1.6 | 0.00 | 0.00 | 0.00 | 94 | 1021.0 |
| 20260906105407 | 11 | 70 | 1.6 | 1.6 | 0.00 | 0.00 | 0.00 | 94 | 1020.0 |
| 20260906105357 | 11 | 70 | 1.6 | 1.6 | 0.00 | 0.00 | 0.00 | 94 | 1020.0 |
| 20260906105341 | 11 | 113 | 1.6 | 1.6 | 0.00 | 0.00 | 0.00 | 94 | 1020.0 |
| 20260906105325 | 11 | 70 | 0.0 | 3.2 | 0.00 | 0.00 | 0.00 | 94 | 1020.0 |
| 20260906105309 | 11 | 103 | 0.0 | 3.2 | 0.00 | 0.00 | 0.00 | 94 | 1020.0 |
| 20260906105305 | 11 | 103 | 0.0 | 4.8 | 0.00 | 0.00 | 0.00 | 94 | 1020.0 |
| 20260906105223 | 11 | 103 | 0.0 | 4.8 | 0.00 | 0.00 | 0.00 | 94 | 1020.0 |
| 20260906105205 | 11 | 127 | 0.0 | 4.8 | 0.00 | 0.00 | 0.00 | 94 | 1021.0 |
| 20260906105157 | 11 | 127 | 0.0 | 4.8 | 0.00 | 0.00 | 0.00 | 94 | 1021.0 |
| 20260906105141 | 11 | 123 | 1.6 | 4.8 | 0.00 | 0.00 | 0.00 | 94 | 1021.0 |
| 20260906105126 | 11 | 123 | 3.2 | 4.8 | 0.00 | 0.00 | 0.00 | 94 | 1021.0 |
| 20260906105109 | 11 | 67 | 3.2 | 4.8 | 0.00 | 0.00 | 0.00 | 94 | 1021.0 |
| 20260906105101 | 11 | 93 | 1.6 | 3.2 | 0.00 | 0.00 | 0.00 | 94 | 1020.0 |
| 20260906105037 | 11 | 93 | 1.6 | 3.2 | 0.00 | 0.00 | 0.00 | 94 | 1020.0 |
| 20260906105026 | 11 | 89 | 1.6 | 3.2 | 0.00 | 0.00 | 0.00 | 94 | 1020.0 |
| 20260906105003 | 11 | 90 | 0.0 | 3.2 | 0.00 | 0.00 | 0.00 | 94 | 1021.0 |
| 20260906104933 | 11 | 97 | 1.6 | 3.2 | 0.00 | 0.00 | 0.00 | 94 | 1021.0 |
| 20260906104917 | 11 | 79 | 0.0 | 3.2 | 0.00 | 0.00 | 0.00 | 94 | 1021.0 |
| 20260906104912 | 11 | 100 | 1.6 | 3.2 | 0.00 | 0.00 | 0.00 | 94 | 1021.0 |
| 20260906104846 | 11 | 88 | 3.2 | 3.2 | 0.00 | 0.00 | 0.00 | 94 | 1020.0 |
| 20260906104838 | 11 | 115 | 1.6 | 3.2 | 0.00 | 0.00 | 0.00 | 94 | 1020.0 |
| 20260906104829 | 11 | 115 | 1.6 | 4.8 | 0.00 | 0.00 | 0.00 | 94 | 1020.0 |
| 20260906104813 | 11 | 87 | 3.2 | 4.8 | 0.00 | 0.00 | 0.00 | 94 | 1020.0 |
| 20260906104805 | 11 | 109 | 1.6 | 4.8 | 0.00 | 0.00 | 0.00 | 94 | 1021.0 |
| 20260906104757 | 11 | 109 | 1.6 | 4.8 | 0.00 | 0.00 | 0.00 | 94 | 1021.0 |
| 20260906104752 | 11 | 54 | 1.6 | 4.8 | 0.00 | 0.00 | 0.00 | 94 | 1021.0 |
| 20260906104719 | 11 | 84 | 1.6 | 4.8 | 0.00 | 0.00 | 0.00 | 94 | 1021.0 |
| 20260906104701 | 11 | 100 | 3.2 | 4.8 | 0.00 | 0.00 | 0.00 | 94 | 1021.0 |
| 20260906104659 | 11 | 75 | 3.2 | 4.8 | 0.00 | 0.00 | 0.00 | 94 | 1021.0 |
| 20260906104629 | 11 | 92 | 1.6 | 3.2 | 0.00 | 0.00 | 0.00 | 94 | 1021.0 |
| 20260906104624 | 11 | 103 | 1.6 | 3.2 | 0.00 | 0.00 | 0.00 | 94 | 1021.0 |
| 20260906104605 | 11 | 61 | 1.6 | 3.2 | 0.00 | 0.00 | 0.00 | 94 | 1020.0 |
| 20260906104542 | 11 | 61 | 1.6 | 3.2 | 0.00 | 0.00 | 0.00 | 94 | 1020.0 |
| 20260906104525 | 11 | 76 | 1.6 | 3.2 | 0.00 | 0.00 | 0.00 | 94 | 1020.0 |
| 20260906104509 | 11 | 91 | 0.0 | 1.6 | 0.00 | 0.00 | 0.00 | 94 | 1020.0 |
| 20260906104501 | 11 | 82 | 1.6 | 3.2 | 0.00 | 0.00 | 0.00 | 94 | 1021.0 |
| 20260906104453 | 11 | 82 | 1.6 | 3.2 | 0.00 | 0.00 | 0.00 | 94 | 1021.0 |
| 20260906104448 | 11 | 75 | 0.0 | 3.2 | 0.00 | 0.00 | 0.00 | 94 | 1021.0 |
| 20260906104431 | 11 | 57 | 0.0 | 4.8 | 0.00 | 0.00 | 0.00 | 94 | 1021.0 |
| 20260906104405 | 11 | 111 | 0.0 | 4.8 | 0.00 | 0.00 | 0.00 | 94 | 1021.0 |
| 20260906104349 | 11 | 111 | 0.0 | 4.8 | 0.00 | 0.00 | 0.00 | 94 | 1021.0 |
| 20260906104336 | 11 | 102 | 0.0 | 4.8 | 0.00 | 0.00 | 0.00 | 94 | 1021.0 |
| 20260906104309 | 11 | 54 | 1.6 | 4.8 | 0.00 | 0.00 | 0.00 | 94 | 1021.0 |
| 20260906104301 | 11 | 115 | 3.2 | 4.8 | 0.00 | 0.00 | 0.00 | 94 | 1021.0 |
| 20260906104255 | 11 | 115 | 3.2 | 4.8 | 0.00 | 0.00 | 0.00 | 94 | 1021.0 |
| 20260906104237 | 11 | 125 | 1.6 | 3.2 | 0.00 | 0.00 | 0.00 | 94 | 1021.0 |
| 20260906104224 | 11 | 91 | 0.0 | 1.6 | 0.00 | 0.00 | 0.00 | 94 | 1021.0 |
| 20260906104205 | 11 | 110 | 0.0 | 3.2 | 0.00 | 0.00 | 0.00 | 94 | 1021.0 |
| 20260906104157 | 11 | 110 | 1.6 | 3.2 | 0.00 | 0.00 | 0.00 | 94 | 1021.0 |
| 20260906104101 | 11 | 112 | 0.0 | 3.2 | 0.00 | 0.00 | 0.00 | 94 | 1021.0 |
| 20260906104045 | 11 | 123 | 1.6 | 3.2 | 0.00 | 0.00 | 0.00 | 94 | 1021.0 |
| 20260906104029 | 11 | 82 | 3.2 | 3.2 | 0.00 | 0.00 | 0.00 | 94 | 1021.0 |
| 20260906104024 | 11 | 108 | 1.6 | 3.2 | 0.00 | 0.00 | 0.00 | 94 | 1021.0 |
| 20260906104006 | 11 | 94 | 0.0 | 3.2 | 0.00 | 0.00 | 0.00 | 94 | 1021.0 |
| 20260906103941 | 11 | 94 | 0.0 | 3.2 | 0.00 | 0.00 | 0.00 | 94 | 1021.0 |
| 20260906103928 | 11 | 97 | 1.6 | 3.2 | 0.00 | 0.00 | 0.00 | 94 | 1021.0 |
| 20260906103909 | 11 | 75 | 1.6 | 3.2 | 0.00 | 0.00 | 0.00 | 94 | 1021.0 |
| 20260906103901 | 11 | 136 | 1.6 | 1.6 | 0.00 | 0.00 | 0.00 | 94 | 1021.0 |
| 20260906103854 | 11 | 136 | 1.6 | 1.6 | 0.00 | 0.00 | 0.00 | 94 | 1021.0 |
| 20260906103829 | 11 | 87 | 0.0 | 1.6 | 0.00 | 0.00 | 0.00 | 94 | 1021.0 |
| 20260906103815 | 11 | 102 | 0.0 | 1.6 | 0.00 | 0.00 | 0.00 | 94 | 1021.0 |
| 20260906103757 | 11 | 102 | 0.0 | 3.2 | 0.00 | 0.00 | 0.00 | 94 | 1021.0 |
| 20260906103751 | 11 | 128 | 0.0 | 3.2 | 0.00 | 0.00 | 0.00 | 94 | 1021.0 |
| 20260906103725 | 11 | 128 | 0.0 | 4.8 | 0.00 | 0.00 | 0.00 | 94 | 1021.0 |
| 20260906103709 | 11 | 124 | 0.0 | 4.8 | 0.00 | 0.00 | 0.00 | 94 | 1021.0 |
| 20260906103703 | 11 | 96 | 1.6 | 4.8 | 0.00 | 0.00 | 0.00 | 94 | 1021.0 |
| 20260906103639 | 11 | 95 | 1.6 | 4.8 | 0.00 | 0.00 | 0.00 | 94 | 1021.0 |
| 20260906103624 | 11 | 66 | 3.2 | 4.8 | 0.00 | 0.00 | 0.00 | 94 | 1021.0 |
| 20260906103608 | 11 | 82 | 3.2 | 4.8 | 0.00 | 0.00 | 0.00 | 94 | 1021.0 |
| 20260906103552 | 11 | 84 | 1.6 | 3.2 | 0.00 | 0.00 | 0.00 | 94 | 1021.0 |
| 20260906103533 | 11 | 93 | 1.6 | 3.2 | 0.00 | 0.00 | 0.00 | 94 | 1021.0 |
| 20260906103518 | 11 | 129 | 1.6 | 3.2 | 0.00 | 0.00 | 0.00 | 94 | 1021.0 |
| 20260906103501 | 11 | 100 | 1.6 | 3.2 | 0.00 | 0.00 | 0.00 | 94 | 1021.0 |
| 20260906103456 | 11 | 94 | 0.0 | 1.6 | 0.00 | 0.00 | 0.00 | 94 | 1021.0 |
| 20260906103424 | 11 | 118 | 0.0 | 0.0 | 0.00 | 0.00 | 0.00 | 94 | 1021.0 |
| 20260906103405 | 11 | 117 | 0.0 | 1.6 | 0.00 | 0.00 | 0.00 | 94 | 1021.0 |
| 20260906103333 | 11 | 117 | 0.0 | 1.6 | 0.00 | 0.00 | 0.00 | 94 | 1021.0 |
| 20260906103301 | 11 | 113 | 0.0 | 1.6 | 0.00 | 0.00 | 0.00 | 94 | 1021.0 |
| 20260906103245 | 11 | 113 | 0.0 | 1.6 | 0.00 | 0.00 | 0.00 | 94 | 1021.0 |
| 20260906103229 | 11 | 114 | 0.0 | 1.6 | 0.00 | 0.00 | 0.00 | 94 | 1021.0 |
| 20260906103213 | 11 | 116 | 0.0 | 1.6 | 0.00 | 0.00 | 0.00 | 94 | 1021.0 |
| 20260906103205 | 11 | 104 | 0.0 | 1.6 | 0.00 | 0.00 | 0.00 | 94 | 1021.0 |
| 20260906103157 | 11 | 104 | 0.0 | 1.6 | 0.00 | 0.00 | 0.00 | 94 | 1021.0 |
| 20260906103141 | 11 | 107 | 1.6 | 1.6 | 0.00 | 0.00 | 0.00 | 94 | 1021.0 |
| 20260906103125 | 11 | 141 | 1.6 | 1.6 | 0.00 | 0.00 | 0.00 | 94 | 1021.0 |
| 20260906103109 | 11 | 122 | 0.0 | 1.6 | 0.00 | 0.00 | 0.00 | 94 | 1021.0 |
| 20260906103101 | 11 | 102 | 0.0 | 1.6 | 0.00 | 0.00 | 0.00 | 94 | 1021.0 |
| 20260906103053 | 11 | 102 | 0.0 | 1.6 | 0.00 | 0.00 | 0.00 | 94 | 1021.0 |
| 20260906103037 | 11 | 96 | 1.6 | 1.6 | 0.00 | 0.00 | 0.00 | 94 | 1021.0 |
| 20260906103023 | 11 | 50 | 1.6 | 1.6 | 0.00 | 0.00 | 0.00 | 94 | 1021.0 |
| 20260906103006 | 11 | 69 | 1.6 | 3.2 | 0.00 | 0.00 | 0.00 | 94 | 1021.0 |
| 20260906102959 | 11 | 69 | 1.6 | 3.2 | 0.00 | 0.00 | 0.00 | 94 | 1021.0 |
| 20260906102941 | 11 | 111 | 0.0 | 3.2 | 0.00 | 0.00 | 0.00 | 94 | 1021.0 |
| 20260906102938 | 11 | 107 | 0.0 | 3.2 | 0.00 | 0.00 | 0.00 | 94 | 1021.0 |
| 20260906102909 | 11 | 112 | 0.0 | 3.2 | 0.00 | 0.00 | 0.00 | 94 | 1021.0 |
| 20260906102901 | 11 | 160 | 0.0 | 3.2 | 0.00 | 0.00 | 0.00 | 94 | 1021.0 |
| 20260906102853 | 11 | 160 | 0.0 | 3.2 | 0.00 | 0.00 | 0.00 | 94 | 1021.0 |
| 20260906102837 | 11 | 163 | 1.6 | 3.2 | 0.00 | 0.00 | 0.00 | 94 | 1021.0 |
| 20260906102821 | 11 | 94 | 3.2 | 3.2 | 0.00 | 0.00 | 0.00 | 94 | 1021.0 |
| 20260906102805 | 11 | 83 | 3.2 | 3.2 | 0.00 | 0.00 | 0.00 | 94 | 1021.0 |
| 20260906102749 | 11 | 77 | 1.6 | 3.2 | 0.00 | 0.00 | 0.00 | 94 | 1021.0 |
| 20260906102733 | 11 | 70 | 3.2 | 3.2 | 0.00 | 0.00 | 0.00 | 94 | 1021.0 |
| 20260906102719 | 11 | 96 | 1.6 | 3.2 | 0.00 | 0.00 | 0.00 | 94 | 1021.0 |
| 20260906102701 | 11 | 86 | 3.2 | 3.2 | 0.00 | 0.00 | 0.00 | 94 | 1021.0 |
| 20260906102645 | 11 | 88 | 1.6 | 1.6 | 0.00 | 0.00 | 0.00 | 94 | 1021.0 |
| 20260906102629 | 11 | 131 | 1.6 | 1.6 | 0.00 | 0.00 | 0.00 | 94 | 1021.0 |
| 20260906102613 | 11 | 105 | 0.0 | 1.6 | 0.00 | 0.00 | 0.00 | 94 | 1021.0 |
| 20260906102605 | 11 | 94 | 1.6 | 1.6 | 0.00 | 0.00 | 0.00 | 94 | 1021.0 |
| 20260906102557 | 11 | 94 | 1.6 | 1.6 | 0.00 | 0.00 | 0.00 | 94 | 1021.0 |
| 20260906102533 | 11 | 110 | 1.6 | 1.6 | 0.00 | 0.00 | 0.00 | 94 | 1021.0 |
| 20260906102517 | 11 | 78 | 1.6 | 1.6 | 0.00 | 0.00 | 0.00 | 94 | 1021.0 |
| 20260906102501 | 11 | 97 | 1.6 | 1.6 | 0.00 | 0.00 | 0.00 | 94 | 1021.0 |
| 20260906102457 | 11 | 105 | 1.6 | 1.6 | 0.00 | 0.00 | 0.00 | 94 | 1021.0 |
| 20260906102431 | 11 | 123 | 0.0 | 1.6 | 0.00 | 0.00 | 0.00 | 94 | 1021.0 |
| 20260906102416 | 11 | 100 | 1.6 | 1.6 | 0.00 | 0.00 | 0.00 | 94 | 1021.0 |
| 20260906102357 | 11 | 88 | 0.0 | 1.6 | 0.00 | 0.00 | 0.00 | 94 | 1021.0 |
| 20260906102341 | 11 | 85 | 0.0 | 0.0 | 0.00 | 0.00 | 0.00 | 94 | 1021.0 |
| 20260906102327 | 11 | 82 | 0.0 | 0.0 | 0.00 | 0.00 | 0.00 | 94 | 1021.0 |
| 20260906102309 | 11 | 74 | 0.0 | 0.0 | 0.00 | 0.00 | 0.00 | 94 | 1021.0 |
| 20260906102301 | 11 | 68 | 0.0 | 0.0 | 0.00 | 0.00 | 0.00 | 94 | 1021.0 |
| 20260906102237 | 11 | 68 | 0.0 | 0.0 | 0.00 | 0.00 | 0.00 | 94 | 1021.0 |
| 20260906102221 | 11 | 66 | 0.0 | 0.0 | 0.00 | 0.00 | 0.00 | 94 | 1021.0 |
| 20260906102215 | 11 | 56 | 0.0 | 0.0 | 0.00 | 0.00 | 0.00 | 94 | 1021.0 |
| 20260906102149 | 11 | 117 | 0.0 | 1.6 | 0.00 | 0.00 | 0.00 | 94 | 1021.0 |
| 20260906102117 | 11 | 91 | 0.0 | 1.6 | 0.00 | 0.00 | 0.00 | 94 | 1021.0 |
| 20260906102102 | 11 | 95 | 0.0 | 1.6 | 0.00 | 0.00 | 0.00 | 94 | 1021.0 |
| 20260906102053 | 11 | 95 | 0.0 | 1.6 | 0.00 | 0.00 | 0.00 | 94 | 1021.0 |
| 20260906102047 | 11 | 91 | 0.0 | 1.6 | 0.00 | 0.00 | 0.00 | 94 | 1021.0 |
| 20260906102021 | 11 | 77 | 0.0 | 1.6 | 0.00 | 0.00 | 0.00 | 94 | 1021.0 |
| 20260906102013 | 11 | 86 | 0.0 | 1.6 | 0.00 | 0.00 | 0.00 | 94 | 1021.0 |
| 20260906102005 | 11 | 86 | 0.0 | 3.2 | 0.00 | 0.00 | 0.00 | 94 | 1021.0 |
| 20260906101901 | 11 | 108 | 0.0 | 3.2 | 0.00 | 0.00 | 0.00 | 94 | 1021.0 |
| 20260906101845 | 11 | 108 | 0.0 | 3.2 | 0.00 | 0.00 | 0.00 | 94 | 1021.0 |
| 20260906101829 | 11 | 109 | 0.0 | 3.2 | 0.00 | 0.00 | 0.00 | 94 | 1021.0 |
| 20260906101813 | 11 | 99 | 1.6 | 3.2 | 0.00 | 0.00 | 0.00 | 94 | 1021.0 |
| 20260906101805 | 11 | 97 | 1.6 | 3.2 | 0.00 | 0.00 | 0.00 | 94 | 1021.0 |
| 20260906101757 | 11 | 97 | 1.6 | 3.2 | 0.00 | 0.00 | 0.00 | 94 | 1021.0 |
| 20260906101746 | 11 | 91 | 1.6 | 3.2 | 0.00 | 0.00 | 0.00 | 94 | 1021.0 |
| 20260906101709 | 11 | 93 | 0.0 | 1.6 | 0.00 | 0.00 | 0.00 | 94 | 1021.0 |
| 20260906101701 | 11 | 91 | 0.0 | 1.6 | 0.00 | 0.00 | 0.00 | 94 | 1021.0 |
| 20260906101645 | 11 | 91 | 0.0 | 1.6 | 0.00 | 0.00 | 0.00 | 94 | 1021.0 |
| 20260906101629 | 11 | 113 | 0.0 | 1.6 | 0.00 | 0.00 | 0.00 | 94 | 1021.0 |
| 20260906101614 | 11 | 115 | 0.0 | 1.6 | 0.00 | 0.00 | 0.00 | 94 | 1021.0 |
| 20260906101605 | 11 | 107 | 0.0 | 1.6 | 0.00 | 0.00 | 0.00 | 94 | 1021.0 |
| 20260906101556 | 11 | 107 | 0.0 | 1.6 | 0.00 | 0.00 | 0.00 | 94 | 1021.0 |
| 20260906101524 | 11 | 91 | 0.0 | 0.0 | 0.00 | 0.00 | 0.00 | 94 | 1021.0 |
| 20260906101501 | 11 | 92 | 0.0 | 0.0 | 0.00 | 0.00 | 0.00 | 94 | 1021.0 |
| 20260906101437 | 11 | 91 | 0.0 | 0.0 | 0.00 | 0.00 | 0.00 | 94 | 1021.0 |
| 20260906101405 | 11 | 92 | 0.0 | 0.0 | 0.00 | 0.00 | 0.00 | 94 | 1021.0 |
| 20260906101333 | 11 | 101 | 0.0 | 0.0 | 0.00 | 0.00 | 0.00 | 94 | 1021.0 |
| 20260906101317 | 11 | 81 | 0.0 | 0.0 | 0.00 | 0.00 | 0.00 | 93 | 1021.0 |
| 20260906101301 | 11 | 80 | 0.0 | 0.0 | 0.00 | 0.00 | 0.00 | 93 | 1021.0 |
| 20260906101208 | 11 | 80 | 0.0 | 0.0 | 0.00 | 0.00 | 0.00 | 93 | 1021.0 |
| 20260906101118 | 11 | 78 | 0.0 | 0.0 | 0.00 | 0.00 | 0.00 | 93 | 1021.0 |
| 20260906101102 | 11 | 58 | 0.0 | 0.0 | 0.00 | 0.00 | 0.00 | 93 | 1021.0 |
| 20260906101047 | 11 | 68 | 0.0 | 0.0 | 0.00 | 0.00 | 0.00 | 93 | 1021.0 |
| 20260906101013 | 11 | 52 | 0.0 | 0.0 | 0.00 | 0.00 | 0.00 | 93 | 1021.0 |
| 20260906101005 | 11 | 57 | 0.0 | 0.0 | 0.00 | 0.00 | 0.00 | 93 | 1021.0 |
| 20260906100958 | 11 | 57 | 0.0 | 0.0 | 0.00 | 0.00 | 0.00 | 93 | 1021.0 |
| 20260906100936 | 11 | 72 | 0.0 | 0.0 | 0.00 | 0.00 | 0.00 | 93 | 1021.0 |
| 20260906100901 | 11 | 59 | 0.0 | 0.0 | 0.00 | 0.00 | 0.00 | 93 | 1021.0 |
| 20260906100800 | 11 | 59 | 0.0 | 0.0 | 0.00 | 0.00 | 0.00 | 93 | 1021.0 |
| 20260906100741 | 11 | 59 | 0.0 | 0.0 | 0.00 | 0.00 | 0.00 | 93 | 1021.0 |
| 20260906100702 | 11 | 68 | 0.0 | 0.0 | 0.00 | 0.00 | 0.00 | 93 | 1021.0 |
| 20260906100653 | 11 | 68 | 0.0 | 0.0 | 0.00 | 0.00 | 0.00 | 93 | 1021.0 |
| 20260906100637 | 11 | 69 | 0.0 | 0.0 | 0.00 | 0.00 | 0.00 | 93 | 1021.0 |
| 20260906100623 | 11 | 71 | 0.0 | 0.0 | 0.00 | 0.00 | 0.00 | 93 | 1021.0 |
| 20260906100605 | 11 | 70 | 0.0 | 0.0 | 0.00 | 0.00 | 0.00 | 93 | 1021.0 |
| 20260906100559 | 11 | 59 | 0.0 | 0.0 | 0.00 | 0.00 | 0.00 | 93 | 1021.0 |
| 20260906100533 | 11 | 69 | 0.0 | 0.0 | 0.00 | 0.00 | 0.00 | 93 | 1021.0 |
| 20260906100501 | 11 | 82 | 0.0 | 0.0 | 0.00 | 0.00 | 0.00 | 93 | 1021.0 |
| 20260906100410 | 11 | 82 | 0.0 | 0.0 | 0.00 | 0.00 | 0.00 | 93 | 1021.0 |
| 20260906100301 | 11 | 82 | 0.0 | 0.0 | 0.00 | 0.00 | 0.00 | 93 | 1021.0 |
| 20260906100230 | 11 | 82 | 0.0 | 0.0 | 0.00 | 0.00 | 0.00 | 93 | 1021.0 |
| 20260906100213 | 11 | 83 | 0.0 | 0.0 | 0.00 | 0.00 | 0.00 | 93 | 1021.0 |
| 20260906100205 | 11 | 75 | 0.0 | 0.0 | 0.00 | 0.00 | 0.00 | 93 | 1021.0 |
| 20260906100141 | 11 | 75 | 0.0 | 0.0 | 0.00 | 0.00 | 0.00 | 93 | 1021.0 |
| 20260906100125 | 11 | 76 | 0.0 | 0.0 | 0.00 | 0.00 | 0.00 | 93 | 1021.0 |
| 20260906100112 | 11 | 113 | 0.0 | 0.0 | 0.00 | 0.00 | 0.00 | 93 | 1021.0 |
| 20260906100056 | 11 | 113 | 0.0 | 0.0 | 0.00 | 0.00 | 0.00 | 93 | 1021.0 |
| 20260906100005 | 11 | 113 | 0.0 | 0.0 | 0.00 | 0.00 | 0.00 | 93 | 1021.0 |
| 20260906095951 | 11 | 114 | 0.0 | 0.0 | 0.00 | 0.00 | 0.00 | 93 | 1021.0 |
| 20260906095936 | 11 | 79 | 0.0 | 0.0 | 0.00 | 0.00 | 0.00 | 93 | 1021.0 |
| 20260906095909 | 11 | 80 | 0.0 | 0.0 | 0.00 | 0.00 | 0.00 | 93 | 1021.0 |
| 20260906095901 | 11 | 92 | 0.0 | 0.0 | 0.00 | 0.00 | 0.00 | 93 | 1021.0 |
| 20260906095805 | 11 | 92 | 0.0 | 0.0 | 0.00 | 0.00 | 0.00 | 93 | 1021.0 |
| 20260906095749 | 11 | 108 | 0.0 | 0.0 | 0.00 | 0.00 | 0.00 | 93 | 1021.0 |
| 20260906095741 | 11 | 85 | 0.0 | 0.0 | 0.00 | 0.00 | 0.00 | 93 | 1021.0 |
| 20260906095727 | 11 | 85 | 0.0 | 1.6 | 0.00 | 0.00 | 0.00 | 93 | 1021.0 |
| 20260906095710 | 11 | 86 | 0.0 | 1.6 | 0.00 | 0.00 | 0.00 | 93 | 1021.0 |
| 20260906095701 | 11 | 86 | 0.0 | 3.2 | 0.00 | 0.00 | 0.00 | 93 | 1021.0 |
| 20260906095645 | 11 | 76 | 0.0 | 3.2 | 0.00 | 0.00 | 0.00 | 93 | 1021.0 |
| 20260906095629 | 11 | 74 | 0.0 | 3.2 | 0.00 | 0.00 | 0.00 | 93 | 1021.0 |
| 20260906095616 | 11 | 57 | 0.0 | 3.2 | 0.00 | 0.00 | 0.00 | 93 | 1021.0 |
| 20260906095557 | 11 | 51 | 1.6 | 3.2 | 0.00 | 0.00 | 0.00 | 93 | 1021.0 |
| 20260906095552 | 11 | 70 | 1.6 | 3.2 | 0.00 | 0.00 | 0.00 | 93 | 1021.0 |
| 20260906095525 | 11 | 113 | 1.6 | 3.2 | 0.00 | 0.00 | 0.00 | 93 | 1021.0 |
| 20260906095520 | 11 | 73 | 1.6 | 1.6 | 0.00 | 0.00 | 0.00 | 93 | 1021.0 |
| 20260906095501 | 11 | 119 | 0.0 | 1.6 | 0.00 | 0.00 | 0.00 | 93 | 1020.0 |
| 20260906095429 | 11 | 119 | 0.0 | 1.6 | 0.00 | 0.00 | 0.00 | 93 | 1020.0 |
| 20260906095413 | 11 | 91 | 0.0 | 1.6 | 0.00 | 0.00 | 0.00 | 93 | 1020.0 |
| 20260906095405 | 11 | 90 | 0.0 | 1.6 | 0.00 | 0.00 | 0.00 | 93 | 1021.0 |
| 20260906095357 | 11 | 90 | 0.0 | 1.6 | 0.00 | 0.00 | 0.00 | 93 | 1021.0 |
| 20260906095341 | 11 | 103 | 0.0 | 1.6 | 0.00 | 0.00 | 0.00 | 93 | 1021.0 |
| 20260906095325 | 11 | 118 | 0.0 | 1.6 | 0.00 | 0.00 | 0.00 | 93 | 1021.0 |
| 20260906095322 | 11 | 104 | 1.6 | 1.6 | 0.00 | 0.00 | 0.00 | 93 | 1021.0 |
| 20260906095255 | 11 | 112 | 0.0 | 0.0 | 0.00 | 0.00 | 0.00 | 93 | 1021.0 |
| 20260906095237 | 11 | 75 | 0.0 | 0.0 | 0.00 | 0.00 | 0.00 | 93 | 1021.0 |
| 20260906095208 | 11 | 95 | 0.0 | 0.0 | 0.00 | 0.00 | 0.00 | 93 | 1021.0 |
| 20260906095149 | 11 | 95 | 0.0 | 0.0 | 0.00 | 0.00 | 0.00 | 93 | 1021.0 |
| 20260906095117 | 11 | 104 | 0.0 | 0.0 | 0.00 | 0.00 | 0.00 | 93 | 1021.0 |
| 20260906095101 | 11 | 107 | 0.0 | 0.0 | 0.00 | 0.00 | 0.00 | 93 | 1021.0 |
| 20260906095016 | 11 | 107 | 0.0 | 0.0 | 0.00 | 0.00 | 0.00 | 93 | 1021.0 |
| 20260906094909 | 11 | 107 | 0.0 | 0.0 | 0.00 | 0.00 | 0.00 | 93 | 1021.0 |
| 20260906094901 | 11 | 107 | 0.0 | 0.0 | 0.00 | 0.00 | 0.00 | 93 | 1020.0 |
| 20260906094823 | 11 | 107 | 0.0 | 0.0 | 0.00 | 0.00 | 0.00 | 93 | 1020.0 |
| 20260906094805 | 11 | 107 | 0.0 | 0.0 | 0.00 | 0.00 | 0.00 | 93 | 1021.0 |
| 20260906094701 | 11 | 107 | 0.0 | 0.0 | 0.00 | 0.00 | 0.00 | 93 | 1021.0 |
| 20260906094605 | 11 | 107 | 0.0 | 0.0 | 0.00 | 0.00 | 0.00 | 93 | 1021.0 |
| 20260906094503 | 11 | 107 | 0.0 | 0.0 | 0.00 | 0.00 | 0.00 | 93 | 1021.0 |
| 20260906094409 | 11 | 107 | 0.0 | 0.0 | 0.00 | 0.00 | 0.00 | 93 | 1021.0 |
| 20260906094312 | 11 | 107 | 0.0 | 0.0 | 0.00 | 0.00 | 0.00 | 93 | 1021.0 |
| 20260906094230 | 11 | 109 | 0.0 | 0.0 | 0.00 | 0.00 | 0.00 | 93 | 1021.0 |
| 20260906094205 | 11 | 110 | 0.0 | 0.0 | 0.00 | 0.00 | 0.00 | 93 | 1021.0 |
| 20260906094159 | 11 | 110 | 0.0 | 0.0 | 0.00 | 0.00 | 0.00 | 93 | 1021.0 |
| 20260906094144 | 11 | 113 | 0.0 | 0.0 | 0.00 | 0.00 | 0.00 | 93 | 1021.0 |
| 20260906094117 | 11 | 128 | 0.0 | 0.0 | 0.00 | 0.00 | 0.00 | 93 | 1021.0 |
| 20260906094111 | 11 | 129 | 0.0 | 0.0 | 0.00 | 0.00 | 0.00 | 93 | 1021.0 |
| 20260906094005 | 11 | 129 | 0.0 | 1.6 | 0.00 | 0.00 | 0.00 | 93 | 1021.0 |
| 20260906093941 | 11 | 129 | 0.0 | 1.6 | 0.00 | 0.00 | 0.00 | 93 | 1021.0 |
| 20260906093925 | 11 | 117 | 0.0 | 1.6 | 0.00 | 0.00 | 0.00 | 93 | 1021.0 |
| 20260906093909 | 11 | 127 | 0.0 | 1.6 | 0.00 | 0.00 | 0.00 | 93 | 1021.0 |
| 20260906093901 | 11 | 131 | 0.0 | 1.6 | 0.00 | 0.00 | 0.00 | 93 | 1021.0 |
| 20260906093821 | 11 | 131 | 0.0 | 1.6 | 0.00 | 0.00 | 0.00 | 93 | 1021.0 |
| 20260906093807 | 11 | 130 | 1.6 | 1.6 | 0.00 | 0.00 | 0.00 | 92 | 1021.0 |
| 20260906093749 | 11 | 120 | 0.0 | 1.6 | 0.00 | 0.00 | 0.00 | 92 | 1021.0 |
| 20260906093733 | 11 | 126 | 0.0 | 1.6 | 0.00 | 0.00 | 0.00 | 92 | 1021.0 |
| 20260906093717 | 11 | 103 | 0.0 | 0.0 | 0.00 | 0.00 | 0.00 | 92 | 1021.0 |
| 20260906093701 | 11 | 98 | 0.0 | 0.0 | 0.00 | 0.00 | 0.00 | 92 | 1021.0 |
| 20260906093654 | 11 | 98 | 0.0 | 0.0 | 0.00 | 0.00 | 0.00 | 92 | 1021.0 |
| 20260906093606 | 11 | 97 | 0.0 | 0.0 | 0.00 | 0.00 | 0.00 | 92 | 1021.0 |
| 20260906093512 | 11 | 97 | 0.0 | 0.0 | 0.00 | 0.00 | 0.00 | 92 | 1021.0 |
| 20260906093437 | 11 | 97 | 0.0 | 0.0 | 0.00 | 0.00 | 0.00 | 92 | 1021.0 |
| 20260906093359 | 11 | 97 | 0.0 | 0.0 | 0.00 | 0.00 | 0.00 | 92 | 1021.0 |
| 20260906093312 | 11 | 97 | 0.0 | 0.0 | 0.00 | 0.00 | 0.00 | 92 | 1021.0 |
| 20260906093253 | 11 | 97 | 0.0 | 0.0 | 0.00 | 0.00 | 0.00 | 92 | 1021.0 |
| 20260906093205 | 11 | 104 | 0.0 | 0.0 | 0.00 | 0.00 | 0.00 | 92 | 1021.0 |
| 20260906093142 | 11 | 104 | 0.0 | 0.0 | 0.00 | 0.00 | 0.00 | 92 | 1021.0 |
| 20260906093104 | 11 | 104 | 0.0 | 0.0 | 0.00 | 0.00 | 0.00 | 92 | 1021.0 |
| 20260906093005 | 11 | 106 | 0.0 | 0.0 | 0.00 | 0.00 | 0.00 | 92 | 1021.0 |
| 20260906092901 | 11 | 106 | 0.0 | 0.0 | 0.00 | 0.00 | 0.00 | 92 | 1021.0 |
| 20260906092845 | 11 | 114 | 0.0 | 0.0 | 0.00 | 0.00 | 0.00 | 92 | 1021.0 |
| 20260906092838 | 11 | 115 | 0.0 | 0.0 | 0.00 | 0.00 | 0.00 | 92 | 1021.0 |
| 20260906092818 | 11 | 115 | 0.0 | 1.6 | 0.00 | 0.00 | 0.00 | 92 | 1021.0 |
| 20260906092701 | 11 | 115 | 0.0 | 1.6 | 0.00 | 0.00 | 0.00 | 92 | 1021.0 |
| 20260906092656 | 11 | 115 | 0.0 | 1.6 | 0.00 | 0.00 | 0.00 | 92 | 1021.0 |
| 20260906092604 | 11 | 120 | 0.0 | 1.6 | 0.00 | 0.00 | 0.00 | 92 | 1021.0 |
| 20260906092557 | 11 | 120 | 0.0 | 1.6 | 0.00 | 0.00 | 0.00 | 92 | 1021.0 |
| 20260906092552 | 11 | 122 | 1.6 | 1.6 | 0.00 | 0.00 | 0.00 | 92 | 1021.0 |
| 20260906092525 | 11 | 130 | 1.6 | 3.2 | 0.00 | 0.00 | 0.00 | 92 | 1021.0 |
| 20260906092500 | 11 | 133 | 0.0 | 3.2 | 0.00 | 0.00 | 0.00 | 92 | 1021.0 |
| 20260906092453 | 11 | 133 | 0.0 | 3.2 | 0.00 | 0.00 | 0.00 | 92 | 1021.0 |
| 20260906092421 | 11 | 138 | 0.0 | 3.2 | 0.00 | 0.00 | 0.00 | 92 | 1021.0 |
| 20260906092405 | 11 | 127 | 1.6 | 3.2 | 0.00 | 0.00 | 0.00 | 92 | 1021.0 |
| 20260906092341 | 11 | 134 | 1.6 | 1.6 | 0.00 | 0.00 | 0.00 | 92 | 1021.0 |
| 20260906092325 | 11 | 117 | 0.0 | 0.0 | 0.00 | 0.00 | 0.00 | 92 | 1021.0 |
| 20260906092310 | 11 | 122 | 0.0 | 0.0 | 0.00 | 0.00 | 0.00 | 92 | 1021.0 |
| 20260906092301 | 11 | 160 | 0.0 | 0.0 | 0.00 | 0.00 | 0.00 | 92 | 1021.0 |
| 20260906092253 | 11 | 160 | 0.0 | 0.0 | 0.00 | 0.00 | 0.00 | 92 | 1021.0 |
| 20260906092250 | 11 | 132 | 0.0 | 0.0 | 0.00 | 0.00 | 0.00 | 92 | 1021.0 |
| 20260906092221 | 11 | 98 | 0.0 | 0.0 | 0.00 | 0.00 | 0.00 | 92 | 1021.0 |
| 20260906092207 | 11 | 68 | 0.0 | 0.0 | 0.00 | 0.00 | 0.00 | 92 | 1021.0 |
| 20260906092151 | 11 | 68 | 0.0 | 0.0 | 0.00 | 0.00 | 0.00 | 92 | 1021.0 |
| 20260906092134 | 11 | 77 | 0.0 | 0.0 | 0.00 | 0.00 | 0.00 | 92 | 1021.0 |
| 20260906092116 | 11 | 125 | 0.0 | 0.0 | 0.00 | 0.00 | 0.00 | 92 | 1021.0 |
| 20260906092100 | 11 | 135 | 0.0 | 0.0 | 0.00 | 0.00 | 0.00 | 92 | 1021.0 |
| 20260906092055 | 11 | 150 | 0.0 | 0.0 | 0.00 | 0.00 | 0.00 | 92 | 1021.0 |
| 20260906092029 | 11 | 105 | 0.0 | 0.0 | 0.00 | 0.00 | 0.00 | 92 | 1021.0 |
| 20260906092013 | 11 | 115 | 0.0 | 0.0 | 0.00 | 0.00 | 0.00 | 92 | 1021.0 |
| 20260906092005 | 11 | 129 | 0.0 | 0.0 | 0.00 | 0.00 | 0.00 | 92 | 1021.0 |
| 20260906091959 | 11 | 129 | 0.0 | 0.0 | 0.00 | 0.00 | 0.00 | 92 | 1021.0 |
| 20260906091940 | 11 | 109 | 0.0 | 0.0 | 0.00 | 0.00 | 0.00 | 92 | 1021.0 |
| 20260906091917 | 11 | 104 | 0.0 | 0.0 | 0.00 | 0.00 | 0.00 | 92 | 1021.0 |
| 20260906091909 | 11 | 103 | 0.0 | 0.0 | 0.00 | 0.00 | 0.00 | 92 | 1021.0 |
| 20260906091901 | 11 | 103 | 0.0 | 0.0 | 0.00 | 0.00 | 0.00 | 91 | 1021.0 |
| 20260906091829 | 11 | 103 | 0.0 | 0.0 | 0.00 | 0.00 | 0.00 | 91 | 1021.0 |
| 20260906091813 | 11 | 115 | 0.0 | 0.0 | 0.00 | 0.00 | 0.00 | 91 | 1021.0 |
| 20260906091806 | 11 | 88 | 0.0 | 0.0 | 0.00 | 0.00 | 0.00 | 91 | 1021.0 |
| 20260906091742 | 11 | 88 | 0.0 | 0.0 | 0.00 | 0.00 | 0.00 | 91 | 1021.0 |
| 20260906091726 | 11 | 89 | 0.0 | 0.0 | 0.00 | 0.00 | 0.00 | 91 | 1021.0 |
| 20260906091709 | 11 | 96 | 0.0 | 0.0 | 0.00 | 0.00 | 0.00 | 91 | 1021.0 |
| 20260906091657 | 11 | 73 | 0.0 | 0.0 | 0.00 | 0.00 | 0.00 | 91 | 1021.0 |
| 20260906091604 | 11 | 79 | 0.0 | 0.0 | 0.00 | 0.00 | 0.00 | 91 | 1021.0 |
| 20260906091532 | 11 | 88 | 0.0 | 0.0 | 0.00 | 0.00 | 0.00 | 91 | 1021.0 |
| 20260906091510 | 11 | 78 | 0.0 | 0.0 | 0.00 | 0.00 | 0.00 | 91 | 1021.0 |
| 20260906091503 | 11 | 70 | 0.0 | 0.0 | 0.00 | 0.00 | 0.00 | 91 | 1021.0 |
| 20260906091454 | 11 | 70 | 0.0 | 0.0 | 0.00 | 0.00 | 0.00 | 91 | 1021.0 |
| 20260906091438 | 11 | 108 | 0.0 | 0.0 | 0.00 | 0.00 | 0.00 | 91 | 1021.0 |
| 20260906091405 | 11 | 109 | 0.0 | 0.0 | 0.00 | 0.00 | 0.00 | 91 | 1021.0 |
| 20260906091349 | 11 | 108 | 0.0 | 0.0 | 0.00 | 0.00 | 0.00 | 91 | 1021.0 |
| 20260906091302 | 11 | 109 | 0.0 | 0.0 | 0.00 | 0.00 | 0.00 | 91 | 1021.0 |
| 20260906091229 | 11 | 108 | 0.0 | 0.0 | 0.00 | 0.00 | 0.00 | 91 | 1021.0 |
| 20260906091206 | 11 | 109 | 0.0 | 0.0 | 0.00 | 0.00 | 0.00 | 91 | 1021.0 |
| 20260906091112 | 11 | 109 | 0.0 | 0.0 | 0.00 | 0.00 | 0.00 | 91 | 1021.0 |
| 20260906091005 | 11 | 109 | 0.0 | 0.0 | 0.00 | 0.00 | 0.00 | 91 | 1021.0 |
| 20260906090901 | 11 | 109 | 0.0 | 0.0 | 0.00 | 0.00 | 0.00 | 91 | 1021.0 |
| 20260906090837 | 11 | 109 | 0.0 | 0.0 | 0.00 | 0.00 | 0.00 | 91 | 1021.0 |
| 20260906090826 | 11 | 117 | 0.0 | 0.0 | 0.00 | 0.00 | 0.00 | 91 | 1021.0 |
| 20260906090701 | 11 | 117 | 0.0 | 0.0 | 0.00 | 0.00 | 0.00 | 91 | 1021.0 |
| 20260906090647 | 11 | 117 | 0.0 | 0.0 | 0.00 | 0.00 | 0.00 | 91 | 1021.0 |
| 20260906090605 | 11 | 120 | 0.0 | 0.0 | 0.00 | 0.00 | 0.00 | 91 | 1021.0 |
| 20260906090550 | 11 | 120 | 0.0 | 0.0 | 0.00 | 0.00 | 0.00 | 91 | 1021.0 |
| 20260906090517 | 11 | 121 | 0.0 | 0.0 | 0.00 | 0.00 | 0.00 | 91 | 1021.0 |
| 20260906090504 | 11 | 135 | 0.0 | 0.0 | 0.00 | 0.00 | 0.00 | 91 | 1021.0 |
| 20260906090446 | 11 | 106 | 0.0 | 0.0 | 0.00 | 0.00 | 0.00 | 91 | 1021.0 |
| 20260906090415 | 11 | 107 | 0.0 | 0.0 | 0.00 | 0.00 | 0.00 | 91 | 1021.0 |
| 20260906090342 | 11 | 107 | 0.0 | 0.0 | 0.00 | 0.00 | 0.00 | 90 | 1021.0 |
| 20260906090302 | 11 | 106 | 0.0 | 0.0 | 0.00 | 0.00 | 0.00 | 90 | 1021.0 |
| 20260906090221 | 11 | 106 | 0.0 | 0.0 | 0.00 | 0.00 | 0.00 | 90 | 1021.0 |
| 20260906090209 | 11 | 107 | 0.0 | 0.0 | 0.00 | 0.00 | 0.00 | 90 | 1021.0 |
| 20260906090127 | 11 | 106 | 0.0 | 0.0 | 0.00 | 0.00 | 0.00 | 90 | 1021.0 |
| 20260906090104 | 11 | 107 | 0.0 | 0.0 | 0.00 | 0.00 | 0.00 | 90 | 1021.0 |
| 20260906090029 | 11 | 107 | 0.0 | 0.0 | 0.00 | 0.00 | 0.00 | 90 | 1021.0 |
| 20260906090015 | 11 | 106 | 0.0 | 0.0 | 0.00 | 0.00 | 0.00 | 90 | 1021.0 |
| 20260906085949 | 11 | 98 | 0.0 | 0.0 | 0.00 | 0.00 | 0.00 | 90 | 1021.0 |
| 20260906085933 | 11 | 119 | 0.0 | 0.0 | 0.00 | 0.00 | 0.00 | 90 | 1021.0 |
| 20260906085901 | 11 | 125 | 0.0 | 0.0 | 0.00 | 0.00 | 0.00 | 90 | 1021.0 |
| 20260906085829 | 11 | 132 | 0.0 | 0.0 | 0.00 | 0.00 | 0.00 | 90 | 1021.0 |
| 20260906085815 | 11 | 138 | 0.0 | 0.0 | 0.00 | 0.00 | 0.00 | 90 | 1021.0 |
| 20260906085757 | 11 | 136 | 0.0 | 0.0 | 0.00 | 0.00 | 0.00 | 90 | 1021.0 |
| 20260906085728 | 11 | 99 | 0.0 | 0.0 | 0.00 | 0.00 | 0.00 | 90 | 1021.0 |
| 20260906085703 | 11 | 100 | 0.0 | 0.0 | 0.00 | 0.00 | 0.00 | 90 | 1021.0 |
| 20260906085645 | 11 | 100 | 0.0 | 0.0 | 0.00 | 0.00 | 0.00 | 90 | 1021.0 |
| 20260906085632 | 11 | 100 | 0.0 | 0.0 | 0.00 | 0.00 | 0.00 | 89 | 1021.0 |
| 20260906085616 | 11 | 75 | 0.0 | 0.0 | 0.00 | 0.00 | 0.00 | 89 | 1021.0 |
| 20260906085557 | 11 | 66 | 0.0 | 0.0 | 0.00 | 0.00 | 0.00 | 89 | 1021.0 |
| 20260906085535 | 11 | 114 | 0.0 | 0.0 | 0.00 | 0.00 | 0.00 | 89 | 1021.0 |
| 20260906085509 | 11 | 163 | 0.0 | 0.0 | 0.00 | 0.00 | 0.00 | 89 | 1021.0 |
| 20260906085501 | 11 | 133 | 0.0 | 0.0 | 0.00 | 0.00 | 0.00 | 89 | 1021.0 |
| 20260906085453 | 11 | 133 | 0.0 | 0.0 | 0.00 | 0.00 | 0.00 | 89 | 1021.0 |
| 20260906085437 | 11 | 134 | 0.0 | 0.0 | 0.00 | 0.00 | 0.00 | 89 | 1021.0 |
| 20260906085405 | 11 | 134 | 0.0 | 0.0 | 0.00 | 0.00 | 0.00 | 89 | 1021.0 |
| 20260906085349 | 11 | 147 | 0.0 | 0.0 | 0.00 | 0.00 | 0.00 | 89 | 1021.0 |
| 20260906085333 | 11 | 141 | 0.0 | 0.0 | 0.00 | 0.00 | 0.00 | 89 | 1021.0 |
| 20260906085317 | 11 | 132 | 0.0 | 0.0 | 0.00 | 0.00 | 0.00 | 89 | 1021.0 |
| 20260906085301 | 11 | 119 | 0.0 | 0.0 | 0.00 | 0.00 | 0.00 | 89 | 1021.0 |
| 20260906085237 | 11 | 119 | 0.0 | 0.0 | 0.00 | 0.00 | 0.00 | 89 | 1021.0 |
| 20260906085221 | 11 | 130 | 0.0 | 0.0 | 0.00 | 0.00 | 0.00 | 89 | 1021.0 |
| 20260906085216 | 11 | 142 | 0.0 | 0.0 | 0.00 | 0.00 | 0.00 | 89 | 1021.0 |
| 20260906085133 | 11 | 146 | 0.0 | 0.0 | 0.00 | 0.00 | 0.00 | 89 | 1021.0 |
| 20260906085125 | 11 | 131 | 0.0 | 0.0 | 0.00 | 0.00 | 0.00 | 89 | 1021.0 |
| 20260906085117 | 12 | 131 | 0.0 | 0.0 | 0.00 | 0.00 | 0.00 | 89 | 1021.0 |
| 20260906085102 | 12 | 123 | 0.0 | 0.0 | 0.00 | 0.00 | 0.00 | 89 | 1021.0 |
| 20260906085045 | 12 | 112 | 0.0 | 0.0 | 0.00 | 0.00 | 0.00 | 89 | 1021.0 |
| 20260906085013 | 12 | 113 | 0.0 | 0.0 | 0.00 | 0.00 | 0.00 | 89 | 1021.0 |
| 20260906085009 | 12 | 113 | 0.0 | 1.6 | 0.00 | 0.00 | 0.00 | 89 | 1021.0 |
| 20260906084951 | 12 | 116 | 0.0 | 1.6 | 0.00 | 0.00 | 0.00 | 89 | 1021.0 |
| 20260906084925 | 12 | 133 | 0.0 | 1.6 | 0.00 | 0.00 | 0.00 | 89 | 1021.0 |
| 20260906084909 | 12 | 124 | 0.0 | 1.6 | 0.00 | 0.00 | 0.00 | 89 | 1021.0 |
| 20260906084904 | 12 | 117 | 0.0 | 1.6 | 0.00 | 0.00 | 0.00 | 89 | 1021.0 |
| 20260906084842 | 12 | 131 | 1.6 | 1.6 | 0.00 | 0.00 | 0.00 | 89 | 1021.0 |
| 20260906084813 | 12 | 138 | 0.0 | 1.6 | 0.00 | 0.00 | 0.00 | 89 | 1021.0 |
| 20260906084805 | 12 | 119 | 0.0 | 1.6 | 0.00 | 0.00 | 0.00 | 89 | 1021.0 |
| 20260906084757 | 12 | 119 | 0.0 | 1.6 | 0.00 | 0.00 | 0.00 | 89 | 1021.0 |
| 20260906084741 | 12 | 116 | 0.0 | 1.6 | 0.00 | 0.00 | 0.00 | 89 | 1021.0 |
| 20260906084725 | 12 | 115 | 1.6 | 1.6 | 0.00 | 0.00 | 0.00 | 89 | 1021.0 |
| 20260906084709 | 12 | 118 | 0.0 | 1.6 | 0.00 | 0.00 | 0.00 | 89 | 1021.0 |
| 20260906084705 | 12 | 119 | 0.0 | 1.6 | 0.00 | 0.00 | 0.00 | 89 | 1021.0 |
| 20260906084639 | 12 | 121 | 1.6 | 1.6 | 0.00 | 0.00 | 0.00 | 89 | 1021.0 |
| 20260906084621 | 12 | 133 | 1.6 | 1.6 | 0.00 | 0.00 | 0.00 | 89 | 1021.0 |
| 20260906084605 | 12 | 224 | 0.0 | 1.6 | 0.00 | 0.00 | 0.00 | 89 | 1021.0 |
| 20260906084602 | 12 | 9 | 1.6 | 1.6 | 0.00 | 0.00 | 0.00 | 88 | 1021.0 |
| 20260906084533 | 12 | 136 | 0.0 | 1.6 | 0.00 | 0.00 | 0.00 | 88 | 1021.0 |
| 20260906084519 | 12 | 133 | 0.0 | 1.6 | 0.00 | 0.00 | 0.00 | 88 | 1021.0 |
| 20260906084501 | 12 | 133 | 0.0 | 6.4 | 0.00 | 0.00 | 0.00 | 88 | 1021.0 |
| 20260906084445 | 12 | 134 | 1.6 | 6.4 | 0.00 | 0.00 | 0.00 | 88 | 1021.0 |
| 20260906084439 | 12 | 97 | 0.0 | 6.4 | 0.00 | 0.00 | 0.00 | 88 | 1021.0 |
| 20260906084405 | 12 | 66 | 0.0 | 6.4 | 0.00 | 0.00 | 0.00 | 88 | 1021.0 |
| 20260906084349 | 12 | 44 | 1.6 | 6.4 | 0.00 | 0.00 | 0.00 | 88 | 1021.0 |
| 20260906084333 | 12 | 123 | 1.6 | 6.4 | 0.00 | 0.00 | 0.00 | 88 | 1021.0 |
| 20260906084317 | 12 | 157 | 4.8 | 6.4 | 0.00 | 0.00 | 0.00 | 88 | 1021.0 |
| 20260906084309 | 12 | 138 | 3.2 | 3.2 | 0.00 | 0.00 | 0.00 | 88 | 1021.0 |
| 20260906084301 | 12 | 138 | 3.2 | 4.8 | 0.00 | 0.00 | 0.00 | 88 | 1021.0 |
| 20260906084248 | 12 | 144 | 1.6 | 4.8 | 0.00 | 0.00 | 0.00 | 88 | 1021.0 |
| 20260906084231 | 12 | 133 | 1.6 | 4.8 | 0.00 | 0.00 | 0.00 | 88 | 1021.0 |
| 20260906084213 | 12 | 102 | 0.0 | 4.8 | 0.00 | 0.00 | 0.00 | 88 | 1021.0 |
| 20260906084202 | 12 | 83 | 0.0 | 4.8 | 0.00 | 0.00 | 0.00 | 88 | 1021.0 |
| 20260906084125 | 12 | 175 | 3.2 | 4.8 | 0.00 | 0.00 | 0.00 | 88 | 1021.0 |
| 20260906084109 | 12 | 156 | 4.8 | 4.8 | 0.00 | 0.00 | 0.00 | 88 | 1021.0 |
| 20260906084101 | 12 | 130 | 1.6 | 4.8 | 0.00 | 0.00 | 0.00 | 88 | 1022.0 |
| 20260906084053 | 12 | 130 | 1.6 | 4.8 | 0.00 | 0.00 | 0.00 | 88 | 1022.0 |
| 20260906084048 | 12 | 129 | 1.6 | 4.8 | 0.00 | 0.00 | 0.00 | 88 | 1022.0 |
| 20260906084023 | 12 | 127 | 1.6 | 4.8 | 0.00 | 0.00 | 0.00 | 88 | 1022.0 |
| 20260906084005 | 12 | 127 | 0.0 | 4.8 | 0.00 | 0.00 | 0.00 | 88 | 1022.0 |
| 20260906083953 | 12 | 127 | 3.2 | 4.8 | 0.00 | 0.00 | 0.00 | 88 | 1022.0 |
| 20260906083925 | 12 | 120 | 3.2 | 4.8 | 0.00 | 0.00 | 0.00 | 88 | 1022.0 |
| 20260906083908 | 12 | 63 | 1.6 | 4.8 | 0.00 | 0.00 | 0.00 | 88 | 1022.0 |
| 20260906083903 | 12 | 258 | 3.2 | 4.8 | 0.00 | 0.00 | 0.00 | 88 | 1022.0 |
| 20260906083837 | 12 | 119 | 1.6 | 3.2 | 0.00 | 0.00 | 0.00 | 88 | 1022.0 |
| 20260906083821 | 12 | 126 | 3.2 | 3.2 | 0.00 | 0.00 | 0.00 | 88 | 1022.0 |
| 20260906083805 | 12 | 165 | 1.6 | 1.6 | 0.00 | 0.00 | 0.00 | 88 | 1022.0 |
| 20260906083750 | 12 | 159 | 0.0 | 1.6 | 0.00 | 0.00 | 0.00 | 88 | 1022.0 |
| 20260906083741 | 12 | 142 | 1.6 | 1.6 | 0.00 | 0.00 | 0.00 | 88 | 1022.0 |
| 20260906083733 | 12 | 142 | 1.6 | 3.2 | 0.00 | 0.00 | 0.00 | 88 | 1022.0 |
| 20260906083728 | 12 | 103 | 1.6 | 3.2 | 0.00 | 0.00 | 0.00 | 88 | 1022.0 |
| 20260906083701 | 12 | 107 | 0.0 | 3.2 | 0.00 | 0.00 | 0.00 | 88 | 1022.0 |
| 20260906083629 | 12 | 121 | 0.0 | 3.2 | 0.00 | 0.00 | 0.00 | 88 | 1022.0 |
| 20260906083614 | 12 | 127 | 1.6 | 3.2 | 0.00 | 0.00 | 0.00 | 88 | 1022.0 |
| 20260906083601 | 12 | 146 | 1.6 | 3.2 | 0.00 | 0.00 | 0.00 | 88 | 1022.0 |
| 20260906083525 | 12 | 108 | 1.6 | 3.2 | 0.00 | 0.00 | 0.00 | 88 | 1022.0 |
| 20260906083517 | 12 | 108 | 1.6 | 3.2 | 0.00 | 0.00 | 0.00 | 87 | 1022.0 |
| 20260906083510 | 12 | 118 | 3.2 | 3.2 | 0.00 | 0.00 | 0.00 | 87 | 1022.0 |
| 20260906083501 | 12 | 118 | 3.2 | 3.2 | 0.00 | 0.00 | 0.00 | 87 | 1021.0 |
| 20260906083455 | 12 | 144 | 0.0 | 1.6 | 0.00 | 0.00 | 0.00 | 87 | 1021.0 |
| 20260906083439 | 12 | 97 | 0.0 | 0.0 | 0.00 | 0.00 | 0.00 | 87 | 1021.0 |
| 20260906083413 | 12 | 97 | 0.0 | 1.6 | 0.00 | 0.00 | 0.00 | 87 | 1021.0 |
| 20260906083405 | 12 | 97 | 0.0 | 1.6 | 0.00 | 0.00 | 0.00 | 87 | 1022.0 |
| 20260906083335 | 12 | 97 | 0.0 | 1.6 | 0.00 | 0.00 | 0.00 | 87 | 1022.0 |
| 20260906083309 | 12 | 97 | 1.6 | 1.6 | 0.00 | 0.00 | 0.00 | 87 | 1022.0 |
| 20260906083301 | 12 | 133 | 0.0 | 1.6 | 0.00 | 0.00 | 0.00 | 87 | 1021.0 |
| 20260906083253 | 12 | 133 | 0.0 | 1.6 | 0.00 | 0.00 | 0.00 | 87 | 1021.0 |
| 20260906083249 | 12 | 123 | 1.6 | 1.6 | 0.00 | 0.00 | 0.00 | 87 | 1021.0 |
| 20260906083221 | 12 | 134 | 1.6 | 1.6 | 0.00 | 0.00 | 0.00 | 87 | 1021.0 |
| 20260906083205 | 12 | 140 | 1.6 | 1.6 | 0.00 | 0.00 | 0.00 | 87 | 1021.0 |
| 20260906083149 | 12 | 109 | 0.0 | 1.6 | 0.00 | 0.00 | 0.00 | 87 | 1021.0 |
| 20260906083144 | 12 | 142 | 0.0 | 1.6 | 0.00 | 0.00 | 0.00 | 87 | 1021.0 |
| 20260906083117 | 12 | 122 | 0.0 | 1.6 | 0.00 | 0.00 | 0.00 | 87 | 1021.0 |
| 20260906083109 | 12 | 139 | 0.0 | 1.6 | 0.00 | 0.00 | 0.00 | 87 | 1021.0 |
| 20260906083104 | 12 | 139 | 0.0 | 1.6 | 0.00 | 0.00 | 0.00 | 87 | 1022.0 |
| 20260906083036 | 12 | 126 | 1.6 | 1.6 | 0.00 | 0.00 | 0.00 | 87 | 1022.0 |
| 20260906083023 | 12 | 129 | 0.0 | 1.6 | 0.00 | 0.00 | 0.00 | 87 | 1022.0 |
| 20260906083005 | 12 | 146 | 0.0 | 1.6 | 0.00 | 0.00 | 0.00 | 87 | 1021.0 |
| 20260906082949 | 12 | 122 | 0.0 | 1.6 | 0.00 | 0.00 | 0.00 | 87 | 1021.0 |
| 20260906082943 | 12 | 149 | 0.0 | 1.6 | 0.00 | 0.00 | 0.00 | 87 | 1021.0 |
| 20260906082919 | 12 | 145 | 0.0 | 1.6 | 0.00 | 0.00 | 0.00 | 87 | 1021.0 |
| 20260906082900 | 12 | 156 | 0.0 | 1.6 | 0.00 | 0.00 | 0.00 | 87 | 1021.0 |
| 20260906082845 | 12 | 160 | 0.0 | 1.6 | 0.00 | 0.00 | 0.00 | 87 | 1021.0 |
| 20260906082829 | 12 | 115 | 0.0 | 0.0 | 0.00 | 0.00 | 0.00 | 87 | 1021.0 |
| 20260906082812 | 12 | 116 | 0.0 | 0.0 | 0.00 | 0.00 | 0.00 | 87 | 1021.0 |
| 20260906082805 | 12 | 124 | 0.0 | 0.0 | 0.00 | 0.00 | 0.00 | 87 | 1022.0 |
| 20260906082756 | 12 | 124 | 0.0 | 0.0 | 0.00 | 0.00 | 0.00 | 87 | 1022.0 |
| 20260906082741 | 12 | 145 | 0.0 | 0.0 | 0.00 | 0.00 | 0.00 | 87 | 1022.0 |
| 20260906082724 | 12 | 144 | 0.0 | 0.0 | 0.00 | 0.00 | 0.00 | 87 | 1022.0 |
| 20260906082708 | 12 | 139 | 0.0 | 0.0 | 0.00 | 0.00 | 0.00 | 87 | 1022.0 |
| 20260906082701 | 12 | 123 | 0.0 | 0.0 | 0.00 | 0.00 | 0.00 | 87 | 1021.0 |
| 20260906082652 | 12 | 123 | 0.0 | 0.0 | 0.00 | 0.00 | 0.00 | 87 | 1021.0 |
| 20260906082629 | 12 | 118 | 0.0 | 0.0 | 0.00 | 0.00 | 0.00 | 87 | 1021.0 |
| 20260906082616 | 12 | 117 | 0.0 | 0.0 | 0.00 | 0.00 | 0.00 | 87 | 1021.0 |
| 20260906082502 | 12 | 117 | 0.0 | 0.0 | 0.00 | 0.00 | 0.00 | 87 | 1021.0 |
| 20260906082441 | 12 | 117 | 0.0 | 0.0 | 0.00 | 0.00 | 0.00 | 87 | 1021.0 |
| 20260906082422 | 12 | 135 | 0.0 | 0.0 | 0.00 | 0.00 | 0.00 | 87 | 1021.0 |
| 20260906082418 | 12 | 146 | 0.0 | 0.0 | 0.00 | 0.00 | 0.00 | 87 | 1021.0 |
| 20260906082352 | 12 | 139 | 0.0 | 0.0 | 0.00 | 0.00 | 0.00 | 87 | 1021.0 |
| 20260906082317 | 12 | 111 | 0.0 | 0.0 | 0.00 | 0.00 | 0.00 | 87 | 1021.0 |
| 20260906082310 | 12 | 110 | 0.0 | 0.0 | 0.00 | 0.00 | 0.00 | 87 | 1021.0 |
| 20260906082305 | 12 | 110 | 0.0 | 0.0 | 0.00 | 0.00 | 0.00 | 87 | 1022.0 |
| 20260906082247 | 12 | 137 | 0.0 | 0.0 | 0.00 | 0.00 | 0.00 | 87 | 1022.0 |
| 20260906082213 | 12 | 145 | 0.0 | 0.0 | 0.00 | 0.00 | 0.00 | 87 | 1022.0 |
| 20260906082206 | 12 | 145 | 0.0 | 0.0 | 0.00 | 0.00 | 0.00 | 87 | 1021.0 |
| 20260906082143 | 12 | 140 | 0.0 | 0.0 | 0.00 | 0.00 | 0.00 | 87 | 1021.0 |
| 20260906082118 | 12 | 133 | 0.0 | 0.0 | 0.00 | 0.00 | 0.00 | 87 | 1021.0 |
| 20260906082109 | 12 | 130 | 0.0 | 0.0 | 0.00 | 0.00 | 0.00 | 87 | 1021.0 |
| 20260906082102 | 12 | 130 | 0.0 | 0.0 | 0.00 | 0.00 | 0.00 | 87 | 1022.0 |
| 20260906082030 | 12 | 101 | 0.0 | 0.0 | 0.00 | 0.00 | 0.00 | 87 | 1022.0 |
| 20260906082013 | 12 | 104 | 0.0 | 0.0 | 0.00 | 0.00 | 0.00 | 87 | 1022.0 |
| 20260906082000 | 12 | 105 | 0.0 | 0.0 | 0.00 | 0.00 | 0.00 | 87 | 1021.0 |
| 20260906081912 | 12 | 105 | 0.0 | 0.0 | 0.00 | 0.00 | 0.00 | 87 | 1021.0 |
| 20260906081838 | 12 | 105 | 0.0 | 0.0 | 0.00 | 0.00 | 0.00 | 87 | 1022.0 |
| 20260906081822 | 12 | 104 | 0.0 | 0.0 | 0.00 | 0.00 | 0.00 | 87 | 1022.0 |
| 20260906081808 | 12 | 112 | 0.0 | 0.0 | 0.00 | 0.00 | 0.00 | 87 | 1022.0 |
| 20260906081741 | 12 | 137 | 0.0 | 0.0 | 0.00 | 0.00 | 0.00 | 87 | 1022.0 |
| 20260906081728 | 12 | 116 | 0.0 | 0.0 | 0.00 | 0.00 | 0.00 | 87 | 1022.0 |
| 20260906081704 | 12 | 83 | 0.0 | 0.0 | 0.00 | 0.00 | 0.00 | 87 | 1022.0 |
| 20260906081622 | 12 | 83 | 0.0 | 0.0 | 0.00 | 0.00 | 0.00 | 87 | 1022.0 |
| 20260906081612 | 12 | 115 | 0.0 | 0.0 | 0.00 | 0.00 | 0.00 | 87 | 1022.0 |
| 20260906081533 | 12 | 143 | 0.0 | 0.0 | 0.00 | 0.00 | 0.00 | 87 | 1022.0 |
| 20260906081504 | 12 | 145 | 0.0 | 0.0 | 0.00 | 0.00 | 0.00 | 87 | 1022.0 |
| 20260906081432 | 12 | 145 | 0.0 | 0.0 | 0.00 | 0.00 | 0.00 | 87 | 1022.0 |
| 20260906081413 | 12 | 138 | 0.0 | 0.0 | 0.00 | 0.00 | 0.00 | 87 | 1022.0 |
| 20260906081405 | 12 | 144 | 0.0 | 0.0 | 0.00 | 0.00 | 0.00 | 87 | 1021.0 |
| 20260906081358 | 12 | 144 | 0.0 | 0.0 | 0.00 | 0.00 | 0.00 | 87 | 1021.0 |
| 20260906081342 | 12 | 146 | 0.0 | 0.0 | 0.00 | 0.00 | 0.00 | 87 | 1021.0 |
| 20260906081317 | 12 | 139 | 0.0 | 0.0 | 0.00 | 0.00 | 0.00 | 87 | 1021.0 |
| 20260906081301 | 12 | 78 | 0.0 | 0.0 | 0.00 | 0.00 | 0.00 | 87 | 1021.0 |
| 20260906081245 | 12 | 85 | 0.0 | 0.0 | 0.00 | 0.00 | 0.00 | 87 | 1021.0 |
| 20260906081213 | 12 | 135 | 0.0 | 0.0 | 0.00 | 0.00 | 0.00 | 87 | 1021.0 |
| 20260906081206 | 12 | 134 | 0.0 | 1.6 | 0.00 | 0.00 | 0.00 | 87 | 1022.0 |
| 20260906081142 | 12 | 134 | 0.0 | 1.6 | 0.00 | 0.00 | 0.00 | 87 | 1022.0 |
| 20260906081128 | 12 | 162 | 0.0 | 1.6 | 0.00 | 0.00 | 0.00 | 87 | 1022.0 |
| 20260906081109 | 12 | 129 | 0.0 | 1.6 | 0.00 | 0.00 | 0.00 | 87 | 1022.0 |
| 20260906081102 | 12 | 137 | 0.0 | 3.2 | 0.00 | 0.00 | 0.00 | 87 | 1021.0 |
| 20260906081053 | 12 | 137 | 0.0 | 3.2 | 0.00 | 0.00 | 0.00 | 87 | 1021.0 |
| 20260906081037 | 12 | 129 | 0.0 | 3.2 | 0.00 | 0.00 | 0.00 | 87 | 1021.0 |
| 20260906081021 | 12 | 147 | 0.0 | 3.2 | 0.00 | 0.00 | 0.00 | 87 | 1021.0 |
| 20260906081014 | 12 | 130 | 0.0 | 3.2 | 0.00 | 0.00 | 0.00 | 87 | 1021.0 |
| 20260906081006 | 12 | 130 | 0.0 | 6.4 | 0.00 | 0.00 | 0.00 | 87 | 1021.0 |
| 20260906081000 | 12 | 136 | 0.0 | 6.4 | 0.00 | 0.00 | 0.00 | 87 | 1021.0 |
| 20260906080934 | 12 | 136 | 0.0 | 6.4 | 0.00 | 0.00 | 0.00 | 87 | 1021.0 |
| 20260906080917 | 12 | 138 | 1.6 | 6.4 | 0.00 | 0.00 | 0.00 | 87 | 1021.0 |
| 20260906080910 | 12 | 118 | 1.6 | 6.4 | 0.00 | 0.00 | 0.00 | 87 | 1021.0 |
| 20260906080904 | 12 | 118 | 1.6 | 6.4 | 0.00 | 0.00 | 0.00 | 87 | 1022.0 |
| 20260906080839 | 12 | 137 | 1.6 | 6.4 | 0.00 | 0.00 | 0.00 | 87 | 1022.0 |
| 20260906080823 | 12 | 148 | 3.2 | 6.4 | 0.00 | 0.00 | 0.00 | 87 | 1022.0 |
| 20260906080805 | 12 | 138 | 0.0 | 3.2 | 0.00 | 0.00 | 0.00 | 87 | 1022.0 |
| 20260906080749 | 12 | 149 | 0.0 | 1.6 | 0.00 | 0.00 | 0.00 | 87 | 1022.0 |
| 20260906080741 | 12 | 144 | 0.0 | 1.6 | 0.00 | 0.00 | 0.00 | 87 | 1022.0 |
| 20260906080735 | 12 | 144 | 0.0 | 3.2 | 0.00 | 0.00 | 0.00 | 87 | 1022.0 |
| 20260906080718 | 12 | 114 | 0.0 | 3.2 | 0.00 | 0.00 | 0.00 | 87 | 1022.0 |
| 20260906080702 | 12 | 113 | 0.0 | 3.2 | 0.00 | 0.00 | 0.00 | 87 | 1022.0 |
| 20260906080630 | 12 | 145 | 1.6 | 3.2 | 0.00 | 0.00 | 0.00 | 87 | 1022.0 |
| 20260906080614 | 12 | 132 | 1.6 | 3.2 | 0.00 | 0.00 | 0.00 | 87 | 1022.0 |
| 20260906080605 | 12 | 111 | 1.6 | 3.2 | 0.00 | 0.00 | 0.00 | 87 | 1022.0 |
| 20260906080557 | 12 | 111 | 1.6 | 3.2 | 0.00 | 0.00 | 0.00 | 87 | 1022.0 |
| 20260906080544 | 12 | 140 | 0.0 | 1.6 | 0.00 | 0.00 | 0.00 | 87 | 1022.0 |
| 20260906080510 | 12 | 123 | 0.0 | 1.6 | 0.00 | 0.00 | 0.00 | 87 | 1022.0 |
| 20260906080501 | 12 | 123 | 1.6 | 1.6 | 0.00 | 0.00 | 0.00 | 87 | 1022.0 |
| 20260906080454 | 12 | 123 | 1.6 | 1.6 | 0.00 | 0.00 | 0.00 | 87 | 1022.0 |
| 20260906080415 | 12 | 115 | 0.0 | 1.6 | 0.00 | 0.00 | 0.00 | 87 | 1022.0 |
| 20260906080400 | 12 | 126 | 1.6 | 3.2 | 0.00 | 0.00 | 0.00 | 87 | 1022.0 |
| 20260906080341 | 12 | 99 | 1.6 | 3.2 | 0.00 | 0.00 | 0.00 | 87 | 1022.0 |
| 20260906080325 | 12 | 149 | 0.0 | 3.2 | 0.00 | 0.00 | 0.00 | 87 | 1022.0 |
| 20260906080309 | 12 | 125 | 0.0 | 3.2 | 0.00 | 0.00 | 0.00 | 87 | 1022.0 |
| 20260906080304 | 12 | 82 | 0.0 | 3.2 | 0.00 | 0.00 | 0.00 | 87 | 1022.0 |
| 20260906080237 | 12 | 82 | 1.6 | 3.2 | 0.00 | 0.00 | 0.00 | 87 | 1022.0 |
| 20260906080232 | 12 | 144 | 1.6 | 1.6 | 0.00 | 0.00 | 0.00 | 87 | 1022.0 |
| 20260906080205 | 12 | 95 | 0.0 | 0.0 | 0.00 | 0.00 | 0.00 | 87 | 1022.0 |
| 20260906080013 | 12 | 95 | 0.0 | 0.0 | 0.00 | 0.00 | 0.00 | 87 | 1022.0 |
| 20260906080006 | 12 | 95 | 0.0 | 0.0 | 0.00 | 0.00 | 0.00 | 87 | 1021.0 |
| 20260906075933 | 12 | 134 | 0.0 | 0.0 | 0.00 | 0.00 | 0.00 | 87 | 1021.0 |
| 20260906075923 | 12 | 138 | 0.0 | 0.0 | 0.00 | 0.00 | 0.00 | 87 | 1021.0 |
| 20260906075852 | 12 | 95 | 0.0 | 0.0 | 0.00 | 0.00 | 0.00 | 87 | 1022.0 |
| 20260906075815 | 12 | 94 | 0.0 | 0.0 | 0.00 | 0.00 | 0.00 | 87 | 1022.0 |
| 20260906075806 | 12 | 92 | 0.0 | 0.0 | 0.00 | 0.00 | 0.00 | 87 | 1021.0 |
| 20260906075709 | 12 | 92 | 0.0 | 0.0 | 0.00 | 0.00 | 0.00 | 87 | 1021.0 |
| 20260906075704 | 12 | 98 | 0.0 | 0.0 | 0.00 | 0.00 | 0.00 | 87 | 1021.0 |
| 20260906075637 | 12 | 98 | 0.0 | 0.0 | 0.00 | 0.00 | 0.00 | 87 | 1021.0 |
| 20260906075621 | 12 | 104 | 0.0 | 0.0 | 0.00 | 0.00 | 0.00 | 87 | 1021.0 |
| 20260906075613 | 12 | 112 | 0.0 | 0.0 | 0.00 | 0.00 | 0.00 | 87 | 1021.0 |
| 20260906075600 | 12 | 112 | 0.0 | 0.0 | 0.00 | 0.00 | 0.00 | 87 | 1022.0 |
| 20260906075509 | 12 | 112 | 0.0 | 0.0 | 0.00 | 0.00 | 0.00 | 87 | 1022.0 |
| 20260906075502 | 12 | 112 | 0.0 | 0.0 | 0.00 | 0.00 | 0.00 | 87 | 1021.0 |
| 20260906075413 | 12 | 112 | 0.0 | 0.0 | 0.00 | 0.00 | 0.00 | 87 | 1021.0 |
| 20260906075405 | 12 | 112 | 0.0 | 0.0 | 0.00 | 0.00 | 0.00 | 87 | 1022.0 |
| 20260906075312 | 12 | 112 | 0.0 | 0.0 | 0.00 | 0.00 | 0.00 | 87 | 1022.0 |
| 20260906075253 | 12 | 112 | 0.0 | 0.0 | 0.00 | 0.00 | 0.00 | 87 | 1021.0 |
| 20260906075214 | 12 | 112 | 0.0 | 0.0 | 0.00 | 0.00 | 0.00 | 87 | 1021.0 |
| 20260906075205 | 12 | 112 | 0.0 | 0.0 | 0.00 | 0.00 | 0.00 | 87 | 1022.0 |
| 20260906075157 | 12 | 112 | 0.0 | 0.0 | 0.00 | 0.00 | 0.00 | 87 | 1022.0 |
| 20260906075152 | 12 | 57 | 0.0 | 0.0 | 0.00 | 0.00 | 0.00 | 87 | 1022.0 |
| 20260906075109 | 12 | 206 | 0.0 | 0.0 | 0.00 | 0.00 | 0.00 | 87 | 1022.0 |
| 20260906075101 | 12 | 206 | 0.0 | 0.0 | 0.00 | 0.00 | 0.00 | 87 | 1021.0 |
| 20260906075023 | 12 | 206 | 0.0 | 0.0 | 0.00 | 0.00 | 0.00 | 87 | 1021.0 |
| 20260906075006 | 12 | 152 | 0.0 | 0.0 | 0.00 | 0.00 | 0.00 | 87 | 1022.0 |
| 20260906074957 | 12 | 152 | 0.0 | 0.0 | 0.00 | 0.00 | 0.00 | 87 | 1022.0 |
| 20260906074935 | 12 | 47 | 0.0 | 0.0 | 0.00 | 0.00 | 0.00 | 87 | 1022.0 |
| 20260906074912 | 12 | 46 | 0.0 | 0.0 | 0.00 | 0.00 | 0.00 | 87 | 1022.0 |
| 20260906074832 | 12 | 46 | 0.0 | 1.6 | 0.00 | 0.00 | 0.00 | 87 | 1021.0 |
| 20260906074817 | 12 | 47 | 0.0 | 1.6 | 0.00 | 0.00 | 0.00 | 87 | 1021.0 |
| 20260906074752 | 12 | 46 | 0.0 | 1.6 | 0.00 | 0.00 | 0.00 | 87 | 1021.0 |
| 20260906074734 | 12 | 47 | 0.0 | 1.6 | 0.00 | 0.00 | 0.00 | 87 | 1021.0 |
| 20260906074717 | 12 | 92 | 0.0 | 1.6 | 0.00 | 0.00 | 0.00 | 87 | 1021.0 |
| 20260906074701 | 12 | 52 | 0.0 | 0.0 | 0.00 | 0.00 | 0.00 | 87 | 1021.0 |
| 20260906074637 | 12 | 52 | 0.0 | 0.0 | 0.00 | 0.00 | 0.00 | 87 | 1021.0 |
| 20260906074607 | 12 | 51 | 0.0 | 0.0 | 0.00 | 0.00 | 0.00 | 87 | 1021.0 |
| 20260906074503 | 12 | 51 | 0.0 | 0.0 | 0.00 | 0.00 | 0.00 | 87 | 1021.0 |
| 20260906074405 | 12 | 74 | 0.0 | 1.6 | 0.00 | 0.00 | 0.00 | 87 | 1021.0 |
| 20260906074357 | 12 | 74 | 0.0 | 1.6 | 0.00 | 0.00 | 0.00 | 87 | 1021.0 |
| 20260906074354 | 12 | 77 | 0.0 | 1.6 | 0.00 | 0.00 | 0.00 | 87 | 1021.0 |
| 20260906074325 | 12 | 79 | 0.0 | 1.6 | 0.00 | 0.00 | 0.00 | 87 | 1021.0 |
| 20260906074309 | 12 | 84 | 0.0 | 1.6 | 0.00 | 0.00 | 0.00 | 87 | 1021.0 |
| 20260906074301 | 12 | 84 | 1.6 | 1.6 | 0.00 | 0.00 | 0.00 | 87 | 1021.0 |
| 20260906074253 | 12 | 84 | 1.6 | 1.6 | 0.00 | 0.00 | 0.00 | 87 | 1021.0 |
| 20260906074229 | 12 | 85 | 0.0 | 1.6 | 0.00 | 0.00 | 0.00 | 87 | 1021.0 |
| 20260906074224 | 12 | 106 | 1.6 | 1.6 | 0.00 | 0.00 | 0.00 | 87 | 1021.0 |
| 20260906074205 | 12 | 114 | 1.6 | 3.2 | 0.00 | 0.00 | 0.00 | 87 | 1021.0 |
| 20260906074158 | 12 | 114 | 1.6 | 3.2 | 0.00 | 0.00 | 0.00 | 87 | 1021.0 |
| 20260906074141 | 12 | 99 | 1.6 | 3.2 | 0.00 | 0.00 | 0.00 | 87 | 1021.0 |
| 20260906074125 | 12 | 106 | 1.6 | 3.2 | 0.00 | 0.00 | 0.00 | 87 | 1021.0 |
| 20260906074120 | 12 | 82 | 0.0 | 3.2 | 0.00 | 0.00 | 0.00 | 87 | 1021.0 |
| 20260906074102 | 12 | 78 | 1.6 | 3.2 | 0.00 | 0.00 | 0.00 | 87 | 1022.0 |
| 20260906074053 | 12 | 78 | 1.6 | 3.2 | 0.00 | 0.00 | 0.00 | 87 | 1022.0 |
| 20260906074041 | 12 | 53 | 3.2 | 3.2 | 0.00 | 0.00 | 0.00 | 87 | 1022.0 |
| 20260906074006 | 12 | 91 | 0.0 | 1.6 | 0.00 | 0.00 | 0.00 | 87 | 1022.0 |
| 20260906073949 | 12 | 98 | 0.0 | 0.0 | 0.00 | 0.00 | 0.00 | 87 | 1022.0 |
| 20260906073936 | 12 | 69 | 0.0 | 0.0 | 0.00 | 0.00 | 0.00 | 87 | 1022.0 |
| 20260906073917 | 12 | 115 | 0.0 | 0.0 | 0.00 | 0.00 | 0.00 | 87 | 1022.0 |
| 20260906073902 | 12 | 97 | 0.0 | 0.0 | 0.00 | 0.00 | 0.00 | 87 | 1022.0 |
| 20260906073845 | 12 | 85 | 0.0 | 0.0 | 0.00 | 0.00 | 0.00 | 87 | 1022.0 |
| 20260906073806 | 12 | 86 | 0.0 | 0.0 | 0.00 | 0.00 | 0.00 | 87 | 1022.0 |
| 20260906073709 | 12 | 86 | 0.0 | 0.0 | 0.00 | 0.00 | 0.00 | 87 | 1022.0 |
| 20260906073701 | 12 | 86 | 0.0 | 0.0 | 0.00 | 0.00 | 0.00 | 87 | 1021.0 |
| 20260906073613 | 12 | 86 | 0.0 | 0.0 | 0.00 | 0.00 | 0.00 | 87 | 1021.0 |
| 20260906073605 | 12 | 86 | 0.0 | 0.0 | 0.00 | 0.00 | 0.00 | 87 | 1022.0 |
| 20260906073541 | 12 | 86 | 0.0 | 0.0 | 0.00 | 0.00 | 0.00 | 87 | 1022.0 |
| 20260906073509 | 12 | 86 | 0.0 | 1.6 | 0.00 | 0.00 | 0.00 | 87 | 1022.0 |
| 20260906073501 | 12 | 86 | 0.0 | 3.2 | 0.00 | 0.00 | 0.00 | 87 | 1022.0 |
| 20260906073437 | 12 | 86 | 0.0 | 3.2 | 0.00 | 0.00 | 0.00 | 87 | 1022.0 |
| 20260906073406 | 12 | 88 | 0.0 | 3.2 | 0.00 | 0.00 | 0.00 | 87 | 1022.0 |
| 20260906073341 | 12 | 121 | 0.0 | 3.2 | 0.00 | 0.00 | 0.00 | 87 | 1022.0 |
| 20260906073325 | 12 | 121 | 1.6 | 3.2 | 0.00 | 0.00 | 0.00 | 87 | 1022.0 |
| 20260906073309 | 12 | 84 | 3.2 | 3.2 | 0.00 | 0.00 | 0.00 | 87 | 1022.0 |
| 20260906073301 | 12 | 75 | 3.2 | 3.2 | 0.00 | 0.00 | 0.00 | 87 | 1022.0 |
| 20260906073253 | 12 | 75 | 3.2 | 3.2 | 0.00 | 0.00 | 0.00 | 87 | 1022.0 |
| 20260906073238 | 12 | 69 | 1.6 | 3.2 | 0.00 | 0.00 | 0.00 | 87 | 1022.0 |
| 20260906073231 | 12 | 63 | 0.0 | 3.2 | 0.00 | 0.00 | 0.00 | 87 | 1022.0 |
| 20260906073205 | 12 | 82 | 1.6 | 3.2 | 0.00 | 0.00 | 0.00 | 87 | 1022.0 |
| 20260906073142 | 12 | 84 | 0.0 | 3.2 | 0.00 | 0.00 | 0.00 | 87 | 1022.0 |
| 20260906073138 | 12 | 84 | 0.0 | 6.4 | 0.00 | 0.00 | 0.00 | 87 | 1022.0 |
| 20260906073101 | 12 | 90 | 1.6 | 6.4 | 0.00 | 0.00 | 0.00 | 87 | 1022.0 |
| 20260906073045 | 12 | 94 | 1.6 | 6.4 | 0.00 | 0.00 | 0.00 | 87 | 1022.0 |
| 20260906073029 | 12 | 82 | 1.6 | 6.4 | 0.00 | 0.00 | 0.00 | 87 | 1022.0 |
| 20260906073013 | 12 | 96 | 1.6 | 6.4 | 0.00 | 0.00 | 0.00 | 87 | 1022.0 |
| 20260906073005 | 12 | 96 | 4.8 | 6.4 | 0.00 | 0.00 | 0.00 | 87 | 1022.0 |
| 20260906072957 | 12 | 96 | 4.8 | 6.4 | 0.00 | 0.00 | 0.00 | 87 | 1022.0 |
| 20260906072951 | 12 | 88 | 4.8 | 6.4 | 0.00 | 0.00 | 0.00 | 87 | 1022.0 |
| 20260906072919 | 12 | 67 | 4.8 | 4.8 | 0.00 | 0.00 | 0.00 | 87 | 1022.0 |
| 20260906072901 | 12 | 81 | 1.6 | 3.2 | 0.00 | 0.00 | 0.00 | 87 | 1022.0 |
| 20260906072845 | 12 | 101 | 0.0 | 3.2 | 0.00 | 0.00 | 0.00 | 87 | 1022.0 |
| 20260906072829 | 12 | 113 | 1.6 | 3.2 | 0.00 | 0.00 | 0.00 | 87 | 1022.0 |
| 20260906072815 | 12 | 118 | 1.6 | 3.2 | 0.00 | 0.00 | 0.00 | 87 | 1022.0 |
| 20260906072758 | 12 | 118 | 3.2 | 3.2 | 0.00 | 0.00 | 0.00 | 87 | 1022.0 |
| 20260906072741 | 12 | 91 | 1.6 | 3.2 | 0.00 | 0.00 | 0.00 | 87 | 1022.0 |
| 20260906072736 | 12 | 106 | 0.0 | 0.0 | 0.00 | 0.00 | 0.00 | 87 | 1022.0 |
| 20260906072712 | 12 | 113 | 0.0 | 0.0 | 0.00 | 0.00 | 0.00 | 87 | 1022.0 |
| 20260906072654 | 12 | 91 | 0.0 | 0.0 | 0.00 | 0.00 | 0.00 | 87 | 1022.0 |
| 20260906072637 | 12 | 105 | 0.0 | 0.0 | 0.00 | 0.00 | 0.00 | 87 | 1022.0 |
| 20260906072605 | 12 | 75 | 0.0 | 0.0 | 0.00 | 0.00 | 0.00 | 87 | 1022.0 |
| 20260906072549 | 12 | 89 | 0.0 | 0.0 | 0.00 | 0.00 | 0.00 | 87 | 1022.0 |
| 20260906072538 | 12 | 101 | 0.0 | 0.0 | 0.00 | 0.00 | 0.00 | 87 | 1022.0 |
| 20260906072501 | 12 | 87 | 0.0 | 0.0 | 0.00 | 0.00 | 0.00 | 87 | 1022.0 |
| 20260906072416 | 12 | 87 | 0.0 | 0.0 | 0.00 | 0.00 | 0.00 | 87 | 1022.0 |
| 20260906072312 | 12 | 87 | 0.0 | 0.0 | 0.00 | 0.00 | 0.00 | 87 | 1022.0 |
| 20260906072205 | 12 | 87 | 0.0 | 0.0 | 0.00 | 0.00 | 0.00 | 87 | 1022.0 |
| 20260906072141 | 12 | 87 | 0.0 | 0.0 | 0.00 | 0.00 | 0.00 | 87 | 1022.0 |
| 20260906072111 | 12 | 87 | 0.0 | 1.6 | 0.00 | 0.00 | 0.00 | 87 | 1022.0 |
| 20260906072001 | 12 | 87 | 0.0 | 1.6 | 0.00 | 0.00 | 0.00 | 87 | 1022.0 |
| 20260906071911 | 12 | 87 | 0.0 | 1.6 | 0.00 | 0.00 | 0.00 | 87 | 1022.0 |
| 20260906071821 | 12 | 87 | 0.0 | 1.6 | 0.00 | 0.00 | 0.00 | 87 | 1022.0 |
| 20260906071805 | 12 | 87 | 1.6 | 1.6 | 0.00 | 0.00 | 0.00 | 87 | 1022.0 |
| 20260906071750 | 12 | 87 | 0.0 | 1.6 | 0.00 | 0.00 | 0.00 | 87 | 1022.0 |
| 20260906071741 | 12 | 159 | 0.0 | 1.6 | 0.00 | 0.00 | 0.00 | 87 | 1022.0 |
| 20260906071701 | 12 | 159 | 0.0 | 1.6 | 0.00 | 0.00 | 0.00 | 87 | 1022.0 |
| 20260906071637 | 12 | 159 | 0.0 | 1.6 | 0.00 | 0.00 | 0.00 | 87 | 1022.0 |
| 20260906071629 | 12 | 159 | 0.0 | 3.2 | 0.00 | 0.00 | 0.00 | 87 | 1022.0 |
| 20260906071605 | 12 | 159 | 1.6 | 3.2 | 0.00 | 0.00 | 0.00 | 87 | 1022.0 |
| 20260906071559 | 12 | 183 | 0.0 | 3.2 | 0.00 | 0.00 | 0.00 | 87 | 1022.0 |
| 20260906071533 | 12 | 113 | 1.6 | 3.2 | 0.00 | 0.00 | 0.00 | 87 | 1022.0 |
| 20260906071530 | 12 | 146 | 1.6 | 3.2 | 0.00 | 0.00 | 0.00 | 87 | 1022.0 |
| 20260906071501 | 12 | 98 | 1.6 | 3.2 | 0.00 | 0.00 | 0.00 | 87 | 1022.0 |
| 20260906071455 | 12 | 133 | 1.6 | 3.2 | 0.00 | 0.00 | 0.00 | 87 | 1022.0 |
| 20260906071429 | 12 | 145 | 0.0 | 1.6 | 0.00 | 0.00 | 0.00 | 87 | 1022.0 |
| 20260906071413 | 12 | 150 | 0.0 | 0.0 | 0.00 | 0.00 | 0.00 | 87 | 1022.0 |
| 20260906071358 | 12 | 125 | 0.0 | 0.0 | 0.00 | 0.00 | 0.00 | 87 | 1022.0 |
| 20260906071352 | 12 | 132 | 0.0 | 0.0 | 0.00 | 0.00 | 0.00 | 87 | 1022.0 |
| 20260906071338 | 12 | 122 | 0.0 | 0.0 | 0.00 | 0.00 | 0.00 | 87 | 1022.0 |
| 20260906071302 | 12 | 140 | 0.0 | 0.0 | 0.00 | 0.00 | 0.00 | 87 | 1022.0 |
| 20260906071211 | 12 | 140 | 0.0 | 0.0 | 0.00 | 0.00 | 0.00 | 87 | 1022.0 |
| 20260906071102 | 12 | 140 | 0.0 | 0.0 | 0.00 | 0.00 | 0.00 | 87 | 1022.0 |
| 20260906071052 | 12 | 140 | 0.0 | 0.0 | 0.00 | 0.00 | 0.00 | 87 | 1022.0 |
| 20260906071006 | 12 | 140 | 0.0 | 0.0 | 0.00 | 0.00 | 0.00 | 87 | 1022.0 |
| 20260906070902 | 12 | 140 | 0.0 | 0.0 | 0.00 | 0.00 | 0.00 | 87 | 1022.0 |
| 20260906070806 | 12 | 140 | 0.0 | 0.0 | 0.00 | 0.00 | 0.00 | 87 | 1022.0 |
| 20260906070709 | 12 | 140 | 0.0 | 0.0 | 0.00 | 0.00 | 0.00 | 87 | 1022.0 |
| 20260906070706 | 12 | 140 | 0.0 | 3.2 | 0.00 | 0.00 | 0.00 | 87 | 1022.0 |
| 20260906070632 | 12 | 139 | 0.0 | 3.2 | 0.00 | 0.00 | 0.00 | 87 | 1022.0 |
| 20260906070605 | 12 | 135 | 0.0 | 3.2 | 0.00 | 0.00 | 0.00 | 87 | 1022.0 |
| 20260906070541 | 12 | 135 | 0.0 | 3.2 | 0.00 | 0.00 | 0.00 | 87 | 1022.0 |
| 20260906070526 | 12 | 135 | 1.6 | 3.2 | 0.00 | 0.00 | 0.00 | 87 | 1022.0 |
| 20260906070523 | 12 | 135 | 3.2 | 3.2 | 0.00 | 0.00 | 0.00 | 87 | 1022.0 |
| 20260906070453 | 12 | 90 | 1.6 | 4.8 | 0.00 | 0.00 | 0.00 | 87 | 1022.0 |
| 20260906070437 | 12 | 153 | 1.6 | 4.8 | 0.00 | 0.00 | 0.00 | 87 | 1022.0 |
| 20260906070432 | 12 | 79 | 1.6 | 4.8 | 0.00 | 0.00 | 0.00 | 87 | 1022.0 |
| 20260906070406 | 12 | 84 | 1.6 | 4.8 | 0.00 | 0.00 | 0.00 | 87 | 1022.0 |
| 20260906070349 | 12 | 89 | 3.2 | 4.8 | 0.00 | 0.00 | 0.00 | 87 | 1022.0 |
| 20260906070333 | 12 | 58 | 3.2 | 4.8 | 0.00 | 0.00 | 0.00 | 87 | 1022.0 |
| 20260906070317 | 12 | 70 | 3.2 | 4.8 | 0.00 | 0.00 | 0.00 | 87 | 1022.0 |
| 20260906070301 | 12 | 45 | 3.2 | 4.8 | 0.00 | 0.00 | 0.00 | 87 | 1022.0 |
| 20260906070253 | 12 | 45 | 3.2 | 4.8 | 0.00 | 0.00 | 0.00 | 87 | 1022.0 |
| 20260906070237 | 12 | 94 | 1.6 | 3.2 | 0.00 | 0.00 | 0.00 | 87 | 1022.0 |
| 20260906070232 | 12 | 58 | 1.6 | 3.2 | 0.00 | 0.00 | 0.00 | 87 | 1022.0 |
| 20260906070214 | 12 | 91 | 1.6 | 1.6 | 0.00 | 0.00 | 0.00 | 87 | 1022.0 |
| 20260906070205 | 12 | 91 | 1.6 | 3.2 | 0.00 | 0.00 | 0.00 | 87 | 1022.0 |
| 20260906070201 | 12 | 84 | 0.0 | 3.2 | 0.00 | 0.00 | 0.00 | 87 | 1022.0 |
| 20260906070133 | 12 | 92 | 0.0 | 3.2 | 0.00 | 0.00 | 0.00 | 87 | 1022.0 |
| 20260906070129 | 12 | 112 | 0.0 | 3.2 | 0.00 | 0.00 | 0.00 | 87 | 1022.0 |
| 20260906070112 | 12 | 104 | 1.6 | 3.2 | 0.00 | 0.00 | 0.00 | 87 | 1022.0 |
| 20260906070056 | 12 | 104 | 1.6 | 3.2 | 0.00 | 0.00 | 0.00 | 87 | 1022.0 |
| 20260906070040 | 12 | 65 | 1.6 | 3.2 | 0.00 | 0.00 | 0.00 | 87 | 1022.0 |
| 20260906070016 | 12 | 68 | 3.2 | 3.2 | 0.00 | 0.00 | 0.00 | 87 | 1022.0 |
| 20260906065958 | 12 | 117 | 1.6 | 3.2 | 0.00 | 0.00 | 0.00 | 87 | 1022.0 |
| 20260906065941 | 12 | 122 | 1.6 | 3.2 | 0.00 | 0.00 | 0.00 | 87 | 1022.0 |
| 20260906065925 | 12 | 82 | 0.0 | 1.6 | 0.00 | 0.00 | 0.00 | 87 | 1022.0 |
| 20260906065901 | 12 | 99 | 0.0 | 1.6 | 0.00 | 0.00 | 0.00 | 87 | 1022.0 |
| 20260906065838 | 12 | 99 | 0.0 | 1.6 | 0.00 | 0.00 | 0.00 | 87 | 1022.0 |
| 20260906065824 | 12 | 99 | 0.0 | 4.8 | 0.00 | 0.00 | 0.00 | 87 | 1022.0 |
| 20260906065808 | 12 | 83 | 0.0 | 4.8 | 0.00 | 0.00 | 0.00 | 87 | 1022.0 |
| 20260906065742 | 12 | 151 | 1.6 | 4.8 | 0.00 | 0.00 | 0.00 | 87 | 1022.0 |
| 20260906065725 | 12 | 101 | 1.6 | 4.8 | 0.00 | 0.00 | 0.00 | 87 | 1022.0 |
| 20260906065709 | 12 | 141 | 0.0 | 4.8 | 0.00 | 0.00 | 0.00 | 87 | 1022.0 |
| 20260906065702 | 12 | 115 | 3.2 | 4.8 | 0.00 | 0.00 | 0.00 | 87 | 1022.0 |
| 20260906065653 | 12 | 115 | 3.2 | 4.8 | 0.00 | 0.00 | 0.00 | 87 | 1022.0 |
| 20260906065641 | 12 | 78 | 0.0 | 1.6 | 0.00 | 0.00 | 0.00 | 87 | 1022.0 |
| 20260906065608 | 12 | 91 | 0.0 | 1.6 | 0.00 | 0.00 | 0.00 | 87 | 1022.0 |
| 20260906065552 | 12 | 100 | 1.6 | 1.6 | 0.00 | 0.00 | 0.00 | 87 | 1022.0 |
| 20260906065534 | 12 | 86 | 1.6 | 1.6 | 0.00 | 0.00 | 0.00 | 87 | 1022.0 |
| 20260906065517 | 12 | 92 | 1.6 | 1.6 | 0.00 | 0.00 | 0.00 | 87 | 1022.0 |
| 20260906065502 | 12 | 120 | 0.0 | 1.6 | 0.00 | 0.00 | 0.00 | 87 | 1022.0 |
| 20260906065456 | 12 | 94 | 0.0 | 0.0 | 0.00 | 0.00 | 0.00 | 87 | 1022.0 |
| 20260906065429 | 12 | 104 | 0.0 | 0.0 | 0.00 | 0.00 | 0.00 | 87 | 1022.0 |
| 20260906065417 | 12 | 105 | 0.0 | 0.0 | 0.00 | 0.00 | 0.00 | 87 | 1022.0 |
| 20260906065310 | 12 | 76 | 0.0 | 1.6 | 0.00 | 0.00 | 0.00 | 87 | 1022.0 |
| 20260906065305 | 12 | 76 | 0.0 | 3.2 | 0.00 | 0.00 | 0.00 | 87 | 1022.0 |
| 20260906065246 | 12 | 76 | 0.0 | 3.2 | 0.00 | 0.00 | 0.00 | 87 | 1022.0 |
| 20260906065237 | 12 | 85 | 0.0 | 3.2 | 0.00 | 0.00 | 0.00 | 87 | 1022.0 |
| 20260906065229 | 12 | 85 | 0.0 | 4.8 | 0.00 | 0.00 | 0.00 | 87 | 1022.0 |
| 20260906065216 | 12 | 107 | 0.0 | 4.8 | 0.00 | 0.00 | 0.00 | 87 | 1022.0 |
| 20260906065159 | 12 | 76 | 1.6 | 4.8 | 0.00 | 0.00 | 0.00 | 87 | 1022.0 |
| 20260906065141 | 12 | 119 | 1.6 | 4.8 | 0.00 | 0.00 | 0.00 | 87 | 1022.0 |
| 20260906065128 | 12 | 94 | 1.6 | 4.8 | 0.00 | 0.00 | 0.00 | 87 | 1022.0 |
| 20260906065110 | 12 | 73 | 3.2 | 4.8 | 0.00 | 0.00 | 0.00 | 87 | 1022.0 |
| 20260906065102 | 12 | 130 | 3.2 | 4.8 | 0.00 | 0.00 | 0.00 | 87 | 1022.0 |
| 20260906065053 | 12 | 130 | 3.2 | 4.8 | 0.00 | 0.00 | 0.00 | 87 | 1022.0 |
| 20260906065047 | 12 | 102 | 3.2 | 4.8 | 0.00 | 0.00 | 0.00 | 87 | 1022.0 |
| 20260906065021 | 12 | 135 | 0.0 | 1.6 | 0.00 | 0.00 | 0.00 | 87 | 1022.0 |
| 20260906065016 | 12 | 78 | 0.0 | 1.6 | 0.00 | 0.00 | 0.00 | 87 | 1022.0 |
| 20260906064941 | 12 | 78 | 0.0 | 3.2 | 0.00 | 0.00 | 0.00 | 87 | 1022.0 |
| 20260906064925 | 12 | 78 | 1.6 | 3.2 | 0.00 | 0.00 | 0.00 | 87 | 1022.0 |
| 20260906064909 | 12 | 132 | 0.0 | 3.2 | 0.00 | 0.00 | 0.00 | 87 | 1022.0 |
| 20260906064904 | 12 | 134 | 0.0 | 3.2 | 0.00 | 0.00 | 0.00 | 87 | 1022.0 |
| 20260906064837 | 12 | 109 | 1.6 | 3.2 | 0.00 | 0.00 | 0.00 | 87 | 1022.0 |
| 20260906064823 | 12 | 131 | 1.6 | 4.8 | 0.00 | 0.00 | 0.00 | 87 | 1022.0 |
| 20260906064805 | 12 | 94 | 1.6 | 4.8 | 0.00 | 0.00 | 0.00 | 87 | 1022.0 |
| 20260906064749 | 12 | 94 | 0.0 | 4.8 | 0.00 | 0.00 | 0.00 | 87 | 1022.0 |
| 20260906064733 | 12 | 106 | 0.0 | 4.8 | 0.00 | 0.00 | 0.00 | 87 | 1022.0 |
| 20260906064717 | 12 | 108 | 3.2 | 4.8 | 0.00 | 0.00 | 0.00 | 87 | 1022.0 |
| 20260906064701 | 12 | 74 | 1.6 | 4.8 | 0.00 | 0.00 | 0.00 | 87 | 1022.0 |
| 20260906064646 | 12 | 128 | 1.6 | 4.8 | 0.00 | 0.00 | 0.00 | 87 | 1022.0 |
| 20260906064629 | 12 | 163 | 3.2 | 3.2 | 0.00 | 0.00 | 0.00 | 87 | 1022.0 |
| 20260906064613 | 12 | 116 | 0.0 | 0.0 | 0.00 | 0.00 | 0.00 | 87 | 1022.0 |
| 20260906064606 | 12 | 89 | 0.0 | 0.0 | 0.00 | 0.00 | 0.00 | 87 | 1022.0 |
| 20260906064557 | 12 | 89 | 0.0 | 0.0 | 0.00 | 0.00 | 0.00 | 87 | 1022.0 |
| 20260906064542 | 12 | 95 | 0.0 | 0.0 | 0.00 | 0.00 | 0.00 | 87 | 1022.0 |
| 20260906064530 | 12 | 107 | 0.0 | 0.0 | 0.00 | 0.00 | 0.00 | 87 | 1022.0 |
| 20260906064502 | 12 | 76 | 0.0 | 0.0 | 0.00 | 0.00 | 0.00 | 87 | 1022.0 |
| 20260906064456 | 12 | 209 | 0.0 | 0.0 | 0.00 | 0.00 | 0.00 | 87 | 1022.0 |
| 20260906064429 | 12 | 142 | 0.0 | 0.0 | 0.00 | 0.00 | 0.00 | 87 | 1022.0 |
| 20260906064408 | 12 | 116 | 0.0 | 0.0 | 0.00 | 0.00 | 0.00 | 86 | 1022.0 |
| 20260906064341 | 12 | 122 | 0.0 | 0.0 | 0.00 | 0.00 | 0.00 | 86 | 1022.0 |
| 20260906064325 | 12 | 95 | 0.0 | 0.0 | 0.00 | 0.00 | 0.00 | 86 | 1022.0 |
| 20260906064309 | 12 | 85 | 0.0 | 0.0 | 0.00 | 0.00 | 0.00 | 86 | 1022.0 |
| 20260906064301 | 12 | 122 | 0.0 | 0.0 | 0.00 | 0.00 | 0.00 | 86 | 1022.0 |
| 20260906064221 | 12 | 122 | 0.0 | 0.0 | 0.00 | 0.00 | 0.00 | 86 | 1022.0 |
| 20260906064205 | 12 | 122 | 0.0 | 0.0 | 0.00 | 0.00 | 0.00 | 87 | 1022.0 |
| 20260906064133 | 12 | 122 | 0.0 | 0.0 | 0.00 | 0.00 | 0.00 | 87 | 1022.0 |
| 20260906064117 | 12 | 79 | 0.0 | 0.0 | 0.00 | 0.00 | 0.00 | 87 | 1022.0 |
| 20260906064102 | 12 | 102 | 0.0 | 0.0 | 0.00 | 0.00 | 0.00 | 87 | 1022.0 |
| 20260906064053 | 12 | 102 | 0.0 | 0.0 | 0.00 | 0.00 | 0.00 | 87 | 1022.0 |
| 20260906064048 | 12 | 121 | 0.0 | 0.0 | 0.00 | 0.00 | 0.00 | 87 | 1022.0 |
| 20260906064013 | 12 | 122 | 0.0 | 0.0 | 0.00 | 0.00 | 0.00 | 87 | 1022.0 |
| 20260906064005 | 12 | 122 | 0.0 | 0.0 | 0.00 | 0.00 | 0.00 | 86 | 1022.0 |
| 20260906063949 | 12 | 104 | 0.0 | 0.0 | 0.00 | 0.00 | 0.00 | 86 | 1022.0 |
| 20260906063941 | 12 | 102 | 0.0 | 0.0 | 0.00 | 0.00 | 0.00 | 86 | 1022.0 |
| 20260906063933 | 12 | 102 | 0.0 | 1.6 | 0.00 | 0.00 | 0.00 | 86 | 1022.0 |
| 20260906063917 | 12 | 158 | 0.0 | 1.6 | 0.00 | 0.00 | 0.00 | 86 | 1022.0 |
| 20260906063910 | 12 | 134 | 0.0 | 1.6 | 0.00 | 0.00 | 0.00 | 86 | 1022.0 |
| 20260906063901 | 12 | 134 | 0.0 | 3.2 | 0.00 | 0.00 | 0.00 | 86 | 1022.0 |
| 20260906063848 | 12 | 94 | 0.0 | 3.2 | 0.00 | 0.00 | 0.00 | 86 | 1022.0 |
| 20260906063829 | 12 | 75 | 0.0 | 3.2 | 0.00 | 0.00 | 0.00 | 86 | 1022.0 |
| 20260906063813 | 12 | 79 | 0.0 | 3.2 | 0.00 | 0.00 | 0.00 | 86 | 1022.0 |
| 20260906063805 | 12 | 83 | 0.0 | 3.2 | 0.00 | 0.00 | 0.00 | 86 | 1022.0 |
| 20260906063757 | 12 | 83 | 0.0 | 3.2 | 0.00 | 0.00 | 0.00 | 86 | 1022.0 |
| 20260906063741 | 12 | 82 | 3.2 | 3.2 | 0.00 | 0.00 | 0.00 | 86 | 1022.0 |
| 20260906063726 | 12 | 134 | 1.6 | 1.6 | 0.00 | 0.00 | 0.00 | 86 | 1022.0 |
| 20260906063647 | 12 | 108 | 0.0 | 3.2 | 0.00 | 0.00 | 0.00 | 86 | 1022.0 |
| 20260906063625 | 12 | 109 | 0.0 | 3.2 | 0.00 | 0.00 | 0.00 | 86 | 1022.0 |
| 20260906063605 | 12 | 108 | 0.0 | 3.2 | 0.00 | 0.00 | 0.00 | 86 | 1022.0 |
| 20260906063558 | 12 | 108 | 0.0 | 3.2 | 0.00 | 0.00 | 0.00 | 86 | 1022.0 |
| 20260906063541 | 12 | 109 | 1.6 | 3.2 | 0.00 | 0.00 | 0.00 | 86 | 1022.0 |
| 20260906063526 | 12 | 108 | 3.2 | 3.2 | 0.00 | 0.00 | 0.00 | 86 | 1022.0 |
| 20260906063509 | 12 | 60 | 1.6 | 3.2 | 0.00 | 0.00 | 0.00 | 86 | 1022.0 |
| 20260906063501 | 12 | 96 | 3.2 | 3.2 | 0.00 | 0.00 | 0.00 | 86 | 1022.0 |
| 20260906063453 | 12 | 96 | 3.2 | 3.2 | 0.00 | 0.00 | 0.00 | 86 | 1022.0 |
| 20260906063437 | 12 | 72 | 3.2 | 3.2 | 0.00 | 0.00 | 0.00 | 86 | 1022.0 |
| 20260906063422 | 12 | 122 | 3.2 | 3.2 | 0.00 | 0.00 | 0.00 | 86 | 1022.0 |
| 20260906063418 | 12 | 61 | 1.6 | 3.2 | 0.00 | 0.00 | 0.00 | 86 | 1022.0 |
| 20260906063330 | 12 | 53 | 0.0 | 0.0 | 0.00 | 0.00 | 0.00 | 86 | 1022.0 |
| 20260906063302 | 12 | 53 | 0.0 | 3.2 | 0.00 | 0.00 | 0.00 | 86 | 1022.0 |
| 20260906063214 | 12 | 52 | 0.0 | 3.2 | 0.00 | 0.00 | 0.00 | 86 | 1022.0 |
| 20260906063205 | 12 | 52 | 0.0 | 4.8 | 0.00 | 0.00 | 0.00 | 86 | 1022.0 |
| 20260906063133 | 12 | 51 | 0.0 | 4.8 | 0.00 | 0.00 | 0.00 | 86 | 1022.0 |
| 20260906063117 | 12 | 86 | 1.6 | 4.8 | 0.00 | 0.00 | 0.00 | 86 | 1022.0 |
| 20260906063101 | 12 | 81 | 3.2 | 4.8 | 0.00 | 0.00 | 0.00 | 86 | 1022.0 |
| 20260906063056 | 12 | 105 | 1.6 | 4.8 | 0.00 | 0.00 | 0.00 | 86 | 1022.0 |
| 20260906063040 | 12 | 80 | 1.6 | 4.8 | 0.00 | 0.00 | 0.00 | 86 | 1022.0 |
| 20260906063013 | 12 | 109 | 3.2 | 4.8 | 0.00 | 0.00 | 0.00 | 86 | 1022.0 |
| 20260906063006 | 12 | 73 | 1.6 | 3.2 | 0.00 | 0.00 | 0.00 | 86 | 1022.0 |
| 20260906062957 | 12 | 73 | 1.6 | 3.2 | 0.00 | 0.00 | 0.00 | 86 | 1022.0 |
| 20260906062942 | 12 | 93 | 1.6 | 1.6 | 0.00 | 0.00 | 0.00 | 86 | 1022.0 |
| 20260906062925 | 12 | 99 | 0.0 | 0.0 | 0.00 | 0.00 | 0.00 | 86 | 1022.0 |
| 20260906062909 | 12 | 149 | 0.0 | 0.0 | 0.00 | 0.00 | 0.00 | 86 | 1022.0 |
| 20260906062904 | 12 | 98 | 0.0 | 0.0 | 0.00 | 0.00 | 0.00 | 86 | 1022.0 |
| 20260906062821 | 12 | 84 | 0.0 | 0.0 | 0.00 | 0.00 | 0.00 | 86 | 1022.0 |
| 20260906062809 | 12 | 88 | 0.0 | 0.0 | 0.00 | 0.00 | 0.00 | 86 | 1022.0 |
| 20260906062719 | 12 | 101 | 0.0 | 0.0 | 0.00 | 0.00 | 0.00 | 86 | 1022.0 |
| 20260906062701 | 12 | 91 | 0.0 | 0.0 | 0.00 | 0.00 | 0.00 | 86 | 1022.0 |
| 20260906062653 | 12 | 91 | 0.0 | 0.0 | 0.00 | 0.00 | 0.00 | 86 | 1022.0 |
| 20260906062645 | 12 | 81 | 0.0 | 0.0 | 0.00 | 0.00 | 0.00 | 86 | 1022.0 |
| 20260906062608 | 12 | 59 | 0.0 | 0.0 | 0.00 | 0.00 | 0.00 | 86 | 1022.0 |
| 20260906062549 | 12 | 76 | 0.0 | 0.0 | 0.00 | 0.00 | 0.00 | 86 | 1022.0 |
| 20260906062533 | 12 | 65 | 0.0 | 0.0 | 0.00 | 0.00 | 0.00 | 86 | 1022.0 |
| 20260906062517 | 12 | 41 | 0.0 | 0.0 | 0.00 | 0.00 | 0.00 | 86 | 1022.0 |
| 20260906062509 | 12 | 11 | 0.0 | 0.0 | 0.00 | 0.00 | 0.00 | 86 | 1022.0 |
| 20260906062502 | 12 | 11 | 0.0 | 1.6 | 0.00 | 0.00 | 0.00 | 86 | 1022.0 |
| 20260906062445 | 12 | 13 | 0.0 | 1.6 | 0.00 | 0.00 | 0.00 | 86 | 1022.0 |
| 20260906062429 | 12 | 14 | 0.0 | 1.6 | 0.00 | 0.00 | 0.00 | 86 | 1022.0 |
| 20260906062413 | 12 | 42 | 0.0 | 1.6 | 0.00 | 0.00 | 0.00 | 86 | 1022.0 |
| 20260906062408 | 12 | 70 | 0.0 | 4.8 | 0.00 | 0.00 | 0.00 | 86 | 1022.0 |
| 20260906062351 | 12 | 80 | 0.0 | 4.8 | 0.00 | 0.00 | 0.00 | 86 | 1022.0 |
| 20260906062317 | 12 | 55 | 0.0 | 4.8 | 0.00 | 0.00 | 0.00 | 86 | 1022.0 |
| 20260906062306 | 12 | 84 | 0.0 | 4.8 | 0.00 | 0.00 | 0.00 | 86 | 1022.0 |
| 20260906062245 | 12 | 70 | 1.6 | 4.8 | 0.00 | 0.00 | 0.00 | 86 | 1022.0 |
| 20260906062229 | 12 | 83 | 3.2 | 4.8 | 0.00 | 0.00 | 0.00 | 86 | 1022.0 |
| 20260906062213 | 12 | 115 | 4.8 | 4.8 | 0.00 | 0.00 | 0.00 | 86 | 1022.0 |
| 20260906062200 | 12 | 103 | 3.2 | 4.8 | 0.00 | 0.00 | 0.00 | 86 | 1022.0 |
| 20260906062141 | 12 | 61 | 3.2 | 4.8 | 0.00 | 0.00 | 0.00 | 86 | 1022.0 |
| 20260906062135 | 12 | 94 | 3.2 | 4.8 | 0.00 | 0.00 | 0.00 | 86 | 1022.0 |
| 20260906062111 | 12 | 81 | 3.2 | 4.8 | 0.00 | 0.00 | 0.00 | 86 | 1022.0 |
| 20260906062053 | 12 | 113 | 3.2 | 4.8 | 0.00 | 0.00 | 0.00 | 86 | 1022.0 |
| 20260906062039 | 12 | 97 | 3.2 | 3.2 | 0.00 | 0.00 | 0.00 | 86 | 1022.0 |
| 20260906062013 | 12 | 67 | 0.0 | 0.0 | 0.00 | 0.00 | 0.00 | 86 | 1022.0 |
| 20260906062010 | 12 | 67 | 0.0 | 3.2 | 0.00 | 0.00 | 0.00 | 86 | 1022.0 |
| 20260906061933 | 12 | 78 | 0.0 | 3.2 | 0.00 | 0.00 | 0.00 | 86 | 1022.0 |
| 20260906061856 | 12 | 57 | 0.0 | 3.2 | 0.00 | 0.00 | 0.00 | 86 | 1022.0 |
| 20260906061838 | 12 | 54 | 1.6 | 3.2 | 0.00 | 0.00 | 0.00 | 86 | 1022.0 |
| 20260906061821 | 12 | 82 | 1.6 | 3.2 | 0.00 | 0.00 | 0.00 | 86 | 1022.0 |
| 20260906061805 | 12 | 97 | 1.6 | 3.2 | 0.00 | 0.00 | 0.00 | 86 | 1022.0 |
| 20260906061741 | 12 | 5 | 1.6 | 3.2 | 0.00 | 0.00 | 0.00 | 86 | 1022.0 |
| 20260906061734 | 12 | 5 | 1.6 | 4.8 | 0.00 | 0.00 | 0.00 | 86 | 1022.0 |
| 20260906061718 | 12 | 18 | 3.2 | 4.8 | 0.00 | 0.00 | 0.00 | 86 | 1022.0 |
| 20260906061701 | 12 | 18 | 1.6 | 4.8 | 0.00 | 0.00 | 0.00 | 86 | 1022.0 |
| 20260906061645 | 12 | 74 | 1.6 | 4.8 | 0.00 | 0.00 | 0.00 | 86 | 1022.0 |
| 20260906061630 | 12 | 66 | 1.6 | 4.8 | 0.00 | 0.00 | 0.00 | 86 | 1022.0 |
| 20260906061613 | 12 | 75 | 3.2 | 4.8 | 0.00 | 0.00 | 0.00 | 86 | 1022.0 |
| 20260906061605 | 12 | 77 | 3.2 | 4.8 | 0.00 | 0.00 | 0.00 | 86 | 1022.0 |
| 20260906061542 | 12 | 77 | 3.2 | 4.8 | 0.00 | 0.00 | 0.00 | 86 | 1022.0 |
| 20260906061526 | 12 | 86 | 4.8 | 4.8 | 0.00 | 0.00 | 0.00 | 86 | 1022.0 |
| 20260906061509 | 12 | 103 | 4.8 | 4.8 | 0.00 | 0.00 | 0.00 | 86 | 1022.0 |
| 20260906061504 | 12 | 69 | 3.2 | 6.4 | 0.00 | 0.00 | 0.00 | 86 | 1022.0 |
| 20260906061429 | 12 | 94 | 3.2 | 6.4 | 0.00 | 0.00 | 0.00 | 86 | 1022.0 |
| 20260906061424 | 12 | 102 | 4.8 | 6.4 | 0.00 | 0.00 | 0.00 | 86 | 1022.0 |
| 20260906061405 | 12 | 120 | 4.8 | 6.4 | 0.00 | 0.00 | 0.00 | 86 | 1022.0 |
| 20260906061357 | 12 | 120 | 4.8 | 6.4 | 0.00 | 0.00 | 0.00 | 86 | 1022.0 |
| 20260906061351 | 12 | 112 | 3.2 | 6.4 | 0.00 | 0.00 | 0.00 | 86 | 1022.0 |
| 20260906061328 | 12 | 88 | 4.8 | 9.7 | 0.00 | 0.00 | 0.00 | 86 | 1022.0 |
| 20260906061309 | 12 | 62 | 6.4 | 9.7 | 0.00 | 0.00 | 0.00 | 86 | 1022.0 |
| 20260906061301 | 12 | 116 | 3.2 | 9.7 | 0.00 | 0.00 | 0.00 | 86 | 1022.0 |
| 20260906061253 | 12 | 116 | 3.2 | 9.7 | 0.00 | 0.00 | 0.00 | 86 | 1022.0 |
| 20260906061237 | 12 | 83 | 3.2 | 9.7 | 0.00 | 0.00 | 0.00 | 86 | 1022.0 |
| 20260906061205 | 12 | 96 | 4.8 | 9.7 | 0.00 | 0.00 | 0.00 | 86 | 1022.0 |
| 20260906061153 | 12 | 95 | 6.4 | 9.7 | 0.00 | 0.00 | 0.00 | 86 | 1022.0 |
| 20260906061129 | 12 | 87 | 6.4 | 9.7 | 0.00 | 0.00 | 0.00 | 86 | 1022.0 |
| 20260906061101 | 12 | 103 | 4.8 | 6.4 | 0.00 | 0.00 | 0.00 | 86 | 1022.0 |
| 20260906061045 | 12 | 125 | 3.2 | 4.8 | 0.00 | 0.00 | 0.00 | 86 | 1022.0 |
| 20260906061029 | 12 | 85 | 4.8 | 4.8 | 0.00 | 0.00 | 0.00 | 86 | 1022.0 |
| 20260906061006 | 12 | 106 | 3.2 | 4.8 | 0.00 | 0.00 | 0.00 | 86 | 1022.0 |
| 20260906060949 | 12 | 81 | 3.2 | 4.8 | 0.00 | 0.00 | 0.00 | 86 | 1022.0 |
| 20260906060933 | 12 | 83 | 3.2 | 4.8 | 0.00 | 0.00 | 0.00 | 86 | 1022.0 |
| 20260906060918 | 12 | 69 | 3.2 | 3.2 | 0.00 | 0.00 | 0.00 | 86 | 1022.0 |
| 20260906060909 | 12 | 64 | 1.6 | 3.2 | 0.00 | 0.00 | 0.00 | 86 | 1022.0 |
| 20260906060901 | 12 | 64 | 1.6 | 4.8 | 0.00 | 0.00 | 0.00 | 86 | 1022.0 |
| 20260906060846 | 12 | 94 | 1.6 | 4.8 | 0.00 | 0.00 | 0.00 | 86 | 1022.0 |
| 20260906060829 | 12 | 101 | 1.6 | 4.8 | 0.00 | 0.00 | 0.00 | 86 | 1022.0 |
| 20260906060808 | 12 | 104 | 3.2 | 4.8 | 0.00 | 0.00 | 0.00 | 86 | 1022.0 |
| 20260906060741 | 12 | 51 | 3.2 | 4.8 | 0.00 | 0.00 | 0.00 | 86 | 1022.0 |
| 20260906060735 | 12 | 78 | 3.2 | 4.8 | 0.00 | 0.00 | 0.00 | 86 | 1022.0 |
| 20260906060710 | 12 | 64 | 1.6 | 4.8 | 0.00 | 0.00 | 0.00 | 86 | 1022.0 |
| 20260906060701 | 12 | 74 | 3.2 | 4.8 | 0.00 | 0.00 | 0.00 | 86 | 1022.0 |
| 20260906060653 | 12 | 74 | 3.2 | 4.8 | 0.00 | 0.00 | 0.00 | 86 | 1022.0 |
| 20260906060637 | 12 | 77 | 3.2 | 4.8 | 0.00 | 0.00 | 0.00 | 86 | 1022.0 |
| 20260906060621 | 12 | 59 | 1.6 | 4.8 | 0.00 | 0.00 | 0.00 | 86 | 1022.0 |
| 20260906060605 | 12 | 38 | 3.2 | 4.8 | 0.00 | 0.00 | 0.00 | 86 | 1022.0 |
| 20260906060543 | 12 | 82 | 4.8 | 4.8 | 0.00 | 0.00 | 0.00 | 86 | 1022.0 |
| 20260906060527 | 12 | 118 | 4.8 | 4.8 | 0.00 | 0.00 | 0.00 | 86 | 1022.0 |
| 20260906060509 | 12 | 104 | 4.8 | 4.8 | 0.00 | 0.00 | 0.00 | 86 | 1022.0 |
| 20260906060502 | 12 | 41 | 1.6 | 3.2 | 0.00 | 0.00 | 0.00 | 86 | 1022.0 |
| 20260906060452 | 12 | 62 | 1.6 | 1.6 | 0.00 | 0.00 | 0.00 | 86 | 1022.0 |
| 20260906060413 | 12 | 87 | 0.0 | 1.6 | 0.00 | 0.00 | 0.00 | 86 | 1022.0 |
| 20260906060405 | 12 | 87 | 0.0 | 3.2 | 0.00 | 0.00 | 0.00 | 86 | 1022.0 |
| 20260906060349 | 12 | 82 | 0.0 | 3.2 | 0.00 | 0.00 | 0.00 | 86 | 1022.0 |
| 20260906060341 | 12 | 89 | 1.6 | 3.2 | 0.00 | 0.00 | 0.00 | 86 | 1022.0 |
| 20260906060333 | 12 | 89 | 1.6 | 6.4 | 0.00 | 0.00 | 0.00 | 86 | 1022.0 |
| 20260906060317 | 12 | 74 | 1.6 | 6.4 | 0.00 | 0.00 | 0.00 | 86 | 1022.0 |
| 20260906060301 | 12 | 88 | 1.6 | 6.4 | 0.00 | 0.00 | 0.00 | 86 | 1022.0 |
| 20260906060245 | 12 | 97 | 1.6 | 6.4 | 0.00 | 0.00 | 0.00 | 86 | 1022.0 |
| 20260906060229 | 12 | 65 | 3.2 | 6.4 | 0.00 | 0.00 | 0.00 | 86 | 1022.0 |
| 20260906060213 | 12 | 89 | 3.2 | 6.4 | 0.00 | 0.00 | 0.00 | 86 | 1022.0 |
| 20260906060208 | 12 | 100 | 3.2 | 4.8 | 0.00 | 0.00 | 0.00 | 86 | 1022.0 |
| 20260906060141 | 12 | 63 | 1.6 | 3.2 | 0.00 | 0.00 | 0.00 | 86 | 1022.0 |
| 20260906060138 | 12 | 47 | 0.0 | 1.6 | 0.00 | 0.00 | 0.00 | 86 | 1022.0 |
| 20260906060106 | 12 | 50 | 0.0 | 0.0 | 0.00 | 0.00 | 0.00 | 86 | 1022.0 |
| 20260906060013 | 12 | 56 | 0.0 | 0.0 | 0.00 | 0.00 | 0.00 | 86 | 1022.0 |
| 20260906060006 | 12 | 53 | 0.0 | 0.0 | 0.00 | 0.00 | 0.00 | 86 | 1022.0 |
| 20260906055957 | 12 | 53 | 0.0 | 1.6 | 0.00 | 0.00 | 0.05 | 86 | 1022.0 |
| 20260906055942 | 12 | 42 | 0.0 | 1.6 | 0.00 | 0.00 | 0.05 | 86 | 1022.0 |
| 20260906055935 | 12 | 65 | 0.0 | 3.2 | 0.00 | 0.00 | 0.05 | 86 | 1022.0 |
| 20260906055911 | 12 | 40 | 0.0 | 3.2 | 0.00 | 0.00 | 0.05 | 86 | 1022.0 |
| 20260906055853 | 12 | 74 | 0.0 | 4.8 | 0.00 | 0.00 | 0.05 | 86 | 1022.0 |
| 20260906055850 | 12 | 47 | 1.6 | 4.8 | 0.00 | 0.00 | 0.05 | 86 | 1022.0 |
| 20260906055821 | 12 | 65 | 1.6 | 4.8 | 0.00 | 0.00 | 0.05 | 86 | 1022.0 |
| 20260906055810 | 12 | 75 | 1.6 | 4.8 | 0.00 | 0.00 | 0.05 | 86 | 1022.0 |
| 20260906055744 | 12 | 46 | 3.2 | 4.8 | 0.00 | 0.00 | 0.05 | 86 | 1022.0 |
| 20260906055720 | 12 | 53 | 1.6 | 3.2 | 0.00 | 0.00 | 0.05 | 86 | 1022.0 |
| 20260906055701 | 12 | 58 | 0.0 | 3.2 | 0.00 | 0.00 | 0.05 | 86 | 1022.0 |
| 20260906055653 | 12 | 58 | 0.0 | 3.2 | 0.00 | 0.00 | 0.05 | 86 | 1022.0 |
| 20260906055637 | 12 | 67 | 1.6 | 3.2 | 0.00 | 0.00 | 0.05 | 86 | 1022.0 |
| 20260906055629 | 12 | 70 | 1.6 | 3.2 | 0.00 | 0.00 | 0.05 | 86 | 1022.0 |
| 20260906055621 | 12 | 70 | 1.6 | 3.2 | 0.00 | 0.00 | 0.05 | 85 | 1022.0 |
| 20260906055605 | 12 | 89 | 1.6 | 1.6 | 0.00 | 0.00 | 0.05 | 85 | 1022.0 |
| 20260906055549 | 12 | 77 | 1.6 | 1.6 | 0.00 | 0.00 | 0.05 | 85 | 1022.0 |
| 20260906055536 | 12 | 76 | 0.0 | 1.6 | 0.00 | 0.00 | 0.05 | 85 | 1022.0 |
| 20260906055517 | 12 | 43 | 1.6 | 1.6 | 0.00 | 0.00 | 0.05 | 85 | 1022.0 |
| 20260906055501 | 12 | 67 | 1.6 | 1.6 | 0.00 | 0.00 | 0.05 | 85 | 1022.0 |
| 20260906055450 | 12 | 37 | 0.0 | 1.6 | 0.00 | 0.00 | 0.05 | 85 | 1022.0 |
| 20260906055423 | 12 | 52 | 1.6 | 3.2 | 0.00 | 0.00 | 0.05 | 85 | 1022.0 |
| 20260906055405 | 12 | 76 | 1.6 | 3.2 | 0.00 | 0.00 | 0.05 | 85 | 1022.0 |
| 20260906055357 | 12 | 76 | 1.6 | 3.2 | 0.00 | 0.00 | 0.05 | 85 | 1022.0 |
| 20260906055341 | 12 | 81 | 0.0 | 3.2 | 0.00 | 0.00 | 0.05 | 85 | 1022.0 |
| 20260906055325 | 12 | 54 | 0.0 | 3.2 | 0.00 | 0.00 | 0.05 | 85 | 1022.0 |
| 20260906055309 | 12 | 60 | 1.6 | 3.2 | 0.00 | 0.00 | 0.05 | 85 | 1022.0 |
| 20260906055301 | 12 | 43 | 3.2 | 3.2 | 0.00 | 0.00 | 0.05 | 85 | 1022.0 |
| 20260906055253 | 12 | 43 | 3.2 | 3.2 | 0.00 | 0.00 | 0.05 | 85 | 1022.0 |
| 20260906055230 | 12 | 75 | 1.6 | 3.2 | 0.00 | 0.00 | 0.05 | 85 | 1022.0 |
| 20260906055223 | 12 | 60 | 0.0 | 1.6 | 0.00 | 0.00 | 0.05 | 85 | 1022.0 |
| 20260906055207 | 12 | 57 | 0.0 | 1.6 | 0.00 | 0.00 | 0.05 | 85 | 1022.0 |
| 20260906055141 | 12 | 67 | 1.6 | 1.6 | 0.00 | 0.00 | 0.05 | 85 | 1022.0 |
| 20260906055130 | 12 | 63 | 0.0 | 1.6 | 0.00 | 0.00 | 0.05 | 85 | 1022.0 |
| 20260906055100 | 12 | 80 | 0.0 | 1.6 | 0.00 | 0.00 | 0.05 | 85 | 1022.0 |
| 20260906055021 | 12 | 60 | 0.0 | 1.6 | 0.00 | 0.00 | 0.05 | 85 | 1022.0 |
| 20260906055013 | 12 | 77 | 0.0 | 1.6 | 0.00 | 0.00 | 0.05 | 85 | 1022.0 |
| 20260906055004 | 12 | 77 | 0.0 | 4.8 | 0.00 | 0.00 | 0.05 | 85 | 1022.0 |
| 20260906054959 | 12 | 77 | 0.0 | 4.8 | 0.00 | 0.00 | 0.05 | 85 | 1022.0 |
| 20260906054941 | 12 | 76 | 1.6 | 4.8 | 0.00 | 0.00 | 0.05 | 85 | 1022.0 |
| 20260906054933 | 12 | 76 | 1.6 | 6.4 | 0.00 | 0.00 | 0.05 | 85 | 1022.0 |
| 20260906054917 | 12 | 111 | 1.6 | 6.4 | 0.00 | 0.00 | 0.05 | 85 | 1022.0 |
| 20260906054901 | 12 | 44 | 1.6 | 6.4 | 0.00 | 0.00 | 0.05 | 85 | 1022.0 |
| 20260906054829 | 12 | 85 | 3.2 | 6.4 | 0.00 | 0.00 | 0.05 | 85 | 1022.0 |
| 20260906054826 | 12 | 104 | 3.2 | 6.4 | 0.00 | 0.00 | 0.05 | 85 | 1022.0 |
| 20260906054749 | 12 | 56 | 4.8 | 6.4 | 0.00 | 0.00 | 0.05 | 85 | 1022.0 |
| 20260906054736 | 12 | 102 | 3.2 | 3.2 | 0.00 | 0.00 | 0.05 | 85 | 1022.0 |
| 20260906054719 | 12 | 92 | 1.6 | 3.2 | 0.00 | 0.00 | 0.05 | 85 | 1022.0 |
| 20260906054701 | 12 | 46 | 1.6 | 3.2 | 0.00 | 0.00 | 0.05 | 85 | 1022.0 |
| 20260906054645 | 12 | 100 | 1.6 | 3.2 | 0.00 | 0.00 | 0.05 | 85 | 1022.0 |
| 20260906054632 | 12 | 67 | 1.6 | 3.2 | 0.00 | 0.00 | 0.05 | 85 | 1022.0 |
| 20260906054613 | 12 | 73 | 1.6 | 3.2 | 0.00 | 0.00 | 0.05 | 85 | 1022.0 |
| 20260906054605 | 12 | 66 | 3.2 | 3.2 | 0.00 | 0.00 | 0.05 | 85 | 1022.0 |
| 20260906054557 | 12 | 66 | 3.2 | 3.2 | 0.00 | 0.00 | 0.05 | 85 | 1022.0 |
| 20260906054541 | 12 | 51 | 1.6 | 3.2 | 0.00 | 0.00 | 0.05 | 85 | 1022.0 |
| 20260906054536 | 12 | 41 | 1.6 | 3.2 | 0.00 | 0.00 | 0.05 | 85 | 1022.0 |
| 20260906054509 | 12 | 46 | 1.6 | 3.2 | 0.00 | 0.00 | 0.05 | 85 | 1022.0 |
| 20260906054501 | 12 | 72 | 1.6 | 4.8 | 0.00 | 0.00 | 0.05 | 85 | 1022.0 |
| 20260906054453 | 12 | 72 | 1.6 | 4.8 | 0.00 | 0.00 | 0.05 | 85 | 1022.0 |
| 20260906054437 | 12 | 55 | 3.2 | 4.8 | 0.00 | 0.00 | 0.05 | 85 | 1022.0 |
| 20260906054421 | 12 | 87 | 3.2 | 4.8 | 0.00 | 0.00 | 0.05 | 85 | 1022.0 |
| 20260906054405 | 12 | 94 | 1.6 | 4.8 | 0.00 | 0.00 | 0.05 | 85 | 1022.0 |
| 20260906054341 | 12 | 92 | 1.6 | 4.8 | 0.00 | 0.00 | 0.05 | 85 | 1022.0 |
| 20260906054335 | 12 | 85 | 3.2 | 4.8 | 0.00 | 0.00 | 0.05 | 85 | 1022.0 |
| 20260906054320 | 12 | 56 | 3.2 | 4.8 | 0.00 | 0.00 | 0.05 | 85 | 1022.0 |
| 20260906054301 | 12 | 348 | 1.6 | 4.8 | 0.00 | 0.00 | 0.05 | 85 | 1022.0 |
| 20260906054253 | 12 | 348 | 1.6 | 4.8 | 0.00 | 0.00 | 0.05 | 85 | 1022.0 |
| 20260906054238 | 12 | 94 | 1.6 | 4.8 | 0.00 | 0.00 | 0.05 | 85 | 1022.0 |
| 20260906054235 | 12 | 64 | 3.2 | 6.4 | 0.00 | 0.00 | 0.05 | 85 | 1022.0 |
| 20260906054205 | 12 | 107 | 3.2 | 9.7 | 0.00 | 0.00 | 0.05 | 85 | 1022.0 |
| 20260906054149 | 12 | 57 | 3.2 | 9.7 | 0.00 | 0.00 | 0.05 | 85 | 1022.0 |
| 20260906054132 | 12 | 128 | 3.2 | 9.7 | 0.00 | 0.00 | 0.05 | 85 | 1022.0 |
| 20260906054118 | 12 | 43 | 3.2 | 9.7 | 0.00 | 0.00 | 0.05 | 85 | 1022.0 |
| 20260906054101 | 12 | 114 | 4.8 | 9.7 | 0.00 | 0.00 | 0.05 | 85 | 1022.0 |
| 20260906054045 | 12 | 98 | 4.8 | 9.7 | 0.00 | 0.00 | 0.05 | 85 | 1022.0 |
| 20260906054029 | 12 | 81 | 4.8 | 9.7 | 0.00 | 0.00 | 0.05 | 85 | 1022.0 |
| 20260906054013 | 12 | 111 | 6.4 | 9.7 | 0.00 | 0.00 | 0.05 | 85 | 1022.0 |
| 20260906054005 | 12 | 75 | 1.6 | 3.2 | 0.00 | 0.00 | 0.05 | 85 | 1022.0 |
| 20260906053957 | 12 | 75 | 1.6 | 3.2 | 0.00 | 0.00 | 0.05 | 85 | 1022.0 |
| 20260906053941 | 12 | 89 | 0.0 | 1.6 | 0.00 | 0.00 | 0.05 | 85 | 1022.0 |
| 20260906053920 | 12 | 43 | 0.0 | 1.6 | 0.00 | 0.00 | 0.05 | 85 | 1022.0 |
| 20260906053903 | 12 | 337 | 0.0 | 3.2 | 0.00 | 0.00 | 0.05 | 85 | 1022.0 |
| 20260906053845 | 12 | 337 | 0.0 | 3.2 | 0.00 | 0.00 | 0.05 | 85 | 1022.0 |
| 20260906053829 | 12 | 66 | 1.6 | 3.2 | 0.00 | 0.00 | 0.05 | 85 | 1022.0 |
| 20260906053814 | 12 | 53 | 1.6 | 3.2 | 0.00 | 0.00 | 0.05 | 85 | 1022.0 |
| 20260906053804 | 12 | 44 | 1.6 | 4.8 | 0.00 | 0.00 | 0.05 | 85 | 1022.0 |
| 20260906053757 | 12 | 44 | 1.6 | 4.8 | 0.00 | 0.00 | 0.05 | 85 | 1022.0 |
| 20260906053741 | 12 | 80 | 1.6 | 4.8 | 0.00 | 0.00 | 0.05 | 85 | 1022.0 |
| 20260906053736 | 12 | 111 | 3.2 | 4.8 | 0.00 | 0.00 | 0.05 | 85 | 1022.0 |
| 20260906053709 | 12 | 76 | 1.6 | 4.8 | 0.00 | 0.00 | 0.05 | 85 | 1022.0 |
| 20260906053700 | 12 | 48 | 1.6 | 4.8 | 0.00 | 0.00 | 0.05 | 85 | 1022.0 |
| 20260906053653 | 12 | 48 | 1.6 | 4.8 | 0.00 | 0.00 | 0.05 | 85 | 1022.0 |
| 20260906053637 | 12 | 43 | 1.6 | 4.8 | 0.00 | 0.00 | 0.05 | 85 | 1022.0 |
| 20260906053621 | 12 | 74 | 3.2 | 4.8 | 0.00 | 0.00 | 0.05 | 85 | 1022.0 |
| 20260906053605 | 12 | 86 | 1.6 | 3.2 | 0.00 | 0.00 | 0.05 | 85 | 1022.0 |
| 20260906053549 | 12 | 77 | 3.2 | 3.2 | 0.00 | 0.00 | 0.05 | 85 | 1022.0 |
| 20260906053544 | 12 | 66 | 3.2 | 3.2 | 0.00 | 0.00 | 0.05 | 85 | 1022.0 |
| 20260906053517 | 12 | 55 | 1.6 | 6.4 | 0.00 | 0.00 | 0.05 | 85 | 1022.0 |
| 20260906053509 | 12 | 43 | 0.0 | 6.4 | 0.00 | 0.00 | 0.05 | 85 | 1022.0 |
| 20260906053504 | 12 | 43 | 0.0 | 9.7 | 0.00 | 0.00 | 0.05 | 85 | 1022.0 |
| 20260906053439 | 12 | 38 | 1.6 | 9.7 | 0.00 | 0.00 | 0.05 | 85 | 1022.0 |
| 20260906053421 | 12 | 70 | 1.6 | 9.7 | 0.00 | 0.00 | 0.05 | 85 | 1022.0 |
| 20260906053419 | 12 | 69 | 3.2 | 9.7 | 0.00 | 0.00 | 0.05 | 85 | 1022.0 |
| 20260906053349 | 12 | 90 | 6.4 | 9.7 | 0.00 | 0.00 | 0.05 | 85 | 1022.0 |
| 20260906053332 | 12 | 86 | 6.4 | 9.7 | 0.00 | 0.00 | 0.05 | 85 | 1022.0 |
| 20260906053327 | 12 | 96 | 6.4 | 6.4 | 0.00 | 0.00 | 0.05 | 85 | 1022.0 |
| 20260906053301 | 12 | 84 | 3.2 | 3.2 | 0.00 | 0.00 | 0.05 | 85 | 1022.0 |
| 20260906053244 | 12 | 68 | 1.6 | 3.2 | 0.00 | 0.00 | 0.05 | 85 | 1022.0 |
| 20260906053229 | 12 | 39 | 1.6 | 3.2 | 0.00 | 0.00 | 0.05 | 85 | 1022.0 |
| 20260906053212 | 12 | 93 | 1.6 | 3.2 | 0.00 | 0.00 | 0.05 | 85 | 1022.0 |
| 20260906053205 | 12 | 62 | 1.6 | 3.2 | 0.00 | 0.00 | 0.05 | 85 | 1022.0 |
| 20260906053157 | 12 | 62 | 1.6 | 3.2 | 0.00 | 0.00 | 0.05 | 85 | 1022.0 |
| 20260906053140 | 12 | 31 | 1.6 | 3.2 | 0.00 | 0.00 | 0.05 | 85 | 1022.0 |
| 20260906053127 | 12 | 74 | 3.2 | 3.2 | 0.00 | 0.00 | 0.05 | 85 | 1022.0 |
| 20260906053108 | 12 | 95 | 3.2 | 3.2 | 0.00 | 0.00 | 0.05 | 85 | 1022.0 |
| 20260906053101 | 12 | 96 | 3.2 | 3.2 | 0.00 | 0.00 | 0.05 | 85 | 1022.0 |
| 20260906053053 | 12 | 96 | 3.2 | 3.2 | 0.00 | 0.00 | 0.05 | 85 | 1022.0 |
| 20260906053037 | 12 | 73 | 3.2 | 3.2 | 0.00 | 0.00 | 0.05 | 85 | 1022.0 |
| 20260906053029 | 12 | 73 | 3.2 | 4.8 | 0.00 | 0.00 | 0.05 | 85 | 1022.0 |
| 20260906053023 | 12 | 85 | 3.2 | 4.8 | 0.00 | 0.00 | 0.05 | 85 | 1022.0 |
| 20260906053004 | 12 | 1 | 1.6 | 4.8 | 0.00 | 0.00 | 0.05 | 85 | 1022.0 |
| 20260906052957 | 12 | 1 | 1.6 | 4.8 | 0.00 | 0.00 | 0.05 | 85 | 1022.0 |
| 20260906052941 | 12 | 63 | 3.2 | 4.8 | 0.00 | 0.00 | 0.05 | 85 | 1022.0 |
| 20260906052925 | 12 | 42 | 1.6 | 4.8 | 0.00 | 0.00 | 0.05 | 85 | 1022.0 |
| 20260906052919 | 12 | 64 | 1.6 | 4.8 | 0.00 | 0.00 | 0.05 | 85 | 1022.0 |
| 20260906052904 | 12 | 62 | 3.2 | 4.8 | 0.00 | 0.00 | 0.05 | 85 | 1022.0 |
| 20260906052837 | 12 | 81 | 3.2 | 3.2 | 0.00 | 0.00 | 0.05 | 85 | 1022.0 |
| 20260906052821 | 12 | 74 | 3.2 | 4.8 | 0.00 | 0.00 | 0.05 | 85 | 1022.0 |
| 20260906052815 | 12 | 42 | 3.2 | 4.8 | 0.00 | 0.00 | 0.05 | 85 | 1022.0 |
| 20260906052732 | 12 | 55 | 1.6 | 4.8 | 0.00 | 0.00 | 0.05 | 85 | 1022.0 |
| 20260906052717 | 12 | 23 | 1.6 | 4.8 | 0.00 | 0.00 | 0.05 | 85 | 1022.0 |
| 20260906052714 | 12 | 49 | 4.8 | 4.8 | 0.00 | 0.00 | 0.05 | 85 | 1022.0 |
| 20260906052645 | 12 | 63 | 3.2 | 4.8 | 0.00 | 0.00 | 0.05 | 85 | 1022.0 |
| 20260906052629 | 12 | 83 | 3.2 | 4.8 | 0.00 | 0.00 | 0.05 | 85 | 1022.0 |
| 20260906052613 | 12 | 49 | 3.2 | 4.8 | 0.00 | 0.00 | 0.05 | 85 | 1022.0 |
| 20260906052605 | 12 | 89 | 3.2 | 4.8 | 0.00 | 0.00 | 0.05 | 85 | 1022.0 |
| 20260906052549 | 12 | 89 | 3.2 | 4.8 | 0.00 | 0.00 | 0.05 | 85 | 1022.0 |
| 20260906052534 | 12 | 76 | 3.2 | 4.8 | 0.00 | 0.00 | 0.05 | 85 | 1022.0 |
| 20260906052527 | 12 | 88 | 3.2 | 4.8 | 0.00 | 0.00 | 0.05 | 85 | 1022.0 |
| 20260906052509 | 12 | 78 | 1.6 | 3.2 | 0.00 | 0.00 | 0.05 | 85 | 1022.0 |
| 20260906052500 | 12 | 78 | 1.6 | 4.8 | 0.00 | 0.00 | 0.05 | 85 | 1022.0 |
| 20260906052445 | 12 | 72 | 3.2 | 4.8 | 0.00 | 0.00 | 0.05 | 85 | 1022.0 |
| 20260906052429 | 12 | 84 | 3.2 | 4.8 | 0.00 | 0.00 | 0.05 | 85 | 1022.0 |
| 20260906052412 | 12 | 109 | 3.2 | 4.8 | 0.00 | 0.00 | 0.05 | 85 | 1022.0 |
| 20260906052405 | 12 | 76 | 3.2 | 4.8 | 0.00 | 0.00 | 0.05 | 85 | 1022.0 |
| 20260906052357 | 12 | 76 | 3.2 | 4.8 | 0.00 | 0.00 | 0.05 | 85 | 1022.0 |
| 20260906052341 | 12 | 69 | 3.2 | 4.8 | 0.00 | 0.00 | 0.05 | 85 | 1022.0 |
| 20260906052325 | 12 | 64 | 3.2 | 4.8 | 0.00 | 0.00 | 0.05 | 85 | 1022.0 |
| 20260906052308 | 12 | 62 | 3.2 | 4.8 | 0.00 | 0.00 | 0.05 | 85 | 1022.0 |
| 20260906052305 | 12 | 65 | 3.2 | 4.8 | 0.00 | 0.00 | 0.05 | 85 | 1022.0 |
| 20260906052252 | 12 | 65 | 3.2 | 4.8 | 0.00 | 0.00 | 0.05 | 85 | 1022.0 |
| 20260906052237 | 12 | 84 | 3.2 | 4.8 | 0.00 | 0.00 | 0.05 | 85 | 1022.0 |
| 20260906052224 | 12 | 42 | 3.2 | 3.2 | 0.00 | 0.00 | 0.05 | 85 | 1022.0 |
| 20260906052205 | 12 | 91 | 1.6 | 3.2 | 0.00 | 0.00 | 0.05 | 85 | 1022.0 |
| 20260906052143 | 12 | 64 | 1.6 | 3.2 | 0.00 | 0.00 | 0.05 | 85 | 1022.0 |
| 20260906052128 | 12 | 97 | 1.6 | 3.2 | 0.00 | 0.00 | 0.05 | 85 | 1022.0 |
| 20260906052109 | 12 | 60 | 1.6 | 3.2 | 0.00 | 0.00 | 0.05 | 85 | 1022.0 |
| 20260906052100 | 12 | 78 | 3.2 | 4.8 | 0.00 | 0.00 | 0.05 | 85 | 1022.0 |
| 20260906052052 | 12 | 78 | 3.2 | 4.8 | 0.00 | 0.00 | 0.05 | 85 | 1022.0 |
| 20260906052047 | 12 | 69 | 1.6 | 4.8 | 0.00 | 0.00 | 0.05 | 85 | 1022.0 |
| 20260906052031 | 12 | 77 | 3.2 | 4.8 | 0.00 | 0.00 | 0.05 | 85 | 1022.0 |
| 20260906052005 | 12 | 21 | 1.6 | 4.8 | 0.00 | 0.00 | 0.05 | 85 | 1022.0 |
| 20260906051949 | 12 | 63 | 1.6 | 4.8 | 0.00 | 0.00 | 0.05 | 85 | 1022.0 |
| 20260906051933 | 12 | 115 | 3.2 | 4.8 | 0.00 | 0.00 | 0.05 | 85 | 1022.0 |
| 20260906051925 | 12 | 73 | 3.2 | 4.8 | 0.00 | 0.00 | 0.05 | 85 | 1022.0 |
| 20260906051901 | 12 | 81 | 1.6 | 4.8 | 0.00 | 0.00 | 0.05 | 85 | 1022.0 |
| 20260906051858 | 12 | 36 | 1.6 | 4.8 | 0.00 | 0.00 | 0.05 | 85 | 1022.0 |
| 20260906051829 | 12 | 47 | 3.2 | 4.8 | 0.00 | 0.00 | 0.05 | 85 | 1022.0 |
| 20260906051812 | 12 | 70 | 3.2 | 4.8 | 0.00 | 0.00 | 0.05 | 85 | 1022.0 |
| 20260906051758 | 12 | 56 | 3.2 | 4.8 | 0.00 | 0.00 | 0.05 | 85 | 1022.0 |
| 20260906051742 | 12 | 49 | 3.2 | 3.2 | 0.00 | 0.00 | 0.05 | 85 | 1022.0 |
| 20260906051717 | 12 | 81 | 3.2 | 3.2 | 0.00 | 0.00 | 0.05 | 85 | 1022.0 |
| 20260906051701 | 12 | 61 | 1.6 | 3.2 | 0.00 | 0.00 | 0.05 | 85 | 1022.0 |
| 20260906051653 | 12 | 53 | 1.6 | 3.2 | 0.00 | 0.00 | 0.05 | 85 | 1022.0 |
| 20260906051630 | 12 | 54 | 1.6 | 3.2 | 0.00 | 0.00 | 0.05 | 85 | 1022.0 |
| 20260906051614 | 12 | 51 | 0.0 | 3.2 | 0.00 | 0.00 | 0.05 | 85 | 1022.0 |
| 20260906051604 | 12 | 75 | 1.6 | 3.2 | 0.00 | 0.00 | 0.05 | 85 | 1022.0 |
| 20260906051542 | 12 | 46 | 1.6 | 3.2 | 0.00 | 0.00 | 0.05 | 85 | 1022.0 |
| 20260906051525 | 12 | 27 | 1.6 | 3.2 | 0.00 | 0.00 | 0.05 | 85 | 1022.0 |
| 20260906051508 | 12 | 49 | 0.0 | 3.2 | 0.00 | 0.00 | 0.05 | 85 | 1022.0 |
| 20260906051501 | 12 | 62 | 3.2 | 4.8 | 0.00 | 0.00 | 0.05 | 85 | 1022.0 |
| 20260906051438 | 12 | 75 | 1.6 | 4.8 | 0.00 | 0.00 | 0.05 | 85 | 1022.0 |
| 20260906051421 | 12 | 63 | 1.6 | 4.8 | 0.00 | 0.00 | 0.05 | 85 | 1022.0 |
| 20260906051406 | 12 | 85 | 1.6 | 4.8 | 0.00 | 0.00 | 0.05 | 85 | 1022.0 |
| 20260906051350 | 12 | 78 | 1.6 | 4.8 | 0.00 | 0.00 | 0.05 | 85 | 1022.0 |
| 20260906051344 | 12 | 60 | 1.6 | 4.8 | 0.00 | 0.00 | 0.05 | 85 | 1022.0 |
| 20260906051327 | 12 | 95 | 4.8 | 4.8 | 0.00 | 0.00 | 0.05 | 85 | 1022.0 |
| 20260906051307 | 12 | 95 | 1.6 | 4.8 | 0.00 | 0.00 | 0.05 | 85 | 1022.0 |
| 20260906051239 | 12 | 61 | 1.6 | 4.8 | 0.00 | 0.00 | 0.05 | 85 | 1022.0 |
| 20260906051221 | 12 | 67 | 3.2 | 6.4 | 0.00 | 0.00 | 0.05 | 85 | 1022.0 |
| 20260906051213 | 12 | 89 | 3.2 | 6.4 | 0.00 | 0.00 | 0.05 | 85 | 1022.0 |
| 20260906051205 | 12 | 89 | 3.2 | 9.7 | 0.00 | 0.00 | 0.05 | 85 | 1022.0 |
| 20260906051149 | 12 | 81 | 1.6 | 9.7 | 0.00 | 0.00 | 0.05 | 85 | 1022.0 |
| 20260906051133 | 12 | 52 | 1.6 | 9.7 | 0.00 | 0.00 | 0.05 | 85 | 1022.0 |
| 20260906051117 | 12 | 81 | 3.2 | 9.7 | 0.00 | 0.00 | 0.05 | 85 | 1022.0 |
| 20260906051101 | 12 | 73 | 3.2 | 9.7 | 0.00 | 0.00 | 0.05 | 85 | 1022.0 |
| 20260906051046 | 12 | 73 | 3.2 | 9.7 | 0.00 | 0.00 | 0.05 | 85 | 1022.0 |
| 20260906051039 | 12 | 85 | 6.4 | 9.7 | 0.00 | 0.00 | 0.05 | 85 | 1022.0 |
| 20260906051013 | 12 | 77 | 4.8 | 6.4 | 0.00 | 0.00 | 0.05 | 85 | 1022.0 |
| 20260906051006 | 12 | 70 | 3.2 | 3.2 | 0.00 | 0.00 | 0.05 | 85 | 1022.0 |
| 20260906050957 | 12 | 70 | 3.2 | 3.2 | 0.00 | 0.00 | 0.05 | 85 | 1022.0 |
| 20260906050952 | 12 | 82 | 1.6 | 3.2 | 0.00 | 0.00 | 0.05 | 85 | 1022.0 |
| 20260906050925 | 12 | 61 | 0.0 | 3.2 | 0.00 | 0.00 | 0.05 | 85 | 1022.0 |
| 20260906050909 | 12 | 58 | 0.0 | 3.2 | 0.00 | 0.00 | 0.05 | 85 | 1022.0 |
| 20260906050901 | 12 | 65 | 0.0 | 3.2 | 0.00 | 0.00 | 0.05 | 85 | 1022.0 |
| 20260906050853 | 12 | 65 | 0.0 | 3.2 | 0.00 | 0.00 | 0.05 | 85 | 1022.0 |
| 20260906050837 | 12 | 148 | 3.2 | 3.2 | 0.00 | 0.00 | 0.05 | 85 | 1022.0 |
| 20260906050829 | 12 | 148 | 3.2 | 4.8 | 0.00 | 0.00 | 0.05 | 85 | 1022.0 |
| 20260906050813 | 12 | 77 | 1.6 | 4.8 | 0.00 | 0.00 | 0.05 | 85 | 1022.0 |
| 20260906050807 | 12 | 92 | 1.6 | 4.8 | 0.00 | 0.00 | 0.05 | 85 | 1022.0 |
| 20260906050741 | 12 | 83 | 1.6 | 4.8 | 0.00 | 0.00 | 0.05 | 85 | 1022.0 |
| 20260906050725 | 12 | 81 | 1.6 | 4.8 | 0.00 | 0.00 | 0.05 | 85 | 1022.0 |
| 20260906050709 | 12 | 57 | 1.6 | 4.8 | 0.00 | 0.00 | 0.05 | 85 | 1022.0 |
| 20260906050701 | 12 | 56 | 3.2 | 6.4 | 0.00 | 0.00 | 0.05 | 85 | 1022.0 |
| 20260906050656 | 12 | 56 | 3.2 | 6.4 | 0.00 | 0.00 | 0.05 | 85 | 1022.0 |
| 20260906050638 | 12 | 80 | 1.6 | 6.4 | 0.00 | 0.00 | 0.05 | 85 | 1022.0 |
| 20260906050632 | 12 | 46 | 3.2 | 6.4 | 0.00 | 0.00 | 0.05 | 85 | 1022.0 |
| 20260906050615 | 12 | 63 | 3.2 | 6.4 | 0.00 | 0.00 | 0.05 | 85 | 1022.0 |
| 20260906050550 | 12 | 61 | 1.6 | 6.4 | 0.00 | 0.00 | 0.05 | 85 | 1022.0 |
| 20260906050534 | 12 | 67 | 3.2 | 6.4 | 0.00 | 0.00 | 0.05 | 85 | 1022.0 |
| 20260906050517 | 12 | 77 | 4.8 | 6.4 | 0.00 | 0.00 | 0.05 | 85 | 1022.0 |
| 20260906050501 | 12 | 94 | 4.8 | 6.4 | 0.00 | 0.00 | 0.05 | 85 | 1022.0 |
| 20260906050448 | 12 | 96 | 6.4 | 6.4 | 0.00 | 0.00 | 0.05 | 85 | 1022.0 |
| 20260906050432 | 12 | 62 | 4.8 | 4.8 | 0.00 | 0.00 | 0.05 | 85 | 1022.0 |
| 20260906050405 | 12 | 84 | 3.2 | 4.8 | 0.00 | 0.00 | 0.05 | 85 | 1022.0 |
| 20260906050352 | 12 | 47 | 1.6 | 4.8 | 0.00 | 0.00 | 0.05 | 85 | 1022.0 |
| 20260906050333 | 12 | 55 | 1.6 | 4.8 | 0.00 | 0.00 | 0.05 | 85 | 1022.0 |
| 20260906050330 | 12 | 27 | 3.2 | 4.8 | 0.00 | 0.00 | 0.05 | 85 | 1022.0 |
| 20260906050301 | 12 | 84 | 3.2 | 3.2 | 0.00 | 0.00 | 0.05 | 85 | 1022.0 |
| 20260906050256 | 12 | 115 | 3.2 | 3.2 | 0.00 | 0.00 | 0.05 | 85 | 1022.0 |
| 20260906050234 | 12 | 81 | 1.6 | 3.2 | 0.00 | 0.00 | 0.05 | 85 | 1022.0 |
| 20260906050213 | 12 | 70 | 1.6 | 3.2 | 0.00 | 0.00 | 0.05 | 85 | 1022.0 |
| 20260906050208 | 12 | 76 | 0.0 | 3.2 | 0.00 | 0.00 | 0.05 | 85 | 1022.0 |
| 20260906050144 | 12 | 40 | 1.6 | 3.2 | 0.00 | 0.00 | 0.05 | 85 | 1022.0 |
| 20260906050126 | 12 | 41 | 1.6 | 3.2 | 0.00 | 0.00 | 0.05 | 85 | 1022.0 |
| 20260906050109 | 12 | 84 | 1.6 | 3.2 | 0.00 | 0.00 | 0.05 | 85 | 1022.0 |
| 20260906050101 | 12 | 32 | 1.6 | 3.2 | 0.00 | 0.00 | 0.05 | 85 | 1022.0 |
| 20260906050053 | 12 | 32 | 1.6 | 3.2 | 0.00 | 0.00 | 0.05 | 85 | 1022.0 |
| 20260906050037 | 12 | 76 | 1.6 | 3.2 | 0.00 | 0.00 | 0.05 | 85 | 1022.0 |
| 20260906050021 | 12 | 25 | 1.6 | 3.2 | 0.00 | 0.00 | 0.05 | 85 | 1022.0 |
| 20260906050005 | 12 | 58 | 1.6 | 3.2 | 0.00 | 0.00 | 0.05 | 85 | 1022.0 |
| 20260906045949 | 12 | 71 | 1.6 | 1.6 | 0.00 | 0.00 | 0.05 | 85 | 1022.0 |
| 20260906045925 | 12 | 51 | 1.6 | 1.6 | 0.00 | 0.00 | 0.05 | 85 | 1022.0 |
| 20260906045909 | 12 | 76 | 0.0 | 1.6 | 0.00 | 0.00 | 0.05 | 85 | 1022.0 |
| 20260906045903 | 12 | 36 | 1.6 | 3.2 | 0.00 | 0.00 | 0.05 | 85 | 1022.0 |
| 20260906045848 | 12 | 82 | 1.6 | 3.2 | 0.00 | 0.00 | 0.05 | 85 | 1022.0 |
| 20260906045821 | 12 | 63 | 1.6 | 3.2 | 0.00 | 0.00 | 0.05 | 85 | 1022.0 |
| 20260906045805 | 12 | 65 | 1.6 | 3.2 | 0.00 | 0.00 | 0.05 | 85 | 1022.0 |
| 20260906045733 | 12 | 85 | 1.6 | 3.2 | 0.00 | 0.00 | 0.05 | 85 | 1022.0 |
| 20260906045717 | 12 | 78 | 1.6 | 3.2 | 0.00 | 0.00 | 0.05 | 85 | 1022.0 |
| 20260906045701 | 12 | 49 | 1.6 | 3.2 | 0.00 | 0.00 | 0.05 | 85 | 1022.0 |
| 20260906045645 | 12 | 103 | 1.6 | 3.2 | 0.00 | 0.00 | 0.05 | 85 | 1022.0 |
| 20260906045637 | 12 | 70 | 1.6 | 3.2 | 0.00 | 0.00 | 0.05 | 85 | 1022.0 |
| 20260906045629 | 12 | 70 | 1.6 | 4.8 | 0.00 | 0.00 | 0.05 | 85 | 1022.0 |
| 20260906045616 | 12 | 45 | 1.6 | 4.8 | 0.00 | 0.00 | 0.05 | 85 | 1022.0 |
| 20260906045557 | 12 | 88 | 1.6 | 4.8 | 0.00 | 0.00 | 0.05 | 85 | 1022.0 |
| 20260906045541 | 12 | 76 | 1.6 | 4.8 | 0.00 | 0.00 | 0.05 | 85 | 1022.0 |
| 20260906045517 | 12 | 39 | 3.2 | 4.8 | 0.00 | 0.00 | 0.05 | 85 | 1022.0 |
| 20260906045501 | 12 | 67 | 3.2 | 4.8 | 0.00 | 0.00 | 0.05 | 85 | 1022.0 |
| 20260906045445 | 12 | 146 | 3.2 | 4.8 | 0.00 | 0.00 | 0.05 | 85 | 1022.0 |
| 20260906045429 | 12 | 84 | 3.2 | 3.2 | 0.00 | 0.00 | 0.05 | 85 | 1022.0 |
| 20260906045413 | 12 | 74 | 3.2 | 3.2 | 0.00 | 0.00 | 0.05 | 85 | 1022.0 |
| 20260906045406 | 12 | 28 | 1.6 | 9.7 | 0.00 | 0.00 | 0.05 | 85 | 1022.0 |
| 20260906045357 | 12 | 28 | 1.6 | 9.7 | 0.00 | 0.00 | 0.05 | 85 | 1022.0 |
| 20260906045341 | 12 | 55 | 1.6 | 9.7 | 0.00 | 0.00 | 0.05 | 85 | 1022.0 |
| 20260906045327 | 12 | 45 | 0.0 | 9.7 | 0.00 | 0.00 | 0.05 | 85 | 1022.0 |
| 20260906045313 | 12 | 41 | 0.0 | 9.7 | 0.00 | 0.00 | 0.05 | 85 | 1022.0 |
| 20260906045256 | 12 | 41 | 1.6 | 9.7 | 0.00 | 0.00 | 0.05 | 85 | 1022.0 |
| 20260906045237 | 12 | 72 | 3.2 | 9.7 | 0.00 | 0.00 | 0.05 | 85 | 1022.0 |
| 20260906045221 | 12 | 103 | 6.4 | 9.7 | 0.00 | 0.00 | 0.05 | 85 | 1022.0 |
| 20260906045205 | 12 | 114 | 6.4 | 9.7 | 0.00 | 0.00 | 0.05 | 85 | 1022.0 |
| 20260906045200 | 12 | 101 | 6.4 | 6.4 | 0.00 | 0.00 | 0.05 | 85 | 1022.0 |
| 20260906045149 | 12 | 101 | 6.4 | 6.4 | 0.00 | 0.00 | 0.05 | 85 | 1022.0 |
| 20260906045133 | 12 | 84 | 4.8 | 6.4 | 0.00 | 0.00 | 0.05 | 85 | 1022.0 |
| 20260906045117 | 12 | 100 | 3.2 | 4.8 | 0.00 | 0.00 | 0.05 | 85 | 1022.0 |
| 20260906045109 | 12 | 48 | 3.2 | 4.8 | 0.00 | 0.00 | 0.05 | 85 | 1022.0 |
| 20260906045104 | 12 | 48 | 3.2 | 6.4 | 0.00 | 0.00 | 0.05 | 85 | 1022.0 |
| 20260906045048 | 12 | 103 | 3.2 | 6.4 | 0.00 | 0.00 | 0.05 | 85 | 1022.0 |
| 20260906045021 | 12 | 86 | 3.2 | 6.4 | 0.00 | 0.00 | 0.05 | 85 | 1022.0 |
| 20260906045009 | 12 | 102 | 3.2 | 6.4 | 0.00 | 0.00 | 0.05 | 84 | 1022.0 |
| 20260906044951 | 12 | 99 | 3.2 | 6.4 | 0.00 | 0.00 | 0.05 | 84 | 1022.0 |
| 20260906044933 | 12 | 120 | 4.8 | 6.4 | 0.00 | 0.00 | 0.05 | 84 | 1022.0 |
| 20260906044917 | 12 | 75 | 3.2 | 4.8 | 0.00 | 0.00 | 0.05 | 84 | 1022.0 |
| 20260906044901 | 12 | 85 | 3.2 | 4.8 | 0.00 | 0.00 | 0.05 | 84 | 1022.0 |
| 20260906044845 | 12 | 102 | 4.8 | 4.8 | 0.00 | 0.00 | 0.05 | 84 | 1022.0 |
| 20260906044830 | 12 | 47 | 3.2 | 4.8 | 0.00 | 0.00 | 0.05 | 84 | 1022.0 |
| 20260906044813 | 12 | 80 | 3.2 | 4.8 | 0.00 | 0.00 | 0.05 | 84 | 1022.0 |
| 20260906044805 | 12 | 88 | 3.2 | 4.8 | 0.00 | 0.00 | 0.05 | 84 | 1022.0 |
| 20260906044757 | 12 | 88 | 3.2 | 4.8 | 0.00 | 0.00 | 0.05 | 84 | 1022.0 |
| 20260906044754 | 12 | 36 | 3.2 | 4.8 | 0.00 | 0.00 | 0.05 | 84 | 1022.0 |
| 20260906044725 | 12 | 77 | 1.6 | 3.2 | 0.00 | 0.00 | 0.05 | 84 | 1022.0 |
| 20260906044714 | 12 | 89 | 3.2 | 3.2 | 0.00 | 0.00 | 0.05 | 84 | 1022.0 |
| 20260906044703 | 12 | 68 | 1.6 | 1.6 | 0.00 | 0.00 | 0.05 | 84 | 1022.0 |
| 20260906044637 | 12 | 79 | 0.0 | 1.6 | 0.00 | 0.00 | 0.05 | 84 | 1022.0 |
| 20260906044632 | 12 | 79 | 0.0 | 4.8 | 0.00 | 0.00 | 0.05 | 84 | 1022.0 |
| 20260906044616 | 12 | 47 | 0.0 | 4.8 | 0.00 | 0.00 | 0.05 | 84 | 1022.0 |
| 20260906044557 | 12 | 71 | 1.6 | 4.8 | 0.00 | 0.00 | 0.05 | 84 | 1022.0 |
| 20260906044541 | 12 | 48 | 1.6 | 4.8 | 0.00 | 0.00 | 0.05 | 84 | 1022.0 |
| 20260906044525 | 12 | 77 | 1.6 | 4.8 | 0.00 | 0.00 | 0.05 | 84 | 1022.0 |
| 20260906044509 | 12 | 105 | 3.2 | 4.8 | 0.00 | 0.00 | 0.05 | 84 | 1022.0 |
| 20260906044501 | 12 | 84 | 3.2 | 4.8 | 0.00 | 0.00 | 0.05 | 84 | 1022.0 |
| 20260906044456 | 12 | 84 | 3.2 | 4.8 | 0.00 | 0.00 | 0.05 | 84 | 1022.0 |
| 20260906044437 | 12 | 42 | 3.2 | 3.2 | 0.00 | 0.00 | 0.05 | 84 | 1022.0 |
| 20260906044421 | 12 | 77 | 1.6 | 6.4 | 0.00 | 0.00 | 0.05 | 84 | 1022.0 |
| 20260906044405 | 12 | 111 | 3.2 | 6.4 | 0.00 | 0.00 | 0.05 | 84 | 1022.0 |
| 20260906044352 | 12 | 82 | 1.6 | 6.4 | 0.00 | 0.00 | 0.05 | 84 | 1022.0 |
| 20260906044333 | 12 | 92 | 3.2 | 6.4 | 0.00 | 0.00 | 0.05 | 84 | 1022.0 |
| 20260906044317 | 12 | 91 | 1.6 | 6.4 | 0.00 | 0.00 | 0.05 | 84 | 1022.0 |
| 20260906044309 | 12 | 53 | 3.2 | 6.4 | 0.00 | 0.00 | 0.05 | 84 | 1022.0 |
| 20260906044300 | 12 | 53 | 3.2 | 9.7 | 0.00 | 0.00 | 0.05 | 84 | 1022.0 |
| 20260906044245 | 12 | 105 | 6.4 | 9.7 | 0.00 | 0.00 | 0.05 | 84 | 1022.0 |
| 20260906044231 | 12 | 102 | 4.8 | 9.7 | 0.00 | 0.00 | 0.05 | 84 | 1022.0 |
| 20260906044213 | 12 | 93 | 4.8 | 9.7 | 0.00 | 0.00 | 0.05 | 84 | 1022.0 |
| 20260906044205 | 12 | 88 | 4.8 | 9.7 | 0.00 | 0.00 | 0.05 | 84 | 1022.0 |
| 20260906044149 | 12 | 88 | 4.8 | 9.7 | 0.00 | 0.00 | 0.05 | 84 | 1022.0 |
| 20260906044135 | 12 | 133 | 4.8 | 9.7 | 0.00 | 0.00 | 0.05 | 84 | 1022.0 |
| 20260906044117 | 12 | 57 | 6.4 | 9.7 | 0.00 | 0.00 | 0.05 | 84 | 1022.0 |
| 20260906044101 | 12 | 102 | 3.2 | 4.8 | 0.00 | 0.00 | 0.05 | 84 | 1022.0 |
| 20260906044048 | 12 | 108 | 3.2 | 4.8 | 0.00 | 0.00 | 0.05 | 84 | 1022.0 |
| 20260906044029 | 12 | 104 | 1.6 | 4.8 | 0.00 | 0.00 | 0.05 | 84 | 1022.0 |
| 20260906044013 | 12 | 49 | 0.0 | 4.8 | 0.00 | 0.00 | 0.05 | 84 | 1022.0 |
| 20260906044005 | 12 | 43 | 0.0 | 6.4 | 0.00 | 0.00 | 0.05 | 84 | 1022.0 |
| 20260906043957 | 12 | 43 | 0.0 | 6.4 | 0.00 | 0.00 | 0.05 | 84 | 1022.0 |
| 20260906043941 | 12 | 55 | 0.0 | 6.4 | 0.00 | 0.00 | 0.05 | 84 | 1022.0 |
| 20260906043909 | 12 | 53 | 0.0 | 6.4 | 0.00 | 0.00 | 0.05 | 84 | 1022.0 |
| 20260906043901 | 12 | 31 | 3.2 | 6.4 | 0.00 | 0.00 | 0.05 | 84 | 1022.0 |
| 20260906043853 | 12 | 31 | 3.2 | 6.4 | 0.00 | 0.00 | 0.05 | 84 | 1022.0 |
| 20260906043840 | 12 | 83 | 3.2 | 6.4 | 0.00 | 0.00 | 0.05 | 84 | 1022.0 |
| 20260906043821 | 12 | 92 | 4.8 | 6.4 | 0.00 | 0.00 | 0.05 | 84 | 1022.0 |
| 20260906043807 | 12 | 47 | 6.4 | 6.4 | 0.00 | 0.00 | 0.05 | 84 | 1022.0 |
| 20260906043744 | 12 | 100 | 3.2 | 4.8 | 0.00 | 0.00 | 0.05 | 84 | 1022.0 |
| 20260906043727 | 12 | 63 | 1.6 | 4.8 | 0.00 | 0.00 | 0.05 | 84 | 1022.0 |
| 20260906043709 | 12 | 72 | 1.6 | 4.8 | 0.00 | 0.00 | 0.05 | 84 | 1022.0 |
| 20260906043701 | 12 | 72 | 1.6 | 6.4 | 0.00 | 0.00 | 0.05 | 84 | 1022.0 |
| 20260906043653 | 12 | 72 | 1.6 | 6.4 | 0.00 | 0.00 | 0.05 | 84 | 1022.0 |
| 20260906043637 | 12 | 36 | 3.2 | 6.4 | 0.00 | 0.00 | 0.05 | 84 | 1022.0 |
| 20260906043606 | 12 | 82 | 3.2 | 6.4 | 0.00 | 0.00 | 0.05 | 84 | 1022.0 |
| 20260906043549 | 12 | 80 | 3.2 | 6.4 | 0.00 | 0.00 | 0.05 | 84 | 1022.0 |
| 20260906043532 | 12 | 60 | 6.4 | 6.4 | 0.00 | 0.00 | 0.05 | 84 | 1022.0 |
| 20260906043529 | 12 | 64 | 4.8 | 6.4 | 0.00 | 0.00 | 0.05 | 84 | 1022.0 |
| 20260906043509 | 12 | 79 | 3.2 | 6.4 | 0.00 | 0.00 | 0.05 | 84 | 1022.0 |
| 20260906043500 | 12 | 79 | 3.2 | 9.7 | 0.00 | 0.00 | 0.05 | 84 | 1022.0 |
| 20260906043444 | 12 | 48 | 3.2 | 9.7 | 0.00 | 0.00 | 0.05 | 84 | 1022.0 |
| 20260906043432 | 12 | 65 | 1.6 | 9.7 | 0.00 | 0.00 | 0.05 | 84 | 1022.0 |
| 20260906043413 | 12 | 49 | 3.2 | 9.7 | 0.00 | 0.00 | 0.05 | 84 | 1022.0 |
| 20260906043409 | 12 | 79 | 4.8 | 11.3 | 0.00 | 0.00 | 0.05 | 84 | 1022.0 |
| 20260906043340 | 12 | 81 | 8.0 | 11.3 | 0.00 | 0.00 | 0.05 | 84 | 1022.0 |
| 20260906043337 | 12 | 68 | 4.8 | 11.3 | 0.00 | 0.00 | 0.05 | 84 | 1022.0 |
| 20260906043301 | 12 | 59 | 3.2 | 11.3 | 0.00 | 0.00 | 0.05 | 84 | 1022.0 |
| 20260906043245 | 12 | 59 | 4.8 | 11.3 | 0.00 | 0.00 | 0.05 | 84 | 1022.0 |
| 20260906043237 | 12 | 114 | 8.0 | 11.3 | 0.00 | 0.00 | 0.05 | 84 | 1022.0 |
| 20260906043205 | 12 | 69 | 6.4 | 9.7 | 0.00 | 0.00 | 0.05 | 84 | 1022.0 |
| 20260906043159 | 12 | 69 | 6.4 | 9.7 | 0.00 | 0.00 | 0.05 | 84 | 1022.0 |
| 20260906043141 | 12 | 98 | 6.4 | 6.4 | 0.00 | 0.00 | 0.05 | 84 | 1022.0 |
| 20260906043125 | 12 | 115 | 6.4 | 6.4 | 0.00 | 0.00 | 0.05 | 84 | 1022.0 |
| 20260906043109 | 12 | 73 | 4.8 | 6.4 | 0.00 | 0.00 | 0.05 | 84 | 1022.0 |
| 20260906043101 | 12 | 93 | 6.4 | 6.4 | 0.00 | 0.00 | 0.05 | 84 | 1022.0 |
| 20260906043053 | 12 | 93 | 6.4 | 6.4 | 0.00 | 0.00 | 0.05 | 84 | 1022.0 |
| 20260906043037 | 12 | 89 | 4.8 | 6.4 | 0.00 | 0.00 | 0.05 | 84 | 1022.0 |
| 20260906043032 | 12 | 98 | 4.8 | 4.8 | 0.00 | 0.00 | 0.05 | 84 | 1022.0 |
| 20260906043007 | 12 | 57 | 4.8 | 4.8 | 0.00 | 0.00 | 0.05 | 84 | 1022.0 |
| 20260906042949 | 12 | 93 | 3.2 | 3.2 | 0.00 | 0.00 | 0.05 | 84 | 1022.0 |
| 20260906042934 | 12 | 112 | 1.6 | 3.2 | 0.00 | 0.00 | 0.05 | 84 | 1022.0 |
| 20260906042917 | 12 | 94 | 1.6 | 3.2 | 0.00 | 0.00 | 0.05 | 84 | 1022.0 |
| 20260906042902 | 12 | 90 | 1.6 | 3.2 | 0.00 | 0.00 | 0.05 | 84 | 1022.0 |
| 20260906042853 | 12 | 90 | 1.6 | 3.2 | 0.00 | 0.00 | 0.05 | 84 | 1022.0 |
| 20260906042836 | 12 | 87 | 3.2 | 3.2 | 0.00 | 0.00 | 0.05 | 84 | 1022.0 |
| 20260906042828 | 12 | 49 | 3.2 | 4.8 | 0.00 | 0.00 | 0.05 | 84 | 1022.0 |
| 20260906042732 | 12 | 94 | 3.2 | 4.8 | 0.00 | 0.00 | 0.05 | 84 | 1022.0 |
| 20260906042720 | 12 | 65 | 3.2 | 4.8 | 0.00 | 0.00 | 0.05 | 84 | 1022.0 |
| 20260906042703 | 12 | 69 | 3.2 | 4.8 | 0.00 | 0.00 | 0.05 | 84 | 1022.0 |
| 20260906042647 | 12 | 57 | 3.2 | 4.8 | 0.00 | 0.00 | 0.05 | 84 | 1022.0 |
| 20260906042629 | 12 | 95 | 3.2 | 4.8 | 0.00 | 0.00 | 0.05 | 84 | 1022.0 |
| 20260906042618 | 12 | 59 | 3.2 | 4.8 | 0.00 | 0.00 | 0.05 | 84 | 1022.0 |
| 20260906042605 | 12 | 67 | 1.6 | 6.4 | 0.00 | 0.00 | 0.05 | 84 | 1022.0 |
| 20260906042556 | 12 | 67 | 1.6 | 6.4 | 0.00 | 0.00 | 0.05 | 84 | 1022.0 |
| 20260906042551 | 12 | 62 | 3.2 | 6.4 | 0.00 | 0.00 | 0.05 | 84 | 1022.0 |
| 20260906042525 | 12 | 88 | 1.6 | 6.4 | 0.00 | 0.00 | 0.05 | 84 | 1022.0 |
| 20260906042509 | 12 | 52 | 4.8 | 6.4 | 0.00 | 0.00 | 0.05 | 84 | 1022.0 |
| 20260906042501 | 12 | 81 | 4.8 | 6.4 | 0.00 | 0.00 | 0.05 | 84 | 1022.0 |
| 20260906042439 | 12 | 81 | 4.8 | 6.4 | 0.00 | 0.00 | 0.05 | 84 | 1022.0 |
| 20260906042405 | 12 | 64 | 3.2 | 9.7 | 0.00 | 0.00 | 0.05 | 84 | 1022.0 |
| 20260906042359 | 12 | 64 | 3.2 | 9.7 | 0.00 | 0.00 | 0.05 | 84 | 1022.0 |
| 20260906042341 | 12 | 69 | 4.8 | 9.7 | 0.00 | 0.00 | 0.05 | 84 | 1022.0 |
| 20260906042325 | 12 | 71 | 3.2 | 9.7 | 0.00 | 0.00 | 0.05 | 84 | 1022.0 |
| 20260906042313 | 12 | 94 | 6.4 | 9.7 | 0.00 | 0.00 | 0.05 | 84 | 1022.0 |
| 20260906042253 | 12 | 89 | 6.4 | 9.7 | 0.00 | 0.00 | 0.05 | 84 | 1022.0 |
| 20260906042236 | 12 | 110 | 3.2 | 9.7 | 0.00 | 0.00 | 0.05 | 84 | 1022.0 |
| 20260906042221 | 12 | 78 | 3.2 | 9.7 | 0.00 | 0.00 | 0.05 | 84 | 1022.0 |
| 20260906042206 | 12 | 71 | 4.8 | 9.7 | 0.00 | 0.00 | 0.05 | 84 | 1022.0 |
| 20260906042159 | 12 | 107 | 6.4 | 9.7 | 0.00 | 0.00 | 0.05 | 84 | 1022.0 |
| 20260906042143 | 12 | 87 | 8.0 | 9.7 | 0.00 | 0.00 | 0.05 | 84 | 1022.0 |
| 20260906042117 | 12 | 64 | 6.4 | 9.7 | 0.00 | 0.00 | 0.05 | 84 | 1022.0 |
| 20260906042107 | 12 | 68 | 6.4 | 9.7 | 0.00 | 0.00 | 0.05 | 84 | 1022.0 |
| 20260906042045 | 12 | 109 | 6.4 | 9.7 | 0.00 | 0.00 | 0.05 | 84 | 1022.0 |
| 20260906042029 | 12 | 91 | 6.4 | 6.4 | 0.00 | 0.00 | 0.05 | 84 | 1022.0 |
| 20260906042013 | 12 | 80 | 4.8 | 6.4 | 0.00 | 0.00 | 0.05 | 84 | 1022.0 |
| 20260906042008 | 12 | 109 | 4.8 | 11.3 | 0.00 | 0.00 | 0.05 | 84 | 1022.0 |
| 20260906041948 | 12 | 109 | 4.8 | 11.3 | 0.00 | 0.00 | 0.05 | 84 | 1022.0 |
| 20260906041933 | 12 | 105 | 4.8 | 11.3 | 0.00 | 0.00 | 0.05 | 84 | 1022.0 |
| 20260906041917 | 12 | 113 | 3.2 | 11.3 | 0.00 | 0.00 | 0.05 | 84 | 1022.0 |
| 20260906041849 | 12 | 54 | 3.2 | 11.3 | 0.00 | 0.00 | 0.05 | 84 | 1022.0 |
| 20260906041813 | 12 | 83 | 8.0 | 11.3 | 0.00 | 0.00 | 0.05 | 84 | 1022.0 |
| 20260906041805 | 12 | 114 | 1.6 | 11.3 | 0.00 | 0.00 | 0.05 | 84 | 1022.0 |
| 20260906041757 | 12 | 114 | 1.6 | 11.3 | 0.00 | 0.00 | 0.05 | 84 | 1022.0 |
| 20260906041751 | 12 | 54 | 6.4 | 11.3 | 0.00 | 0.00 | 0.05 | 84 | 1022.0 |
| 20260906041724 | 12 | 109 | 9.7 | 11.3 | 0.00 | 0.00 | 0.05 | 84 | 1022.0 |
| 20260906041709 | 12 | 87 | 4.8 | 9.7 | 0.00 | 0.00 | 0.05 | 84 | 1022.0 |
| 20260906041703 | 12 | 73 | 1.6 | 4.8 | 0.00 | 0.00 | 0.05 | 84 | 1022.0 |
| 20260906041639 | 12 | 65 | 1.6 | 4.8 | 0.00 | 0.00 | 0.05 | 84 | 1022.0 |
| 20260906041621 | 12 | 94 | 1.6 | 4.8 | 0.00 | 0.00 | 0.05 | 84 | 1022.0 |
| 20260906041613 | 12 | 89 | 1.6 | 4.8 | 0.00 | 0.00 | 0.05 | 84 | 1022.0 |
| 20260906041605 | 12 | 89 | 1.6 | 6.4 | 0.00 | 0.00 | 0.05 | 84 | 1022.0 |
| 20260906041550 | 12 | 73 | 1.6 | 6.4 | 0.00 | 0.00 | 0.05 | 84 | 1022.0 |
| 20260906041525 | 12 | 91 | 3.2 | 6.4 | 0.00 | 0.00 | 0.05 | 84 | 1022.0 |
| 20260906041519 | 12 | 98 | 1.6 | 6.4 | 0.00 | 0.00 | 0.05 | 84 | 1022.0 |
| 20260906041500 | 12 | 89 | 3.2 | 6.4 | 0.00 | 0.00 | 0.05 | 84 | 1022.0 |
| 20260906041452 | 12 | 89 | 3.2 | 6.4 | 0.00 | 0.00 | 0.05 | 84 | 1022.0 |
| 20260906041437 | 12 | 60 | 4.8 | 6.4 | 0.00 | 0.00 | 0.05 | 84 | 1022.0 |
| 20260906041421 | 12 | 117 | 6.4 | 6.4 | 0.00 | 0.00 | 0.05 | 84 | 1022.0 |
| 20260906041415 | 12 | 74 | 4.8 | 6.4 | 0.00 | 0.00 | 0.05 | 84 | 1022.0 |
| 20260906041349 | 12 | 116 | 4.8 | 11.3 | 0.00 | 0.00 | 0.05 | 84 | 1022.0 |
| 20260906041332 | 12 | 83 | 3.2 | 11.3 | 0.00 | 0.00 | 0.05 | 84 | 1022.0 |
| 20260906041317 | 12 | 71 | 1.6 | 11.3 | 0.00 | 0.00 | 0.05 | 84 | 1022.0 |
| 20260906041301 | 12 | 80 | 3.2 | 11.3 | 0.00 | 0.00 | 0.05 | 84 | 1022.0 |
| 20260906041253 | 12 | 88 | 3.2 | 11.3 | 0.00 | 0.00 | 0.05 | 84 | 1022.0 |
| 20260906041241 | 12 | 81 | 6.4 | 11.3 | 0.00 | 0.00 | 0.05 | 84 | 1022.0 |
| 20260906041229 | 12 | 81 | 6.4 | 12.9 | 0.00 | 0.00 | 0.05 | 84 | 1022.0 |
| 20260906041214 | 12 | 76 | 4.8 | 12.9 | 0.00 | 0.00 | 0.05 | 84 | 1022.0 |
| 20260906041205 | 12 | 86 | 3.2 | 12.9 | 0.00 | 0.00 | 0.05 | 84 | 1022.0 |
| 20260906041157 | 12 | 86 | 3.2 | 12.9 | 0.00 | 0.00 | 0.05 | 84 | 1022.0 |
| 20260906041144 | 12 | 41 | 3.2 | 12.9 | 0.00 | 0.00 | 0.05 | 84 | 1022.0 |
| 20260906041127 | 12 | 115 | 3.2 | 12.9 | 0.00 | 0.00 | 0.05 | 84 | 1022.0 |
| 20260906041101 | 12 | 79 | 6.4 | 12.9 | 0.00 | 0.00 | 0.05 | 84 | 1022.0 |
| 20260906041044 | 12 | 105 | 6.4 | 11.3 | 0.00 | 0.00 | 0.05 | 84 | 1022.0 |
| 20260906041030 | 12 | 90 | 4.8 | 9.7 | 0.00 | 0.00 | 0.05 | 84 | 1022.0 |
| 20260906041014 | 12 | 68 | 1.6 | 9.7 | 0.00 | 0.00 | 0.05 | 84 | 1022.0 |
| 20260906041003 | 12 | 92 | 4.8 | 9.7 | 0.00 | 0.00 | 0.05 | 84 | 1021.0 |
| 20260906040925 | 12 | 77 | 4.8 | 6.4 | 0.00 | 0.00 | 0.05 | 84 | 1021.0 |
| 20260906040912 | 12 | 73 | 3.2 | 4.8 | 0.00 | 0.00 | 0.05 | 84 | 1021.0 |
| 20260906040856 | 12 | 67 | 3.2 | 4.8 | 0.00 | 0.00 | 0.05 | 84 | 1022.0 |
| 20260906040838 | 12 | 60 | 3.2 | 4.8 | 0.00 | 0.00 | 0.05 | 84 | 1022.0 |
| 20260906040822 | 12 | 81 | 3.2 | 3.2 | 0.00 | 0.00 | 0.05 | 84 | 1022.0 |
| 20260906040805 | 12 | 39 | 1.6 | 3.2 | 0.00 | 0.00 | 0.05 | 84 | 1022.0 |
| 20260906040751 | 12 | 71 | 1.6 | 3.2 | 0.00 | 0.00 | 0.05 | 84 | 1022.0 |
| 20260906040737 | 12 | 74 | 1.6 | 3.2 | 0.00 | 0.00 | 0.05 | 84 | 1022.0 |
| 20260906040718 | 12 | 73 | 1.6 | 3.2 | 0.00 | 0.00 | 0.05 | 84 | 1022.0 |
| 20260906040701 | 12 | 103 | 3.2 | 3.2 | 0.00 | 0.00 | 0.05 | 84 | 1022.0 |
| 20260906040638 | 12 | 89 | 1.6 | 3.2 | 0.00 | 0.00 | 0.05 | 84 | 1022.0 |
| 20260906040621 | 12 | 60 | 3.2 | 3.2 | 0.00 | 0.00 | 0.05 | 84 | 1022.0 |
| 20260906040619 | 12 | 51 | 1.6 | 3.2 | 0.00 | 0.00 | 0.05 | 84 | 1022.0 |
| 20260906040550 | 12 | 68 | 1.6 | 3.2 | 0.00 | 0.00 | 0.05 | 84 | 1022.0 |
| 20260906040518 | 12 | 71 | 1.6 | 3.2 | 0.00 | 0.00 | 0.05 | 84 | 1022.0 |
| 20260906040509 | 12 | 62 | 1.6 | 3.2 | 0.00 | 0.00 | 0.05 | 84 | 1022.0 |
| 20260906040502 | 12 | 62 | 1.6 | 4.8 | 0.00 | 0.00 | 0.05 | 84 | 1022.0 |
| 20260906040445 | 12 | 72 | 3.2 | 4.8 | 0.00 | 0.00 | 0.05 | 84 | 1022.0 |
| 20260906040430 | 12 | 103 | 1.6 | 4.8 | 0.00 | 0.00 | 0.05 | 84 | 1022.0 |
| 20260906040414 | 12 | 38 | 3.2 | 4.8 | 0.00 | 0.00 | 0.05 | 84 | 1022.0 |
| 20260906040405 | 12 | 91 | 3.2 | 4.8 | 0.00 | 0.00 | 0.05 | 84 | 1022.0 |
| 20260906040358 | 12 | 91 | 3.2 | 4.8 | 0.00 | 0.00 | 0.05 | 84 | 1022.0 |
| 20260906040352 | 12 | 76 | 3.2 | 4.8 | 0.00 | 0.00 | 0.05 | 84 | 1022.0 |
| 20260906040334 | 12 | 77 | 3.2 | 9.7 | 0.00 | 0.00 | 0.05 | 84 | 1022.0 |
| 20260906040310 | 12 | 71 | 3.2 | 9.7 | 0.00 | 0.00 | 0.05 | 84 | 1022.0 |
| 20260906040301 | 12 | 59 | 3.2 | 9.7 | 0.00 | 0.00 | 0.05 | 84 | 1022.0 |
| 20260906040254 | 12 | 59 | 3.2 | 9.7 | 0.00 | 0.00 | 0.05 | 84 | 1022.0 |
| 20260906040237 | 12 | 76 | 3.2 | 9.7 | 0.00 | 0.00 | 0.05 | 84 | 1022.0 |
| 20260906040213 | 12 | 53 | 3.2 | 9.7 | 0.00 | 0.00 | 0.05 | 84 | 1022.0 |
| 20260906040206 | 12 | 50 | 6.4 | 9.7 | 0.00 | 0.00 | 0.05 | 84 | 1022.0 |
| 20260906040157 | 12 | 50 | 6.4 | 9.7 | 0.00 | 0.00 | 0.05 | 84 | 1022.0 |
| 20260906040142 | 12 | 16 | 6.4 | 9.7 | 0.00 | 0.00 | 0.05 | 84 | 1022.0 |
| 20260906040127 | 12 | 74 | 3.2 | 4.8 | 0.00 | 0.00 | 0.05 | 84 | 1022.0 |
| 20260906040053 | 12 | 66 | 1.6 | 4.8 | 0.00 | 0.00 | 0.05 | 84 | 1022.0 |
| 20260906040040 | 12 | 64 | 3.2 | 4.8 | 0.00 | 0.00 | 0.05 | 84 | 1022.0 |
| 20260906040013 | 12 | 75 | 3.2 | 4.8 | 0.00 | 0.00 | 0.05 | 84 | 1022.0 |
| 20260906035952 | 12 | 53 | 3.2 | 4.8 | 0.00 | 0.00 | 0.05 | 84 | 1022.0 |
| 20260906035933 | 12 | 91 | 3.2 | 6.4 | 0.00 | 0.00 | 0.05 | 84 | 1022.0 |
| 20260906035918 | 12 | 73 | 3.2 | 6.4 | 0.00 | 0.00 | 0.05 | 84 | 1022.0 |
| 20260906035901 | 12 | 58 | 3.2 | 6.4 | 0.00 | 0.00 | 0.05 | 84 | 1022.0 |
| 20260906035856 | 12 | 34 | 3.2 | 6.4 | 0.00 | 0.00 | 0.05 | 84 | 1022.0 |
| 20260906035829 | 12 | 68 | 3.2 | 6.4 | 0.00 | 0.00 | 0.05 | 84 | 1022.0 |
| 20260906035822 | 12 | 342 | 4.8 | 6.4 | 0.00 | 0.00 | 0.05 | 84 | 1022.0 |
| 20260906035802 | 12 | 37 | 3.2 | 4.8 | 0.00 | 0.00 | 0.05 | 84 | 1022.0 |
| 20260906035734 | 12 | 87 | 3.2 | 3.2 | 0.00 | 0.00 | 0.05 | 84 | 1022.0 |
| 20260906035717 | 12 | 75 | 3.2 | 3.2 | 0.00 | 0.00 | 0.05 | 84 | 1022.0 |
| 20260906035710 | 12 | 64 | 3.2 | 3.2 | 0.00 | 0.00 | 0.05 | 84 | 1022.0 |
| 20260906035701 | 12 | 64 | 3.2 | 4.8 | 0.00 | 0.00 | 0.05 | 84 | 1022.0 |
| 20260906035645 | 12 | 62 | 3.2 | 4.8 | 0.00 | 0.00 | 0.05 | 84 | 1022.0 |
| 20260906035629 | 12 | 39 | 1.6 | 4.8 | 0.00 | 0.00 | 0.05 | 84 | 1022.0 |
| 20260906035613 | 12 | 34 | 1.6 | 4.8 | 0.00 | 0.00 | 0.05 | 84 | 1022.0 |
| 20260906035607 | 12 | 76 | 1.6 | 4.8 | 0.00 | 0.00 | 0.05 | 84 | 1022.0 |
| 20260906035558 | 12 | 76 | 1.6 | 4.8 | 0.00 | 0.00 | 0.05 | 84 | 1022.0 |
| 20260906035544 | 12 | 68 | 1.6 | 4.8 | 0.00 | 0.00 | 0.05 | 84 | 1022.0 |
| 20260906035525 | 12 | 100 | 4.8 | 4.8 | 0.00 | 0.00 | 0.05 | 84 | 1022.0 |
| 20260906035510 | 12 | 85 | 3.2 | 4.8 | 0.00 | 0.00 | 0.05 | 84 | 1022.0 |
| 20260906035503 | 12 | 98 | 1.6 | 6.4 | 0.00 | 0.00 | 0.05 | 84 | 1022.0 |
| 20260906035453 | 12 | 98 | 1.6 | 6.4 | 0.00 | 0.00 | 0.05 | 84 | 1022.0 |
| 20260906035437 | 12 | 80 | 4.8 | 6.4 | 0.00 | 0.00 | 0.05 | 84 | 1022.0 |
| 20260906035424 | 12 | 84 | 1.6 | 6.4 | 0.00 | 0.00 | 0.05 | 84 | 1022.0 |
| 20260906035409 | 12 | 74 | 1.6 | 6.4 | 0.00 | 0.00 | 0.05 | 84 | 1022.0 |
| 20260906035349 | 12 | 52 | 1.6 | 6.4 | 0.00 | 0.00 | 0.05 | 84 | 1022.0 |
| 20260906035325 | 12 | 27 | 1.6 | 6.4 | 0.00 | 0.00 | 0.05 | 84 | 1022.0 |
| 20260906035320 | 12 | 66 | 3.2 | 6.4 | 0.00 | 0.00 | 0.05 | 84 | 1022.0 |
| 20260906035305 | 12 | 35 | 4.8 | 6.4 | 0.00 | 0.00 | 0.05 | 84 | 1022.0 |
| 20260906035253 | 12 | 35 | 4.8 | 6.4 | 0.00 | 0.00 | 0.05 | 84 | 1022.0 |
| 20260906035245 | 12 | 21 | 4.8 | 4.8 | 0.00 | 0.00 | 0.05 | 84 | 1022.0 |
| 20260906035237 | 12 | 21 | 4.8 | 4.8 | 0.00 | 0.00 | 0.05 | 83 | 1022.0 |
| 20260906035232 | 12 | 63 | 3.2 | 4.8 | 0.00 | 0.00 | 0.05 | 83 | 1022.0 |
| 20260906035216 | 12 | 40 | 1.6 | 4.8 | 0.00 | 0.00 | 0.05 | 83 | 1022.0 |
| 20260906035201 | 12 | 66 | 1.6 | 4.8 | 0.00 | 0.00 | 0.05 | 83 | 1022.0 |
| 20260906035149 | 12 | 66 | 1.6 | 4.8 | 0.00 | 0.00 | 0.05 | 83 | 1022.0 |
| 20260906035133 | 12 | 26 | 1.6 | 4.8 | 0.00 | 0.00 | 0.05 | 83 | 1022.0 |
| 20260906035128 | 12 | 94 | 1.6 | 4.8 | 0.00 | 0.00 | 0.05 | 83 | 1022.0 |
| 20260906035112 | 12 | 49 | 3.2 | 4.8 | 0.00 | 0.00 | 0.05 | 83 | 1022.0 |
| 20260906035046 | 12 | 64 | 3.2 | 4.8 | 0.00 | 0.00 | 0.05 | 83 | 1022.0 |
| 20260906035037 | 12 | 93 | 3.2 | 4.8 | 0.00 | 0.00 | 0.05 | 83 | 1022.0 |
| 20260906035029 | 12 | 93 | 3.2 | 6.4 | 0.00 | 0.00 | 0.05 | 83 | 1022.0 |
| 20260906035014 | 12 | 38 | 1.6 | 6.4 | 0.00 | 0.00 | 0.05 | 83 | 1022.0 |
| 20260906035006 | 12 | 53 | 3.2 | 6.4 | 0.00 | 0.00 | 0.05 | 83 | 1022.0 |
| 20260906034957 | 12 | 53 | 3.2 | 6.4 | 0.00 | 0.00 | 0.05 | 83 | 1022.0 |
| 20260906034944 | 12 | 69 | 4.8 | 6.4 | 0.00 | 0.00 | 0.05 | 83 | 1022.0 |
| 20260906034917 | 12 | 98 | 3.2 | 6.4 | 0.00 | 0.00 | 0.05 | 83 | 1022.0 |
| 20260906034902 | 12 | 92 | 3.2 | 6.4 | 0.00 | 0.00 | 0.05 | 83 | 1022.0 |
| 20260906034857 | 12 | 75 | 4.8 | 6.4 | 0.00 | 0.00 | 0.05 | 83 | 1022.0 |
| 20260906034829 | 12 | 66 | 4.8 | 6.4 | 0.00 | 0.00 | 0.05 | 83 | 1022.0 |
| 20260906034813 | 12 | 83 | 4.8 | 6.4 | 0.00 | 0.00 | 0.05 | 83 | 1022.0 |
| 20260906034801 | 12 | 80 | 4.8 | 9.7 | 0.00 | 0.00 | 0.05 | 83 | 1022.0 |
| 20260906034742 | 12 | 87 | 3.2 | 9.7 | 0.00 | 0.00 | 0.05 | 83 | 1022.0 |
| 20260906034725 | 12 | 66 | 3.2 | 9.7 | 0.00 | 0.00 | 0.05 | 83 | 1022.0 |
| 20260906034709 | 12 | 64 | 1.6 | 9.7 | 0.00 | 0.00 | 0.05 | 83 | 1022.0 |
| 20260906034701 | 12 | 39 | 3.2 | 9.7 | 0.00 | 0.00 | 0.05 | 83 | 1022.0 |
| 20260906034653 | 12 | 39 | 3.2 | 9.7 | 0.00 | 0.00 | 0.05 | 83 | 1022.0 |
| 20260906034638 | 12 | 99 | 6.4 | 9.7 | 0.00 | 0.00 | 0.05 | 83 | 1022.0 |
| 20260906034621 | 12 | 79 | 3.2 | 6.4 | 0.00 | 0.00 | 0.05 | 83 | 1022.0 |
| 20260906034616 | 12 | 54 | 4.8 | 6.4 | 0.00 | 0.00 | 0.05 | 83 | 1022.0 |
| 20260906034550 | 12 | 89 | 3.2 | 4.8 | 0.00 | 0.00 | 0.05 | 83 | 1022.0 |
| 20260906034534 | 12 | 39 | 1.6 | 1.6 | 0.00 | 0.00 | 0.05 | 83 | 1022.0 |
| 20260906034517 | 12 | 40 | 0.0 | 1.6 | 0.00 | 0.00 | 0.05 | 83 | 1022.0 |
| 20260906034501 | 12 | 34 | 0.0 | 1.6 | 0.00 | 0.00 | 0.05 | 83 | 1022.0 |
| 20260906034440 | 12 | 50 | 0.0 | 1.6 | 0.00 | 0.00 | 0.05 | 83 | 1022.0 |
| 20260906034422 | 12 | 46 | 0.0 | 1.6 | 0.00 | 0.00 | 0.05 | 83 | 1022.0 |
| 20260906034413 | 12 | 69 | 0.0 | 1.6 | 0.00 | 0.00 | 0.05 | 83 | 1022.0 |
| 20260906034408 | 12 | 69 | 0.0 | 3.2 | 0.00 | 0.00 | 0.05 | 83 | 1022.0 |
| 20260906034349 | 12 | 68 | 0.0 | 3.2 | 0.00 | 0.00 | 0.05 | 83 | 1022.0 |
| 20260906034341 | 12 | 70 | 0.0 | 3.2 | 0.00 | 0.00 | 0.05 | 83 | 1022.0 |
| 20260906034335 | 12 | 70 | 0.0 | 4.8 | 0.00 | 0.00 | 0.05 | 83 | 1022.0 |
| 20260906034317 | 12 | 37 | 0.0 | 4.8 | 0.00 | 0.00 | 0.05 | 83 | 1022.0 |
| 20260906034301 | 12 | 50 | 1.6 | 4.8 | 0.00 | 0.00 | 0.05 | 83 | 1022.0 |
| 20260906034246 | 12 | 48 | 0.0 | 4.8 | 0.00 | 0.00 | 0.05 | 83 | 1022.0 |
| 20260906034230 | 12 | 38 | 1.6 | 4.8 | 0.00 | 0.00 | 0.05 | 83 | 1022.0 |
| 20260906034213 | 12 | 45 | 1.6 | 4.8 | 0.00 | 0.00 | 0.05 | 83 | 1022.0 |
| 20260906034205 | 12 | 36 | 1.6 | 4.8 | 0.00 | 0.00 | 0.05 | 83 | 1022.0 |
| 20260906034157 | 12 | 36 | 1.6 | 4.8 | 0.00 | 0.00 | 0.05 | 83 | 1022.0 |
| 20260906034152 | 12 | 26 | 1.6 | 3.2 | 0.00 | 0.00 | 0.05 | 83 | 1022.0 |
| 20260906034139 | 12 | 57 | 1.6 | 3.2 | 0.00 | 0.00 | 0.05 | 83 | 1022.0 |
| 20260906034110 | 12 | 50 | 3.2 | 3.2 | 0.00 | 0.00 | 0.05 | 83 | 1022.0 |
| 20260906034101 | 12 | 67 | 0.0 | 3.2 | 0.00 | 0.00 | 0.05 | 83 | 1022.0 |
| 20260906034054 | 12 | 67 | 0.0 | 3.2 | 0.00 | 0.00 | 0.05 | 83 | 1022.0 |
| 20260906034037 | 12 | 76 | 1.6 | 3.2 | 0.00 | 0.00 | 0.05 | 83 | 1022.0 |
| 20260906034013 | 12 | 70 | 0.0 | 3.2 | 0.00 | 0.00 | 0.05 | 83 | 1022.0 |
| 20260906034005 | 12 | 69 | 1.6 | 4.8 | 0.00 | 0.00 | 0.05 | 83 | 1022.0 |
| 20260906033957 | 12 | 69 | 1.6 | 4.8 | 0.00 | 0.00 | 0.05 | 83 | 1022.0 |
| 20260906033951 | 12 | 53 | 3.2 | 4.8 | 0.00 | 0.00 | 0.05 | 83 | 1022.0 |
| 20260906033937 | 12 | 77 | 3.2 | 4.8 | 0.00 | 0.00 | 0.05 | 83 | 1022.0 |
| 20260906033909 | 12 | 92 | 1.6 | 4.8 | 0.00 | 0.00 | 0.05 | 83 | 1022.0 |
| 20260906033901 | 12 | 65 | 1.6 | 4.8 | 0.00 | 0.00 | 0.05 | 83 | 1022.0 |
| 20260906033853 | 12 | 65 | 1.6 | 4.8 | 0.00 | 0.00 | 0.05 | 83 | 1022.0 |
| 20260906033837 | 12 | 53 | 3.2 | 4.8 | 0.00 | 0.00 | 0.05 | 83 | 1022.0 |
| 20260906033822 | 12 | 106 | 4.8 | 4.8 | 0.00 | 0.00 | 0.05 | 83 | 1022.0 |
| 20260906033805 | 12 | 97 | 4.8 | 4.8 | 0.00 | 0.00 | 0.05 | 83 | 1022.0 |
| 20260906033749 | 12 | 100 | 3.2 | 4.8 | 0.00 | 0.00 | 0.05 | 83 | 1022.0 |
| 20260906033742 | 12 | 86 | 1.6 | 4.8 | 0.00 | 0.00 | 0.05 | 83 | 1022.0 |
| 20260906033734 | 12 | 86 | 1.6 | 6.4 | 0.00 | 0.00 | 0.05 | 83 | 1022.0 |
| 20260906033718 | 12 | 65 | 1.6 | 6.4 | 0.00 | 0.00 | 0.05 | 83 | 1022.0 |
| 20260906033701 | 12 | 85 | 3.2 | 6.4 | 0.00 | 0.00 | 0.05 | 83 | 1022.0 |
| 20260906033645 | 12 | 80 | 3.2 | 6.4 | 0.00 | 0.00 | 0.05 | 83 | 1022.0 |
| 20260906033640 | 12 | 102 | 3.2 | 6.4 | 0.00 | 0.00 | 0.05 | 83 | 1022.0 |
| 20260906033614 | 12 | 52 | 4.8 | 6.4 | 0.00 | 0.00 | 0.05 | 83 | 1022.0 |
| 20260906033600 | 12 | 83 | 4.8 | 6.4 | 0.00 | 0.00 | 0.05 | 83 | 1022.0 |
| 20260906033533 | 12 | 79 | 4.8 | 4.8 | 0.00 | 0.00 | 0.05 | 83 | 1022.0 |
| 20260906033528 | 12 | 74 | 3.2 | 4.8 | 0.00 | 0.00 | 0.05 | 83 | 1022.0 |
| 20260906033501 | 12 | 102 | 3.2 | 3.2 | 0.00 | 0.00 | 0.05 | 83 | 1022.0 |
| 20260906033445 | 12 | 83 | 1.6 | 3.2 | 0.00 | 0.00 | 0.05 | 83 | 1022.0 |
| 20260906033431 | 12 | 72 | 1.6 | 3.2 | 0.00 | 0.00 | 0.05 | 83 | 1022.0 |
| 20260906033413 | 12 | 30 | 1.6 | 3.2 | 0.00 | 0.00 | 0.05 | 83 | 1022.0 |
| 20260906033406 | 12 | 55 | 3.2 | 4.8 | 0.00 | 0.00 | 0.05 | 83 | 1022.0 |
| 20260906033357 | 12 | 55 | 3.2 | 4.8 | 0.00 | 0.00 | 0.05 | 83 | 1022.0 |
| 20260906033341 | 12 | 61 | 1.6 | 4.8 | 0.00 | 0.00 | 0.05 | 83 | 1022.0 |
| 20260906033326 | 12 | 95 | 1.6 | 4.8 | 0.00 | 0.00 | 0.05 | 83 | 1022.0 |
| 20260906033320 | 12 | 80 | 1.6 | 4.8 | 0.00 | 0.00 | 0.05 | 83 | 1022.0 |
| 20260906033238 | 12 | 65 | 1.6 | 4.8 | 0.00 | 0.00 | 0.05 | 83 | 1022.0 |
| 20260906033221 | 12 | 97 | 3.2 | 4.8 | 0.00 | 0.00 | 0.05 | 83 | 1022.0 |
| 20260906033206 | 12 | 98 | 4.8 | 4.8 | 0.00 | 0.00 | 0.05 | 83 | 1022.0 |
| 20260906033150 | 12 | 111 | 3.2 | 4.8 | 0.00 | 0.00 | 0.05 | 83 | 1022.0 |
| 20260906033125 | 12 | 64 | 3.2 | 4.8 | 0.00 | 0.00 | 0.05 | 83 | 1022.0 |
| 20260906033109 | 12 | 57 | 3.2 | 4.8 | 0.00 | 0.00 | 0.05 | 83 | 1022.0 |
| 20260906033102 | 12 | 59 | 3.2 | 3.2 | 0.00 | 0.00 | 0.05 | 83 | 1022.0 |
| 20260906033056 | 12 | 59 | 3.2 | 3.2 | 0.00 | 0.00 | 0.05 | 83 | 1022.0 |
| 20260906033037 | 12 | 80 | 1.6 | 3.2 | 0.00 | 0.00 | 0.05 | 83 | 1022.0 |
| 20260906033023 | 12 | 58 | 1.6 | 6.4 | 0.00 | 0.00 | 0.05 | 83 | 1022.0 |
| 20260906033005 | 12 | 70 | 1.6 | 6.4 | 0.00 | 0.00 | 0.05 | 83 | 1022.0 |
| 20260906032949 | 12 | 67 | 1.6 | 6.4 | 0.00 | 0.00 | 0.05 | 83 | 1022.0 |
| 20260906032944 | 12 | 45 | 0.0 | 6.4 | 0.00 | 0.00 | 0.05 | 83 | 1022.0 |
| 20260906032920 | 12 | 62 | 3.2 | 6.4 | 0.00 | 0.00 | 0.05 | 83 | 1022.0 |
| 20260906032901 | 12 | 65 | 3.2 | 6.4 | 0.00 | 0.00 | 0.05 | 83 | 1022.0 |
| 20260906032846 | 12 | 65 | 4.8 | 6.4 | 0.00 | 0.00 | 0.05 | 83 | 1022.0 |
| 20260906032832 | 12 | 92 | 3.2 | 4.8 | 0.00 | 0.00 | 0.05 | 83 | 1022.0 |
| 20260906032813 | 12 | 85 | 1.6 | 4.8 | 0.00 | 0.00 | 0.05 | 83 | 1022.0 |
| 20260906032806 | 12 | 73 | 3.2 | 4.8 | 0.00 | 0.00 | 0.05 | 83 | 1022.0 |
| 20260906032757 | 12 | 73 | 3.2 | 4.8 | 0.00 | 0.00 | 0.05 | 83 | 1022.0 |
| 20260906032743 | 12 | 95 | 3.2 | 4.8 | 0.00 | 0.00 | 0.05 | 83 | 1022.0 |
| 20260906032730 | 12 | 66 | 3.2 | 4.8 | 0.00 | 0.00 | 0.05 | 83 | 1022.0 |
| 20260906032703 | 12 | 90 | 1.6 | 3.2 | 0.00 | 0.00 | 0.05 | 83 | 1022.0 |
| 20260906032646 | 12 | 90 | 1.6 | 3.2 | 0.00 | 0.00 | 0.05 | 83 | 1022.0 |
| 20260906032637 | 12 | 75 | 1.6 | 3.2 | 0.00 | 0.00 | 0.05 | 83 | 1022.0 |
| 20260906032634 | 12 | 75 | 1.6 | 4.8 | 0.00 | 0.00 | 0.05 | 83 | 1022.0 |
| 20260906032613 | 12 | 85 | 1.6 | 4.8 | 0.00 | 0.00 | 0.05 | 83 | 1022.0 |
| 20260906032605 | 12 | 79 | 1.6 | 6.4 | 0.00 | 0.00 | 0.05 | 83 | 1022.0 |
| 20260906032557 | 12 | 79 | 1.6 | 6.4 | 0.00 | 0.00 | 0.05 | 83 | 1022.0 |
| 20260906032542 | 12 | 65 | 1.6 | 6.4 | 0.00 | 0.00 | 0.05 | 83 | 1022.0 |
| 20260906032537 | 12 | 86 | 1.6 | 6.4 | 0.00 | 0.00 | 0.05 | 83 | 1022.0 |
| 20260906032509 | 12 | 88 | 1.6 | 6.4 | 0.00 | 0.00 | 0.05 | 83 | 1022.0 |
| 20260906032502 | 12 | 52 | 3.2 | 6.4 | 0.00 | 0.00 | 0.05 | 83 | 1022.0 |
| 20260906032453 | 12 | 52 | 3.2 | 6.4 | 0.00 | 0.00 | 0.05 | 83 | 1022.0 |
| 20260906032440 | 12 | 62 | 1.6 | 6.4 | 0.00 | 0.00 | 0.05 | 83 | 1022.0 |
| 20260906032424 | 12 | 42 | 4.8 | 6.4 | 0.00 | 0.00 | 0.05 | 83 | 1022.0 |
| 20260906032405 | 12 | 94 | 6.4 | 6.4 | 0.00 | 0.00 | 0.05 | 83 | 1022.0 |
| 20260906032358 | 12 | 87 | 1.6 | 4.8 | 0.00 | 0.00 | 0.05 | 83 | 1022.0 |
| 20260906032346 | 12 | 52 | 0.0 | 0.0 | 0.00 | 0.00 | 0.05 | 83 | 1022.0 |
| 20260906032305 | 12 | 27 | 0.0 | 0.0 | 0.00 | 0.00 | 0.05 | 83 | 1022.0 |
| 20260906032238 | 12 | 27 | 0.0 | 0.0 | 0.00 | 0.00 | 0.05 | 83 | 1022.0 |
| 20260906032231 | 12 | 52 | 0.0 | 1.6 | 0.00 | 0.00 | 0.05 | 83 | 1022.0 |
| 20260906032205 | 12 | 61 | 0.0 | 1.6 | 0.00 | 0.00 | 0.05 | 83 | 1022.0 |
| 20260906032152 | 12 | 81 | 0.0 | 1.6 | 0.00 | 0.00 | 0.05 | 83 | 1022.0 |
| 20260906032134 | 12 | 44 | 0.0 | 1.6 | 0.00 | 0.00 | 0.05 | 83 | 1022.0 |
| 20260906032117 | 12 | 41 | 0.0 | 1.6 | 0.00 | 0.00 | 0.05 | 83 | 1022.0 |
| 20260906032101 | 12 | 43 | 0.0 | 1.6 | 0.00 | 0.00 | 0.05 | 83 | 1022.0 |
| 20260906032045 | 12 | 59 | 0.0 | 1.6 | 0.00 | 0.00 | 0.05 | 83 | 1022.0 |
| 20260906032030 | 12 | 63 | 0.0 | 1.6 | 0.00 | 0.00 | 0.05 | 83 | 1022.0 |
| 20260906032013 | 12 | 45 | 0.0 | 1.6 | 0.00 | 0.00 | 0.05 | 83 | 1022.0 |
| 20260906032005 | 12 | 71 | 1.6 | 3.2 | 0.00 | 0.00 | 0.05 | 83 | 1022.0 |
| 20260906031957 | 12 | 71 | 1.6 | 3.2 | 0.00 | 0.00 | 0.05 | 83 | 1022.0 |
| 20260906031946 | 12 | 54 | 1.6 | 3.2 | 0.00 | 0.00 | 0.05 | 83 | 1022.0 |
| 20260906031917 | 12 | 92 | 0.0 | 3.2 | 0.00 | 0.00 | 0.05 | 83 | 1022.0 |
| 20260906031907 | 12 | 81 | 0.0 | 3.2 | 0.00 | 0.00 | 0.05 | 83 | 1022.0 |
| 20260906031837 | 12 | 81 | 0.0 | 3.2 | 0.00 | 0.00 | 0.05 | 83 | 1022.0 |
| 20260906031813 | 12 | 100 | 1.6 | 3.2 | 0.00 | 0.00 | 0.05 | 83 | 1022.0 |
| 20260906031800 | 12 | 107 | 1.6 | 3.2 | 0.00 | 0.00 | 0.05 | 83 | 1022.0 |
| 20260906031741 | 12 | 79 | 1.6 | 3.2 | 0.00 | 0.00 | 0.05 | 83 | 1022.0 |
| 20260906031734 | 12 | 83 | 1.6 | 4.8 | 0.00 | 0.00 | 0.05 | 83 | 1022.0 |
| 20260906031725 | 12 | 83 | 1.6 | 4.8 | 0.00 | 0.00 | 0.05 | 82 | 1022.0 |
| 20260906031709 | 12 | 100 | 1.6 | 4.8 | 0.00 | 0.00 | 0.05 | 82 | 1022.0 |
| 20260906031701 | 12 | 81 | 1.6 | 4.8 | 0.00 | 0.00 | 0.05 | 82 | 1022.0 |
| 20260906031653 | 12 | 81 | 1.6 | 4.8 | 0.00 | 0.00 | 0.05 | 82 | 1022.0 |
| 20260906031638 | 12 | 121 | 1.6 | 4.8 | 0.00 | 0.00 | 0.05 | 82 | 1022.0 |
| 20260906031621 | 12 | 95 | 1.6 | 4.8 | 0.00 | 0.00 | 0.05 | 83 | 1022.0 |
| 20260906031608 | 12 | 107 | 1.6 | 4.8 | 0.00 | 0.00 | 0.05 | 83 | 1022.0 |
| 20260906031549 | 12 | 46 | 3.2 | 4.8 | 0.00 | 0.00 | 0.05 | 83 | 1022.0 |
| 20260906031533 | 12 | 66 | 4.8 | 4.8 | 0.00 | 0.00 | 0.05 | 83 | 1022.0 |
| 20260906031531 | 12 | 86 | 3.2 | 4.8 | 0.00 | 0.00 | 0.05 | 83 | 1022.0 |
| 20260906031503 | 12 | 97 | 1.6 | 1.6 | 0.00 | 0.00 | 0.05 | 83 | 1022.0 |
| 20260906031445 | 12 | 65 | 0.0 | 1.6 | 0.00 | 0.00 | 0.05 | 83 | 1022.0 |
| 20260906031437 | 12 | 72 | 0.0 | 1.6 | 0.00 | 0.00 | 0.05 | 83 | 1022.0 |
| 20260906031423 | 12 | 72 | 0.0 | 3.2 | 0.00 | 0.00 | 0.05 | 83 | 1022.0 |
| 20260906031406 | 12 | 97 | 1.6 | 3.2 | 0.00 | 0.00 | 0.05 | 82 | 1022.0 |
| 20260906031349 | 12 | 97 | 1.6 | 3.2 | 0.00 | 0.00 | 0.05 | 82 | 1022.0 |
| 20260906031341 | 12 | 95 | 1.6 | 3.2 | 0.00 | 0.00 | 0.05 | 82 | 1022.0 |
| 20260906031333 | 12 | 95 | 1.6 | 4.8 | 0.00 | 0.00 | 0.05 | 82 | 1022.0 |
| 20260906031317 | 12 | 98 | 1.6 | 4.8 | 0.00 | 0.00 | 0.05 | 82 | 1022.0 |
| 20260906031305 | 12 | 104 | 3.2 | 4.8 | 0.00 | 0.00 | 0.05 | 83 | 1022.0 |
| 20260906031246 | 12 | 88 | 3.2 | 4.8 | 0.00 | 0.00 | 0.05 | 83 | 1022.0 |
| 20260906031230 | 12 | 83 | 1.6 | 4.8 | 0.00 | 0.00 | 0.05 | 83 | 1022.0 |
| 20260906031213 | 12 | 73 | 1.6 | 4.8 | 0.00 | 0.00 | 0.05 | 83 | 1022.0 |
| 20260906031209 | 12 | 72 | 3.2 | 4.8 | 0.00 | 0.00 | 0.05 | 82 | 1022.0 |
| 20260906031141 | 12 | 101 | 3.2 | 4.8 | 0.00 | 0.00 | 0.05 | 82 | 1022.0 |
| 20260906031128 | 12 | 54 | 3.2 | 3.2 | 0.00 | 0.00 | 0.05 | 82 | 1022.0 |
| 20260906031112 | 12 | 78 | 1.6 | 3.2 | 0.00 | 0.00 | 0.05 | 82 | 1022.0 |
| 20260906031055 | 12 | 57 | 3.2 | 4.8 | 0.00 | 0.00 | 0.05 | 82 | 1022.0 |
| 20260906031037 | 12 | 65 | 1.6 | 4.8 | 0.00 | 0.00 | 0.05 | 82 | 1022.0 |
| 20260906031021 | 12 | 83 | 1.6 | 4.8 | 0.00 | 0.00 | 0.05 | 82 | 1022.0 |
| 20260906031015 | 12 | 71 | 1.6 | 4.8 | 0.00 | 0.00 | 0.05 | 82 | 1022.0 |
| 20260906030949 | 12 | 68 | 1.6 | 4.8 | 0.00 | 0.00 | 0.05 | 83 | 1022.0 |
| 20260906030925 | 12 | 71 | 1.6 | 4.8 | 0.00 | 0.00 | 0.05 | 83 | 1022.0 |
| 20260906030909 | 12 | 83 | 3.2 | 4.8 | 0.00 | 0.00 | 0.05 | 83 | 1022.0 |
| 20260906030901 | 12 | 91 | 1.6 | 4.8 | 0.00 | 0.00 | 0.05 | 83 | 1022.0 |
| 20260906030854 | 12 | 91 | 1.6 | 4.8 | 0.00 | 0.00 | 0.05 | 83 | 1022.0 |
| 20260906030847 | 12 | 95 | 1.6 | 4.8 | 0.00 | 0.00 | 0.05 | 83 | 1022.0 |
| 20260906030823 | 12 | 88 | 3.2 | 4.8 | 0.00 | 0.00 | 0.05 | 83 | 1022.0 |
| 20260906030804 | 12 | 109 | 4.8 | 4.8 | 0.00 | 0.00 | 0.05 | 83 | 1022.0 |
| 20260906030800 | 12 | 95 | 3.2 | 3.2 | 0.00 | 0.00 | 0.05 | 83 | 1022.0 |
| 20260906030732 | 12 | 73 | 3.2 | 3.2 | 0.00 | 0.00 | 0.05 | 83 | 1022.0 |
| 20260906030719 | 12 | 66 | 0.0 | 1.6 | 0.00 | 0.00 | 0.05 | 83 | 1022.0 |
| 20260906030706 | 12 | 50 | 0.0 | 3.2 | 0.00 | 0.00 | 0.05 | 83 | 1022.0 |
| 20260906030645 | 12 | 77 | 0.0 | 3.2 | 0.00 | 0.00 | 0.05 | 83 | 1022.0 |
| 20260906030629 | 12 | 64 | 0.0 | 3.2 | 0.00 | 0.00 | 0.05 | 83 | 1022.0 |
| 20260906030612 | 12 | 34 | 0.0 | 3.2 | 0.00 | 0.00 | 0.05 | 83 | 1022.0 |
| 20260906030608 | 12 | 67 | 0.0 | 4.8 | 0.00 | 0.00 | 0.05 | 83 | 1022.0 |
| 20260906030552 | 12 | 60 | 1.6 | 4.8 | 0.00 | 0.00 | 0.05 | 83 | 1022.0 |
| 20260906030525 | 12 | 79 | 1.6 | 4.8 | 0.00 | 0.00 | 0.05 | 83 | 1022.0 |
| 20260906030501 | 12 | 90 | 1.6 | 4.8 | 0.00 | 0.00 | 0.05 | 83 | 1022.0 |
| 20260906030429 | 12 | 65 | 1.6 | 4.8 | 0.00 | 0.00 | 0.05 | 83 | 1022.0 |
| 20260906030415 | 12 | 79 | 3.2 | 4.8 | 0.00 | 0.00 | 0.05 | 83 | 1022.0 |
| 20260906030357 | 12 | 77 | 3.2 | 4.8 | 0.00 | 0.00 | 0.05 | 83 | 1022.0 |
| 20260906030341 | 12 | 75 | 1.6 | 4.8 | 0.00 | 0.00 | 0.05 | 83 | 1022.0 |
| 20260906030325 | 12 | 72 | 3.2 | 4.8 | 0.00 | 0.00 | 0.05 | 83 | 1022.0 |
| 20260906030323 | 12 | 87 | 4.8 | 4.8 | 0.00 | 0.00 | 0.05 | 83 | 1022.0 |
| 20260906030221 | 12 | 42 | 1.6 | 3.2 | 0.00 | 0.00 | 0.05 | 83 | 1022.0 |
| 20260906030204 | 12 | 92 | 1.6 | 3.2 | 0.00 | 0.00 | 0.05 | 83 | 1022.0 |
| 20260906030132 | 12 | 85 | 0.0 | 3.2 | 0.00 | 0.00 | 0.05 | 83 | 1022.0 |
| 20260906030119 | 12 | 54 | 3.2 | 3.2 | 0.00 | 0.00 | 0.05 | 83 | 1022.0 |
| 20260906030100 | 12 | 80 | 1.6 | 3.2 | 0.00 | 0.00 | 0.05 | 83 | 1022.0 |
| 20260906030041 | 12 | 62 | 0.0 | 3.2 | 0.00 | 0.00 | 0.05 | 83 | 1022.0 |
| 20260906030024 | 12 | 75 | 0.0 | 4.8 | 0.00 | 0.00 | 0.05 | 83 | 1022.0 |
| 20260906030006 | 12 | 48 | 1.6 | 6.4 | 0.00 | 0.00 | 0.05 | 83 | 1022.0 |
| 20260906025949 | 12 | 77 | 1.6 | 6.4 | 0.00 | 0.00 | 0.05 | 83 | 1022.0 |
| 20260906025939 | 12 | 83 | 3.2 | 6.4 | 0.00 | 0.00 | 0.05 | 83 | 1022.0 |
| 20260906025901 | 12 | 59 | 3.2 | 6.4 | 0.00 | 0.00 | 0.05 | 83 | 1022.0 |
| 20260906025845 | 12 | 80 | 4.8 | 6.4 | 0.00 | 0.00 | 0.05 | 83 | 1022.0 |
| 20260906025836 | 12 | 64 | 4.8 | 6.4 | 0.00 | 0.00 | 0.05 | 83 | 1022.0 |
| 20260906025805 | 12 | 94 | 3.2 | 4.8 | 0.00 | 0.00 | 0.05 | 83 | 1022.0 |
| 20260906025756 | 12 | 94 | 3.2 | 4.8 | 0.00 | 0.00 | 0.05 | 83 | 1022.0 |
| 20260906025751 | 12 | 70 | 3.2 | 4.8 | 0.00 | 0.00 | 0.05 | 83 | 1022.0 |
| 20260906025737 | 12 | 51 | 3.2 | 4.8 | 0.00 | 0.00 | 0.05 | 83 | 1022.0 |
| 20260906025712 | 12 | 82 | 1.6 | 3.2 | 0.00 | 0.00 | 0.05 | 83 | 1022.0 |
| 20260906025652 | 12 | 70 | 1.6 | 3.2 | 0.00 | 0.00 | 0.05 | 83 | 1022.0 |
| 20260906025647 | 12 | 76 | 1.6 | 3.2 | 0.00 | 0.00 | 0.05 | 83 | 1022.0 |
| 20260906025615 | 12 | 83 | 1.6 | 3.2 | 0.00 | 0.00 | 0.05 | 83 | 1022.0 |
| 20260906025557 | 12 | 74 | 1.6 | 3.2 | 0.00 | 0.00 | 0.05 | 83 | 1022.0 |
| 20260906025541 | 12 | 45 | 1.6 | 3.2 | 0.00 | 0.00 | 0.05 | 83 | 1022.0 |
| 20260906025539 | 12 | 86 | 3.2 | 3.2 | 0.00 | 0.00 | 0.05 | 83 | 1022.0 |
| 20260906025520 | 12 | 74 | 1.6 | 3.2 | 0.00 | 0.00 | 0.05 | 83 | 1022.0 |
| 20260906025501 | 12 | 62 | 0.0 | 3.2 | 0.00 | 0.00 | 0.05 | 83 | 1022.0 |
| 20260906025453 | 12 | 62 | 0.0 | 3.2 | 0.00 | 0.00 | 0.05 | 83 | 1022.0 |
| 20260906025440 | 12 | 45 | 1.6 | 3.2 | 0.00 | 0.00 | 0.05 | 83 | 1022.0 |
| 20260906025421 | 12 | 89 | 0.0 | 3.2 | 0.00 | 0.00 | 0.05 | 83 | 1022.0 |
| 20260906025405 | 12 | 60 | 1.6 | 3.2 | 0.00 | 0.00 | 0.05 | 83 | 1022.0 |
| 20260906025349 | 12 | 72 | 3.2 | 3.2 | 0.00 | 0.00 | 0.05 | 83 | 1022.0 |
| 20260906025333 | 12 | 93 | 3.2 | 3.2 | 0.00 | 0.00 | 0.05 | 83 | 1022.0 |
| 20260906025317 | 12 | 58 | 0.0 | 3.2 | 0.00 | 0.00 | 0.05 | 83 | 1022.0 |
| 20260906025301 | 12 | 69 | 0.0 | 3.2 | 0.00 | 0.00 | 0.05 | 83 | 1022.0 |
| 20260906025245 | 12 | 85 | 1.6 | 3.2 | 0.00 | 0.00 | 0.05 | 83 | 1022.0 |
| 20260906025229 | 12 | 44 | 1.6 | 1.6 | 0.00 | 0.00 | 0.05 | 83 | 1022.0 |
| 20260906025214 | 12 | 55 | 0.0 | 0.0 | 0.00 | 0.00 | 0.05 | 83 | 1022.0 |
| 20260906025207 | 12 | 25 | 0.0 | 1.6 | 0.00 | 0.00 | 0.05 | 83 | 1022.0 |
| 20260906025155 | 12 | 25 | 0.0 | 1.6 | 0.00 | 0.00 | 0.05 | 83 | 1022.0 |
| 20260906025128 | 12 | 125 | 0.0 | 1.6 | 0.00 | 0.00 | 0.05 | 83 | 1022.0 |
| 20260906025101 | 12 | 109 | 0.0 | 1.6 | 0.00 | 0.00 | 0.05 | 83 | 1022.0 |
| 20260906025058 | 12 | 87 | 0.0 | 1.6 | 0.00 | 0.00 | 0.05 | 83 | 1022.0 |
| 20260906025013 | 12 | 87 | 0.0 | 1.6 | 0.00 | 0.00 | 0.05 | 84 | 1022.0 |
| 20260906025006 | 12 | 87 | 1.6 | 3.2 | 0.00 | 0.00 | 0.05 | 84 | 1022.0 |
| 20260906024940 | 12 | 84 | 0.0 | 3.2 | 0.00 | 0.00 | 0.05 | 84 | 1022.0 |
| 20260906024924 | 12 | 61 | 0.0 | 3.2 | 0.00 | 0.00 | 0.05 | 84 | 1022.0 |
| 20260906024910 | 12 | 82 | 1.6 | 3.2 | 0.00 | 0.00 | 0.05 | 84 | 1022.0 |
| 20260906024901 | 12 | 91 | 1.6 | 3.2 | 0.00 | 0.00 | 0.05 | 84 | 1022.0 |
| 20260906024853 | 12 | 91 | 1.6 | 3.2 | 0.00 | 0.00 | 0.05 | 84 | 1022.0 |
| 20260906024836 | 12 | 71 | 1.6 | 3.2 | 0.00 | 0.00 | 0.05 | 84 | 1022.0 |
| 20260906024832 | 12 | 101 | 1.6 | 3.2 | 0.00 | 0.00 | 0.05 | 84 | 1022.0 |
| 20260906024816 | 12 | 69 | 1.6 | 3.2 | 0.00 | 0.00 | 0.05 | 84 | 1022.0 |
| 20260906024748 | 12 | 105 | 1.6 | 3.2 | 0.00 | 0.00 | 0.05 | 84 | 1022.0 |
| 20260906024725 | 12 | 73 | 0.0 | 3.2 | 0.00 | 0.00 | 0.05 | 84 | 1022.0 |
| 20260906024710 | 12 | 78 | 1.6 | 3.2 | 0.00 | 0.00 | 0.05 | 84 | 1022.0 |
| 20260906024700 | 12 | 93 | 1.6 | 3.2 | 0.00 | 0.00 | 0.05 | 84 | 1022.0 |
| 20260906024653 | 12 | 93 | 1.6 | 3.2 | 0.00 | 0.00 | 0.05 | 84 | 1022.0 |
| 20260906024636 | 12 | 73 | 1.6 | 1.6 | 0.00 | 0.00 | 0.05 | 84 | 1022.0 |
| 20260906024621 | 12 | 62 | 0.0 | 3.2 | 0.00 | 0.00 | 0.05 | 84 | 1022.0 |
| 20260906024616 | 12 | 54 | 0.0 | 3.2 | 0.00 | 0.00 | 0.05 | 84 | 1022.0 |
| 20260906024549 | 12 | 76 | 1.6 | 3.2 | 0.00 | 0.00 | 0.05 | 84 | 1022.0 |
| 20260906024543 | 12 | 77 | 1.6 | 3.2 | 0.00 | 0.00 | 0.05 | 84 | 1022.0 |
| 20260906024517 | 12 | 92 | 1.6 | 3.2 | 0.00 | 0.00 | 0.05 | 84 | 1022.0 |
| 20260906024501 | 12 | 65 | 1.6 | 3.2 | 0.00 | 0.00 | 0.05 | 84 | 1022.0 |
| 20260906024456 | 12 | 84 | 3.2 | 3.2 | 0.00 | 0.00 | 0.05 | 84 | 1022.0 |
| 20260906024431 | 12 | 90 | 3.2 | 3.2 | 0.00 | 0.00 | 0.05 | 84 | 1022.0 |
| 20260906024413 | 12 | 51 | 1.6 | 3.2 | 0.00 | 0.00 | 0.05 | 84 | 1022.0 |
| 20260906024405 | 12 | 53 | 0.0 | 3.2 | 0.00 | 0.00 | 0.05 | 84 | 1022.0 |
| 20260906024357 | 12 | 53 | 0.0 | 3.2 | 0.00 | 0.00 | 0.05 | 84 | 1022.0 |
| 20260906024341 | 12 | 94 | 0.0 | 3.2 | 0.00 | 0.00 | 0.05 | 84 | 1022.0 |
| 20260906024335 | 12 | 67 | 1.6 | 3.2 | 0.00 | 0.00 | 0.05 | 84 | 1022.0 |
| 20260906024301 | 12 | 45 | 1.6 | 3.2 | 0.00 | 0.00 | 0.05 | 84 | 1022.0 |
| 20260906024244 | 12 | 60 | 3.2 | 3.2 | 0.00 | 0.00 | 0.05 | 84 | 1022.0 |
| 20260906024229 | 12 | 93 | 0.0 | 1.6 | 0.00 | 0.00 | 0.05 | 84 | 1022.0 |
| 20260906024223 | 12 | 59 | 0.0 | 1.6 | 0.00 | 0.00 | 0.05 | 84 | 1022.0 |
| 20260906024205 | 12 | 69 | 1.6 | 4.8 | 0.00 | 0.00 | 0.05 | 84 | 1022.0 |
| 20260906024157 | 12 | 69 | 1.6 | 4.8 | 0.00 | 0.00 | 0.05 | 84 | 1022.0 |
| 20260906024140 | 12 | 107 | 0.0 | 4.8 | 0.00 | 0.00 | 0.05 | 84 | 1022.0 |
| 20260906024129 | 12 | 73 | 0.0 | 6.4 | 0.00 | 0.00 | 0.05 | 84 | 1022.0 |
| 20260906024104 | 12 | 102 | 1.6 | 6.4 | 0.00 | 0.00 | 0.05 | 84 | 1022.0 |
| 20260906024037 | 12 | 133 | 3.2 | 6.4 | 0.00 | 0.00 | 0.05 | 84 | 1022.0 |
| 20260906024020 | 12 | 110 | 3.2 | 6.4 | 0.00 | 0.00 | 0.05 | 84 | 1022.0 |
| 20260906024004 | 12 | 101 | 3.2 | 6.4 | 0.00 | 0.00 | 0.05 | 84 | 1022.0 |
| 20260906023949 | 12 | 127 | 4.8 | 6.4 | 0.00 | 0.00 | 0.05 | 84 | 1022.0 |
| 20260906023933 | 12 | 86 | 3.2 | 4.8 | 0.00 | 0.00 | 0.05 | 84 | 1022.0 |
| 20260906023919 | 12 | 87 | 3.2 | 3.2 | 0.00 | 0.00 | 0.05 | 84 | 1022.0 |
| 20260906023900 | 12 | 78 | 0.0 | 0.0 | 0.00 | 0.00 | 0.05 | 84 | 1022.0 |
| 20260906023836 | 12 | 122 | 0.0 | 0.0 | 0.00 | 0.00 | 0.05 | 84 | 1022.0 |
| 20260906023821 | 12 | 116 | 0.0 | 0.0 | 0.00 | 0.00 | 0.05 | 84 | 1022.0 |
| 20260906023804 | 12 | 108 | 0.0 | 0.0 | 0.00 | 0.00 | 0.05 | 84 | 1022.0 |
| 20260906023749 | 12 | 59 | 0.0 | 0.0 | 0.00 | 0.00 | 0.05 | 84 | 1022.0 |
| 20260906023703 | 12 | 56 | 0.0 | 0.0 | 0.00 | 0.00 | 0.05 | 84 | 1022.0 |
| 20260906023604 | 12 | 56 | 0.0 | 0.0 | 0.00 | 0.00 | 0.05 | 84 | 1022.0 |
| 20260906023537 | 12 | 56 | 0.0 | 0.0 | 0.00 | 0.00 | 0.05 | 84 | 1022.0 |
| 20260906023501 | 12 | 56 | 0.0 | 0.0 | 0.00 | 0.00 | 0.05 | 84 | 1022.0 |
| 20260906023407 | 12 | 56 | 0.0 | 0.0 | 0.00 | 0.00 | 0.05 | 84 | 1022.0 |
| 20260906023341 | 12 | 56 | 0.0 | 0.0 | 0.00 | 0.00 | 0.05 | 84 | 1022.0 |
| 20260906023324 | 12 | 20 | 0.0 | 0.0 | 0.00 | 0.00 | 0.05 | 84 | 1022.0 |
| 20260906023309 | 12 | 11 | 0.0 | 0.0 | 0.00 | 0.00 | 0.05 | 84 | 1022.0 |
| 20260906023304 | 12 | 13 | 0.0 | 0.0 | 0.00 | 0.00 | 0.05 | 84 | 1022.0 |
| 20260906023206 | 12 | 39 | 0.0 | 0.0 | 0.00 | 0.00 | 0.05 | 84 | 1022.0 |
| 20260906023149 | 12 | 39 | 0.0 | 0.0 | 0.00 | 0.00 | 0.05 | 84 | 1022.0 |
| 20260906023104 | 12 | 38 | 0.0 | 0.0 | 0.00 | 0.00 | 0.05 | 84 | 1022.0 |
| 20260906023046 | 12 | 38 | 0.0 | 0.0 | 0.00 | 0.00 | 0.05 | 84 | 1022.0 |
| 20260906023016 | 12 | 38 | 0.0 | 0.0 | 0.00 | 0.00 | 0.05 | 84 | 1022.0 |
| 20260906022901 | 12 | 38 | 0.0 | 0.0 | 0.00 | 0.00 | 0.05 | 84 | 1022.0 |
| 20260906022805 | 12 | 38 | 0.0 | 0.0 | 0.00 | 0.00 | 0.05 | 84 | 1022.0 |
| 20260906022758 | 12 | 38 | 0.0 | 0.0 | 0.00 | 0.00 | 0.05 | 84 | 1022.0 |
| 20260906022710 | 12 | 23 | 0.0 | 0.0 | 0.00 | 0.00 | 0.05 | 84 | 1022.0 |
| 20260906022701 | 12 | 37 | 0.0 | 1.6 | 0.00 | 0.00 | 0.05 | 84 | 1022.0 |
| 20260906022653 | 12 | 37 | 0.0 | 1.6 | 0.00 | 0.00 | 0.05 | 84 | 1022.0 |
| 20260906022640 | 12 | 35 | 0.0 | 1.6 | 0.00 | 0.00 | 0.05 | 84 | 1022.0 |
| 20260906022622 | 12 | 17 | 0.0 | 1.6 | 0.00 | 0.00 | 0.05 | 84 | 1022.0 |
| 20260906022613 | 12 | 356 | 0.0 | 1.6 | 0.00 | 0.00 | 0.05 | 84 | 1022.0 |
| 20260906022605 | 12 | 356 | 0.0 | 1.6 | 0.00 | 0.00 | 0.05 | 84 | 1021.0 |
| 20260906022549 | 12 | 346 | 0.0 | 1.6 | 0.00 | 0.00 | 0.05 | 84 | 1021.0 |
| 20260906022537 | 12 | 325 | 0.0 | 1.6 | 0.00 | 0.00 | 0.05 | 84 | 1021.0 |
| 20260906022512 | 12 | 355 | 1.6 | 1.6 | 0.00 | 0.00 | 0.05 | 84 | 1021.0 |
| 20260906022454 | 12 | 41 | 1.6 | 1.6 | 0.00 | 0.00 | 0.05 | 84 | 1022.0 |
| 20260906022449 | 12 | 22 | 0.0 | 1.6 | 0.00 | 0.00 | 0.05 | 84 | 1022.0 |
| 20260906022413 | 12 | 15 | 0.0 | 0.0 | 0.00 | 0.00 | 0.05 | 84 | 1022.0 |
| 20260906022405 | 12 | 15 | 0.0 | 1.6 | 0.00 | 0.00 | 0.05 | 84 | 1022.0 |
| 20260906022349 | 12 | 15 | 0.0 | 1.6 | 0.00 | 0.00 | 0.05 | 84 | 1022.0 |
| 20260906022334 | 12 | 340 | 0.0 | 1.6 | 0.00 | 0.00 | 0.05 | 84 | 1022.0 |
| 20260906022312 | 12 | 331 | 0.0 | 1.6 | 0.00 | 0.00 | 0.05 | 84 | 1022.0 |
| 20260906022248 | 12 | 331 | 0.0 | 4.8 | 0.00 | 0.00 | 0.05 | 84 | 1022.0 |
| 20260906022230 | 12 | 329 | 0.0 | 4.8 | 0.00 | 0.00 | 0.05 | 84 | 1022.0 |
| 20260906022213 | 12 | 313 | 1.6 | 4.8 | 0.00 | 0.00 | 0.05 | 84 | 1022.0 |
| 20260906022206 | 12 | 322 | 1.6 | 4.8 | 0.00 | 0.00 | 0.05 | 84 | 1022.0 |
| 20260906022157 | 12 | 322 | 1.6 | 4.8 | 0.00 | 0.00 | 0.05 | 84 | 1022.0 |
| 20260906022141 | 12 | 323 | 1.6 | 4.8 | 0.00 | 0.00 | 0.05 | 84 | 1022.0 |
| 20260906022125 | 12 | 305 | 3.2 | 4.8 | 0.00 | 0.00 | 0.05 | 84 | 1022.0 |
| 20260906022102 | 12 | 307 | 3.2 | 4.8 | 0.00 | 0.00 | 0.05 | 84 | 1022.0 |
| 20260906022056 | 12 | 352 | 3.2 | 3.2 | 0.00 | 0.00 | 0.05 | 84 | 1022.0 |
| 20260906022040 | 12 | 310 | 1.6 | 1.6 | 0.00 | 0.00 | 0.05 | 84 | 1022.0 |
| 20260906022024 | 12 | 318 | 1.6 | 1.6 | 0.00 | 0.00 | 0.05 | 84 | 1022.0 |
| 20260906022005 | 12 | 324 | 0.0 | 0.0 | 0.00 | 0.00 | 0.05 | 84 | 1022.0 |
| 20260906021957 | 12 | 324 | 0.0 | 0.0 | 0.00 | 0.00 | 0.05 | 84 | 1022.0 |
| 20260906021941 | 12 | 356 | 0.0 | 0.0 | 0.00 | 0.00 | 0.05 | 84 | 1022.0 |
| 20260906021925 | 12 | 355 | 0.0 | 0.0 | 0.00 | 0.00 | 0.05 | 84 | 1022.0 |
| 20260906021914 | 12 | 0 | 0.0 | 0.0 | 0.00 | 0.00 | 0.05 | 84 | 1022.0 |
| 20260906021837 | 12 | 8 | 0.0 | 0.0 | 0.00 | 0.00 | 0.05 | 84 | 1022.0 |
| 20260906021814 | 12 | 8 | 0.0 | 1.6 | 0.00 | 0.00 | 0.05 | 84 | 1022.0 |
| 20260906021805 | 12 | 8 | 0.0 | 1.6 | 0.00 | 0.00 | 0.05 | 84 | 1021.0 |
| 20260906021751 | 12 | 8 | 0.0 | 1.6 | 0.00 | 0.00 | 0.05 | 84 | 1021.0 |
| 20260906021733 | 12 | 354 | 0.0 | 1.6 | 0.00 | 0.00 | 0.05 | 84 | 1021.0 |
| 20260906021710 | 12 | 7 | 0.0 | 1.6 | 0.00 | 0.00 | 0.05 | 84 | 1021.0 |
| 20260906021702 | 12 | 7 | 0.0 | 1.6 | 0.00 | 0.00 | 0.05 | 84 | 1022.0 |
| 20260906021640 | 12 | 2 | 0.0 | 1.6 | 0.00 | 0.00 | 0.05 | 84 | 1022.0 |
| 20260906021621 | 12 | 13 | 0.0 | 3.2 | 0.00 | 0.00 | 0.05 | 84 | 1022.0 |
| 20260906021609 | 12 | 353 | 0.0 | 3.2 | 0.00 | 0.00 | 0.05 | 84 | 1022.0 |
| 20260906021549 | 12 | 348 | 0.0 | 3.2 | 0.00 | 0.00 | 0.05 | 84 | 1022.0 |
| 20260906021544 | 12 | 334 | 0.0 | 3.2 | 0.00 | 0.00 | 0.05 | 84 | 1022.0 |
| 20260906021517 | 12 | 344 | 1.6 | 3.2 | 0.00 | 0.00 | 0.05 | 84 | 1022.0 |
| 20260906021512 | 12 | 0 | 1.6 | 3.2 | 0.00 | 0.00 | 0.05 | 84 | 1022.0 |
| 20260906021456 | 12 | 340 | 1.6 | 3.2 | 0.00 | 0.00 | 0.05 | 84 | 1022.0 |
| 20260906021438 | 12 | 330 | 1.6 | 1.6 | 0.00 | 0.00 | 0.05 | 84 | 1022.0 |
| 20260906021429 | 12 | 330 | 1.6 | 3.2 | 0.00 | 0.00 | 0.05 | 84 | 1022.0 |
| 20260906021413 | 12 | 341 | 0.0 | 3.2 | 0.00 | 0.00 | 0.05 | 84 | 1022.0 |
| 20260906021400 | 12 | 358 | 0.0 | 3.2 | 0.00 | 0.00 | 0.05 | 84 | 1021.0 |
| 20260906021341 | 12 | 325 | 0.0 | 3.2 | 0.00 | 0.00 | 0.05 | 84 | 1021.0 |
| 20260906021336 | 12 | 352 | 0.0 | 3.2 | 0.00 | 0.00 | 0.05 | 84 | 1021.0 |
| 20260906021308 | 12 | 3 | 0.0 | 3.2 | 0.00 | 0.00 | 0.05 | 84 | 1021.0 |
| 20260906021254 | 12 | 357 | 1.6 | 4.8 | 0.00 | 0.00 | 0.05 | 84 | 1022.0 |
| 20260906021237 | 12 | 353 | 1.6 | 4.8 | 0.00 | 0.00 | 0.05 | 84 | 1022.0 |
| 20260906021205 | 12 | 45 | 1.6 | 4.8 | 0.00 | 0.00 | 0.05 | 84 | 1022.0 |
| 20260906021158 | 12 | 45 | 1.6 | 4.8 | 0.00 | 0.00 | 0.05 | 84 | 1022.0 |
| 20260906021141 | 12 | 27 | 1.6 | 4.8 | 0.00 | 0.00 | 0.05 | 84 | 1022.0 |
| 20260906021125 | 12 | 41 | 3.2 | 4.8 | 0.00 | 0.00 | 0.05 | 84 | 1022.0 |
| 20260906021109 | 12 | 21 | 3.2 | 4.8 | 0.00 | 0.00 | 0.05 | 84 | 1022.0 |
| 20260906021102 | 12 | 32 | 3.2 | 4.8 | 0.00 | 0.00 | 0.05 | 84 | 1022.0 |
| 20260906021037 | 12 | 31 | 3.2 | 4.8 | 0.00 | 0.00 | 0.05 | 84 | 1022.0 |
| 20260906021022 | 12 | 15 | 3.2 | 3.2 | 0.00 | 0.00 | 0.05 | 84 | 1022.0 |
| 20260906021005 | 12 | 5 | 1.6 | 3.2 | 0.00 | 0.00 | 0.05 | 83 | 1022.0 |
| 20260906020950 | 12 | 351 | 1.6 | 3.2 | 0.00 | 0.00 | 0.05 | 83 | 1022.0 |
| 20260906020934 | 12 | 17 | 1.6 | 3.2 | 0.00 | 0.00 | 0.05 | 83 | 1022.0 |
| 20260906020919 | 12 | 353 | 1.6 | 1.6 | 0.00 | 0.00 | 0.05 | 83 | 1022.0 |
| 20260906020901 | 12 | 19 | 1.6 | 1.6 | 0.00 | 0.00 | 0.05 | 83 | 1022.0 |
| 20260906020856 | 12 | 18 | 1.6 | 1.6 | 0.00 | 0.00 | 0.05 | 83 | 1022.0 |
| 20260906020829 | 12 | 5 | 0.0 | 1.6 | 0.00 | 0.00 | 0.05 | 83 | 1022.0 |
| 20260906020813 | 12 | 2 | 0.0 | 1.6 | 0.00 | 0.00 | 0.05 | 83 | 1022.0 |
| 20260906020805 | 12 | 16 | 0.0 | 1.6 | 0.00 | 0.00 | 0.05 | 83 | 1022.0 |
| 20260906020758 | 12 | 16 | 0.0 | 1.6 | 0.00 | 0.00 | 0.05 | 83 | 1022.0 |
| 20260906020733 | 12 | 25 | 0.0 | 1.6 | 0.00 | 0.00 | 0.05 | 83 | 1022.0 |
| 20260906020720 | 12 | 17 | 0.0 | 1.6 | 0.00 | 0.00 | 0.05 | 83 | 1022.0 |
| 20260906020702 | 12 | 22 | 0.0 | 3.2 | 0.00 | 0.00 | 0.05 | 83 | 1022.0 |
| 20260906020645 | 12 | 22 | 1.6 | 3.2 | 0.00 | 0.00 | 0.05 | 83 | 1022.0 |
| 20260906020631 | 12 | 9 | 1.6 | 3.2 | 0.00 | 0.00 | 0.05 | 83 | 1022.0 |
| 20260906020613 | 12 | 15 | 1.6 | 3.2 | 0.00 | 0.00 | 0.05 | 83 | 1022.0 |
| 20260906020606 | 12 | 8 | 1.6 | 3.2 | 0.00 | 0.00 | 0.05 | 83 | 1022.0 |
| 20260906020557 | 12 | 8 | 1.6 | 3.2 | 0.00 | 0.00 | 0.05 | 83 | 1022.0 |
| 20260906020549 | 12 | 12 | 1.6 | 3.2 | 0.00 | 0.00 | 0.05 | 83 | 1022.0 |
| 20260906020525 | 12 | 13 | 3.2 | 3.2 | 0.00 | 0.00 | 0.05 | 83 | 1022.0 |
| 20260906020509 | 12 | 16 | 1.6 | 3.2 | 0.00 | 0.00 | 0.05 | 83 | 1022.0 |
| 20260906020501 | 12 | 8 | 0.0 | 3.2 | 0.00 | 0.00 | 0.05 | 83 | 1022.0 |
| 20260906020454 | 12 | 8 | 0.0 | 3.2 | 0.00 | 0.00 | 0.05 | 83 | 1022.0 |
| 20260906020439 | 12 | 330 | 0.0 | 3.2 | 0.00 | 0.00 | 0.05 | 83 | 1022.0 |
| 20260906020421 | 12 | 358 | 1.6 | 3.2 | 0.00 | 0.00 | 0.05 | 83 | 1022.0 |
| 20260906020413 | 12 | 350 | 3.2 | 3.2 | 0.00 | 0.00 | 0.05 | 83 | 1022.0 |
| 20260906020406 | 12 | 350 | 3.2 | 4.8 | 0.00 | 0.00 | 0.05 | 83 | 1022.0 |
| 20260906020351 | 12 | 306 | 0.0 | 4.8 | 0.00 | 0.00 | 0.05 | 83 | 1022.0 |
| 20260906020325 | 12 | 17 | 0.0 | 4.8 | 0.00 | 0.00 | 0.05 | 83 | 1022.0 |
| 20260906020309 | 12 | 64 | 0.0 | 4.8 | 0.00 | 0.00 | 0.05 | 83 | 1022.0 |
| 20260906020301 | 12 | 65 | 0.0 | 4.8 | 0.00 | 0.00 | 0.05 | 83 | 1021.0 |
| 20260906020253 | 12 | 65 | 0.0 | 4.8 | 0.00 | 0.00 | 0.05 | 83 | 1021.0 |
| 20260906020248 | 12 | 26 | 0.0 | 4.8 | 0.00 | 0.00 | 0.05 | 83 | 1021.0 |
| 20260906020221 | 12 | 25 | 3.2 | 4.8 | 0.00 | 0.00 | 0.05 | 83 | 1021.0 |
| 20260906020213 | 12 | 34 | 1.6 | 3.2 | 0.00 | 0.00 | 0.05 | 83 | 1021.0 |
| 20260906020205 | 12 | 34 | 1.6 | 3.2 | 0.00 | 0.00 | 0.05 | 83 | 1022.0 |
| 20260906020200 | 12 | 42 | 0.0 | 0.0 | 0.00 | 0.00 | 0.05 | 83 | 1022.0 |
| 20260906020142 | 12 | 24 | 0.0 | 0.0 | 0.00 | 0.00 | 0.05 | 83 | 1022.0 |
| 20260906020133 | 12 | 24 | 0.0 | 1.6 | 0.00 | 0.00 | 0.05 | 83 | 1022.0 |
| 20260906020117 | 12 | 25 | 0.0 | 1.6 | 0.00 | 0.00 | 0.05 | 83 | 1022.0 |
| 20260906020112 | 12 | 34 | 0.0 | 1.6 | 0.00 | 0.00 | 0.05 | 83 | 1022.0 |
| 20260906020050 | 12 | 26 | 0.0 | 1.6 | 0.00 | 0.00 | 0.05 | 83 | 1022.0 |
| 20260906020024 | 12 | 42 | 0.0 | 3.2 | 0.00 | 0.00 | 0.05 | 83 | 1022.0 |
| 20260906020005 | 12 | 18 | 0.0 | 4.8 | 0.00 | 0.00 | 0.05 | 83 | 1022.0 |
| 20260906015957 | 12 | 18 | 0.0 | 4.8 | 0.00 | 0.00 | 0.05 | 83 | 1022.0 |
| 20260906015941 | 12 | 14 | 0.0 | 4.8 | 0.00 | 0.00 | 0.05 | 83 | 1022.0 |
| 20260906015928 | 12 | 354 | 0.0 | 4.8 | 0.00 | 0.00 | 0.05 | 83 | 1022.0 |
| 20260906015912 | 12 | 294 | 1.6 | 4.8 | 0.00 | 0.00 | 0.05 | 83 | 1022.0 |
| 20260906015829 | 12 | 18 | 3.2 | 4.8 | 0.00 | 0.00 | 0.05 | 83 | 1022.0 |
| 20260906015813 | 12 | 29 | 4.8 | 4.8 | 0.00 | 0.00 | 0.05 | 83 | 1022.0 |
| 20260906015805 | 12 | 10 | 4.8 | 4.8 | 0.00 | 0.00 | 0.05 | 83 | 1022.0 |
| 20260906015757 | 12 | 10 | 4.8 | 4.8 | 0.00 | 0.00 | 0.05 | 83 | 1022.0 |
| 20260906015741 | 12 | 20 | 3.2 | 4.8 | 0.00 | 0.00 | 0.05 | 83 | 1022.0 |
| 20260906015736 | 12 | 352 | 1.6 | 4.8 | 0.00 | 0.00 | 0.05 | 83 | 1022.0 |
| 20260906015709 | 12 | 12 | 3.2 | 4.8 | 0.00 | 0.00 | 0.05 | 83 | 1022.0 |
| 20260906015701 | 12 | 28 | 3.2 | 4.8 | 0.00 | 0.00 | 0.05 | 83 | 1022.0 |
| 20260906015654 | 12 | 28 | 3.2 | 4.8 | 0.00 | 0.00 | 0.05 | 83 | 1022.0 |
| 20260906015638 | 12 | 20 | 3.2 | 3.2 | 0.00 | 0.00 | 0.05 | 83 | 1022.0 |
| 20260906015624 | 12 | 19 | 0.0 | 3.2 | 0.00 | 0.00 | 0.05 | 83 | 1022.0 |
| 20260906015605 | 12 | 353 | 0.0 | 3.2 | 0.00 | 0.00 | 0.05 | 83 | 1022.0 |
| 20260906015549 | 12 | 3 | 0.0 | 3.2 | 0.00 | 0.00 | 0.05 | 83 | 1022.0 |
| 20260906015533 | 12 | 350 | 1.6 | 3.2 | 0.00 | 0.00 | 0.05 | 83 | 1022.0 |
| 20260906015517 | 12 | 320 | 1.6 | 3.2 | 0.00 | 0.00 | 0.05 | 83 | 1022.0 |
| 20260906015503 | 12 | 346 | 1.6 | 3.2 | 0.00 | 0.00 | 0.05 | 83 | 1022.0 |
| 20260906015437 | 12 | 32 | 0.0 | 3.2 | 0.00 | 0.00 | 0.05 | 83 | 1022.0 |
| 20260906015423 | 12 | 19 | 1.6 | 3.2 | 0.00 | 0.00 | 0.05 | 83 | 1022.0 |
| 20260906015416 | 12 | 352 | 1.6 | 3.2 | 0.00 | 0.00 | 0.05 | 83 | 1022.0 |
| 20260906015349 | 12 | 358 | 1.6 | 3.2 | 0.00 | 0.00 | 0.05 | 83 | 1022.0 |
| 20260906015333 | 12 | 37 | 0.0 | 3.2 | 0.00 | 0.00 | 0.05 | 83 | 1022.0 |
| 20260906015317 | 12 | 46 | 0.0 | 3.2 | 0.00 | 0.00 | 0.05 | 83 | 1022.0 |
| 20260906015305 | 12 | 42 | 3.2 | 3.2 | 0.00 | 0.00 | 0.05 | 83 | 1022.0 |
| 20260906015245 | 12 | 8 | 1.6 | 3.2 | 0.00 | 0.00 | 0.05 | 83 | 1022.0 |
| 20260906015229 | 12 | 1 | 3.2 | 3.2 | 0.00 | 0.00 | 0.05 | 83 | 1022.0 |
| 20260906015223 | 12 | 17 | 1.6 | 3.2 | 0.00 | 0.00 | 0.05 | 83 | 1022.0 |
| 20260906015205 | 12 | 352 | 1.6 | 3.2 | 0.00 | 0.00 | 0.05 | 83 | 1021.0 |
| 20260906015157 | 12 | 352 | 1.6 | 3.2 | 0.00 | 0.00 | 0.05 | 83 | 1021.0 |
| 20260906015141 | 12 | 20 | 1.6 | 3.2 | 0.00 | 0.00 | 0.05 | 83 | 1021.0 |
| 20260906015125 | 12 | 345 | 1.6 | 3.2 | 0.00 | 0.00 | 0.05 | 83 | 1021.0 |
| 20260906015109 | 12 | 33 | 1.6 | 3.2 | 0.00 | 0.00 | 0.05 | 83 | 1021.0 |
| 20260906015101 | 12 | 16 | 1.6 | 9.7 | 0.00 | 0.00 | 0.05 | 83 | 1021.0 |
| 20260906015053 | 12 | 16 | 1.6 | 9.7 | 0.00 | 0.00 | 0.05 | 83 | 1021.0 |
| 20260906015047 | 12 | 18 | 3.2 | 9.7 | 0.00 | 0.00 | 0.05 | 83 | 1021.0 |
| 20260906015024 | 12 | 50 | 1.6 | 9.7 | 0.00 | 0.00 | 0.05 | 83 | 1021.0 |
| 20260906015007 | 12 | 27 | 1.6 | 9.7 | 0.00 | 0.00 | 0.05 | 83 | 1021.0 |
| 20260906014941 | 12 | 42 | 3.2 | 9.7 | 0.00 | 0.00 | 0.05 | 83 | 1021.0 |
| 20260906014925 | 12 | 26 | 4.8 | 9.7 | 0.00 | 0.00 | 0.05 | 83 | 1021.0 |
| 20260906014913 | 12 | 24 | 6.4 | 6.4 | 0.00 | 0.00 | 0.05 | 83 | 1021.0 |
| 20260906014853 | 12 | 18 | 4.8 | 6.4 | 0.00 | 0.00 | 0.05 | 83 | 1021.0 |
| 20260906014837 | 12 | 43 | 4.8 | 6.4 | 0.00 | 0.00 | 0.05 | 83 | 1021.0 |
| 20260906014821 | 12 | 32 | 6.4 | 6.4 | 0.00 | 0.00 | 0.05 | 83 | 1021.0 |
| 20260906014810 | 12 | 26 | 6.4 | 6.4 | 0.00 | 0.00 | 0.05 | 83 | 1021.0 |
| 20260906014733 | 12 | 37 | 1.6 | 3.2 | 0.00 | 0.00 | 0.05 | 83 | 1021.0 |
| 20260906014727 | 12 | 90 | 1.6 | 3.2 | 0.00 | 0.00 | 0.05 | 83 | 1021.0 |
| 20260906014702 | 12 | 14 | 1.6 | 3.2 | 0.00 | 0.00 | 0.05 | 83 | 1021.0 |
| 20260906014648 | 12 | 15 | 3.2 | 3.2 | 0.00 | 0.00 | 0.05 | 83 | 1021.0 |
| 20260906014631 | 12 | 60 | 3.2 | 3.2 | 0.00 | 0.00 | 0.05 | 83 | 1021.0 |
| 20260906014613 | 12 | 47 | 0.0 | 3.2 | 0.00 | 0.00 | 0.05 | 83 | 1021.0 |
| 20260906014605 | 12 | 33 | 1.6 | 3.2 | 0.00 | 0.00 | 0.05 | 83 | 1022.0 |
| 20260906014549 | 12 | 33 | 1.6 | 3.2 | 0.00 | 0.00 | 0.05 | 83 | 1022.0 |
| 20260906014535 | 12 | 58 | 1.6 | 3.2 | 0.00 | 0.00 | 0.05 | 83 | 1022.0 |
| 20260906014517 | 12 | 24 | 0.0 | 1.6 | 0.00 | 0.00 | 0.05 | 83 | 1022.0 |
| 20260906014503 | 12 | 346 | 0.0 | 1.6 | 0.00 | 0.00 | 0.05 | 83 | 1022.0 |
| 20260906014447 | 12 | 10 | 1.6 | 1.6 | 0.00 | 0.00 | 0.05 | 83 | 1022.0 |
| 20260906014429 | 12 | 13 | 1.6 | 1.6 | 0.00 | 0.00 | 0.05 | 83 | 1022.0 |
| 20260906014418 | 12 | 14 | 0.0 | 1.6 | 0.00 | 0.00 | 0.05 | 83 | 1022.0 |
| 20260906014407 | 12 | 17 | 0.0 | 1.6 | 0.00 | 0.00 | 0.05 | 83 | 1021.0 |
| 20260906014344 | 12 | 12 | 0.0 | 1.6 | 0.00 | 0.00 | 0.05 | 83 | 1021.0 |
| 20260906014326 | 12 | 12 | 0.0 | 3.2 | 0.00 | 0.00 | 0.05 | 83 | 1021.0 |
| 20260906014309 | 12 | 0 | 0.0 | 3.2 | 0.00 | 0.00 | 0.05 | 83 | 1021.0 |
| 20260906014301 | 12 | 25 | 0.0 | 3.2 | 0.00 | 0.00 | 0.05 | 83 | 1022.0 |
| 20260906014253 | 12 | 25 | 0.0 | 3.2 | 0.00 | 0.00 | 0.05 | 83 | 1022.0 |
| 20260906014237 | 12 | 339 | 0.0 | 3.2 | 0.00 | 0.00 | 0.05 | 83 | 1022.0 |
| 20260906014221 | 12 | 14 | 0.0 | 3.2 | 0.00 | 0.00 | 0.05 | 83 | 1022.0 |
| 20260906014213 | 12 | 350 | 0.0 | 3.2 | 0.00 | 0.00 | 0.05 | 83 | 1022.0 |
| 20260906014205 | 12 | 350 | 0.0 | 3.2 | 0.00 | 0.00 | 0.05 | 83 | 1021.0 |
| 20260906014149 | 12 | 344 | 1.6 | 3.2 | 0.00 | 0.00 | 0.05 | 83 | 1021.0 |
| 20260906014136 | 12 | 31 | 3.2 | 3.2 | 0.00 | 0.00 | 0.05 | 83 | 1021.0 |
| 20260906014109 | 12 | 355 | 1.6 | 3.2 | 0.00 | 0.00 | 0.05 | 83 | 1021.0 |
| 20260906014101 | 12 | 350 | 0.0 | 3.2 | 0.00 | 0.00 | 0.05 | 83 | 1021.0 |
| 20260906014053 | 12 | 350 | 0.0 | 3.2 | 0.00 | 0.00 | 0.05 | 83 | 1021.0 |
| 20260906014037 | 12 | 0 | 0.0 | 3.2 | 0.00 | 0.00 | 0.05 | 83 | 1021.0 |
| 20260906014021 | 12 | 25 | 0.0 | 4.8 | 0.00 | 0.00 | 0.05 | 83 | 1021.0 |
| 20260906014014 | 12 | 6 | 0.0 | 4.8 | 0.00 | 0.00 | 0.05 | 83 | 1021.0 |
| 20260906014008 | 12 | 6 | 0.0 | 6.4 | 0.00 | 0.00 | 0.05 | 83 | 1021.0 |
| 20260906013949 | 12 | 22 | 1.6 | 6.4 | 0.00 | 0.00 | 0.05 | 83 | 1021.0 |
| 20260906013943 | 12 | 357 | 1.6 | 6.4 | 0.00 | 0.00 | 0.05 | 83 | 1021.0 |
| 20260906013920 | 12 | 1 | 1.6 | 6.4 | 0.00 | 0.00 | 0.05 | 83 | 1021.0 |
| 20260906013901 | 12 | 43 | 3.2 | 6.4 | 0.00 | 0.00 | 0.05 | 83 | 1022.0 |
| 20260906013855 | 12 | 31 | 3.2 | 6.4 | 0.00 | 0.00 | 0.05 | 83 | 1022.0 |
| 20260906013829 | 12 | 30 | 4.8 | 6.4 | 0.00 | 0.00 | 0.05 | 83 | 1022.0 |
| 20260906013813 | 12 | 24 | 3.2 | 4.8 | 0.00 | 0.00 | 0.05 | 83 | 1022.0 |
| 20260906013805 | 12 | 42 | 3.2 | 4.8 | 0.00 | 0.00 | 0.05 | 83 | 1021.0 |
| 20260906013757 | 12 | 42 | 3.2 | 4.8 | 0.00 | 0.00 | 0.05 | 83 | 1021.0 |
| 20260906013741 | 12 | 354 | 4.8 | 4.8 | 0.00 | 0.00 | 0.05 | 83 | 1021.0 |
| 20260906013736 | 12 | 53 | 1.6 | 4.8 | 0.00 | 0.00 | 0.05 | 83 | 1021.0 |
| 20260906013701 | 12 | 46 | 3.2 | 4.8 | 0.00 | 0.00 | 0.05 | 83 | 1021.0 |
| 20260906013645 | 12 | 20 | 1.6 | 4.8 | 0.00 | 0.00 | 0.05 | 83 | 1021.0 |
| 20260906013640 | 12 | 20 | 3.2 | 4.8 | 0.00 | 0.00 | 0.05 | 83 | 1021.0 |
| 20260906013613 | 12 | 33 | 1.6 | 3.2 | 0.00 | 0.00 | 0.05 | 83 | 1021.0 |
| 20260906013605 | 12 | 27 | 1.6 | 3.2 | 0.00 | 0.00 | 0.05 | 83 | 1021.0 |
| 20260906013557 | 12 | 27 | 1.6 | 3.2 | 0.00 | 0.00 | 0.05 | 83 | 1021.0 |
| 20260906013541 | 12 | 22 | 1.6 | 3.2 | 0.00 | 0.00 | 0.05 | 83 | 1021.0 |
| 20260906013538 | 12 | 39 | 1.6 | 3.2 | 0.00 | 0.00 | 0.05 | 83 | 1021.0 |
| 20260906013509 | 12 | 30 | 0.0 | 1.6 | 0.00 | 0.00 | 0.05 | 83 | 1021.0 |
| 20260906013501 | 12 | 18 | 0.0 | 1.6 | 0.00 | 0.00 | 0.05 | 83 | 1021.0 |
| 20260906013453 | 12 | 18 | 0.0 | 1.6 | 0.00 | 0.00 | 0.05 | 83 | 1021.0 |
| 20260906013421 | 12 | 10 | 0.0 | 1.6 | 0.00 | 0.00 | 0.05 | 83 | 1021.0 |
| 20260906013413 | 12 | 31 | 1.6 | 1.6 | 0.00 | 0.00 | 0.05 | 83 | 1021.0 |
| 20260906013407 | 12 | 31 | 1.6 | 1.6 | 0.00 | 0.00 | 0.05 | 83 | 1022.0 |
| 20260906013349 | 12 | 11 | 1.6 | 1.6 | 0.00 | 0.00 | 0.05 | 83 | 1022.0 |
| 20260906013333 | 12 | 350 | 0.0 | 1.6 | 0.00 | 0.00 | 0.05 | 83 | 1022.0 |
| 20260906013317 | 12 | 341 | 1.6 | 1.6 | 0.00 | 0.00 | 0.05 | 83 | 1022.0 |
| 20260906013309 | 12 | 37 | 1.6 | 1.6 | 0.00 | 0.00 | 0.05 | 83 | 1022.0 |
| 20260906013301 | 12 | 37 | 1.6 | 1.6 | 0.00 | 0.00 | 0.05 | 83 | 1021.0 |
| 20260906013223 | 12 | 6 | 0.0 | 1.6 | 0.00 | 0.00 | 0.05 | 83 | 1021.0 |
| 20260906013205 | 12 | 339 | 0.0 | 1.6 | 0.00 | 0.00 | 0.05 | 83 | 1021.0 |
| 20260906013149 | 12 | 341 | 0.0 | 1.6 | 0.00 | 0.00 | 0.05 | 83 | 1021.0 |
| 20260906013135 | 12 | 340 | 0.0 | 1.6 | 0.00 | 0.00 | 0.05 | 83 | 1021.0 |
| 20260906013117 | 12 | 13 | 0.0 | 1.6 | 0.00 | 0.00 | 0.05 | 83 | 1021.0 |
| 20260906013114 | 12 | 5 | 0.0 | 1.6 | 0.00 | 0.00 | 0.05 | 83 | 1021.0 |
| 20260906013046 | 12 | 2 | 0.0 | 3.2 | 0.00 | 0.00 | 0.05 | 83 | 1021.0 |
| 20260906013029 | 12 | 45 | 1.6 | 3.2 | 0.00 | 0.00 | 0.05 | 83 | 1021.0 |
| 20260906013023 | 12 | 307 | 0.0 | 3.2 | 0.00 | 0.00 | 0.05 | 83 | 1021.0 |
| 20260906013008 | 12 | 5 | 1.6 | 3.2 | 0.00 | 0.00 | 0.05 | 83 | 1021.0 |
| 20260906012953 | 12 | 42 | 1.6 | 3.2 | 0.00 | 0.00 | 0.05 | 83 | 1021.0 |
| 20260906012925 | 12 | 357 | 1.6 | 3.2 | 0.00 | 0.00 | 0.05 | 83 | 1021.0 |
| 20260906012922 | 12 | 23 | 1.6 | 3.2 | 0.00 | 0.00 | 0.05 | 83 | 1021.0 |
| 20260906012856 | 12 | 26 | 1.6 | 3.2 | 0.00 | 0.00 | 0.05 | 83 | 1021.0 |
| 20260906012837 | 12 | 29 | 1.6 | 3.2 | 0.00 | 0.00 | 0.05 | 83 | 1021.0 |
| 20260906012813 | 12 | 38 | 1.6 | 3.2 | 0.00 | 0.00 | 0.05 | 83 | 1021.0 |
| 20260906012805 | 12 | 30 | 1.6 | 3.2 | 0.00 | 0.00 | 0.05 | 83 | 1021.0 |
| 20260906012757 | 12 | 30 | 1.6 | 3.2 | 0.00 | 0.00 | 0.05 | 83 | 1021.0 |
| 20260906012752 | 12 | 38 | 1.6 | 1.6 | 0.00 | 0.00 | 0.05 | 83 | 1021.0 |
| 20260906012728 | 12 | 16 | 0.0 | 1.6 | 0.00 | 0.00 | 0.05 | 83 | 1021.0 |
| 20260906012709 | 12 | 11 | 0.0 | 1.6 | 0.00 | 0.00 | 0.05 | 83 | 1021.0 |
| 20260906012705 | 12 | 0 | 0.0 | 1.6 | 0.00 | 0.00 | 0.05 | 83 | 1021.0 |
| 20260906012637 | 12 | 18 | 1.6 | 1.6 | 0.00 | 0.00 | 0.05 | 83 | 1021.0 |
| 20260906012632 | 12 | 20 | 1.6 | 1.6 | 0.00 | 0.00 | 0.05 | 83 | 1021.0 |
| 20260906012605 | 12 | 20 | 0.0 | 1.6 | 0.00 | 0.00 | 0.05 | 83 | 1021.0 |
| 20260906012549 | 12 | 31 | 0.0 | 0.0 | 0.00 | 0.00 | 0.05 | 83 | 1021.0 |
| 20260906012535 | 12 | 33 | 0.0 | 0.0 | 0.00 | 0.00 | 0.05 | 83 | 1021.0 |
| 20260906012517 | 12 | 25 | 0.0 | 0.0 | 0.00 | 0.00 | 0.05 | 83 | 1021.0 |
| 20260906012501 | 12 | 39 | 0.0 | 0.0 | 0.00 | 0.00 | 0.05 | 83 | 1021.0 |
| 20260906012445 | 12 | 20 | 0.0 | 0.0 | 0.00 | 0.00 | 0.05 | 83 | 1021.0 |
| 20260906012413 | 12 | 25 | 0.0 | 0.0 | 0.00 | 0.00 | 0.05 | 83 | 1021.0 |
| 20260906012405 | 12 | 20 | 0.0 | 0.0 | 0.00 | 0.00 | 0.05 | 83 | 1021.0 |
| 20260906012349 | 12 | 20 | 0.0 | 0.0 | 0.00 | 0.00 | 0.05 | 83 | 1021.0 |
| 20260906012333 | 12 | 7 | 0.0 | 0.0 | 0.00 | 0.00 | 0.05 | 83 | 1021.0 |
| 20260906012317 | 12 | 11 | 0.0 | 0.0 | 0.00 | 0.00 | 0.05 | 83 | 1021.0 |
| 20260906012301 | 12 | 40 | 0.0 | 0.0 | 0.00 | 0.00 | 0.05 | 83 | 1021.0 |
| 20260906012245 | 12 | 6 | 0.0 | 0.0 | 0.00 | 0.00 | 0.05 | 83 | 1021.0 |
| 20260906012228 | 12 | 0 | 0.0 | 0.0 | 0.00 | 0.00 | 0.05 | 83 | 1021.0 |
| 20260906012213 | 12 | 23 | 0.0 | 0.0 | 0.00 | 0.00 | 0.05 | 83 | 1021.0 |
| 20260906012205 | 12 | 8 | 0.0 | 0.0 | 0.00 | 0.00 | 0.05 | 83 | 1021.0 |
| 20260906012157 | 12 | 8 | 0.0 | 0.0 | 0.00 | 0.00 | 0.05 | 83 | 1021.0 |
| 20260906012140 | 12 | 18 | 0.0 | 0.0 | 0.00 | 0.00 | 0.05 | 83 | 1021.0 |
| 20260906012135 | 12 | 43 | 0.0 | 0.0 | 0.00 | 0.00 | 0.05 | 83 | 1021.0 |
| 20260906012108 | 12 | 15 | 0.0 | 0.0 | 0.00 | 0.00 | 0.05 | 83 | 1021.0 |
| 20260906012103 | 12 | 15 | 0.0 | 1.6 | 0.00 | 0.00 | 0.05 | 83 | 1021.0 |
| 20260906012037 | 12 | 23 | 0.0 | 1.6 | 0.00 | 0.00 | 0.05 | 83 | 1021.0 |
| 20260906012024 | 12 | 352 | 0.0 | 1.6 | 0.00 | 0.00 | 0.05 | 83 | 1021.0 |
| 20260906012005 | 12 | 351 | 0.0 | 1.6 | 0.00 | 0.00 | 0.05 | 83 | 1021.0 |
| 20260906011949 | 12 | 330 | 0.0 | 1.6 | 0.00 | 0.00 | 0.05 | 83 | 1021.0 |
| 20260906011925 | 12 | 323 | 0.0 | 1.6 | 0.00 | 0.00 | 0.05 | 83 | 1021.0 |
| 20260906011909 | 12 | 344 | 1.6 | 1.6 | 0.00 | 0.00 | 0.05 | 83 | 1021.0 |
| 20260906011903 | 12 | 347 | 0.0 | 1.6 | 0.00 | 0.00 | 0.05 | 83 | 1021.0 |
| 20260906011840 | 12 | 336 | 0.0 | 1.6 | 0.00 | 0.00 | 0.05 | 83 | 1021.0 |
| 20260906011821 | 12 | 343 | 0.0 | 0.0 | 0.00 | 0.00 | 0.05 | 83 | 1021.0 |
| 20260906011805 | 12 | 357 | 0.0 | 0.0 | 0.00 | 0.00 | 0.05 | 83 | 1021.0 |
| 20260906011749 | 12 | 353 | 0.0 | 0.0 | 0.00 | 0.00 | 0.05 | 83 | 1021.0 |
| 20260906011741 | 12 | 1 | 0.0 | 0.0 | 0.00 | 0.00 | 0.05 | 83 | 1021.0 |
| 20260906011733 | 12 | 1 | 0.0 | 1.6 | 0.00 | 0.00 | 0.05 | 83 | 1021.0 |
| 20260906011717 | 12 | 26 | 0.0 | 1.6 | 0.00 | 0.00 | 0.05 | 83 | 1021.0 |
| 20260906011701 | 12 | 24 | 0.0 | 1.6 | 0.00 | 0.00 | 0.05 | 83 | 1021.0 |
| 20260906011655 | 12 | 22 | 0.0 | 1.6 | 0.00 | 0.00 | 0.05 | 83 | 1021.0 |
| 20260906011637 | 12 | 20 | 0.0 | 1.6 | 0.00 | 0.00 | 0.05 | 83 | 1021.0 |
| 20260906011629 | 12 | 20 | 0.0 | 3.2 | 0.00 | 0.00 | 0.05 | 83 | 1021.0 |
| 20260906011613 | 12 | 16 | 0.0 | 3.2 | 0.00 | 0.00 | 0.05 | 83 | 1021.0 |
| 20260906011605 | 12 | 8 | 1.6 | 3.2 | 0.00 | 0.00 | 0.05 | 83 | 1022.0 |
| 20260906011557 | 12 | 8 | 1.6 | 3.2 | 0.00 | 0.00 | 0.05 | 83 | 1022.0 |
| 20260906011541 | 12 | 316 | 0.0 | 3.2 | 0.00 | 0.00 | 0.05 | 83 | 1022.0 |
| 20260906011525 | 12 | 352 | 0.0 | 3.2 | 0.00 | 0.00 | 0.05 | 83 | 1022.0 |
| 20260906011512 | 12 | 2 | 1.6 | 3.2 | 0.00 | 0.00 | 0.05 | 83 | 1022.0 |
| 20260906011444 | 12 | 36 | 1.6 | 3.2 | 0.00 | 0.00 | 0.05 | 83 | 1021.0 |
| 20260906011429 | 12 | 11 | 1.6 | 3.2 | 0.00 | 0.00 | 0.05 | 83 | 1021.0 |
| 20260906011416 | 12 | 0 | 1.6 | 3.2 | 0.00 | 0.00 | 0.05 | 83 | 1021.0 |
| 20260906011358 | 12 | 22 | 0.0 | 3.2 | 0.00 | 0.00 | 0.05 | 83 | 1021.0 |
| 20260906011351 | 12 | 24 | 0.0 | 3.2 | 0.00 | 0.00 | 0.05 | 83 | 1021.0 |
| 20260906011325 | 12 | 23 | 0.0 | 3.2 | 0.00 | 0.00 | 0.05 | 83 | 1021.0 |
| 20260906011309 | 12 | 349 | 0.0 | 3.2 | 0.00 | 0.00 | 0.05 | 83 | 1021.0 |
| 20260906011301 | 12 | 325 | 1.6 | 4.8 | 0.00 | 0.00 | 0.05 | 83 | 1021.0 |
| 20260906011253 | 12 | 325 | 1.6 | 4.8 | 0.00 | 0.00 | 0.05 | 83 | 1021.0 |
| 20260906011237 | 12 | 25 | 1.6 | 4.8 | 0.00 | 0.00 | 0.05 | 83 | 1021.0 |
| 20260906011221 | 12 | 317 | 1.6 | 4.8 | 0.00 | 0.00 | 0.05 | 83 | 1021.0 |
| 20260906011205 | 12 | 305 | 0.0 | 4.8 | 0.00 | 0.00 | 0.05 | 83 | 1021.0 |
| 20260906011149 | 12 | 314 | 0.0 | 4.8 | 0.00 | 0.00 | 0.05 | 83 | 1021.0 |
| 20260906011133 | 12 | 286 | 1.6 | 4.8 | 0.00 | 0.00 | 0.05 | 83 | 1021.0 |
| 20260906011117 | 12 | 0 | 3.2 | 4.8 | 0.00 | 0.00 | 0.05 | 83 | 1021.0 |
| 20260906011107 | 12 | 322 | 3.2 | 3.2 | 0.00 | 0.00 | 0.05 | 83 | 1021.0 |
| 20260906011037 | 12 | 354 | 3.2 | 3.2 | 0.00 | 0.00 | 0.05 | 83 | 1021.0 |
| 20260906011024 | 12 | 317 | 1.6 | 3.2 | 0.00 | 0.00 | 0.05 | 83 | 1021.0 |
| 20260906011005 | 12 | 328 | 1.6 | 3.2 | 0.00 | 0.00 | 0.05 | 83 | 1021.0 |
| 20260906010950 | 12 | 328 | 3.2 | 3.2 | 0.00 | 0.00 | 0.05 | 83 | 1021.0 |
| 20260906010934 | 12 | 306 | 3.2 | 3.2 | 0.00 | 0.00 | 0.05 | 83 | 1021.0 |
| 20260906010918 | 12 | 288 | 1.6 | 3.2 | 0.00 | 0.00 | 0.05 | 83 | 1021.0 |
| 20260906010902 | 12 | 291 | 3.2 | 3.2 | 0.00 | 0.00 | 0.05 | 83 | 1021.0 |
| 20260906010846 | 12 | 326 | 1.6 | 3.2 | 0.00 | 0.00 | 0.05 | 83 | 1021.0 |
| 20260906010829 | 12 | 349 | 1.6 | 3.2 | 0.00 | 0.00 | 0.05 | 83 | 1021.0 |
| 20260906010813 | 12 | 345 | 1.6 | 3.2 | 0.00 | 0.00 | 0.05 | 83 | 1021.0 |
| 20260906010805 | 12 | 343 | 1.6 | 3.2 | 0.00 | 0.00 | 0.05 | 83 | 1021.0 |
| 20260906010758 | 12 | 343 | 1.6 | 3.2 | 0.00 | 0.00 | 0.05 | 83 | 1021.0 |
| 20260906010742 | 12 | 345 | 1.6 | 3.2 | 0.00 | 0.00 | 0.05 | 83 | 1021.0 |
| 20260906010726 | 12 | 335 | 1.6 | 3.2 | 0.00 | 0.00 | 0.05 | 83 | 1021.0 |
| 20260906010709 | 12 | 2 | 1.6 | 3.2 | 0.00 | 0.00 | 0.05 | 83 | 1021.0 |
| 20260906010701 | 12 | 20 | 1.6 | 3.2 | 0.00 | 0.00 | 0.05 | 83 | 1021.0 |
| 20260906010653 | 12 | 20 | 1.6 | 3.2 | 0.00 | 0.00 | 0.05 | 83 | 1021.0 |
| 20260906010648 | 12 | 327 | 0.0 | 3.2 | 0.00 | 0.00 | 0.05 | 83 | 1021.0 |
| 20260906010613 | 12 | 315 | 0.0 | 3.2 | 0.00 | 0.00 | 0.05 | 83 | 1021.0 |
| 20260906010605 | 12 | 340 | 1.6 | 3.2 | 0.00 | 0.00 | 0.05 | 83 | 1021.0 |
| 20260906010557 | 12 | 340 | 1.6 | 3.2 | 0.00 | 0.00 | 0.05 | 83 | 1021.0 |
| 20260906010555 | 12 | 307 | 3.2 | 3.2 | 0.00 | 0.00 | 0.05 | 83 | 1021.0 |
| 20260906010525 | 12 | 316 | 1.6 | 3.2 | 0.00 | 0.00 | 0.05 | 83 | 1021.0 |
| 20260906010509 | 12 | 319 | 3.2 | 3.2 | 0.00 | 0.00 | 0.05 | 83 | 1021.0 |
| 20260906010503 | 12 | 304 | 1.6 | 4.8 | 0.00 | 0.00 | 0.05 | 83 | 1021.0 |
| 20260906010442 | 12 | 324 | 0.0 | 4.8 | 0.00 | 0.00 | 0.05 | 83 | 1021.0 |
| 20260906010405 | 12 | 46 | 0.0 | 4.8 | 0.00 | 0.00 | 0.05 | 83 | 1021.0 |
| 20260906010352 | 12 | 350 | 1.6 | 4.8 | 0.00 | 0.00 | 0.05 | 83 | 1021.0 |
| 20260906010334 | 12 | 0 | 3.2 | 4.8 | 0.00 | 0.00 | 0.05 | 83 | 1021.0 |
| 20260906010317 | 12 | 338 | 3.2 | 4.8 | 0.00 | 0.00 | 0.05 | 83 | 1021.0 |
| 20260906010301 | 12 | 322 | 1.6 | 4.8 | 0.00 | 0.00 | 0.05 | 83 | 1021.0 |
| 20260906010256 | 12 | 357 | 3.2 | 4.8 | 0.00 | 0.00 | 0.05 | 83 | 1021.0 |
| 20260906010240 | 12 | 348 | 3.2 | 3.2 | 0.00 | 0.00 | 0.05 | 83 | 1021.0 |
| 20260906010213 | 12 | 343 | 3.2 | 3.2 | 0.00 | 0.00 | 0.05 | 83 | 1021.0 |
| 20260906010205 | 12 | 318 | 3.2 | 3.2 | 0.00 | 0.00 | 0.05 | 83 | 1021.0 |
| 20260906010149 | 12 | 318 | 3.2 | 3.2 | 0.00 | 0.00 | 0.05 | 82 | 1021.0 |
| 20260906010141 | 12 | 284 | 3.2 | 3.2 | 0.00 | 0.00 | 0.05 | 82 | 1021.0 |
| 20260906010133 | 12 | 284 | 3.2 | 4.8 | 0.00 | 0.00 | 0.05 | 82 | 1021.0 |
| 20260906010117 | 12 | 319 | 1.6 | 4.8 | 0.00 | 0.00 | 0.05 | 82 | 1021.0 |
| 20260906010046 | 12 | 317 | 3.2 | 4.8 | 0.00 | 0.00 | 0.05 | 83 | 1021.0 |
| 20260906010032 | 12 | 296 | 3.2 | 4.8 | 0.00 | 0.00 | 0.05 | 83 | 1021.0 |
| 20260906010013 | 12 | 289 | 1.6 | 4.8 | 0.00 | 0.00 | 0.05 | 83 | 1021.0 |
| 20260906010005 | 12 | 329 | 3.2 | 4.8 | 0.00 | 0.00 | 0.05 | 83 | 1021.0 |
| 20260906005957 | 12 | 329 | 3.2 | 4.8 | 0.00 | 0.00 | 0.05 | 83 | 1021.0 |
| 20260906005941 | 13 | 300 | 3.2 | 3.2 | 0.00 | 0.00 | 0.05 | 83 | 1021.0 |
| 20260906005926 | 13 | 338 | 1.6 | 3.2 | 0.00 | 0.00 | 0.05 | 83 | 1021.0 |
| 20260906005909 | 13 | 351 | 1.6 | 3.2 | 0.00 | 0.00 | 0.05 | 83 | 1021.0 |
| 20260906005901 | 13 | 312 | 1.6 | 1.6 | 0.00 | 0.00 | 0.05 | 83 | 1021.0 |
| 20260906005853 | 13 | 312 | 1.6 | 1.6 | 0.00 | 0.00 | 0.05 | 83 | 1021.0 |
| 20260906005837 | 13 | 325 | 1.6 | 1.6 | 0.00 | 0.00 | 0.05 | 83 | 1021.0 |
| 20260906005832 | 13 | 328 | 1.6 | 1.6 | 0.00 | 0.00 | 0.05 | 83 | 1021.0 |
| 20260906005813 | 13 | 334 | 1.6 | 1.6 | 0.00 | 0.00 | 0.05 | 83 | 1021.0 |
| 20260906005805 | 13 | 334 | 1.6 | 4.8 | 0.00 | 0.00 | 0.05 | 83 | 1021.0 |
| 20260906005759 | 13 | 333 | 1.6 | 4.8 | 0.00 | 0.00 | 0.05 | 83 | 1021.0 |
| 20260906005725 | 13 | 338 | 0.0 | 4.8 | 0.00 | 0.00 | 0.05 | 83 | 1021.0 |
| 20260906005709 | 13 | 239 | 0.0 | 4.8 | 0.00 | 0.00 | 0.05 | 83 | 1021.0 |
| 20260906005701 | 13 | 332 | 0.0 | 6.4 | 0.00 | 0.00 | 0.05 | 83 | 1021.0 |
| 20260906005652 | 13 | 332 | 0.0 | 6.4 | 0.00 | 0.00 | 0.05 | 83 | 1021.0 |
| 20260906005616 | 13 | 27 | 1.6 | 6.4 | 0.00 | 0.00 | 0.05 | 83 | 1021.0 |
| 20260906005541 | 13 | 41 | 4.8 | 6.4 | 0.00 | 0.00 | 0.05 | 83 | 1021.0 |
| 20260906005533 | 13 | 41 | 4.8 | 6.4 | 0.00 | 0.00 | 0.05 | 82 | 1021.0 |
| 20260906005531 | 13 | 316 | 1.6 | 4.8 | 0.00 | 0.00 | 0.05 | 82 | 1021.0 |
| 20260906005501 | 13 | 334 | 1.6 | 4.8 | 0.00 | 0.00 | 0.05 | 82 | 1021.0 |
| 20260906005445 | 13 | 314 | 1.6 | 4.8 | 0.00 | 0.00 | 0.05 | 82 | 1021.0 |
| 20260906005405 | 13 | 325 | 1.6 | 3.2 | 0.00 | 0.00 | 0.05 | 83 | 1021.0 |
| 20260906005357 | 13 | 325 | 1.6 | 3.2 | 0.00 | 0.00 | 0.05 | 83 | 1021.0 |
| 20260906005341 | 13 | 346 | 1.6 | 3.2 | 0.00 | 0.00 | 0.05 | 83 | 1021.0 |
| 20260906005333 | 13 | 316 | 1.6 | 3.2 | 0.00 | 0.00 | 0.05 | 83 | 1021.0 |
| 20260906005325 | 13 | 316 | 1.6 | 3.2 | 0.00 | 0.00 | 0.05 | 82 | 1021.0 |
| 20260906005301 | 13 | 330 | 1.6 | 3.2 | 0.00 | 0.00 | 0.05 | 82 | 1021.0 |
| 20260906005245 | 13 | 318 | 1.6 | 3.2 | 0.00 | 0.00 | 0.05 | 82 | 1021.0 |
| 20260906005237 | 13 | 337 | 3.2 | 3.2 | 0.00 | 0.00 | 0.05 | 82 | 1021.0 |
| 20260906005229 | 13 | 337 | 3.2 | 4.8 | 0.00 | 0.00 | 0.05 | 82 | 1021.0 |
| 20260906005216 | 13 | 333 | 0.0 | 4.8 | 0.00 | 0.00 | 0.05 | 82 | 1021.0 |
| 20260906005157 | 13 | 8 | 1.6 | 4.8 | 0.00 | 0.00 | 0.05 | 82 | 1021.0 |
| 20260906005141 | 13 | 333 | 0.0 | 4.8 | 0.00 | 0.00 | 0.05 | 82 | 1021.0 |
| 20260906005135 | 13 | 340 | 0.0 | 4.8 | 0.00 | 0.00 | 0.05 | 82 | 1021.0 |
| 20260906005109 | 13 | 345 | 3.2 | 4.8 | 0.00 | 0.00 | 0.05 | 83 | 1021.0 |
| 20260906005102 | 13 | 333 | 3.2 | 4.8 | 0.00 | 0.00 | 0.05 | 83 | 1021.0 |
| 20260906005053 | 13 | 333 | 3.2 | 4.8 | 0.00 | 0.00 | 0.05 | 83 | 1021.0 |
| 20260906005037 | 13 | 316 | 3.2 | 4.8 | 0.00 | 0.00 | 0.05 | 83 | 1021.0 |
| 20260906005031 | 13 | 333 | 3.2 | 3.2 | 0.00 | 0.00 | 0.05 | 83 | 1021.0 |
| 20260906005005 | 13 | 346 | 1.6 | 3.2 | 0.00 | 0.00 | 0.05 | 82 | 1021.0 |
| 20260906005000 | 13 | 345 | 1.6 | 3.2 | 0.00 | 0.00 | 0.05 | 82 | 1021.0 |
| 20260906004941 | 13 | 352 | 1.6 | 3.2 | 0.00 | 0.00 | 0.05 | 82 | 1021.0 |
| 20260906004933 | 13 | 352 | 1.6 | 4.8 | 0.00 | 0.00 | 0.05 | 82 | 1021.0 |
| 20260906004919 | 13 | 358 | 3.2 | 4.8 | 0.00 | 0.00 | 0.05 | 82 | 1021.0 |
| 20260906004904 | 13 | 14 | 0.0 | 4.8 | 0.00 | 0.00 | 0.05 | 82 | 1021.0 |
| 20260906004837 | 13 | 340 | 0.0 | 4.8 | 0.00 | 0.00 | 0.05 | 82 | 1021.0 |
| 20260906004831 | 13 | 333 | 0.0 | 4.8 | 0.00 | 0.00 | 0.05 | 82 | 1021.0 |
| 20260906004815 | 13 | 357 | 1.6 | 4.8 | 0.00 | 0.00 | 0.05 | 82 | 1021.0 |
| 20260906004749 | 13 | 356 | 3.2 | 4.8 | 0.00 | 0.00 | 0.05 | 82 | 1021.0 |
| 20260906004733 | 13 | 346 | 0.0 | 1.6 | 0.00 | 0.00 | 0.05 | 82 | 1021.0 |
| 20260906004717 | 13 | 341 | 0.0 | 0.0 | 0.00 | 0.00 | 0.05 | 82 | 1021.0 |
| 20260906004709 | 13 | 295 | 0.0 | 0.0 | 0.00 | 0.00 | 0.05 | 82 | 1021.0 |
| 20260906004701 | 13 | 295 | 0.0 | 4.8 | 0.00 | 0.00 | 0.05 | 82 | 1021.0 |
| 20260906004645 | 13 | 300 | 0.0 | 4.8 | 0.00 | 0.00 | 0.05 | 82 | 1021.0 |
| 20260906004629 | 13 | 315 | 0.0 | 4.8 | 0.00 | 0.00 | 0.05 | 82 | 1021.0 |
| 20260906004618 | 13 | 299 | 0.0 | 4.8 | 0.00 | 0.00 | 0.05 | 82 | 1021.0 |
| 20260906004541 | 13 | 342 | 0.0 | 4.8 | 0.00 | 0.00 | 0.05 | 82 | 1021.0 |
| 20260906004525 | 13 | 338 | 3.2 | 4.8 | 0.00 | 0.00 | 0.05 | 82 | 1021.0 |
| 20260906004509 | 13 | 286 | 1.6 | 4.8 | 0.00 | 0.00 | 0.05 | 82 | 1021.0 |
| 20260906004503 | 13 | 6 | 3.2 | 4.8 | 0.00 | 0.00 | 0.05 | 82 | 1021.0 |
| 20260906004437 | 13 | 17 | 3.2 | 4.8 | 0.00 | 0.00 | 0.05 | 82 | 1021.0 |
| 20260906004413 | 13 | 327 | 3.2 | 4.8 | 0.00 | 0.00 | 0.05 | 82 | 1021.0 |
| 20260906004405 | 13 | 333 | 1.6 | 3.2 | 0.00 | 0.00 | 0.05 | 82 | 1021.0 |
| 20260906004400 | 13 | 333 | 1.6 | 3.2 | 0.00 | 0.00 | 0.05 | 82 | 1021.0 |
| 20260906004342 | 13 | 307 | 0.0 | 3.2 | 0.00 | 0.00 | 0.05 | 82 | 1021.0 |
| 20260906004325 | 13 | 271 | 1.6 | 3.2 | 0.00 | 0.00 | 0.05 | 82 | 1021.0 |
| 20260906004319 | 13 | 294 | 1.6 | 3.2 | 0.00 | 0.00 | 0.05 | 82 | 1021.0 |
| 20260906004301 | 13 | 338 | 1.6 | 3.2 | 0.00 | 0.00 | 0.05 | 82 | 1021.0 |
| 20260906004258 | 13 | 338 | 1.6 | 3.2 | 0.00 | 0.00 | 0.05 | 82 | 1021.0 |
| 20260906004231 | 13 | 324 | 0.0 | 1.6 | 0.00 | 0.00 | 0.05 | 81 | 1021.0 |
| 20260906004207 | 13 | 356 | 0.0 | 1.6 | 0.00 | 0.00 | 0.05 | 81 | 1021.0 |
| 20260906004149 | 13 | 352 | 0.0 | 1.6 | 0.00 | 0.00 | 0.05 | 81 | 1021.0 |
| 20260906004133 | 13 | 337 | 0.0 | 1.6 | 0.00 | 0.00 | 0.05 | 82 | 1021.0 |
| 20260906004117 | 13 | 323 | 0.0 | 1.6 | 0.00 | 0.00 | 0.05 | 82 | 1021.0 |
| 20260906004101 | 13 | 343 | 0.0 | 1.6 | 0.00 | 0.00 | 0.05 | 82 | 1021.0 |
| 20260906004056 | 13 | 311 | 0.0 | 1.6 | 0.00 | 0.00 | 0.05 | 82 | 1021.0 |
| 20260906004032 | 13 | 330 | 1.6 | 1.6 | 0.00 | 0.00 | 0.05 | 81 | 1021.0 |
| 20260906004013 | 13 | 1 | 1.6 | 1.6 | 0.00 | 0.00 | 0.05 | 81 | 1021.0 |
| 20260906004005 | 13 | 350 | 1.6 | 1.6 | 0.00 | 0.00 | 0.05 | 81 | 1021.0 |
| 20260906003949 | 13 | 350 | 1.6 | 1.6 | 0.00 | 0.00 | 0.05 | 81 | 1021.0 |
| 20260906003941 | 13 | 334 | 0.0 | 1.6 | 0.00 | 0.00 | 0.05 | 81 | 1021.0 |
| 20260906003934 | 13 | 334 | 0.0 | 1.6 | 0.00 | 0.00 | 0.05 | 82 | 1021.0 |
| 20260906003919 | 13 | 329 | 0.0 | 1.6 | 0.00 | 0.00 | 0.05 | 82 | 1021.0 |
| 20260906003901 | 13 | 333 | 0.0 | 3.2 | 0.00 | 0.00 | 0.05 | 82 | 1021.0 |
| 20260906003845 | 13 | 342 | 0.0 | 3.2 | 0.00 | 0.00 | 0.05 | 82 | 1021.0 |
| 20260906003837 | 13 | 349 | 0.0 | 3.2 | 0.00 | 0.00 | 0.05 | 82 | 1021.0 |
| 20260906003829 | 13 | 349 | 0.0 | 3.2 | 0.00 | 0.00 | 0.05 | 81 | 1021.0 |
| 20260906003815 | 13 | 352 | 0.0 | 3.2 | 0.00 | 0.00 | 0.05 | 81 | 1021.0 |
| 20260906003757 | 13 | 352 | 0.0 | 3.2 | 0.00 | 0.00 | 0.05 | 81 | 1021.0 |
| 20260906003741 | 13 | 311 | 0.0 | 3.2 | 0.00 | 0.00 | 0.05 | 81 | 1021.0 |
| 20260906003734 | 13 | 310 | 1.6 | 3.2 | 0.00 | 0.00 | 0.05 | 81 | 1021.0 |
| 20260906003725 | 13 | 310 | 1.6 | 3.2 | 0.00 | 0.00 | 0.05 | 82 | 1021.0 |
| 20260906003709 | 13 | 337 | 1.6 | 3.2 | 0.00 | 0.00 | 0.05 | 82 | 1021.0 |
| 20260906003701 | 13 | 317 | 1.6 | 3.2 | 0.00 | 0.00 | 0.05 | 82 | 1021.0 |
| 20260906003653 | 13 | 317 | 1.6 | 3.2 | 0.00 | 0.00 | 0.05 | 82 | 1021.0 |
| 20260906003639 | 13 | 356 | 0.0 | 0.0 | 0.00 | 0.00 | 0.05 | 82 | 1021.0 |
| 20260906003621 | 13 | 322 | 0.0 | 0.0 | 0.00 | 0.00 | 0.05 | 82 | 1021.0 |
| 20260906003605 | 13 | 324 | 0.0 | 0.0 | 0.00 | 0.00 | 0.05 | 82 | 1021.0 |
| 20260906003549 | 13 | 348 | 0.0 | 0.0 | 0.00 | 0.00 | 0.05 | 82 | 1021.0 |
| 20260906003525 | 13 | 336 | 0.0 | 0.0 | 0.00 | 0.00 | 0.05 | 82 | 1021.0 |
| 20260906003509 | 13 | 42 | 0.0 | 0.0 | 0.00 | 0.00 | 0.05 | 82 | 1021.0 |
| 20260906003501 | 13 | 339 | 0.0 | 0.0 | 0.00 | 0.00 | 0.05 | 82 | 1021.0 |
| 20260906003453 | 13 | 339 | 0.0 | 0.0 | 0.00 | 0.00 | 0.05 | 82 | 1021.0 |
| 20260906003437 | 13 | 20 | 0.0 | 0.0 | 0.00 | 0.00 | 0.05 | 82 | 1021.0 |
| 20260906003405 | 13 | 18 | 0.0 | 0.0 | 0.00 | 0.00 | 0.05 | 82 | 1021.0 |
| 20260906003349 | 13 | 328 | 0.0 | 0.0 | 0.00 | 0.00 | 0.05 | 82 | 1021.0 |
| 20260906003333 | 13 | 1 | 0.0 | 0.0 | 0.00 | 0.00 | 0.05 | 82 | 1021.0 |
| 20260906003320 | 13 | 346 | 0.0 | 0.0 | 0.00 | 0.00 | 0.05 | 82 | 1021.0 |
| 20260906003301 | 13 | 322 | 0.0 | 0.0 | 0.00 | 0.00 | 0.05 | 82 | 1021.0 |
| 20260906003255 | 13 | 324 | 0.0 | 0.0 | 0.00 | 0.00 | 0.05 | 82 | 1021.0 |
| 20260906003241 | 13 | 345 | 0.0 | 0.0 | 0.00 | 0.00 | 0.05 | 82 | 1021.0 |
| 20260906003214 | 13 | 355 | 0.0 | 0.0 | 0.00 | 0.00 | 0.05 | 82 | 1021.0 |
| 20260906003205 | 13 | 328 | 0.0 | 0.0 | 0.00 | 0.00 | 0.05 | 81 | 1021.0 |
| 20260906003157 | 13 | 328 | 0.0 | 0.0 | 0.00 | 0.00 | 0.05 | 81 | 1021.0 |
| 20260906003141 | 13 | 322 | 0.0 | 0.0 | 0.00 | 0.00 | 0.05 | 81 | 1021.0 |
| 20260906003125 | 13 | 325 | 0.0 | 0.0 | 0.00 | 0.00 | 0.05 | 81 | 1021.0 |
| 20260906003101 | 13 | 327 | 0.0 | 0.0 | 0.00 | 0.00 | 0.05 | 81 | 1021.0 |
| 20260906003045 | 13 | 327 | 0.0 | 0.0 | 0.00 | 0.00 | 0.05 | 81 | 1021.0 |
| 20260906003031 | 13 | 304 | 0.0 | 0.0 | 0.00 | 0.00 | 0.05 | 81 | 1021.0 |
| 20260906003013 | 13 | 318 | 0.0 | 0.0 | 0.00 | 0.00 | 0.05 | 81 | 1021.0 |
| 20260906003007 | 13 | 307 | 0.0 | 0.0 | 0.00 | 0.00 | 0.05 | 81 | 1021.0 |
| 20260906002951 | 13 | 317 | 0.0 | 0.0 | 0.00 | 0.00 | 0.05 | 81 | 1021.0 |
| 20260906002911 | 13 | 297 | 0.0 | 0.0 | 0.00 | 0.00 | 0.05 | 81 | 1021.0 |
| 20260906002853 | 13 | 284 | 0.0 | 0.0 | 0.00 | 0.00 | 0.05 | 81 | 1021.0 |
| 20260906002837 | 13 | 302 | 0.0 | 0.0 | 0.00 | 0.00 | 0.05 | 81 | 1021.0 |
| 20260906002821 | 13 | 311 | 0.0 | 0.0 | 0.00 | 0.00 | 0.05 | 81 | 1021.0 |
| 20260906002805 | 13 | 16 | 0.0 | 0.0 | 0.00 | 0.00 | 0.05 | 81 | 1021.0 |
| 20260906002749 | 13 | 2 | 0.0 | 0.0 | 0.00 | 0.00 | 0.05 | 81 | 1021.0 |
| 20260906002717 | 13 | 22 | 0.0 | 0.0 | 0.00 | 0.00 | 0.05 | 81 | 1021.0 |
| 20260906002706 | 13 | 3 | 0.0 | 0.0 | 0.00 | 0.00 | 0.05 | 81 | 1021.0 |
| 20260906002637 | 13 | 328 | 0.0 | 0.0 | 0.00 | 0.00 | 0.05 | 82 | 1021.0 |
| 20260906002621 | 13 | 325 | 0.0 | 0.0 | 0.00 | 0.00 | 0.05 | 82 | 1021.0 |
| 20260906002615 | 13 | 36 | 0.0 | 0.0 | 0.00 | 0.00 | 0.05 | 82 | 1021.0 |
| 20260906002605 | 13 | 36 | 0.0 | 1.6 | 0.00 | 0.00 | 0.05 | 82 | 1021.0 |
| 20260906002549 | 13 | 25 | 0.0 | 1.6 | 0.00 | 0.00 | 0.05 | 82 | 1021.0 |
| 20260906002533 | 13 | 7 | 0.0 | 1.6 | 0.00 | 0.00 | 0.05 | 82 | 1021.0 |
| 20260906002517 | 13 | 21 | 0.0 | 1.6 | 0.00 | 0.00 | 0.05 | 82 | 1021.0 |
| 20260906002504 | 13 | 16 | 0.0 | 1.6 | 0.00 | 0.00 | 0.05 | 82 | 1021.0 |
| 20260906002445 | 13 | 350 | 0.0 | 1.6 | 0.00 | 0.00 | 0.05 | 82 | 1021.0 |
| 20260906002439 | 13 | 325 | 0.0 | 1.6 | 0.00 | 0.00 | 0.05 | 81 | 1021.0 |
| 20260906002413 | 13 | 12 | 1.6 | 3.2 | 0.00 | 0.00 | 0.05 | 81 | 1021.0 |
| 20260906002405 | 13 | 346 | 0.0 | 3.2 | 0.00 | 0.00 | 0.05 | 81 | 1021.0 |
| 20260906002357 | 13 | 346 | 0.0 | 3.2 | 0.00 | 0.00 | 0.05 | 81 | 1021.0 |
| 20260906002344 | 13 | 339 | 0.0 | 3.2 | 0.00 | 0.00 | 0.05 | 81 | 1021.0 |
| 20260906002326 | 13 | 258 | 0.0 | 3.2 | 0.00 | 0.00 | 0.05 | 81 | 1021.0 |
| 20260906002320 | 13 | 24 | 1.6 | 3.2 | 0.00 | 0.00 | 0.05 | 81 | 1021.0 |
| 20260906002301 | 13 | 35 | 3.2 | 3.2 | 0.00 | 0.00 | 0.05 | 81 | 1021.0 |
| 20260906002253 | 13 | 35 | 3.2 | 3.2 | 0.00 | 0.00 | 0.05 | 81 | 1021.0 |
| 20260906002237 | 13 | 292 | 0.0 | 3.2 | 0.00 | 0.00 | 0.05 | 81 | 1021.0 |
| 20260906002213 | 13 | 335 | 1.6 | 3.2 | 0.00 | 0.00 | 0.05 | 82 | 1021.0 |
| 20260906002205 | 13 | 303 | 1.6 | 4.8 | 0.00 | 0.00 | 0.05 | 82 | 1022.0 |
| 20260906002157 | 13 | 303 | 1.6 | 4.8 | 0.00 | 0.00 | 0.05 | 82 | 1022.0 |
| 20260906002141 | 13 | 312 | 3.2 | 4.8 | 0.00 | 0.00 | 0.05 | 82 | 1022.0 |
| 20260906002125 | 13 | 297 | 1.6 | 4.8 | 0.00 | 0.00 | 0.05 | 82 | 1022.0 |
| 20260906002108 | 13 | 338 | 1.6 | 4.8 | 0.00 | 0.00 | 0.05 | 82 | 1022.0 |
| 20260906002101 | 13 | 319 | 1.6 | 4.8 | 0.00 | 0.00 | 0.05 | 82 | 1021.0 |
| 20260906002052 | 13 | 319 | 1.6 | 4.8 | 0.00 | 0.00 | 0.05 | 82 | 1021.0 |
| 20260906002037 | 13 | 329 | 3.2 | 4.8 | 0.00 | 0.00 | 0.05 | 82 | 1021.0 |
| 20260906002031 | 13 | 339 | 1.6 | 3.2 | 0.00 | 0.00 | 0.05 | 82 | 1021.0 |
| 20260906002005 | 13 | 309 | 0.0 | 0.0 | 0.00 | 0.00 | 0.05 | 82 | 1021.0 |
| 20260906001949 | 13 | 12 | 0.0 | 0.0 | 0.00 | 0.00 | 0.05 | 82 | 1021.0 |
| 20260906001935 | 13 | 10 | 0.0 | 0.0 | 0.00 | 0.00 | 0.05 | 82 | 1021.0 |
| 20260906001917 | 13 | 9 | 0.0 | 0.0 | 0.00 | 0.00 | 0.05 | 82 | 1021.0 |
| 20260906001900 | 13 | 20 | 0.0 | 0.0 | 0.00 | 0.00 | 0.05 | 82 | 1021.0 |
| 20260906001855 | 13 | 29 | 0.0 | 0.0 | 0.00 | 0.00 | 0.05 | 82 | 1021.0 |
| 20260906001828 | 13 | 70 | 0.0 | 0.0 | 0.00 | 0.00 | 0.05 | 82 | 1021.0 |
| 20260906001812 | 13 | 10 | 0.0 | 0.0 | 0.00 | 0.00 | 0.05 | 82 | 1021.0 |
| 20260906001805 | 13 | 34 | 0.0 | 0.0 | 0.00 | 0.00 | 0.05 | 82 | 1021.0 |
| 20260906001749 | 13 | 34 | 0.0 | 0.0 | 0.00 | 0.00 | 0.05 | 82 | 1021.0 |
| 20260906001744 | 13 | 5 | 0.0 | 0.0 | 0.00 | 0.00 | 0.05 | 82 | 1021.0 |
| 20260906001722 | 13 | 1 | 0.0 | 0.0 | 0.00 | 0.00 | 0.05 | 82 | 1021.0 |
| 20260906001647 | 13 | 359 | 0.0 | 0.0 | 0.00 | 0.00 | 0.05 | 82 | 1021.0 |
| 20260906001630 | 13 | 328 | 0.0 | 0.0 | 0.00 | 0.00 | 0.05 | 82 | 1021.0 |
| 20260906001613 | 13 | 342 | 0.0 | 0.0 | 0.00 | 0.00 | 0.05 | 82 | 1021.0 |
| 20260906001607 | 13 | 319 | 0.0 | 0.0 | 0.00 | 0.00 | 0.05 | 82 | 1021.0 |
| 20260906001541 | 13 | 301 | 0.0 | 0.0 | 0.00 | 0.00 | 0.05 | 82 | 1021.0 |
| 20260906001526 | 13 | 340 | 0.0 | 0.0 | 0.00 | 0.00 | 0.05 | 82 | 1021.0 |
| 20260906001509 | 13 | 337 | 0.0 | 0.0 | 0.00 | 0.00 | 0.05 | 82 | 1021.0 |
| 20260906001501 | 13 | 317 | 0.0 | 0.0 | 0.00 | 0.00 | 0.05 | 82 | 1021.0 |
| 20260906001453 | 13 | 317 | 0.0 | 0.0 | 0.00 | 0.00 | 0.05 | 82 | 1021.0 |
| 20260906001437 | 13 | 354 | 0.0 | 0.0 | 0.00 | 0.00 | 0.05 | 82 | 1021.0 |
| 20260906001421 | 13 | 354 | 0.0 | 1.6 | 0.00 | 0.00 | 0.05 | 82 | 1021.0 |
| 20260906001412 | 13 | 350 | 0.0 | 1.6 | 0.00 | 0.00 | 0.05 | 82 | 1021.0 |
| 20260906001405 | 13 | 350 | 0.0 | 3.2 | 0.00 | 0.00 | 0.05 | 82 | 1021.0 |
| 20260906001349 | 13 | 344 | 0.0 | 3.2 | 0.00 | 0.00 | 0.05 | 81 | 1021.0 |
| 20260906001333 | 13 | 311 | 0.0 | 3.2 | 0.00 | 0.00 | 0.05 | 81 | 1021.0 |
| 20260906001308 | 13 | 319 | 0.0 | 3.2 | 0.00 | 0.00 | 0.05 | 81 | 1021.0 |
| 20260906001301 | 13 | 4 | 0.0 | 3.2 | 0.00 | 0.00 | 0.05 | 81 | 1022.0 |
| 20260906001252 | 13 | 4 | 0.0 | 3.2 | 0.00 | 0.00 | 0.05 | 81 | 1022.0 |
| 20260906001236 | 13 | 319 | 0.0 | 3.2 | 0.00 | 0.00 | 0.05 | 81 | 1022.0 |
| 20260906001221 | 13 | 327 | 1.6 | 4.8 | 0.00 | 0.00 | 0.05 | 81 | 1022.0 |
| 20260906001213 | 13 | 304 | 1.6 | 4.8 | 0.00 | 0.00 | 0.05 | 81 | 1022.0 |
| 20260906001204 | 13 | 304 | 1.6 | 4.8 | 0.00 | 0.00 | 0.05 | 81 | 1021.0 |
| 20260906001159 | 13 | 310 | 0.0 | 4.8 | 0.00 | 0.00 | 0.05 | 81 | 1021.0 |
| 20260906001132 | 13 | 342 | 0.0 | 4.8 | 0.00 | 0.00 | 0.05 | 82 | 1021.0 |
| 20260906001116 | 13 | 280 | 1.6 | 4.8 | 0.00 | 0.00 | 0.05 | 82 | 1021.0 |
| 20260906001109 | 13 | 293 | 1.6 | 4.8 | 0.00 | 0.00 | 0.05 | 82 | 1021.0 |
| 20260906001100 | 13 | 293 | 1.6 | 6.4 | 0.00 | 0.00 | 0.05 | 82 | 1021.0 |
| 20260906001044 | 13 | 345 | 3.2 | 6.4 | 0.00 | 0.00 | 0.05 | 82 | 1021.0 |
| 20260906001030 | 13 | 324 | 3.2 | 6.4 | 0.00 | 0.00 | 0.05 | 82 | 1021.0 |
| 20260906001012 | 13 | 337 | 3.2 | 6.4 | 0.00 | 0.00 | 0.05 | 82 | 1021.0 |
| 20260906001005 | 13 | 331 | 3.2 | 6.4 | 0.00 | 0.00 | 0.05 | 82 | 1021.0 |
| 20260906000956 | 13 | 331 | 3.2 | 6.4 | 0.00 | 0.00 | 0.05 | 82 | 1021.0 |
| 20260906000951 | 13 | 4 | 3.2 | 6.4 | 0.00 | 0.00 | 0.05 | 82 | 1021.0 |
| 20260906000924 | 13 | 319 | 3.2 | 4.8 | 0.00 | 0.00 | 0.05 | 82 | 1021.0 |
| 20260906000901 | 13 | 316 | 3.2 | 4.8 | 0.00 | 0.00 | 0.05 | 82 | 1021.0 |
| 20260906000845 | 13 | 347 | 4.8 | 4.8 | 0.00 | 0.00 | 0.05 | 82 | 1021.0 |
| 20260906000831 | 13 | 332 | 3.2 | 4.8 | 0.00 | 0.00 | 0.05 | 82 | 1021.0 |
| 20260906000813 | 13 | 318 | 0.0 | 1.6 | 0.00 | 0.00 | 0.05 | 82 | 1021.0 |
| 20260906000804 | 13 | 8 | 1.6 | 4.8 | 0.00 | 0.00 | 0.05 | 82 | 1021.0 |
| 20260906000757 | 13 | 8 | 1.6 | 4.8 | 0.00 | 0.00 | 0.05 | 82 | 1021.0 |
| 20260906000740 | 13 | 352 | 1.6 | 4.8 | 0.00 | 0.00 | 0.05 | 82 | 1021.0 |
| 20260906000724 | 13 | 323 | 1.6 | 4.8 | 0.00 | 0.00 | 0.05 | 82 | 1021.0 |
| 20260906000709 | 13 | 278 | 1.6 | 4.8 | 0.00 | 0.00 | 0.05 | 82 | 1021.0 |
| 20260906000700 | 13 | 359 | 1.6 | 4.8 | 0.00 | 0.00 | 0.05 | 82 | 1021.0 |
| 20260906000653 | 13 | 359 | 1.6 | 4.8 | 0.00 | 0.00 | 0.05 | 82 | 1021.0 |
| 20260906000639 | 13 | 279 | 3.2 | 4.8 | 0.00 | 0.00 | 0.05 | 82 | 1021.0 |
| 20260906000621 | 13 | 279 | 3.2 | 4.8 | 0.00 | 0.00 | 0.05 | 81 | 1021.0 |
| 20260906000614 | 13 | 287 | 3.2 | 4.8 | 0.00 | 0.00 | 0.05 | 81 | 1021.0 |
| 20260906000549 | 13 | 305 | 1.6 | 4.8 | 0.00 | 0.00 | 0.05 | 81 | 1021.0 |
| 20260906000537 | 13 | 318 | 1.6 | 4.8 | 0.00 | 0.00 | 0.05 | 81 | 1021.0 |
| 20260906000500 | 13 | 341 | 3.2 | 4.8 | 0.00 | 0.00 | 0.05 | 81 | 1021.0 |
| 20260906000445 | 13 | 346 | 3.2 | 4.8 | 0.00 | 0.00 | 0.05 | 81 | 1021.0 |
| 20260906000428 | 13 | 316 | 3.2 | 4.8 | 0.00 | 0.00 | 0.05 | 81 | 1021.0 |
| 20260906000420 | 13 | 316 | 3.2 | 4.8 | 0.00 | 0.00 | 0.05 | 82 | 1021.0 |
| 20260906000404 | 13 | 325 | 3.2 | 4.8 | 0.00 | 0.00 | 0.05 | 82 | 1021.0 |
| 20260906000351 | 13 | 332 | 3.2 | 4.8 | 0.00 | 0.00 | 0.05 | 82 | 1021.0 |
| 20260906000333 | 13 | 313 | 3.2 | 4.8 | 0.00 | 0.00 | 0.05 | 82 | 1021.0 |
| 20260906000318 | 13 | 347 | 4.8 | 4.8 | 0.00 | 0.00 | 0.05 | 82 | 1021.0 |
| 20260906000300 | 13 | 313 | 3.2 | 3.2 | 0.00 | 0.00 | 0.05 | 82 | 1021.0 |
| 20260906000250 | 13 | 341 | 1.6 | 3.2 | 0.00 | 0.00 | 0.05 | 82 | 1021.0 |
| 20260906000212 | 13 | 327 | 1.6 | 3.2 | 0.00 | 0.00 | 0.05 | 82 | 1021.0 |
| 20260906000205 | 13 | 17 | 3.2 | 3.2 | 0.00 | 0.00 | 0.05 | 82 | 1021.0 |
| 20260906000159 | 13 | 17 | 3.2 | 3.2 | 0.00 | 0.00 | 0.05 | 82 | 1021.0 |
| 20260906000140 | 13 | 353 | 1.6 | 3.2 | 0.00 | 0.00 | 0.05 | 82 | 1021.0 |
| 20260906000127 | 13 | 12 | 0.0 | 3.2 | 0.00 | 0.00 | 0.05 | 82 | 1021.0 |
| 20260906000108 | 13 | 353 | 1.6 | 3.2 | 0.00 | 0.00 | 0.05 | 82 | 1021.0 |
| 20260906000100 | 13 | 5 | 1.6 | 3.2 | 0.00 | 0.00 | 0.05 | 82 | 1021.0 |
| 20260906000057 | 13 | 5 | 1.6 | 3.2 | 0.00 | 0.00 | 0.05 | 82 | 1021.0 |
| 20260906000023 | 13 | 282 | 3.2 | 3.2 | 0.00 | 0.00 | 0.05 | 82 | 1021.0 |
| 20260906000006 | 13 | 305 | 0.0 | 1.6 | 0.00 | 0.00 | 0.05 | 82 | 1021.0 |
| 20260905235943 | 13 | 16 | 0.0 | 0.0 | 0.00 | 0.00 | 0.05 | 82 | 1021.0 |
| 20260905235924 | 13 | 30 | 0.0 | 0.0 | 0.00 | 0.00 | 0.05 | 82 | 1021.0 |
| 20260905235908 | 13 | 14 | 0.0 | 0.0 | 0.00 | 0.00 | 0.05 | 82 | 1021.0 |
| 20260905235902 | 13 | 14 | 0.0 | 0.0 | 0.00 | 0.00 | 0.05 | 82 | 1021.0 |
| 20260905235844 | 13 | 27 | 0.0 | 0.0 | 0.00 | 0.00 | 0.05 | 82 | 1021.0 |
| 20260905235832 | 13 | 20 | 0.0 | 0.0 | 0.00 | 0.00 | 0.05 | 82 | 1021.0 |
| 20260905235814 | 13 | 337 | 0.0 | 0.0 | 0.00 | 0.00 | 0.05 | 82 | 1021.0 |
| 20260905235805 | 13 | 337 | 0.0 | 1.6 | 0.00 | 0.00 | 0.05 | 82 | 1021.0 |
| 20260905235748 | 13 | 335 | 0.0 | 1.6 | 0.00 | 0.00 | 0.05 | 82 | 1021.0 |
| 20260905235741 | 13 | 320 | 0.0 | 1.6 | 0.00 | 0.00 | 0.05 | 82 | 1021.0 |
| 20260905235717 | 13 | 342 | 0.0 | 1.6 | 0.00 | 0.00 | 0.05 | 82 | 1021.0 |
| 20260905235702 | 13 | 263 | 0.0 | 1.6 | 0.00 | 0.00 | 0.05 | 82 | 1021.0 |
| 20260905235655 | 13 | 263 | 0.0 | 1.6 | 0.00 | 0.00 | 0.05 | 82 | 1021.0 |
| 20260905235630 | 13 | 327 | 0.0 | 1.6 | 0.00 | 0.00 | 0.05 | 82 | 1021.0 |
| 20260905235614 | 13 | 316 | 1.6 | 1.6 | 0.00 | 0.00 | 0.05 | 82 | 1021.0 |
| 20260905235608 | 13 | 326 | 1.6 | 1.6 | 0.00 | 0.00 | 0.05 | 82 | 1021.0 |
| 20260905235549 | 13 | 326 | 1.6 | 1.6 | 0.00 | 0.00 | 0.05 | 82 | 1021.0 |
| 20260905235536 | 13 | 336 | 1.6 | 1.6 | 0.00 | 0.00 | 0.05 | 82 | 1021.0 |
| 20260905235516 | 13 | 296 | 1.6 | 1.6 | 0.00 | 0.00 | 0.05 | 82 | 1021.0 |
| 20260905235501 | 13 | 329 | 1.6 | 3.2 | 0.00 | 0.00 | 0.05 | 82 | 1021.0 |
| 20260905235455 | 13 | 320 | 1.6 | 3.2 | 0.00 | 0.00 | 0.05 | 82 | 1021.0 |
| 20260905235430 | 13 | 303 | 0.0 | 3.2 | 0.00 | 0.00 | 0.05 | 82 | 1021.0 |
| 20260905235412 | 13 | 333 | 0.0 | 3.2 | 0.00 | 0.00 | 0.05 | 82 | 1021.0 |
| 20260905235405 | 13 | 355 | 0.0 | 3.2 | 0.00 | 0.00 | 0.05 | 82 | 1021.0 |
| 20260905235356 | 13 | 355 | 0.0 | 3.2 | 0.00 | 0.00 | 0.05 | 82 | 1021.0 |
| 20260905235341 | 13 | 354 | 1.6 | 3.2 | 0.00 | 0.00 | 0.05 | 82 | 1021.0 |
| 20260905235332 | 13 | 357 | 1.6 | 3.2 | 0.00 | 0.00 | 0.05 | 82 | 1021.0 |
| 20260905235310 | 13 | 28 | 1.6 | 3.2 | 0.00 | 0.00 | 0.05 | 82 | 1021.0 |
| 20260905235301 | 13 | 359 | 3.2 | 3.2 | 0.00 | 0.00 | 0.05 | 82 | 1021.0 |
| 20260905235253 | 13 | 359 | 3.2 | 3.2 | 0.00 | 0.00 | 0.05 | 82 | 1021.0 |
| 20260905235237 | 13 | 353 | 0.0 | 3.2 | 0.00 | 0.00 | 0.05 | 82 | 1021.0 |
| 20260905235232 | 13 | 354 | 0.0 | 6.4 | 0.00 | 0.00 | 0.05 | 82 | 1021.0 |
| 20260905235205 | 13 | 334 | 1.6 | 6.4 | 0.00 | 0.00 | 0.05 | 82 | 1021.0 |
| 20260905235149 | 13 | 334 | 3.2 | 6.4 | 0.00 | 0.00 | 0.05 | 82 | 1021.0 |
| 20260905235124 | 13 | 332 | 1.6 | 6.4 | 0.00 | 0.00 | 0.05 | 82 | 1021.0 |
| 20260905235110 | 13 | 296 | 1.6 | 6.4 | 0.00 | 0.00 | 0.05 | 82 | 1021.0 |
| 20260905235101 | 13 | 322 | 4.8 | 6.4 | 0.00 | 0.00 | 0.05 | 82 | 1021.0 |
| 20260905235053 | 13 | 322 | 4.8 | 6.4 | 0.00 | 0.00 | 0.05 | 82 | 1021.0 |
| 20260905235047 | 13 | 304 | 3.2 | 6.4 | 0.00 | 0.00 | 0.05 | 82 | 1021.0 |
| 20260905235021 | 13 | 318 | 3.2 | 6.4 | 0.00 | 0.00 | 0.05 | 81 | 1021.0 |
| 20260905235005 | 13 | 300 | 4.8 | 6.4 | 0.00 | 0.00 | 0.05 | 81 | 1021.0 |
| 20260905234950 | 13 | 278 | 4.8 | 4.8 | 0.00 | 0.00 | 0.05 | 81 | 1021.0 |
| 20260905234941 | 13 | 261 | 3.2 | 3.2 | 0.00 | 0.00 | 0.05 | 81 | 1021.0 |
| 20260905234934 | 13 | 261 | 3.2 | 4.8 | 0.00 | 0.00 | 0.05 | 81 | 1021.0 |
| 20260905234928 | 13 | 324 | 3.2 | 4.8 | 0.00 | 0.00 | 0.05 | 82 | 1021.0 |
| 20260905234901 | 13 | 322 | 3.2 | 4.8 | 0.00 | 0.00 | 0.05 | 82 | 1021.0 |
| 20260905234856 | 13 | 262 | 3.2 | 4.8 | 0.00 | 0.00 | 0.05 | 82 | 1021.0 |
| 20260905234829 | 13 | 305 | 3.2 | 4.8 | 0.00 | 0.00 | 0.05 | 82 | 1021.0 |
| 20260905234812 | 13 | 272 | 3.2 | 4.8 | 0.00 | 0.00 | 0.05 | 82 | 1021.0 |
| 20260905234757 | 13 | 341 | 3.2 | 3.2 | 0.00 | 0.00 | 0.05 | 82 | 1021.0 |
| 20260905234742 | 13 | 1 | 3.2 | 3.2 | 0.00 | 0.00 | 0.05 | 82 | 1021.0 |
| 20260905234725 | 13 | 318 | 0.0 | 3.2 | 0.00 | 0.00 | 0.05 | 82 | 1021.0 |
| 20260905234709 | 13 | 7 | 1.6 | 3.2 | 0.00 | 0.00 | 0.05 | 82 | 1021.0 |
| 20260905234702 | 13 | 7 | 1.6 | 4.8 | 0.00 | 0.00 | 0.05 | 82 | 1021.0 |
| 20260905234645 | 13 | 313 | 1.6 | 4.8 | 0.00 | 0.00 | 0.05 | 82 | 1021.0 |
| 20260905234629 | 13 | 353 | 0.0 | 4.8 | 0.00 | 0.00 | 0.05 | 82 | 1021.0 |
| 20260905234613 | 13 | 44 | 1.6 | 4.8 | 0.00 | 0.00 | 0.05 | 82 | 1021.0 |
| 20260905234602 | 13 | 14 | 1.6 | 4.8 | 0.00 | 0.00 | 0.05 | 82 | 1021.0 |
| 20260905234525 | 13 | 288 | 4.8 | 4.8 | 0.00 | 0.00 | 0.05 | 82 | 1021.0 |
| 20260905234509 | 13 | 309 | 1.6 | 4.8 | 0.00 | 0.00 | 0.05 | 82 | 1021.0 |
| 20260905234501 | 13 | 324 | 0.0 | 4.8 | 0.00 | 0.00 | 0.05 | 82 | 1021.0 |
| 20260905234454 | 13 | 324 | 0.0 | 4.8 | 0.00 | 0.00 | 0.05 | 82 | 1021.0 |
| 20260905234437 | 13 | 312 | 1.6 | 4.8 | 0.00 | 0.00 | 0.05 | 82 | 1021.0 |
| 20260905234421 | 13 | 33 | 4.8 | 4.8 | 0.00 | 0.00 | 0.05 | 82 | 1021.0 |
| 20260905234413 | 13 | 5 | 3.2 | 4.8 | 0.00 | 0.00 | 0.05 | 82 | 1021.0 |
| 20260905234405 | 13 | 5 | 3.2 | 4.8 | 0.00 | 0.00 | 0.05 | 81 | 1021.0 |
| 20260905234349 | 13 | 5 | 3.2 | 4.8 | 0.00 | 0.00 | 0.05 | 81 | 1021.0 |
| 20260905234333 | 13 | 304 | 1.6 | 4.8 | 0.00 | 0.00 | 0.05 | 81 | 1021.0 |
| 20260905234317 | 13 | 337 | 3.2 | 4.8 | 0.00 | 0.00 | 0.05 | 81 | 1021.0 |
| 20260905234310 | 13 | 316 | 0.0 | 4.8 | 0.00 | 0.00 | 0.05 | 81 | 1021.0 |
| 20260905234301 | 13 | 316 | 0.0 | 9.7 | 0.00 | 0.00 | 0.05 | 81 | 1021.0 |
| 20260905234239 | 13 | 323 | 0.0 | 9.7 | 0.00 | 0.00 | 0.05 | 81 | 1021.0 |
| 20260905234221 | 13 | 339 | 4.8 | 9.7 | 0.00 | 0.00 | 0.05 | 81 | 1021.0 |
| 20260905234205 | 13 | 36 | 3.2 | 9.7 | 0.00 | 0.00 | 0.05 | 81 | 1021.0 |
| 20260905234149 | 13 | 347 | 3.2 | 9.7 | 0.00 | 0.00 | 0.05 | 81 | 1021.0 |
| 20260905234133 | 13 | 295 | 4.8 | 9.7 | 0.00 | 0.00 | 0.05 | 81 | 1021.0 |
| 20260905234127 | 13 | 336 | 6.4 | 9.7 | 0.00 | 0.00 | 0.05 | 81 | 1021.0 |
| 20260905234101 | 13 | 325 | 1.6 | 3.2 | 0.00 | 0.00 | 0.05 | 81 | 1021.0 |
| 20260905234045 | 13 | 325 | 1.6 | 3.2 | 0.00 | 0.00 | 0.05 | 81 | 1021.0 |
| 20260905234029 | 13 | 356 | 3.2 | 4.8 | 0.00 | 0.00 | 0.05 | 81 | 1021.0 |
| 20260905234015 | 13 | 313 | 3.2 | 4.8 | 0.00 | 0.00 | 0.05 | 81 | 1021.0 |
| 20260905233957 | 13 | 322 | 1.6 | 4.8 | 0.00 | 0.00 | 0.05 | 81 | 1021.0 |